# Wetter Temperatur Luftdruck Luftfeuchtigkeit Sichtweite Windgeschwindigkeit Windrichtung Zeit
1 Rain 22 1013 83 10000 1 270 07:18 11.07.2020
2 Rain 22 1013 88 10000 2.1 280 06:26 11.07.2020
3 Rain 22 1012 88 10000 1.5 240 05:54 11.07.2020
4 Rain 22 1012 88 10000 1.5 250 05:19 11.07.2020
5 Rain 22 1012 88 10000 2.1 240 04:44 11.07.2020
6 Rain 23 1012 83 10000 2.1 240 04:19 11.07.2020
7 Clouds 24 1013 83 10000 0.5 210 02:53 11.07.2020
8 Rain 24 1013 73 10000 1.5 300 01:57 11.07.2020
9 Rain 24 1013 69 10000 3.1 340 01:22 11.07.2020
10 Rain 24 1013 69 10000 2.6 310 00:55 11.07.2020
11 Rain 24 1013 69 10000 2.6 310 00:36 11.07.2020
12 Rain 25 1014 69 10000 2.6 260 00:18 11.07.2020
13 Rain 26 1014 65 10000 2.1 230 23:44 10.07.2020
14 Rain 26 1013 61 10000 1.5 330 23:26 10.07.2020
15 Rain 27 1013 65 10000 1.5 270 22:55 10.07.2020
16 Rain 27 1013 65 10000 1.5 270 22:36 10.07.2020
17 Rain 27 1012 61 10000 1.5 260 22:18 10.07.2020
18 Rain 28 1012 58 10000 1.5 230 21:38 10.07.2020
19 Rain 29 1012 51 10000 2.1 220 21:20 10.07.2020
20 Rain 30 1012 51 10000 2.1 210 20:55 10.07.2020
21 Rain 30 1012 51 10000 2.1 210 20:36 10.07.2020
22 Clouds 31 1012 45 10000 1.5 220 20:18 10.07.2020
23 Clouds 31 1012 40 10000 1.5 0 19:43 10.07.2020
24 Clear 31 1012 38 10000 1.5 220 19:22 10.07.2020
25 Clear 32 1012 40 10000 2.1 220 18:58 10.07.2020
26 Clear 32 1012 40 10000 2.1 220 18:58 10.07.2020
27 Clear 32 1012 40 10000 2.1 220 18:37 10.07.2020
28 Clear 32 1013 43 10000 0.5 0 18:18 10.07.2020
29 Clear 32 1013 46 10000 2.1 260 17:43 10.07.2020
30 Clear 32 1013 43 10000 2.1 220 17:24 10.07.2020
31 Clear 32 1013 45 10000 2.6 190 16:57 10.07.2020
32 Clear 32 1013 45 10000 2.6 190 16:39 10.07.2020
33 Clear 31 1013 52 10000 3.1 150 16:18 10.07.2020
34 Clear 31 1014 45 10000 2.1 0 15:44 10.07.2020
35 Clear 31 1014 52 10000 2.6 170 15:21 10.07.2020
36 Clouds 31 1014 48 10000 1 0 14:54 10.07.2020
37 Clear 31 1015 51 10000 1 0 14:36 10.07.2020
38 Clear 31 1015 51 10000 1 0 14:18 10.07.2020
39 Clear 30 1015 48 10000 2.1 170 13:54 10.07.2020
40 Clear 30 1015 48 10000 2.1 170 13:36 10.07.2020
41 Clear 30 1015 51 10000 2.1 0 13:18 10.07.2020
42 Clear 29 1015 54 10000 1 0 12:42 10.07.2020
43 Clear 29 1015 54 10000 1.5 0 12:23 10.07.2020
44 Clear 29 1015 58 10000 1 0 11:58 10.07.2020
45 Clear 28 1016 54 10000 1 0 11:38 10.07.2020
46 Clear 28 1016 54 10000 1 0 11:18 10.07.2020
47 Clear 27 1016 65 10000 2.1 180 10:41 10.07.2020
48 Clear 27 1016 65 10000 2.1 180 10:21 10.07.2020
49 Clear 26 1016 65 10000 1.5 0 09:56 10.07.2020
50 Clear 26 1016 65 10000 1.5 0 09:36 10.07.2020
51 Clear 25 1015 65 10000 2.6 130 09:18 10.07.2020
52 Clear 24 1015 69 10000 2.1 130 08:54 10.07.2020
53 Clear 24 1015 69 10000 2.1 130 08:36 10.07.2020
54 Clouds 24 1015 69 10000 0.5 0 08:18 10.07.2020
55 Clouds 24 1015 78 10000 1.5 40 07:41 10.07.2020
56 Clouds 23 1015 78 10000 2.1 30 07:20 10.07.2020
57 Clouds 23 1015 83 10000 1.5 40 06:45 10.07.2020
58 Clouds 23 1015 83 10000 1 40 05:54 10.07.2020
59 Clouds 23 1015 83 10000 1 0 04:31 10.07.2020
60 Clouds 24 1016 78 10000 1 0 03:26 10.07.2020
61 Clouds 25 1017 53 0 0.89 25 02:48 10.07.2020
62 Clouds 24 1016 94 10000 0.5 0 01:39 10.07.2020
63 Clouds 25 1016 94 10000 0.5 330 00:40 10.07.2020
64 Clouds 25 1016 83 10000 0.5 0 00:18 10.07.2020
65 Clouds 26 1016 73 10000 1 190 23:43 09.07.2020
66 Clouds 25 1015 83 10000 1 150 23:20 09.07.2020
67 Clouds 26 1015 83 10000 1 150 22:57 09.07.2020
68 Clouds 26 1015 83 10000 0.5 190 22:39 09.07.2020
69 Clouds 27 1015 73 10000 1 0 22:20 09.07.2020
70 Clouds 27 1015 61 10000 1 0 21:55 09.07.2020
71 Clouds 27 1015 61 10000 1 0 21:37 09.07.2020
72 Clouds 28 1015 57 10000 0.5 0 21:18 09.07.2020
73 Clouds 28 1015 57 10000 0.5 0 21:18 09.07.2020
74 Clouds 29 1015 54 10000 1 0 20:42 09.07.2020
75 Clouds 28 1015 54 10000 1 0 20:42 09.07.2020
76 Clear 29 1015 48 10000 1 0 20:24 09.07.2020
77 Clear 30 1015 45 10000 1.5 210 19:56 09.07.2020
78 Clear 30 1015 45 10000 1.5 210 19:38 09.07.2020
79 Clear 30 1015 48 10000 1 0 19:19 09.07.2020
80 Clear 30 1015 45 10000 2.1 240 18:41 09.07.2020
81 Clear 30 1016 45 10000 2.6 270 18:20 09.07.2020
82 Clear 30 1016 40 10000 2.1 180 17:55 09.07.2020
83 Clear 31 1016 40 10000 2.1 180 17:37 09.07.2020
84 Clear 31 1016 42 10000 2.6 0 17:18 09.07.2020
85 Clear 30 1016 42 10000 2.1 0 16:44 09.07.2020
86 Clear 30 1016 45 10000 1.5 0 16:20 09.07.2020
87 Clear 30 1017 45 10000 2.1 220 15:59 09.07.2020
88 Clear 30 1017 45 10000 2.1 220 15:41 09.07.2020
89 Clear 30 1017 45 10000 1.5 0 15:23 09.07.2020
90 Clear 29 1017 45 10000 1.5 160 14:59 09.07.2020
91 Clear 30 1017 45 10000 1.5 160 14:40 09.07.2020
92 Clear 29 1017 45 10000 2.1 160 14:22 09.07.2020
93 Clear 29 1017 45 10000 1.5 0 13:57 09.07.2020
94 Clear 29 1017 45 10000 1.5 0 13:57 09.07.2020
95 Clear 29 1017 45 10000 1.5 0 13:38 09.07.2020
96 Clear 28 1018 42 10000 1 0 13:20 09.07.2020
97 Clear 28 1018 42 10000 1 0 12:43 09.07.2020
98 Clear 28 1018 45 10000 2.1 190 12:24 09.07.2020
99 Clear 27 1018 54 10000 1 0 11:59 09.07.2020
100 Clear 27 1018 54 10000 1 0 11:41 09.07.2020
101 Clear 26 1018 54 10000 1.5 80 11:22 09.07.2020
102 Clear 26 1018 61 10000 1.5 0 10:58 09.07.2020
103 Clear 25 1018 61 10000 1.5 0 10:40 09.07.2020
104 Clear 25 1018 60 10000 2.1 100 10:21 09.07.2020
105 Clear 24 1018 64 10000 2.1 130 09:43 09.07.2020
106 Clear 23 1018 64 10000 2.6 130 09:23 09.07.2020
107 Clear 23 1018 68 10000 2.1 100 08:52 09.07.2020
108 Clouds 22 1017 68 10000 1.5 60 08:27 09.07.2020
109 Clouds 22 1017 73 10000 2.1 40 07:58 09.07.2020
110 Clouds 21 1017 73 10000 2.1 40 07:40 09.07.2020
111 Clouds 22 1017 72 10000 1.5 40 07:21 09.07.2020
112 Clouds 22 1017 72 10000 1.5 40 07:21 09.07.2020
113 Clouds 21 1017 77 10000 1.5 60 06:21 09.07.2020
114 Clouds 21 1017 72 10000 1.5 70 05:57 09.07.2020
115 Clouds 22 1017 88 10000 1 40 04:29 09.07.2020
116 Clouds 22 1016 72 0 1.35 151 03:22 09.07.2020
117 Clear 23 1016 69 0 1.58 147 01:56 09.07.2020
118 Clear 23 1017 82 10000 0.5 0 00:59 09.07.2020
119 Clear 24 1016 66 0 1.31 140 00:40 09.07.2020
120 Clear 24 1020 47 0 0.89 10 00:21 09.07.2020
121 Clear 24 1016 77 10000 1 180 23:43 08.07.2020
122 Clear 24 1016 77 10000 1 190 23:25 08.07.2020
123 Clear 24 1016 77 10000 0.5 0 22:56 08.07.2020
124 Clear 24 1016 78 10000 1 0 22:38 08.07.2020
125 Clear 24 1016 78 10000 1 0 22:19 08.07.2020
126 Clear 24 1016 64 10000 1 210 21:55 08.07.2020
127 Clear 25 1016 64 10000 1 210 21:36 08.07.2020
128 Clear 26 1016 53 10000 1.5 190 21:18 08.07.2020
129 Clear 26 1015 50 10000 1.5 190 20:41 08.07.2020
130 Clear 27 1015 44 10000 1.5 180 20:23 08.07.2020
131 Clear 27 1015 42 10000 2.1 190 19:55 08.07.2020
132 Clear 27 1015 42 10000 2.1 190 19:37 08.07.2020
133 Clear 28 1016 42 10000 1 0 19:18 08.07.2020
134 Clear 28 1016 42 10000 2.1 180 18:41 08.07.2020
135 Clear 28 1016 39 10000 1 0 18:21 08.07.2020
136 Clear 28 1016 39 10000 1 0 17:57 08.07.2020
137 Clear 28 1016 39 10000 1 0 17:38 08.07.2020
138 Clear 29 1016 39 10000 2.1 90 17:20 08.07.2020
139 Clear 29 1016 39 10000 2.1 90 16:57 08.07.2020
140 Clear 28 1017 42 10000 2.6 80 16:38 08.07.2020
141 Clear 28 1017 44 10000 1.5 0 16:18 08.07.2020
142 Clear 28 1017 39 10000 1.5 0 15:56 08.07.2020
143 Clear 28 1017 39 10000 1.5 0 15:38 08.07.2020
144 Clear 27 1017 39 10000 1.5 90 15:18 08.07.2020
145 Clear 27 1017 39 10000 1.5 90 14:42 08.07.2020
146 Clouds 27 1018 41 10000 1.5 0 14:21 08.07.2020
147 Clouds 27 1018 41 10000 2.1 100 13:46 08.07.2020
148 Clouds 26 1018 41 10000 2.6 110 13:28 08.07.2020
149 Clouds 26 1018 44 10000 2.6 160 12:58 08.07.2020
150 Clouds 26 1018 44 10000 2.6 160 12:40 08.07.2020
151 Clouds 25 1018 41 10000 2.6 140 12:19 08.07.2020
152 Clouds 25 1018 44 10000 3.1 140 11:39 08.07.2020
153 Clouds 25 1018 47 10000 3.1 150 11:21 08.07.2020
154 Clouds 25 1018 47 10000 3.1 120 10:59 08.07.2020
155 Clouds 24 1018 47 10000 3.1 120 10:41 08.07.2020
156 Clouds 24 1018 44 10000 2.6 130 10:22 08.07.2020
157 Clouds 24 1018 46 10000 2.6 120 09:44 08.07.2020
158 Clouds 23 1018 53 10000 2.1 80 09:24 08.07.2020
159 Clouds 22 1018 49 10000 2.6 90 08:44 08.07.2020
160 Clouds 22 1018 52 10000 2.1 80 08:25 08.07.2020
161 Clouds 21 1018 52 10000 2.1 120 07:48 08.07.2020
162 Clouds 21 1018 49 10000 1.5 90 07:24 08.07.2020
163 Clouds 21 1018 52 10000 1.5 70 06:57 08.07.2020
164 Clouds 21 1018 52 10000 1.5 70 06:37 08.07.2020
165 Clouds 20 1017 52 10000 1.5 70 06:19 08.07.2020
166 Clear 21 1017 56 10000 1.5 60 05:33 08.07.2020
167 Clear 21 1017 56 10000 1.5 80 04:37 08.07.2020
168 Clear 21 1018 56 10000 2.1 60 02:49 08.07.2020
169 Clouds 21 1017 52 10000 2.1 80 01:54 08.07.2020
170 Clouds 22 1017 46 10000 2.1 120 01:32 08.07.2020
171 Clouds 23 1017 56 10000 2.6 110 00:28 08.07.2020
172 Clouds 23 1017 60 10000 2.1 90 23:59 07.07.2020
173 Clouds 23 1017 60 10000 2.1 90 23:41 07.07.2020
174 Clouds 23 1017 56 10000 1.5 110 23:19 07.07.2020
175 Clouds 23 1016 56 10000 2.1 110 22:44 07.07.2020
176 Clouds 24 1016 50 10000 2.1 120 22:24 07.07.2020
177 Clouds 24 1015 50 10000 2.6 120 21:59 07.07.2020
178 Clouds 24 1015 50 10000 2.6 120 21:40 07.07.2020
179 Clouds 24 1015 50 10000 3.6 140 21:21 07.07.2020
180 Clouds 25 1015 47 10000 3.6 150 20:57 07.07.2020
181 Clouds 25 1015 47 10000 3.6 150 20:39 07.07.2020
182 Clouds 25 1015 44 10000 3.1 110 20:21 07.07.2020
183 Clouds 26 1015 44 10000 3.1 90 19:41 07.07.2020
184 Clouds 26 1015 44 10000 3.1 120 19:21 07.07.2020
185 Clouds 26 1015 44 10000 1.5 100 18:58 07.07.2020
186 Clouds 26 1015 44 10000 1.5 100 18:40 07.07.2020
187 Clouds 26 1015 47 10000 4.1 120 18:21 07.07.2020
188 Clouds 26 1016 47 10000 3.1 0 17:58 07.07.2020
189 Clouds 26 1016 47 10000 3.1 0 17:38 07.07.2020
190 Clouds 26 1016 47 10000 3.1 140 17:20 07.07.2020
191 Clouds 26 1016 44 10000 4.1 170 16:43 07.07.2020
192 Clouds 26 1016 47 10000 4.1 150 16:24 07.07.2020
193 Clouds 26 1016 47 10000 5.1 130 15:58 07.07.2020
194 Clouds 25 1016 47 10000 5.1 130 15:39 07.07.2020
195 Clouds 26 1016 50 10000 5.1 140 15:20 07.07.2020
196 Clouds 25 1017 50 10000 5.1 130 14:47 07.07.2020
197 Clouds 24 1017 50 10000 5.7 140 14:26 07.07.2020
198 Clouds 24 1017 47 10000 6.7 140 13:57 07.07.2020
199 Clouds 24 1017 47 10000 6.7 140 13:38 07.07.2020
200 Clouds 25 1017 47 10000 6.7 130 13:18 07.07.2020
201 Clouds 24 1017 53 10000 6.7 120 12:40 07.07.2020
202 Clouds 24 1017 57 10000 7.2 130 12:22 07.07.2020
203 Clouds 23 1017 64 10000 5.7 130 11:50 07.07.2020
204 Clouds 23 1017 69 10000 6.2 130 11:26 07.07.2020
205 Clouds 23 1016 64 10000 6.7 110 10:59 07.07.2020
206 Clouds 23 1016 64 10000 6.7 110 10:41 07.07.2020
207 Rain 23 1016 60 10000 7.2 120 10:21 07.07.2020
208 Clouds 22 1016 73 10000 7.2 120 09:55 07.07.2020
209 Clouds 22 1016 73 10000 7.2 120 09:37 07.07.2020
210 Clouds 22 1016 73 10000 7.2 120 09:37 07.07.2020
211 Clouds 22 1015 69 10000 6.7 120 09:18 07.07.2020
212 Clouds 22 1015 73 10000 6.7 120 08:40 07.07.2020
213 Clouds 22 1014 83 10000 5.1 120 08:21 07.07.2020
214 Clouds 22 1013 73 10000 7.7 110 07:41 07.07.2020
215 Rain 23 1013 60 10000 3.6 110 07:21 07.07.2020
216 Rain 23 1012 43 10000 1.5 30 06:49 07.07.2020
217 Clouds 22 1011 52 10000 1 0 06:28 07.07.2020
218 Clouds 22 1011 40 10000 1.5 190 05:51 07.07.2020
219 Clear 22 1010 42 10000 1 0 05:20 07.07.2020
220 Clear 23 1009 33 10000 2.6 350 04:36 07.07.2020
221 Clear 24 1009 25 10000 4.6 350 03:35 07.07.2020
222 Clear 25 1008 26 10000 5.1 360 02:18 07.07.2020
223 Clear 26 1007 28 10000 5.1 360 01:21 07.07.2020
224 Clear 26 1007 32 10000 4.6 350 00:42 07.07.2020
225 Clouds 27 1007 44 10000 3.6 340 00:23 07.07.2020
226 Clouds 27 1007 44 10000 3.6 340 00:23 07.07.2020
227 Clouds 28 1007 42 10000 4.1 350 23:45 06.07.2020
228 Clouds 28 1007 58 10000 2.1 310 23:26 06.07.2020
229 Clouds 28 1006 65 10000 2.1 260 22:59 06.07.2020
230 Clouds 29 1006 65 10000 2.1 260 22:40 06.07.2020
231 Clouds 29 1006 65 10000 1 0 22:19 06.07.2020
232 Clouds 29 1006 62 10000 1 0 21:57 06.07.2020
233 Clouds 30 1006 62 10000 1 0 21:37 06.07.2020
234 Clouds 30 1006 58 10000 1.5 220 21:19 06.07.2020
235 Clouds 30 1006 58 10000 1.5 220 21:19 06.07.2020
236 Clouds 30 1006 55 10000 1.5 220 20:55 06.07.2020
237 Clouds 30 1006 55 10000 2.1 210 20:36 06.07.2020
238 Clouds 31 1006 55 10000 2.1 210 20:18 06.07.2020
239 Clear 31 1006 52 10000 1.5 250 19:42 06.07.2020
240 Clear 32 1006 52 10000 1.5 0 19:23 06.07.2020
241 Clear 32 1006 52 10000 1.5 220 18:59 06.07.2020
242 Clear 32 1006 52 10000 1.5 220 18:59 06.07.2020
243 Clear 32 1006 52 10000 1.5 220 18:41 06.07.2020
244 Clear 32 1006 52 10000 1.5 220 18:41 06.07.2020
245 Clear 32 1007 46 10000 2.1 230 18:22 06.07.2020
246 Clear 32 1007 46 10000 2.1 170 17:57 06.07.2020
247 Clear 32 1007 46 10000 2.1 170 17:38 06.07.2020
248 Clear 32 1007 49 10000 2.1 220 17:19 06.07.2020
249 Clear 32 1007 55 10000 2.6 190 16:43 06.07.2020
250 Clear 32 1008 55 10000 2.6 160 16:23 06.07.2020
251 Clear 32 1008 52 10000 1.5 0 15:57 06.07.2020
252 Clear 31 1008 52 10000 1.5 0 15:38 06.07.2020
253 Clouds 31 1009 52 10000 2.6 0 15:19 06.07.2020
254 Clouds 31 1009 58 10000 2.6 150 14:41 06.07.2020
255 Clouds 31 1009 55 10000 1.5 0 14:23 06.07.2020
256 Clouds 31 1010 58 10000 1 0 13:59 06.07.2020
257 Clouds 30 1010 51 10000 1.5 0 13:40 06.07.2020
258 Clouds 30 1010 51 10000 1.5 0 13:21 06.07.2020
259 Clouds 30 1010 55 10000 2.1 200 12:44 06.07.2020
260 Clouds 29 1010 62 10000 3.1 150 12:20 06.07.2020
261 Clouds 29 1011 58 10000 1 0 11:59 06.07.2020
262 Clouds 29 1011 58 10000 1 0 11:40 06.07.2020
263 Clear 29 1011 58 10000 1 0 11:22 06.07.2020
264 Clear 28 1011 61 10000 1 0 10:58 06.07.2020
265 Clear 28 1011 61 10000 1 0 10:39 06.07.2020
266 Clear 28 1011 66 0 1.17 205 10:18 06.07.2020
267 Clear 26 1011 69 10000 1 0 09:45 06.07.2020
268 Clear 26 1011 69 10000 0.5 0 09:22 06.07.2020
269 Clear 25 1011 73 10000 0.5 0 08:58 06.07.2020
270 Clear 25 1011 73 10000 0.5 0 08:39 06.07.2020
271 Clear 25 1012 78 10000 1 50 08:20 06.07.2020
272 Clear 24 1012 83 10000 1 0 07:47 06.07.2020
273 Clear 24 1012 83 10000 1 0 07:47 06.07.2020
274 Clear 24 1012 88 10000 1 0 07:28 06.07.2020
275 Clear 23 1012 88 10000 1 0 06:42 06.07.2020
276 Clear 23 1012 94 10000 1 0 06:24 06.07.2020
277 Clear 23 1012 82 0 0.84 160 05:42 06.07.2020
278 Clear 23 1012 83 0 0.79 171 05:22 06.07.2020
279 Clear 24 1016 64 0 0.89 337 03:52 06.07.2020
280 Clear 25 1013 76 0 1.22 156 02:24 06.07.2020
281 Clear 25 1013 74 0 1.22 156 01:42 06.07.2020
282 Clear 26 1013 70 0 0.55 181 00:39 06.07.2020
283 Clear 26 1013 69 0 0.31 242 00:20 06.07.2020
284 Clear 26 1013 67 0 0.31 242 23:44 05.07.2020
285 Clear 27 1016 48 0 0.89 131 23:26 05.07.2020
286 Clear 26 1014 83 10000 1 210 22:59 05.07.2020
287 Clear 27 1013 64 0 0.4 205 22:40 05.07.2020
288 Clear 27 1014 69 10000 1 190 22:20 05.07.2020
289 Clear 28 1014 69 10000 1.5 200 21:57 05.07.2020
290 Clear 28 1015 45 0 0.89 184 21:39 05.07.2020
291 Clear 28 1014 61 10000 2.1 180 21:18 05.07.2020
292 Clear 28 1014 58 10000 2.1 180 20:58 05.07.2020
293 Clear 29 1014 58 10000 2.1 180 20:39 05.07.2020
294 Clear 29 1014 54 10000 2.1 170 20:20 05.07.2020
295 Clear 30 1014 54 10000 2.1 190 19:43 05.07.2020
296 Clear 30 1014 48 10000 2.1 160 19:21 05.07.2020
297 Clear 30 1014 48 10000 2.1 150 18:58 05.07.2020
298 Clear 30 1014 48 10000 2.1 150 18:58 05.07.2020
299 Clear 30 1014 48 10000 2.1 150 18:39 05.07.2020
300 Clear 30 1014 48 10000 2.1 110 18:20 05.07.2020
301 Clouds 30 1014 48 10000 2.6 180 17:54 05.07.2020
302 Clouds 30 1014 48 10000 2.6 180 17:36 05.07.2020
303 Clouds 31 1015 51 10000 2.1 0 17:18 05.07.2020
304 Clouds 30 1015 51 10000 1.5 0 16:41 05.07.2020
305 Clouds 31 1015 51 10000 0.5 0 16:23 05.07.2020
306 Clouds 30 1016 51 10000 2.1 180 15:41 05.07.2020
307 Clouds 30 1016 54 10000 2.1 160 15:20 05.07.2020
308 Clouds 30 1017 54 10000 2.1 0 14:59 05.07.2020
309 Clouds 29 1017 54 10000 2.1 0 14:40 05.07.2020
310 Clouds 30 1017 51 10000 1 0 14:20 05.07.2020
311 Clouds 30 1017 51 10000 1 0 14:20 05.07.2020
312 Clear 29 1017 54 10000 3.1 100 13:41 05.07.2020
313 Clear 29 1017 54 10000 2.1 190 13:23 05.07.2020
314 Clear 29 1017 51 10000 1.5 0 12:46 05.07.2020
315 Clear 28 1017 54 10000 2.1 0 12:25 05.07.2020
316 Clear 28 1017 57 10000 1 0 11:58 05.07.2020
317 Clear 27 1017 57 10000 1 0 11:39 05.07.2020
318 Clear 27 1017 57 10000 2.1 150 11:21 05.07.2020
319 Clear 27 1017 61 10000 2.1 100 10:57 05.07.2020
320 Clear 26 1017 61 10000 2.1 100 10:38 05.07.2020
321 Clear 26 1018 69 10000 1.5 80 10:19 05.07.2020
322 Clear 24 1018 69 10000 1.5 80 09:42 05.07.2020
323 Clear 24 1017 73 10000 1.5 80 09:21 05.07.2020
324 Clear 24 1017 73 10000 1.5 80 08:58 05.07.2020
325 Clear 23 1017 73 10000 1.5 80 08:38 05.07.2020
326 Clear 23 1017 73 10000 1.5 80 08:38 05.07.2020
327 Clear 23 1017 73 10000 1.5 80 08:38 05.07.2020
328 Clouds 23 1017 78 10000 2.1 90 08:19 05.07.2020
329 Clouds 22 1017 78 10000 1.5 40 07:43 05.07.2020
330 Clouds 22 1017 88 10000 1 0 07:22 05.07.2020
331 Clouds 22 1017 88 10000 1 360 06:47 05.07.2020
332 Clouds 22 1016 81 0 1.08 151 04:37 05.07.2020
333 Clear 23 1016 79 0 0.91 176 03:19 05.07.2020
334 Clear 22 1017 94 10000 0.5 0 02:41 05.07.2020
335 Clouds 23 1016 77 0 0.7 139 01:59 05.07.2020
336 Clouds 24 1016 77 0 0.72 151 01:28 05.07.2020
337 Clouds 24 1019 53 0 0.89 135 00:52 05.07.2020
338 Clouds 24 1016 74 0 0.66 185 00:31 05.07.2020
339 Clouds 24 1016 71 0 0.66 185 23:57 04.07.2020
340 Clouds 25 1016 67 0 0.95 193 23:33 04.07.2020
341 Clouds 25 1017 83 10000 0.5 0 22:59 04.07.2020
342 Clouds 25 1017 73 10000 1 210 22:41 04.07.2020
343 Clouds 25 1016 73 10000 1.5 210 22:23 04.07.2020
344 Clouds 26 1016 65 10000 1.5 200 21:58 04.07.2020
345 Clouds 26 1016 65 10000 1.5 200 21:40 04.07.2020
346 Clear 26 1015 61 10000 2.1 190 21:22 04.07.2020
347 Clouds 27 1015 54 10000 3.1 190 20:43 04.07.2020
348 Clouds 28 1015 51 10000 2.6 210 20:21 04.07.2020
349 Clouds 28 1016 51 10000 2.6 210 19:58 04.07.2020
350 Clouds 28 1016 54 10000 2.1 240 19:39 04.07.2020
351 Clouds 28 1016 54 10000 2.1 240 19:20 04.07.2020
352 Clouds 29 1016 48 10000 1.5 0 18:44 04.07.2020
353 Clouds 29 1016 48 10000 2.1 210 18:23 04.07.2020
354 Clouds 28 1016 51 10000 2.1 220 17:46 04.07.2020
355 Clouds 28 1016 51 10000 2.1 220 17:28 04.07.2020
356 Clouds 28 1016 51 10000 1.5 0 16:59 04.07.2020
357 Clouds 28 1016 51 10000 1.5 0 16:40 04.07.2020
358 Clouds 29 1017 51 10000 1.5 0 16:21 04.07.2020
359 Clouds 28 1017 51 10000 1.5 0 15:58 04.07.2020
360 Clouds 28 1017 51 10000 2.1 0 15:40 04.07.2020
361 Clouds 28 1017 51 10000 1 0 15:21 04.07.2020
362 Clouds 28 1018 54 10000 1.5 0 14:56 04.07.2020
363 Clouds 27 1018 57 10000 2.6 170 14:37 04.07.2020
364 Clouds 28 1018 57 10000 2.6 170 14:18 04.07.2020
365 Clouds 27 1018 54 10000 2.1 200 13:41 04.07.2020
366 Clouds 26 1018 61 10000 1.5 0 13:19 04.07.2020
367 Clouds 26 1018 57 10000 1.5 0 12:55 04.07.2020
368 Clouds 26 1018 54 10000 2.1 210 12:37 04.07.2020
369 Clouds 26 1018 54 10000 2.1 210 12:18 04.07.2020
370 Clear 26 1018 61 10000 1.5 0 11:42 04.07.2020
371 Clear 25 1018 61 10000 1 0 11:22 04.07.2020
372 Clear 24 1018 61 10000 1 0 10:55 04.07.2020
373 Clear 25 1018 61 10000 1 0 10:36 04.07.2020
374 Clear 25 1018 61 10000 1 0 10:36 04.07.2020
375 Clear 24 1018 64 10000 1 0 10:18 04.07.2020
376 Clear 22 1018 69 10000 1.5 330 09:40 04.07.2020
377 Clear 22 1018 73 10000 1.5 360 09:21 04.07.2020
378 Clear 21 1018 73 10000 1.5 360 08:57 04.07.2020
379 Clear 20 1018 77 10000 1.5 340 08:39 04.07.2020
380 Clouds 19 1018 82 10000 2.1 340 08:19 04.07.2020
381 Clouds 19 1018 88 10000 1.5 340 07:39 04.07.2020
382 Clouds 18 1018 93 10000 2.1 310 06:59 04.07.2020
383 Clouds 17 1018 93 10000 1 0 06:37 04.07.2020
384 Clouds 17 1018 93 10000 1 0 06:18 04.07.2020
385 Clouds 17 1018 61 10000 1.5 250 05:24 04.07.2020
386 Clouds 18 1017 100 10000 2.6 250 03:49 04.07.2020
387 Clouds 18 1017 93 10000 3.1 30 02:40 04.07.2020
388 Rain 18 1018 88 10000 2.6 80 01:39 04.07.2020
389 Rain 18 1017 88 10000 2.1 320 00:47 04.07.2020
390 Rain 18 1017 93 10000 3.6 300 00:29 04.07.2020
391 Rain 18 1018 100 10000 3.6 260 23:54 03.07.2020
392 Rain 18 1018 100 10000 3.6 260 23:36 03.07.2020
393 Rain 18 1018 100 10000 3.6 260 23:36 03.07.2020
394 Rain 18 1018 100 10000 3.6 260 23:36 03.07.2020
395 Thunderstorm 18 1018 88 8000 3.6 250 23:18 03.07.2020
396 Clouds 19 1016 82 10000 4.1 310 22:41 03.07.2020
397 Clouds 19 1016 82 10000 4.1 310 22:41 03.07.2020
398 Drizzle 20 1015 88 10000 1.5 330 22:23 03.07.2020
399 Thunderstorm 19 1014 93 10000 2.1 290 21:56 03.07.2020
400 Thunderstorm 19 1014 93 10000 2.1 290 21:37 03.07.2020
401 Thunderstorm 21 1014 88 10000 3.1 350 21:18 03.07.2020
402 Thunderstorm 21 1013 82 8000 6.2 360 20:42 03.07.2020
403 Thunderstorm 21 1013 77 3500 8.7 30 20:24 03.07.2020
404 Thunderstorm 23 1013 56 10000 10.8 20 19:42 03.07.2020
405 Thunderstorm 25 1012 61 10000 4.1 100 19:22 03.07.2020
406 Clouds 27 1011 54 10000 6.2 110 18:59 03.07.2020
407 Clouds 27 1011 58 10000 5.7 130 18:41 03.07.2020
408 Clouds 28 1011 58 10000 5.7 130 18:22 03.07.2020
409 Clouds 29 1011 51 10000 7.2 140 17:46 03.07.2020
410 Clouds 29 1011 54 10000 6.2 150 17:23 03.07.2020
411 Clouds 29 1011 54 10000 6.2 150 16:59 03.07.2020
412 Clouds 29 1011 48 10000 5.1 130 16:39 03.07.2020
413 Clouds 29 1011 51 10000 3.6 130 16:19 03.07.2020
414 Clouds 29 1011 55 10000 4.1 80 15:39 03.07.2020
415 Clouds 30 1011 51 10000 3.1 120 15:20 03.07.2020
416 Clouds 29 1011 51 10000 3.1 0 14:55 03.07.2020
417 Clouds 29 1011 51 10000 3.1 0 14:36 03.07.2020
418 Clouds 29 1011 51 10000 3.1 0 14:36 03.07.2020
419 Clouds 29 1012 48 10000 2.1 120 14:18 03.07.2020
420 Clouds 29 1012 54 10000 2.1 150 13:41 03.07.2020
421 Clouds 29 1012 58 10000 2.1 0 13:22 03.07.2020
422 Clouds 28 1012 58 10000 2.6 150 12:43 03.07.2020
423 Clouds 28 1012 54 10000 1.5 200 12:22 03.07.2020
424 Clouds 27 1012 54 10000 2.1 140 11:54 03.07.2020
425 Clouds 27 1012 54 10000 2.1 140 11:36 03.07.2020
426 Clouds 26 1012 61 10000 1 0 11:18 03.07.2020
427 Clear 26 1012 65 10000 1 0 10:42 03.07.2020
428 Rain 25 1012 69 10000 0.5 0 10:21 03.07.2020
429 Rain 25 1012 69 10000 0.5 0 09:59 03.07.2020
430 Rain 25 1012 65 10000 0.5 0 09:39 03.07.2020
431 Rain 24 1012 69 10000 1.5 50 09:20 03.07.2020
432 Rain 24 1012 64 10000 2.1 50 08:56 03.07.2020
433 Rain 24 1012 64 10000 2.1 50 08:37 03.07.2020
434 Rain 23 1012 73 10000 2.1 50 08:18 03.07.2020
435 Rain 22 1012 73 10000 2.1 70 07:43 03.07.2020
436 Rain 22 1012 77 10000 2.6 50 07:21 03.07.2020
437 Rain 21 1011 82 10000 2.6 50 06:30 03.07.2020
438 Rain 21 1011 77 10000 2.1 70 05:34 03.07.2020
439 Rain 21 1011 77 10000 2.6 100 03:59 03.07.2020
440 Rain 22 1010 82 10000 0.5 0 02:52 03.07.2020
441 Rain 22 1011 77 10000 1.5 150 02:30 03.07.2020
442 Rain 22 1010 68 10000 1.5 110 01:41 03.07.2020
443 Rain 23 1010 68 10000 1.5 110 01:20 03.07.2020
444 Rain 23 1010 73 10000 2.6 50 00:40 03.07.2020
445 Rain 24 1010 73 10000 4.1 80 23:54 02.07.2020
446 Rain 24 1010 73 10000 4.1 80 23:54 02.07.2020
447 Clouds 24 1011 69 10000 3.1 60 23:22 02.07.2020
448 Clouds 24 1009 69 10000 3.1 360 22:59 02.07.2020
449 Clouds 25 1009 69 10000 3.1 360 22:41 02.07.2020
450 Clouds 25 1008 61 10000 2.6 300 22:21 02.07.2020
451 Thunderstorm 25 1008 65 10000 5.1 250 22:00 02.07.2020
452 Thunderstorm 27 1008 65 10000 5.1 250 21:41 02.07.2020
453 Clouds 28 1008 61 10000 1.5 220 21:19 02.07.2020
454 Clouds 29 1008 61 10000 1.5 210 20:58 02.07.2020
455 Clouds 29 1008 61 10000 1.5 210 20:39 02.07.2020
456 Clouds 29 1009 58 10000 2.1 200 20:19 02.07.2020
457 Clouds 29 1009 55 10000 1.5 170 19:43 02.07.2020
458 Clouds 30 1008 45 10000 1.5 190 19:24 02.07.2020
459 Clouds 31 1008 51 10000 0.5 0 18:58 02.07.2020
460 Clouds 31 1008 51 10000 0.5 0 18:40 02.07.2020
461 Clouds 31 1008 45 10000 2.6 190 18:21 02.07.2020
462 Clouds 31 1008 48 10000 2.1 190 17:57 02.07.2020
463 Clouds 31 1008 48 10000 2.1 190 17:38 02.07.2020
464 Clouds 31 1009 52 10000 1.5 210 17:18 02.07.2020
465 Clouds 31 1009 52 10000 2.1 180 16:42 02.07.2020
466 Clouds 31 1009 48 10000 3.1 180 16:20 02.07.2020
467 Clouds 31 1010 52 10000 1.5 0 15:57 02.07.2020
468 Clouds 31 1010 52 10000 1.5 0 15:38 02.07.2020
469 Clouds 31 1010 52 10000 1.5 0 15:38 02.07.2020
470 Clouds 31 1010 55 10000 2.1 0 15:19 02.07.2020
471 Clear 30 1010 55 10000 1.5 0 14:45 02.07.2020
472 Clouds 30 1011 62 10000 2.6 250 14:22 02.07.2020
473 Clouds 30 1011 62 10000 1.5 260 13:57 02.07.2020
474 Clouds 29 1011 62 10000 1.5 260 13:38 02.07.2020
475 Clouds 29 1011 58 10000 1.5 220 13:18 02.07.2020
476 Clouds 29 1011 65 10000 2.1 230 12:41 02.07.2020
477 Clouds 28 1011 74 10000 1.5 0 12:22 02.07.2020
478 Clouds 28 1011 69 10000 3.1 200 11:59 02.07.2020
479 Clouds 27 1011 69 10000 3.1 200 11:40 02.07.2020
480 Clear 26 1011 74 10000 2.6 250 11:22 02.07.2020
481 Clear 26 1011 74 10000 1.5 230 10:43 02.07.2020
482 Clear 25 1011 78 10000 1 0 10:25 02.07.2020
483 Clear 25 1012 78 10000 0.5 0 09:55 02.07.2020
484 Clear 25 1012 78 10000 0.5 0 09:36 02.07.2020
485 Rain 24 1012 78 10000 0.5 0 09:18 02.07.2020
486 Rain 23 1012 83 10000 0.5 0 08:42 02.07.2020
487 Rain 22 1012 83 10000 0.5 0 08:21 02.07.2020
488 Clouds 22 1012 88 10000 1 0 07:43 02.07.2020
489 Rain 21 1012 100 10000 1 0 07:23 02.07.2020
490 Rain 21 1012 94 10000 1 180 06:53 02.07.2020
491 Rain 20 1012 94 10000 1 180 06:34 02.07.2020
492 Rain 21 1011 100 10000 1.5 210 05:50 02.07.2020
493 Rain 21 1011 94 10000 0.5 0 05:19 02.07.2020
494 Rain 21 1011 83 10000 1.5 230 03:35 02.07.2020
495 Rain 21 1012 77 10000 2.6 230 01:53 02.07.2020
496 Rain 24 1012 50 10000 3.1 260 00:45 02.07.2020
497 Rain 25 1012 53 10000 3.1 260 00:21 02.07.2020
498 Rain 25 1012 50 10000 3.1 270 23:45 01.07.2020
499 Clouds 25 1011 57 10000 2.1 240 23:26 01.07.2020
500 Rain 26 1011 61 10000 1.5 240 22:55 01.07.2020
501 Rain 26 1010 65 10000 2.1 260 22:37 01.07.2020
502 Rain 26 1010 65 10000 2.1 260 22:18 01.07.2020
503 Rain 26 1010 69 10000 1.5 240 21:56 01.07.2020
504 Clear 26 1010 69 10000 1.5 240 21:38 01.07.2020
505 Clear 26 1010 74 10000 2.6 260 21:19 01.07.2020
506 Clouds 27 1010 74 10000 2.6 250 20:46 01.07.2020
507 Clouds 27 1010 69 10000 2.6 230 20:26 01.07.2020
508 Rain 28 1010 65 10000 3.1 220 19:58 01.07.2020
509 Rain 29 1010 65 10000 3.1 220 19:39 01.07.2020
510 Clear 29 1009 66 10000 2.6 250 19:20 01.07.2020
511 Clear 29 1009 66 10000 2.6 250 19:20 01.07.2020
512 Clear 29 1010 62 10000 2.6 250 18:55 01.07.2020
513 Clear 30 1010 58 10000 2.1 0 18:37 01.07.2020
514 Clear 30 1010 58 10000 2.1 0 18:19 01.07.2020
515 Clear 29 1010 58 10000 2.6 220 17:41 01.07.2020
516 Clear 29 1011 58 10000 2.1 0 17:20 01.07.2020
517 Clear 29 1011 55 10000 1.5 230 16:49 01.07.2020
518 Clouds 29 1011 54 10000 1 0 16:29 01.07.2020
519 Clouds 30 1011 54 10000 1 0 15:59 01.07.2020
520 Clouds 29 1011 54 10000 1 0 15:40 01.07.2020
521 Clouds 30 1011 54 10000 1.5 0 15:21 01.07.2020
522 Clear 29 1011 58 10000 2.1 70 14:47 01.07.2020
523 Clouds 29 1012 58 10000 3.1 50 14:22 01.07.2020
524 Clouds 28 1012 61 10000 2.1 0 13:59 01.07.2020
525 Clouds 28 1012 61 10000 2.1 0 13:40 01.07.2020
526 Clouds 27 1012 69 10000 1.5 0 13:21 01.07.2020
527 Clouds 28 1014 46 0 2.24 352 13:21 01.07.2020
528 Clouds 27 1014 49 0 3.13 291 12:58 01.07.2020
529 Clouds 26 1014 50 0 2.24 304 12:39 01.07.2020
530 Clouds 25 1012 83 10000 1.5 320 12:21 01.07.2020
531 Thunderstorm 23 1013 88 10000 1.5 50 11:55 01.07.2020
532 Thunderstorm 23 1013 88 10000 1.5 50 11:37 01.07.2020
533 Rain 23 1013 88 10000 2.1 150 11:18 01.07.2020
534 Rain 23 1013 100 10000 1.5 260 10:41 01.07.2020
535 Rain 22 1013 100 10000 3.6 30 10:23 01.07.2020
536 Thunderstorm 22 1013 71 10000 2.1 310 09:58 01.07.2020
537 Rain 22 1013 73 10000 2.1 310 09:37 01.07.2020
538 Rain 23 1016 66 0 2.24 220 09:18 01.07.2020
539 Rain 24 1012 64 0 1.06 124 08:41 01.07.2020
540 Rain 24 1012 57 10000 2.1 250 08:23 01.07.2020
541 Clouds 24 1012 60 10000 1 260 07:58 01.07.2020
542 Clouds 24 1012 60 10000 1 260 07:38 01.07.2020
543 Clouds 23 1012 73 10000 0.5 0 07:20 01.07.2020
544 Rain 23 1012 83 10000 0.5 0 06:49 01.07.2020
545 Rain 23 1012 68 10000 0.5 0 06:27 01.07.2020
546 Rain 24 1011 64 10000 2.1 300 04:32 01.07.2020
547 Rain 24 1011 64 10000 1 0 03:47 01.07.2020
548 Clouds 24 1012 69 10000 1.5 270 03:27 01.07.2020
549 Clouds 24 1012 69 10000 1.5 270 02:41 01.07.2020
550 Rain 24 1012 73 10000 1.5 260 01:47 01.07.2020
551 Rain 25 1012 73 10000 2.6 260 00:42 01.07.2020
552 Rain 26 1012 78 10000 1.5 260 00:23 01.07.2020
553 Rain 26 1011 74 10000 2.6 250 23:41 30.06.2020
554 Clouds 27 1011 78 10000 1 0 23:22 30.06.2020
555 Clouds 27 1011 78 10000 1 0 23:22 30.06.2020
556 Clouds 27 1011 78 10000 0.5 250 22:56 30.06.2020
557 Clouds 28 1011 65 10000 1 0 22:38 30.06.2020
558 Clouds 27 1011 65 10000 1 0 22:18 30.06.2020
559 Rain 28 1011 65 10000 1 0 21:40 30.06.2020
560 Rain 29 1010 58 10000 1.5 210 21:19 30.06.2020
561 Clear 29 1010 62 10000 1.5 200 20:43 30.06.2020
562 Clear 30 1010 55 10000 1.5 190 20:21 30.06.2020
563 Clouds 30 1010 55 10000 2.1 190 19:59 30.06.2020
564 Clouds 30 1010 55 10000 2.1 190 19:59 30.06.2020
565 Clouds 30 1010 51 10000 2.1 180 19:39 30.06.2020
566 Clouds 31 1010 51 10000 2.1 180 19:19 30.06.2020
567 Clouds 31 1010 58 10000 2.1 160 18:42 30.06.2020
568 Clouds 31 1011 52 10000 1.5 0 18:21 30.06.2020
569 Clouds 31 1011 55 10000 1.5 0 17:57 30.06.2020
570 Clouds 31 1011 52 10000 2.1 200 17:37 30.06.2020
571 Clouds 31 1011 52 10000 2.1 200 17:18 30.06.2020
572 Clouds 31 1011 52 10000 2.1 200 17:18 30.06.2020
573 Clouds 31 1011 55 10000 2.6 90 16:41 30.06.2020
574 Clouds 30 1011 55 10000 2.6 110 16:23 30.06.2020
575 Clouds 30 1012 51 10000 1.5 0 15:57 30.06.2020
576 Clouds 30 1012 51 10000 1.5 0 15:39 30.06.2020
577 Clouds 30 1012 58 10000 1.5 0 15:20 30.06.2020
578 Clouds 29 1012 58 10000 1 0 14:47 30.06.2020
579 Clouds 29 1012 58 10000 1 0 14:47 30.06.2020
580 Clouds 29 1012 61 10000 1.5 80 14:22 30.06.2020
581 Clouds 29 1012 65 10000 2.1 50 13:59 30.06.2020
582 Clouds 28 1012 65 10000 2.1 50 13:39 30.06.2020
583 Clouds 29 1012 58 10000 2.1 0 13:19 30.06.2020
584 Clouds 28 1012 61 10000 2.1 80 12:57 30.06.2020
585 Clouds 27 1012 65 10000 2.1 0 12:39 30.06.2020
586 Clouds 27 1012 65 10000 2.1 0 12:20 30.06.2020
587 Clouds 27 1012 65 10000 2.1 30 11:57 30.06.2020
588 Clouds 27 1012 65 10000 2.1 30 11:38 30.06.2020
589 Clouds 27 1012 65 10000 2.6 0 11:18 30.06.2020
590 Clear 31 1014 38 10000 2.6 250 16:48 28.06.2020
591 Clear 31 1014 38 10000 2.1 240 16:28 28.06.2020
592 Clear 31 1015 38 10000 2.1 0 15:59 28.06.2020
593 Clear 31 1015 38 10000 2.1 0 15:41 28.06.2020
594 Clear 31 1015 33 10000 1.5 0 15:20 28.06.2020
595 Clear 31 1015 33 10000 1.5 0 14:58 28.06.2020
596 Clear 30 1015 40 10000 3.1 210 14:39 28.06.2020
597 Clouds 30 1015 40 10000 2.6 220 14:21 28.06.2020
598 Clouds 30 1016 37 10000 2.1 0 13:40 28.06.2020
599 Clouds 30 1016 37 10000 2.1 230 13:21 28.06.2020
600 Clouds 29 1016 42 10000 2.1 270 12:58 28.06.2020
601 Clouds 29 1016 42 10000 2.1 270 12:38 28.06.2020
602 Clouds 28 1016 54 10000 1.5 230 12:19 28.06.2020
603 Clouds 28 1016 58 10000 1.5 0 11:58 28.06.2020
604 Clouds 28 1016 58 10000 1.5 0 11:39 28.06.2020
605 Clouds 27 1016 65 10000 1.5 0 11:20 28.06.2020
606 Clouds 26 1016 65 10000 1.5 240 10:57 28.06.2020
607 Clouds 26 1016 65 10000 1.5 240 10:39 28.06.2020
608 Clouds 26 1017 65 10000 1 0 10:21 28.06.2020
609 Clouds 25 1017 73 10000 1.5 180 09:40 28.06.2020
610 Clouds 24 1016 78 10000 1.5 190 09:21 28.06.2020
611 Clouds 23 1016 78 10000 1 0 08:53 28.06.2020
612 Clouds 23 1016 78 10000 1 0 08:34 28.06.2020
613 Clear 22 1016 83 10000 1 0 07:53 28.06.2020
614 Clear 22 1016 88 10000 1 240 07:31 28.06.2020
615 Clear 21 1016 94 10000 1 260 06:53 28.06.2020
616 Clear 21 1016 94 10000 1.5 250 06:31 28.06.2020
617 Clear 21 1015 88 10000 1 0 05:27 28.06.2020
618 Clear 21 1015 88 10000 1.5 240 03:45 28.06.2020
619 Clear 22 1016 83 10000 1.5 250 02:51 28.06.2020
620 Clear 22 1016 83 10000 1.5 260 02:19 28.06.2020
621 Clear 23 1016 73 10000 2.1 260 01:27 28.06.2020
622 Clear 23 1016 73 10000 2.1 260 00:51 28.06.2020
623 Clear 24 1016 69 10000 2.6 250 00:27 28.06.2020
624 Clear 24 1016 69 10000 2.1 240 23:43 27.06.2020
625 Clear 25 1016 69 10000 2.1 260 23:24 27.06.2020
626 Clear 25 1015 65 10000 1.5 260 22:59 27.06.2020
627 Clear 25 1015 65 10000 1.5 260 22:40 27.06.2020
628 Clear 25 1015 65 10000 1.5 260 22:40 27.06.2020
629 Clear 26 1015 65 10000 1 0 22:22 27.06.2020
630 Clear 26 1015 65 10000 3.1 360 21:56 27.06.2020
631 Clear 27 1015 65 10000 3.1 360 21:38 27.06.2020
632 Clear 27 1015 54 10000 2.1 290 21:19 27.06.2020
633 Clear 28 1015 48 10000 2.1 290 20:44 27.06.2020
634 Clear 28 1015 45 10000 2.1 260 20:19 27.06.2020
635 Clear 29 1015 42 10000 3.1 260 19:56 27.06.2020
636 Clouds 29 1015 45 10000 3.1 260 19:37 27.06.2020
637 Clouds 30 1015 45 10000 3.1 260 19:18 27.06.2020
638 Clouds 30 1015 42 10000 2.1 250 18:46 27.06.2020
639 Clouds 30 1015 43 10000 1.5 240 18:28 27.06.2020
640 Clouds 31 1015 43 10000 2.1 220 17:57 27.06.2020
641 Clouds 30 1015 43 10000 2.1 220 17:38 27.06.2020
642 Clouds 31 1015 43 10000 2.1 220 17:19 27.06.2020
643 Clouds 30 1015 48 10000 2.1 240 16:46 27.06.2020
644 Clouds 31 1015 48 10000 2.1 240 16:27 27.06.2020
645 Clouds 30 1015 51 10000 2.1 160 15:55 27.06.2020
646 Clouds 30 1015 51 10000 2.1 160 15:55 27.06.2020
647 Clouds 30 1015 51 10000 2.1 160 15:37 27.06.2020
648 Clouds 30 1015 48 10000 2.1 210 15:18 27.06.2020
649 Clouds 30 1015 51 10000 2.1 0 14:42 27.06.2020
650 Clouds 29 1015 51 10000 1.5 0 14:24 27.06.2020
651 Clouds 29 1016 54 10000 2.1 260 13:57 27.06.2020
652 Thunderstorm 28 1016 58 10000 0.5 0 13:37 27.06.2020
653 Thunderstorm 29 1016 58 10000 0.5 0 13:19 27.06.2020
654 Clouds 29 1016 62 10000 1.5 160 12:56 27.06.2020
655 Clouds 29 1016 58 10000 1.5 0 12:37 27.06.2020
656 Clouds 28 1016 58 10000 1.5 0 12:19 27.06.2020
657 Clear 28 1016 58 10000 1 0 11:42 27.06.2020
658 Clear 28 1016 61 10000 1 0 11:23 27.06.2020
659 Clear 27 1016 65 10000 1 0 10:57 27.06.2020
660 Clear 27 1016 65 10000 1 0 10:38 27.06.2020
661 Clouds 26 1016 65 10000 1 0 10:18 27.06.2020
662 Clear 26 1016 69 10000 1 0 09:41 27.06.2020
663 Clear 25 1016 73 10000 2.1 60 09:21 27.06.2020
664 Clear 24 1016 69 10000 2.1 30 08:56 27.06.2020
665 Clear 24 1016 69 10000 2.1 30 08:37 27.06.2020
666 Clear 23 1016 73 10000 2.1 30 08:19 27.06.2020
667 Clear 22 1018 66 0 1.34 334 07:38 27.06.2020
668 Clear 22 1016 83 0 1.35 205 07:19 27.06.2020
669 Clear 22 1015 85 0 1.35 205 06:37 27.06.2020
670 Clear 22 1015 82 0 1.37 192 05:46 27.06.2020
671 Clouds 23 1018 61 0 0.89 58 04:21 27.06.2020
672 Clouds 23 1016 77 0 0.76 194 03:51 27.06.2020
673 Clouds 24 1018 64 0 2.24 315 02:48 27.06.2020
674 Clouds 24 1018 62 0 1.34 333 02:27 27.06.2020
675 Clouds 24 1015 74 0 1.1 206 01:40 27.06.2020
676 Clouds 25 1015 72 0 1.09 153 00:52 27.06.2020
677 Clouds 25 1016 83 10000 0.5 270 23:58 26.06.2020
678 Clouds 25 1016 83 10000 0.5 270 23:40 26.06.2020
679 Clouds 26 1016 83 10000 0.5 270 23:21 26.06.2020
680 Clouds 26 1016 65 10000 0.5 0 22:45 26.06.2020
681 Clouds 26 1015 69 10000 1 180 22:26 26.06.2020
682 Clouds 26 1015 73 10000 1 0 21:58 26.06.2020
683 Clouds 27 1015 73 10000 1 0 21:40 26.06.2020
684 Clouds 27 1015 61 10000 1 210 21:21 26.06.2020
685 Clouds 27 1015 61 10000 1 210 20:59 26.06.2020
686 Clouds 27 1015 54 10000 1 0 20:40 26.06.2020
687 Clouds 27 1015 61 10000 1.5 300 20:18 26.06.2020
688 Clouds 28 1015 54 10000 1.5 220 19:41 26.06.2020
689 Clouds 28 1015 54 10000 1.5 220 19:23 26.06.2020
690 Rain 28 1015 51 10000 2.1 260 18:44 26.06.2020
691 Rain 29 1015 51 10000 2.1 220 18:25 26.06.2020
692 Rain 29 1015 51 10000 2.1 220 17:57 26.06.2020
693 Rain 29 1015 51 10000 2.1 220 17:39 26.06.2020
694 Clouds 29 1016 48 10000 2.6 240 17:21 26.06.2020
695 Clouds 29 1016 45 10000 3.1 230 16:43 26.06.2020
696 Clear 29 1016 45 10000 2.6 200 16:23 26.06.2020
697 Clear 29 1016 45 10000 2.6 210 15:41 26.06.2020
698 Clouds 28 1017 45 10000 3.6 210 15:22 26.06.2020
699 Clouds 28 1017 51 10000 1.5 0 14:59 26.06.2020
700 Clouds 28 1017 51 10000 1.5 0 14:59 26.06.2020
701 Clouds 28 1017 51 10000 1.5 0 14:40 26.06.2020
702 Clouds 28 1017 42 10000 1.5 270 14:22 26.06.2020
703 Clouds 28 1017 51 10000 2.1 0 13:47 26.06.2020
704 Clouds 27 1018 61 10000 2.1 340 13:26 26.06.2020
705 Clouds 26 1017 65 10000 1.5 0 12:59 26.06.2020
706 Clouds 27 1017 65 10000 1.5 0 12:41 26.06.2020
707 Clouds 25 1018 65 10000 1.5 50 12:22 26.06.2020
708 Clouds 25 1017 61 10000 1.5 0 11:57 26.06.2020
709 Clouds 25 1017 61 10000 1.5 0 11:39 26.06.2020
710 Clouds 25 1017 61 10000 1.5 0 11:20 26.06.2020
711 Clouds 24 1018 69 10000 2.1 170 10:57 26.06.2020
712 Clouds 24 1018 69 10000 2.1 170 10:37 26.06.2020
713 Clouds 24 1018 69 10000 2.6 150 10:18 26.06.2020
714 Clouds 23 1018 69 10000 3.6 130 09:42 26.06.2020
715 Clouds 22 1018 69 10000 2.6 110 09:22 26.06.2020
716 Clouds 22 1018 73 10000 2.6 90 08:49 26.06.2020
717 Clouds 22 1018 83 10000 2.6 70 08:28 26.06.2020
718 Clouds 21 1018 83 10000 2.1 80 07:49 26.06.2020
719 Clouds 21 1018 88 10000 2.1 60 07:24 26.06.2020
720 Clouds 21 1018 88 10000 2.1 60 06:57 26.06.2020
721 Clouds 21 1018 88 10000 2.1 60 06:35 26.06.2020
722 Clouds 21 1018 77 10000 2.1 110 05:57 26.06.2020
723 Clouds 21 1018 83 10000 2.6 110 05:30 26.06.2020
724 Clouds 22 1018 68 10000 3.1 90 02:41 26.06.2020
725 Rain 22 1018 68 10000 4.1 100 02:21 26.06.2020
726 Clouds 23 1017 73 10000 2.6 130 00:55 26.06.2020
727 Rain 23 1017 73 10000 4.6 120 00:32 26.06.2020
728 Rain 24 1017 73 10000 2.6 130 23:48 25.06.2020
729 Rain 24 1017 65 10000 4.6 130 23:23 25.06.2020
730 Rain 25 1017 65 10000 4.6 130 22:59 25.06.2020
731 Clouds 25 1017 65 10000 4.6 140 22:39 25.06.2020
732 Clouds 26 1017 61 10000 4.6 130 22:20 25.06.2020
733 Clouds 26 1016 57 10000 4.1 120 21:58 25.06.2020
734 Clouds 27 1016 57 10000 4.1 120 21:40 25.06.2020
735 Clouds 27 1016 57 10000 3.6 120 21:21 25.06.2020
736 Clouds 27 1016 54 10000 3.1 120 20:57 25.06.2020
737 Clouds 27 1016 54 10000 3.1 120 20:39 25.06.2020
738 Clouds 28 1016 54 10000 3.1 90 20:21 25.06.2020
739 Clouds 28 1016 51 10000 2.6 90 19:41 25.06.2020
740 Clouds 28 1016 51 10000 1 0 19:20 25.06.2020
741 Clouds 28 1016 51 10000 1 0 18:59 25.06.2020
742 Clouds 28 1016 51 10000 1 0 18:39 25.06.2020
743 Clouds 29 1016 48 10000 1.5 0 18:20 25.06.2020
744 Clouds 29 1016 58 10000 1.5 130 17:44 25.06.2020
745 Clouds 29 1016 51 10000 2.6 190 17:20 25.06.2020
746 Clouds 29 1016 51 10000 2.6 190 17:20 25.06.2020
747 Clouds 29 1016 51 10000 2.1 190 16:58 25.06.2020
748 Clouds 28 1016 51 10000 2.1 190 16:37 25.06.2020
749 Clouds 28 1017 51 10000 1.5 0 16:19 25.06.2020
750 Clouds 28 1017 48 10000 1 0 15:43 25.06.2020
751 Clouds 28 1017 57 10000 3.1 130 15:24 25.06.2020
752 Clouds 28 1017 54 10000 2.6 180 14:54 25.06.2020
753 Clouds 28 1017 54 10000 2.6 180 14:36 25.06.2020
754 Clouds 28 1017 54 10000 2.6 170 14:18 25.06.2020
755 Clouds 27 1018 54 10000 3.6 160 13:41 25.06.2020
756 Clouds 27 1018 54 10000 3.1 130 13:20 25.06.2020
757 Clouds 27 1018 57 10000 4.6 90 12:57 25.06.2020
758 Clouds 26 1018 57 10000 3.6 90 12:39 25.06.2020
759 Clouds 26 1018 57 10000 3.6 90 12:19 25.06.2020
760 Clear 26 1018 57 10000 4.1 100 11:42 25.06.2020
761 Clear 25 1018 61 10000 3.6 120 11:21 25.06.2020
762 Clear 24 1018 64 10000 4.6 100 10:44 25.06.2020
763 Clear 24 1018 60 10000 4.1 120 10:25 25.06.2020
764 Clear 24 1018 64 10000 5.1 130 09:55 25.06.2020
765 Clouds 23 1018 64 10000 5.1 130 09:37 25.06.2020
766 Clear 23 1018 60 10000 4.1 120 09:18 25.06.2020
767 Clear 22 1018 64 10000 4.1 110 08:42 25.06.2020
768 Clouds 22 1018 68 10000 2.6 100 08:18 25.06.2020
769 Clouds 22 1018 68 10000 2.6 100 08:18 25.06.2020
770 Clouds 22 1018 68 10000 2.6 100 08:18 25.06.2020
771 Clouds 22 1017 64 10000 2.1 100 07:43 25.06.2020
772 Clouds 22 1017 68 10000 2.1 90 07:24 25.06.2020
773 Clear 22 1017 64 10000 1.5 100 06:45 25.06.2020
774 Clear 22 1017 64 10000 2.1 90 06:25 25.06.2020
775 Clear 22 1017 60 10000 2.6 110 05:38 25.06.2020
776 Clear 23 1017 64 10000 2.1 100 03:49 25.06.2020
777 Clear 23 1018 56 10000 2.6 100 02:58 25.06.2020
778 Clear 23 1018 56 10000 2.6 100 02:40 25.06.2020
779 Rain 24 1018 57 10000 3.1 80 01:43 25.06.2020
780 Clouds 25 1018 53 10000 3.1 100 00:51 25.06.2020
781 Rain 25 1018 53 10000 4.6 120 00:25 25.06.2020
782 Rain 26 1018 50 10000 4.1 120 23:59 24.06.2020
783 Rain 26 1018 50 10000 4.1 120 23:38 24.06.2020
784 Clouds 26 1018 54 10000 3.1 100 23:20 24.06.2020
785 Clouds 27 1017 51 10000 4.1 110 22:44 24.06.2020
786 Clouds 27 1017 54 10000 3.6 120 22:22 24.06.2020
787 Clouds 27 1016 51 10000 3.6 120 21:57 24.06.2020
788 Clouds 27 1016 51 10000 3.6 120 21:38 24.06.2020
789 Clouds 28 1016 54 10000 3.1 110 21:20 24.06.2020
790 Clouds 28 1016 54 10000 3.1 110 20:59 24.06.2020
791 Clouds 29 1016 54 10000 3.1 90 20:41 24.06.2020
792 Clouds 29 1016 51 10000 3.1 100 20:22 24.06.2020
793 Clouds 29 1016 42 10000 2.6 120 19:59 24.06.2020
794 Clouds 29 1016 42 10000 2.6 120 19:59 24.06.2020
795 Clouds 30 1016 42 10000 2.6 120 19:39 24.06.2020
796 Rain 30 1016 42 10000 2.6 120 19:21 24.06.2020
797 Rain 31 1016 45 10000 3.1 120 18:58 24.06.2020
798 Rain 30 1016 42 10000 2.6 120 18:58 24.06.2020
799 Rain 30 1016 45 10000 3.1 120 18:40 24.06.2020
800 Clear 31 1016 48 10000 2.6 140 18:21 24.06.2020
801 Clear 31 1016 48 10000 2.1 140 17:56 24.06.2020
802 Clear 31 1016 48 10000 2.1 140 17:56 24.06.2020
803 Clear 30 1016 48 10000 2.1 140 17:38 24.06.2020
804 Clear 31 1016 48 10000 3.1 150 17:19 24.06.2020
805 Clear 31 1017 48 10000 2.6 160 16:56 24.06.2020
806 Clear 31 1017 48 10000 2.6 160 16:37 24.06.2020
807 Clear 30 1017 51 10000 3.1 0 16:19 24.06.2020
808 Clear 30 1017 54 10000 3.1 130 15:55 24.06.2020
809 Clear 29 1017 54 10000 2.6 180 15:37 24.06.2020
810 Clear 30 1017 54 10000 2.6 180 15:19 24.06.2020
811 Clear 29 1017 58 10000 3.6 170 14:42 24.06.2020
812 Clear 29 1018 54 10000 3.6 150 14:23 24.06.2020
813 Clear 28 1018 54 10000 2.6 140 13:43 24.06.2020
814 Clear 28 1018 54 10000 3.6 130 13:22 24.06.2020
815 Clear 28 1018 57 10000 3.6 130 12:54 24.06.2020
816 Clear 27 1018 57 10000 3.6 110 12:36 24.06.2020
817 Clear 27 1018 57 10000 3.6 110 12:18 24.06.2020
818 Clear 27 1018 61 10000 3.6 110 11:42 24.06.2020
819 Clear 26 1018 61 10000 3.6 110 11:42 24.06.2020
820 Clear 26 1019 61 10000 4.1 110 11:24 24.06.2020
821 Clear 25 1019 61 10000 4.6 130 10:55 24.06.2020
822 Clear 25 1019 61 10000 4.6 130 10:36 24.06.2020
823 Clear 25 1019 61 10000 5.1 120 10:18 24.06.2020
824 Clear 25 1019 64 10000 5.1 120 09:42 24.06.2020
825 Clear 24 1019 60 10000 6.2 110 09:21 24.06.2020
826 Clear 24 1019 57 10000 5.7 110 08:41 24.06.2020
827 Clear 24 1019 57 10000 4.6 120 08:20 24.06.2020
828 Clear 24 1019 57 10000 4.6 120 08:20 24.06.2020
829 Clear 24 1018 64 10000 2.1 120 07:50 24.06.2020
830 Clear 23 1018 64 10000 1.5 100 07:26 24.06.2020
831 Clear 22 1018 77 10000 1 0 06:49 24.06.2020
832 Clear 22 1018 77 10000 1 30 06:25 24.06.2020
833 Clear 22 1018 77 10000 1.5 60 05:46 24.06.2020
834 Clear 23 1018 73 10000 1.5 40 04:41 24.06.2020
835 Clear 23 1018 82 10000 1.5 20 03:41 24.06.2020
836 Clear 23 1018 82 10000 1.5 360 03:19 24.06.2020
837 Clear 24 1018 73 10000 1.5 10 02:41 24.06.2020
838 Clear 25 1018 78 10000 1.5 60 00:58 24.06.2020
839 Clear 25 1018 78 10000 1.5 60 00:39 24.06.2020
840 Clear 25 1018 78 10000 0.5 160 00:21 24.06.2020
841 Clear 25 1017 83 10000 1 200 23:40 23.06.2020
842 Clear 25 1017 83 10000 0.5 170 23:18 23.06.2020
843 Clear 26 1017 73 10000 0.5 0 22:41 23.06.2020
844 Clear 27 1016 73 10000 0.5 200 22:19 23.06.2020
845 Clear 28 1016 65 10000 0.5 230 21:59 23.06.2020
846 Clear 29 1018 26 0 0.89 281 21:38 23.06.2020
847 Clear 30 1016 54 10000 0.5 0 21:18 23.06.2020
848 Clear 30 1016 40 10000 1.5 210 20:55 23.06.2020
849 Clear 30 1016 40 10000 1.5 210 20:36 23.06.2020
850 Clear 30 1016 35 10000 1 0 20:36 23.06.2020
851 Clear 31 1016 35 10000 1 0 20:18 23.06.2020
852 Clear 32 1016 33 10000 2.1 250 19:42 23.06.2020
853 Clear 32 1016 33 10000 2.1 250 19:23 23.06.2020
854 Clear 32 1016 29 10000 2.1 250 18:39 23.06.2020
855 Clear 32 1016 29 10000 2.1 250 18:19 23.06.2020
856 Clear 32 1016 40 10000 3.1 200 17:44 23.06.2020
857 Clear 32 1016 38 10000 1.5 250 17:25 23.06.2020
858 Clear 32 1016 38 10000 2.1 250 16:57 23.06.2020
859 Clear 32 1016 38 10000 2.1 250 16:39 23.06.2020
860 Clear 31 1017 35 10000 2.6 230 16:20 23.06.2020
861 Clear 31 1017 35 10000 2.6 220 15:59 23.06.2020
862 Clear 31 1017 35 10000 2.6 220 15:41 23.06.2020
863 Clear 31 1017 35 10000 2.6 200 15:22 23.06.2020
864 Clear 31 1018 42 10000 2.6 210 14:43 23.06.2020
865 Clear 31 1018 40 10000 2.1 230 14:20 23.06.2020
866 Clear 30 1018 42 10000 2.6 190 13:59 23.06.2020
867 Clear 30 1018 42 10000 2.6 190 13:40 23.06.2020
868 Clear 30 1018 37 10000 1.5 0 13:22 23.06.2020
869 Clear 30 1018 39 10000 2.6 180 12:45 23.06.2020
870 Clear 29 1019 39 10000 2.1 170 12:23 23.06.2020
871 Clear 29 1019 39 10000 1 0 11:59 23.06.2020
872 Clear 29 1019 39 10000 1 0 11:40 23.06.2020
873 Clear 28 1019 39 10000 1 0 11:19 23.06.2020
874 Clear 28 1019 45 10000 0.5 0 10:58 23.06.2020
875 Clear 27 1019 45 10000 0.5 0 10:39 23.06.2020
876 Clear 27 1019 42 10000 1 0 10:21 23.06.2020
877 Clear 27 1019 42 10000 1 0 10:21 23.06.2020
878 Clear 27 1019 44 10000 1 0 09:43 23.06.2020
879 Clear 25 1019 53 10000 1 0 09:21 23.06.2020
880 Clouds 24 1019 50 10000 1.5 70 08:59 23.06.2020
881 Clear 25 1019 53 10000 1 0 08:59 23.06.2020
882 Clouds 24 1019 50 10000 1.5 70 08:41 23.06.2020
883 Clouds 23 1019 53 10000 1 0 08:21 23.06.2020
884 Clouds 22 1019 73 10000 1 180 07:41 23.06.2020
885 Clouds 22 1019 73 10000 1 180 07:22 23.06.2020
886 Clear 22 1018 68 10000 0.5 0 06:50 23.06.2020
887 Clear 22 1018 77 10000 1.5 20 06:31 23.06.2020
888 Clear 22 1018 72 10000 1 70 05:45 23.06.2020
889 Clear 22 1018 73 10000 1 50 03:55 23.06.2020
890 Clear 23 1018 73 10000 1.5 40 02:57 23.06.2020
891 Clear 23 1018 73 10000 1.5 40 02:38 23.06.2020
892 Clear 24 1018 64 10000 2.1 60 02:20 23.06.2020
893 Clear 24 1018 68 10000 0.5 0 01:43 23.06.2020
894 Clear 24 1017 60 10000 2.6 100 01:19 23.06.2020
895 Clear 25 1017 69 10000 0.5 0 00:24 23.06.2020
896 Clear 25 1017 64 10000 1 0 23:57 22.06.2020
897 Clear 25 1017 64 10000 1 0 23:39 22.06.2020
898 Clear 26 1017 69 10000 1.5 200 23:19 22.06.2020
899 Clear 26 1016 69 10000 1 0 22:57 22.06.2020
900 Clear 27 1016 69 10000 1 0 22:38 22.06.2020
901 Clear 27 1016 57 10000 1 200 22:19 22.06.2020
902 Clear 27 1016 57 10000 1 200 22:19 22.06.2020
903 Clear 28 1016 54 10000 1.5 200 21:57 22.06.2020
904 Clear 28 1016 54 10000 1.5 200 21:38 22.06.2020
905 Clear 28 1016 48 10000 2.1 210 21:20 22.06.2020
906 Clear 28 1016 48 10000 2.1 210 21:20 22.06.2020
907 Clear 29 1016 39 10000 2.6 200 20:41 22.06.2020
908 Clear 30 1016 37 10000 3.6 190 20:23 22.06.2020
909 Clear 31 1016 33 10000 3.1 210 19:57 22.06.2020
910 Clear 31 1016 33 10000 3.6 200 19:37 22.06.2020
911 Clear 31 1016 33 10000 3.6 200 19:18 22.06.2020
912 Clear 31 1015 38 10000 4.1 190 18:40 22.06.2020
913 Clear 31 1016 38 10000 3.6 200 18:22 22.06.2020
914 Clear 32 1016 38 10000 3.6 200 17:57 22.06.2020
915 Clear 32 1016 38 10000 3.1 210 17:38 22.06.2020
916 Clear 32 1016 38 10000 3.1 210 17:19 22.06.2020
917 Clear 31 1016 33 10000 3.6 200 16:55 22.06.2020
918 Clear 31 1016 35 10000 3.1 230 16:37 22.06.2020
919 Clear 32 1016 35 10000 3.1 230 16:18 22.06.2020
920 Clear 31 1016 42 10000 3.1 220 15:43 22.06.2020
921 Clear 31 1016 42 10000 3.1 220 15:25 22.06.2020
922 Clear 31 1016 42 10000 2.6 230 14:57 22.06.2020
923 Clear 31 1017 37 10000 3.1 240 14:36 22.06.2020
924 Clear 31 1017 37 10000 3.1 240 14:18 22.06.2020
925 Clear 30 1017 39 10000 3.1 230 13:40 22.06.2020
926 Clear 30 1017 39 10000 3.1 230 13:21 22.06.2020
927 Clear 30 1017 42 10000 3.1 210 12:59 22.06.2020
928 Clear 30 1017 45 10000 3.1 210 12:40 22.06.2020
929 Clear 28 1017 42 10000 2.1 210 12:22 22.06.2020
930 Clear 29 1017 42 10000 2.1 220 11:37 22.06.2020
931 Clear 28 1017 42 10000 2.1 220 11:19 22.06.2020
932 Clear 28 1017 44 10000 2.1 210 10:57 22.06.2020
933 Clear 27 1017 44 10000 1.5 240 10:38 22.06.2020
934 Clear 27 1017 44 10000 1.5 240 10:19 22.06.2020
935 Clear 26 1017 44 10000 1.5 260 09:56 22.06.2020
936 Clear 25 1017 44 10000 1.5 260 09:38 22.06.2020
937 Clear 24 1017 50 10000 1.5 200 09:18 22.06.2020
938 Clear 24 1017 50 10000 1.5 200 08:54 22.06.2020
939 Clear 23 1017 60 10000 1.5 30 08:36 22.06.2020
940 Clear 23 1017 60 10000 1.5 30 08:18 22.06.2020
941 Clear 22 1017 72 10000 0.5 0 07:45 22.06.2020
942 Clear 21 1017 72 10000 0.5 0 07:24 22.06.2020
943 Clear 20 1017 72 10000 0.5 0 06:38 22.06.2020
944 Clear 20 1017 72 10000 0.5 0 06:19 22.06.2020
945 Clear 19 1016 77 10000 1 160 05:41 22.06.2020
946 Clear 22 1016 59 10000 1 0 03:22 22.06.2020
947 Clear 23 1016 52 10000 1 340 01:39 22.06.2020
948 Clear 24 1015 46 10000 2.1 10 00:44 22.06.2020
949 Clear 24 1015 46 10000 2.1 10 00:25 22.06.2020
950 Clear 25 1015 36 10000 3.1 40 23:55 21.06.2020
951 Clear 25 1015 36 10000 3.1 40 23:37 21.06.2020
952 Clear 26 1014 29 10000 4.6 360 23:18 21.06.2020
953 Clear 26 1014 28 10000 4.1 350 22:55 21.06.2020
954 Clear 27 1014 28 10000 4.1 350 22:36 21.06.2020
955 Clear 27 1014 28 10000 4.1 350 22:18 21.06.2020
956 Clear 27 1014 26 10000 3.6 360 21:54 21.06.2020
957 Clouds 28 1014 26 10000 3.6 350 21:36 21.06.2020
958 Clouds 28 1013 26 10000 4.1 350 21:18 21.06.2020
959 Clouds 29 1013 28 10000 5.1 360 20:40 21.06.2020
960 Clouds 29 1013 28 10000 5.1 360 20:19 21.06.2020
961 Clouds 30 1013 27 10000 4.1 350 19:59 21.06.2020
962 Clouds 30 1013 27 10000 3.1 330 19:40 21.06.2020
963 Clouds 31 1013 27 10000 3.6 340 19:20 21.06.2020
964 Clouds 31 1013 23 10000 3.6 320 18:55 21.06.2020
965 Clouds 31 1013 23 10000 3.6 320 18:37 21.06.2020
966 Clouds 31 1013 27 10000 3.1 320 18:19 21.06.2020
967 Clouds 31 1013 23 10000 3.6 320 18:19 21.06.2020
968 Clouds 31 1013 25 10000 2.1 0 17:40 21.06.2020
969 Clear 31 1013 27 10000 1 0 17:21 21.06.2020
970 Clear 31 1013 27 10000 1 0 16:57 21.06.2020
971 Clear 31 1013 27 10000 1.5 0 16:38 21.06.2020
972 Clear 30 1013 27 10000 1.5 0 16:20 21.06.2020
973 Clear 31 1014 30 10000 2.1 230 15:39 21.06.2020
974 Clear 31 1014 30 10000 2.1 230 15:21 21.06.2020
975 Clear 30 1014 32 10000 3.6 220 14:55 21.06.2020
976 Clear 30 1014 35 10000 2.6 250 14:36 21.06.2020
977 Clear 30 1014 35 10000 2.6 250 14:18 21.06.2020
978 Clear 30 1014 35 10000 2.6 0 13:42 21.06.2020
979 Clear 29 1014 35 10000 2.6 0 13:23 21.06.2020
980 Clear 29 1014 34 10000 1 0 12:58 21.06.2020
981 Clear 29 1014 34 10000 1 0 12:58 21.06.2020
982 Clear 29 1014 34 10000 1 0 12:58 21.06.2020
983 Clear 29 1014 30 10000 1 0 12:39 21.06.2020
984 Clear 28 1015 20 0 0.45 58 12:21 21.06.2020
985 Clear 27 1015 36 10000 1 0 11:42 21.06.2020
986 Clear 27 1015 36 10000 1 0 11:24 21.06.2020
987 Clear 27 1015 41 10000 0.5 0 10:58 21.06.2020
988 Clear 26 1015 47 10000 1 0 10:39 21.06.2020
989 Clear 26 1015 47 10000 1 0 10:21 21.06.2020
990 Clear 24 1015 57 10000 0.5 0 09:44 21.06.2020
991 Clear 23 1015 57 10000 0.5 0 09:24 21.06.2020
992 Clear 23 1015 64 10000 0.5 0 08:59 21.06.2020
993 Clouds 22 1014 77 10000 1 240 08:41 21.06.2020
994 Clouds 21 1014 77 10000 1 240 08:20 21.06.2020
995 Clouds 21 1014 82 10000 0.5 0 07:58 21.06.2020
996 Clouds 21 1014 77 10000 0.5 0 07:39 21.06.2020
997 Clouds 20 1014 77 10000 0.5 0 07:18 21.06.2020
998 Clouds 20 1014 82 10000 1.5 240 06:45 21.06.2020
999 Clouds 20 1017 50 0 1.79 9 05:57 21.06.2020
1000 Clouds 20 1015 82 10000 1 0 04:45 21.06.2020
1001 Clouds 20 1015 77 10000 2.1 360 03:20 21.06.2020
1002 Clouds 21 1015 77 10000 1 0 02:38 21.06.2020
1003 Clouds 22 1015 68 10000 2.1 250 01:47 21.06.2020
1004 Clouds 22 1015 64 10000 1.5 0 01:20 21.06.2020
1005 Clouds 22 1015 68 10000 0.5 0 00:46 21.06.2020
1006 Clouds 23 1015 68 10000 0.5 0 00:26 21.06.2020
1007 Clouds 23 1015 73 10000 0.5 0 23:46 20.06.2020
1008 Clear 24 1015 53 10000 1 0 23:23 20.06.2020
1009 Clear 24 1015 53 10000 1 0 22:59 20.06.2020
1010 Clear 24 1015 57 10000 1 0 22:41 20.06.2020
1011 Clear 24 1015 57 10000 1 0 22:21 20.06.2020
1012 Clear 25 1014 53 10000 1.5 240 21:58 20.06.2020
1013 Clear 25 1014 47 10000 1.5 240 21:40 20.06.2020
1014 Clear 25 1014 44 10000 1.5 240 21:21 20.06.2020
1015 Clear 25 1014 44 10000 1.5 240 20:58 20.06.2020
1016 Clear 26 1014 44 10000 2.1 220 20:40 20.06.2020
1017 Clear 26 1014 39 10000 3.1 210 20:21 20.06.2020
1018 Clear 26 1014 39 10000 3.1 210 19:58 20.06.2020
1019 Clear 26 1014 39 10000 3.1 210 19:58 20.06.2020
1020 Clear 27 1014 36 10000 2.6 210 19:39 20.06.2020
1021 Clear 27 1014 36 10000 2.6 210 19:20 20.06.2020
1022 Clear 27 1014 44 10000 2.1 200 18:43 20.06.2020
1023 Clear 28 1014 44 10000 2.1 200 18:21 20.06.2020
1024 Clear 28 1015 39 10000 2.1 220 17:57 20.06.2020
1025 Clear 28 1015 44 10000 2.6 0 17:39 20.06.2020
1026 Clear 28 1015 44 10000 2.6 0 17:20 20.06.2020
1027 Clear 28 1015 44 10000 2.6 0 17:20 20.06.2020
1028 Clear 28 1015 32 0 2.24 218 16:42 20.06.2020
1029 Clear 27 1015 44 10000 1.5 180 16:19 20.06.2020
1030 Clear 27 1016 47 10000 2.1 0 15:58 20.06.2020
1031 Clear 27 1016 47 10000 2.6 170 15:40 20.06.2020
1032 Clear 26 1016 44 10000 1.5 0 15:18 20.06.2020
1033 Clouds 26 1016 53 10000 1.5 240 14:43 20.06.2020
1034 Clouds 26 1016 53 10000 1.5 240 14:21 20.06.2020
1035 Clouds 26 1017 47 10000 1.5 0 13:42 20.06.2020
1036 Clouds 25 1017 60 10000 1.5 0 13:24 20.06.2020
1037 Clouds 25 1017 60 10000 1.5 0 12:57 20.06.2020
1038 Clouds 24 1017 60 10000 1.5 0 12:38 20.06.2020
1039 Clouds 24 1017 60 10000 1.5 0 12:38 20.06.2020
1040 Clouds 24 1017 60 10000 1.5 0 12:19 20.06.2020
1041 Clouds 24 1017 60 10000 1.5 0 12:19 20.06.2020
1042 Clouds 24 1017 60 10000 1.5 0 11:55 20.06.2020
1043 Clouds 23 1017 64 10000 1.5 210 11:36 20.06.2020
1044 Clouds 23 1017 60 10000 1 0 11:18 20.06.2020
1045 Clouds 22 1017 64 10000 1.5 0 10:42 20.06.2020
1046 Clouds 21 1017 64 10000 0.5 0 10:20 20.06.2020
1047 Clouds 21 1017 64 10000 0.5 0 09:54 20.06.2020
1048 Clouds 20 1017 68 10000 2.1 130 09:36 20.06.2020
1049 Clouds 19 1017 72 10000 2.1 90 09:18 20.06.2020
1050 Clouds 18 1017 77 10000 2.1 90 08:43 20.06.2020
1051 Clear 18 1017 77 10000 2.1 90 08:25 20.06.2020
1052 Clear 18 1017 77 10000 2.6 80 07:51 20.06.2020
1053 Clear 17 1017 77 10000 1 0 07:26 20.06.2020
1054 Clear 17 1017 82 10000 1 0 06:51 20.06.2020
1055 Clear 16 1017 87 10000 0.5 0 06:23 20.06.2020
1056 Clear 16 1016 87 10000 1 0 05:49 20.06.2020
1057 Clear 16 1016 93 10000 1 0 04:49 20.06.2020
1058 Clear 18 1016 88 10000 2.1 130 02:20 20.06.2020
1059 Clear 19 1016 88 10000 1 0 01:45 20.06.2020
1060 Clear 19 1016 93 10000 1 0 00:50 20.06.2020
1061 Clear 19 1016 93 10000 0.5 0 00:20 20.06.2020
1062 Clouds 20 1015 88 10000 0.5 0 23:48 19.06.2020
1063 Clouds 20 1015 88 10000 0.5 0 23:21 19.06.2020
1064 Clear 20 1015 77 10000 2.1 190 22:58 19.06.2020
1065 Clear 20 1015 72 10000 2.6 110 22:40 19.06.2020
1066 Clear 21 1015 72 10000 2.6 110 22:21 19.06.2020
1067 Clear 21 1014 68 10000 1 0 21:55 19.06.2020
1068 Clear 21 1014 73 10000 1 0 21:37 19.06.2020
1069 Clear 22 1014 73 10000 1 0 21:18 19.06.2020
1070 Clear 23 1014 64 10000 1.5 20 20:56 19.06.2020
1071 Clear 23 1014 64 10000 1.5 20 20:56 19.06.2020
1072 Clear 23 1014 64 10000 1.5 20 20:56 19.06.2020
1073 Clear 24 1014 53 10000 0.5 0 20:38 19.06.2020
1074 Clear 23 1014 53 10000 0.5 0 20:20 19.06.2020
1075 Clear 23 1014 64 10000 2.6 90 19:54 19.06.2020
1076 Clouds 23 1013 60 10000 3.1 110 19:36 19.06.2020
1077 Clouds 23 1013 60 10000 3.1 110 19:18 19.06.2020
1078 Rain 24 1013 49 10000 4.1 80 18:40 19.06.2020
1079 Thunderstorm 25 1013 39 10000 3.1 230 18:21 19.06.2020
1080 Clouds 27 1013 39 10000 3.1 250 17:43 19.06.2020
1081 Clouds 27 1013 39 10000 3.1 250 17:25 19.06.2020
1082 Clouds 26 1012 41 10000 3.6 240 16:59 19.06.2020
1083 -273 0 0 0 0 0 16:59 19.06.2020
1084 Clouds 26 1012 44 10000 3.1 240 16:41 19.06.2020
1085 Clouds 26 1012 44 10000 3.1 240 16:22 19.06.2020
1086 Clouds 26 1013 47 10000 3.1 250 15:49 19.06.2020
1087 Clouds 26 1013 47 10000 3.1 250 15:49 19.06.2020
1088 Clouds 26 1013 50 10000 3.6 210 15:27 19.06.2020
1089 Clouds 26 1013 50 10000 3.6 220 14:59 19.06.2020
1090 Clouds 25 1013 53 10000 2.6 250 14:41 19.06.2020
1091 Clouds 25 1013 53 10000 2.6 250 14:21 19.06.2020
1092 Clouds 25 1014 53 10000 3.1 240 13:59 19.06.2020
1093 Clouds 25 1014 57 10000 2.6 250 13:40 19.06.2020
1094 Clouds 24 1014 57 10000 2.6 250 13:22 19.06.2020
1095 Clouds 23 1014 60 10000 3.6 260 12:45 19.06.2020
1096 Clouds 23 1014 64 10000 2.1 250 12:22 19.06.2020
1097 Clouds 23 1014 64 10000 2.1 250 11:57 19.06.2020
1098 Clouds 22 1014 68 10000 3.1 250 11:36 19.06.2020
1099 Clouds 22 1014 68 10000 3.1 240 11:18 19.06.2020
1100 Clouds 22 1014 68 10000 2.6 240 10:43 19.06.2020
1101 Clouds 21 1014 68 10000 2.6 240 10:25 19.06.2020
1102 Clouds 20 1014 68 10000 2.1 250 09:56 19.06.2020
1103 Clear 20 1014 64 10000 1.5 260 09:37 19.06.2020
1104 Clear 19 1014 77 10000 1.5 260 09:19 19.06.2020
1105 Clear 19 1014 72 10000 1 0 08:41 19.06.2020
1106 Clear 19 1014 72 10000 1 0 08:23 19.06.2020
1107 Clear 17 1014 82 10000 1 160 07:41 19.06.2020
1108 Clear 17 1014 82 10000 1 160 07:22 19.06.2020
1109 Clear 17 1014 87 10000 1 0 06:52 19.06.2020
1110 Clear 16 1014 87 10000 1 240 06:22 19.06.2020
1111 Clear 16 1013 82 10000 1.5 270 05:32 19.06.2020
1112 Clouds 17 1014 72 10000 3.1 250 03:50 19.06.2020
1113 Clouds 18 1014 77 10000 2.1 260 02:22 19.06.2020
1114 Clouds 19 1014 77 10000 1 0 00:45 19.06.2020
1115 Clouds 19 1014 77 10000 1 0 00:22 19.06.2020
1116 Clouds 19 1014 77 10000 1 0 00:22 19.06.2020
1117 Clouds 19 1014 68 10000 2.6 260 23:58 18.06.2020
1118 Clouds 19 1013 68 10000 3.1 260 23:39 18.06.2020
1119 Clouds 20 1013 68 10000 3.1 260 23:21 18.06.2020
1120 Clouds 20 1012 64 10000 4.1 270 22:41 18.06.2020
1121 Clouds 20 1012 64 10000 4.1 270 22:21 18.06.2020
1122 Clouds 20 1012 72 10000 2.1 270 21:57 18.06.2020
1123 Clouds 20 1011 64 10000 1.5 260 21:38 18.06.2020
1124 Clouds 21 1011 64 10000 1.5 260 21:19 18.06.2020
1125 Clouds 21 1011 56 10000 3.6 260 20:41 18.06.2020
1126 Clouds 21 1011 56 10000 3.6 260 20:22 18.06.2020
1127 Clouds 22 1011 56 10000 2.6 280 19:58 18.06.2020
1128 Clouds 22 1011 56 10000 4.6 290 19:40 18.06.2020
1129 Clouds 22 1011 60 10000 3.6 260 19:20 18.06.2020
1130 Clouds 22 1010 53 10000 2.6 220 18:41 18.06.2020
1131 Clouds 24 1010 53 10000 2.6 220 18:23 18.06.2020
1132 Thunderstorm 24 1010 50 10000 2.6 160 17:55 18.06.2020
1133 Thunderstorm 24 1011 53 10000 3.6 150 17:37 18.06.2020
1134 Clouds 24 1011 60 10000 3.6 160 17:19 18.06.2020
1135 Clouds 25 1011 50 10000 3.1 230 16:43 18.06.2020
1136 Clouds 25 1011 50 10000 3.1 230 16:25 18.06.2020
1137 Clouds 25 1011 50 10000 3.1 230 16:25 18.06.2020
1138 Clouds 26 1011 54 10000 3.1 260 15:58 18.06.2020
1139 Clouds 25 1011 57 10000 2.6 0 15:39 18.06.2020
1140 Clouds 26 1011 57 10000 2.6 0 15:20 18.06.2020
1141 Clouds 25 1012 57 10000 2.6 260 14:57 18.06.2020
1142 Clouds 25 1012 60 10000 3.1 270 14:38 18.06.2020
1143 Clouds 25 1012 60 10000 3.1 270 14:20 18.06.2020
1144 Clouds 25 1012 60 10000 3.1 270 14:20 18.06.2020
1145 Clouds 24 1012 60 10000 3.1 260 13:47 18.06.2020
1146 Clouds 24 1012 60 10000 3.1 260 13:28 18.06.2020
1147 Clouds 24 1012 60 10000 3.1 250 12:57 18.06.2020
1148 Clouds 24 1012 60 10000 3.1 240 12:39 18.06.2020
1149 Clouds 23 1012 60 10000 3.6 260 12:20 18.06.2020
1150 Clouds 23 1012 60 10000 3.6 260 11:57 18.06.2020
1151 Clouds 23 1012 64 10000 3.6 260 11:38 18.06.2020
1152 Clouds 23 1012 64 10000 3.6 260 11:18 18.06.2020
1153 Clear 22 1012 64 10000 2.6 240 10:39 18.06.2020
1154 Clear 21 1012 73 10000 2.6 270 10:18 18.06.2020
1155 Clear 21 1011 68 10000 1.5 260 09:45 18.06.2020
1156 Clear 21 1011 68 10000 1.5 260 09:27 18.06.2020
1157 Clear 20 1011 72 10000 0.5 0 08:57 18.06.2020
1158 Clear 19 1011 72 10000 0.5 0 08:36 18.06.2020
1159 Clear 19 1011 82 10000 1 0 08:18 18.06.2020
1160 Clear 18 1011 88 10000 1 360 07:44 18.06.2020
1161 Clear 17 1011 82 10000 0.5 340 07:23 18.06.2020
1162 Clear 17 1011 93 10000 1.5 360 06:37 18.06.2020
1163 Clear 17 1011 93 10000 1 0 04:27 18.06.2020
1164 Clear 17 1011 88 10000 1.5 240 03:31 18.06.2020
1165 Clouds 18 1011 88 10000 1 210 01:43 18.06.2020
1166 Rain 18 1011 88 10000 1 210 01:20 18.06.2020
1167 Rain 19 1011 77 10000 1 0 00:49 18.06.2020
1168 Rain 19 1011 77 10000 1 0 00:26 18.06.2020
1169 Rain 19 1011 72 10000 1.5 270 23:54 17.06.2020
1170 Clouds 20 1011 72 10000 3.1 260 23:36 17.06.2020
1171 Clouds 20 1011 72 10000 2.6 260 23:18 17.06.2020
1172 Clouds 20 1011 72 10000 2.6 260 22:54 17.06.2020
1173 Clouds 20 1010 73 10000 2.1 220 22:36 17.06.2020
1174 Clouds 20 1010 73 10000 2.1 220 22:18 17.06.2020
1175 Clouds 21 1010 68 10000 1 0 21:39 17.06.2020
1176 Clouds 21 1010 68 10000 1 0 21:20 17.06.2020
1177 Clouds 22 1010 64 10000 2.6 260 20:55 17.06.2020
1178 Clouds 22 1010 64 10000 2.1 260 20:37 17.06.2020
1179 Clouds 22 1010 64 10000 2.1 260 20:18 17.06.2020
1180 Clouds 23 1010 60 10000 2.1 250 19:42 17.06.2020
1181 Clouds 23 1010 60 10000 2.1 250 19:19 17.06.2020
1182 Clouds 24 1010 57 10000 2.6 180 18:48 17.06.2020
1183 Clouds 24 1010 57 10000 2.6 180 18:28 17.06.2020
1184 Clouds 24 1010 56 10000 1.5 0 17:47 17.06.2020
1185 Clouds 24 1010 56 10000 1.5 0 17:23 17.06.2020
1186 Clouds 24 1010 57 10000 1 0 16:59 17.06.2020
1187 Clouds 24 1010 56 10000 1 0 16:40 17.06.2020
1188 Clouds 24 1010 56 10000 1 0 16:21 17.06.2020
1189 Clouds 24 1010 60 10000 1 0 15:58 17.06.2020
1190 Clouds 23 1010 64 10000 1 0 15:39 17.06.2020
1191 Clouds 24 1010 64 10000 1 0 15:21 17.06.2020
1192 Clouds 23 1010 68 10000 2.6 40 14:58 17.06.2020
1193 Clouds 23 1010 68 10000 2.6 40 14:58 17.06.2020
1194 Clouds 22 1011 68 10000 2.1 10 14:39 17.06.2020
1195 Clouds 22 1011 77 10000 2.6 30 14:19 17.06.2020
1196 Clouds 22 1011 77 10000 2.6 30 13:56 17.06.2020
1197 Rain 21 1014 57 0 1.34 298 13:38 17.06.2020
1198 Clouds 21 1011 82 10000 1.5 350 13:19 17.06.2020
1199 Clouds 19 1011 88 10000 1.5 320 12:42 17.06.2020
1200 Clouds 19 1011 88 10000 1.5 320 12:23 17.06.2020
1201 Rain 19 1011 88 10000 1.5 260 11:57 17.06.2020
1202 Rain 19 1011 88 10000 1.5 260 11:57 17.06.2020
1203 Clouds 19 1011 88 10000 0.5 0 11:38 17.06.2020
1204 Clouds 18 1011 88 10000 0.5 0 11:20 17.06.2020
1205 Clouds 18 1011 88 10000 0.5 0 10:38 17.06.2020
1206 Clouds 18 1011 88 10000 0.5 0 10:19 17.06.2020
1207 Clouds 17 1011 88 10000 0.5 0 09:58 17.06.2020
1208 Clouds 17 1011 88 10000 1 0 09:40 17.06.2020
1209 Clouds 17 1011 88 10000 1 0 09:20 17.06.2020
1210 Rain 17 1011 93 10000 0.5 0 08:45 17.06.2020
1211 Rain 16 1011 93 10000 0.5 0 08:20 17.06.2020
1212 Rain 17 1010 88 10000 3.1 40 07:55 17.06.2020
1213 Rain 17 1010 93 10000 4.1 10 07:37 17.06.2020
1214 Rain 17 1010 93 10000 4.1 10 07:19 17.06.2020
1215 Rain 17 1010 88 10000 3.1 350 06:41 17.06.2020
1216 Rain 17 1010 88 10000 3.1 350 06:23 17.06.2020
1217 Rain 17 1009 88 10000 3.1 340 05:59 17.06.2020
1218 Rain 18 1010 88 10000 0.5 0 04:39 17.06.2020
1219 Rain 20 1010 88 10000 0.5 0 02:44 17.06.2020
1220 Rain 20 1011 73 10000 2.1 80 01:20 17.06.2020
1221 Rain 21 1011 82 10000 2.1 360 00:37 17.06.2020
1222 Clouds 21 1011 82 10000 2.1 360 00:19 17.06.2020
1223 Clouds 21 1011 82 10000 1.5 0 23:41 16.06.2020
1224 Clouds 22 1011 82 10000 1.5 0 23:23 16.06.2020
1225 Clouds 22 1011 73 10000 2.1 80 22:58 16.06.2020
1226 Clouds 22 1011 88 10000 1 0 22:39 16.06.2020
1227 Clouds 22 1011 88 10000 1 0 22:19 16.06.2020
1228 Clouds 22 1010 77 10000 0.5 0 21:58 16.06.2020
1229 Clouds 22 1010 77 10000 0.5 0 21:58 16.06.2020
1230 Clouds 22 1010 64 10000 1 0 21:40 16.06.2020
1231 Clouds 23 1010 64 10000 1 0 21:21 16.06.2020
1232 Clouds 23 1010 60 10000 2.6 110 20:44 16.06.2020
1233 Clouds 23 1010 60 10000 2.6 110 20:25 16.06.2020
1234 Clouds 23 1010 60 10000 3.6 100 19:59 16.06.2020
1235 Clouds 23 1010 64 10000 4.1 110 19:40 16.06.2020
1236 Clouds 24 1010 64 10000 4.1 110 19:22 16.06.2020
1237 Clouds 24 1010 64 10000 4.6 100 18:59 16.06.2020
1238 Clouds 25 1010 64 10000 4.1 90 18:41 16.06.2020
1239 Clouds 25 1010 64 10000 4.1 90 18:21 16.06.2020
1240 Rain 25 1010 69 10000 2.6 80 17:57 16.06.2020
1241 Thunderstorm 25 1011 77 9000 3.6 220 17:38 16.06.2020
1242 Thunderstorm 25 1011 77 9000 3.6 220 17:38 16.06.2020
1243 Clear 26 1013 36 0 1.79 92 17:19 16.06.2020
1244 Thunderstorm 27 1011 54 10000 1.5 180 16:56 16.06.2020
1245 Clouds 27 1011 54 10000 2.6 190 16:38 16.06.2020
1246 Clouds 26 1011 54 10000 2.6 190 16:19 16.06.2020
1247 Clouds 27 1011 54 10000 2.6 170 15:56 16.06.2020
1248 Rain 26 1011 54 10000 2.1 170 15:38 16.06.2020
1249 Clouds 27 1011 54 10000 2.1 170 15:20 16.06.2020
1250 Clouds 26 1012 61 10000 2.6 0 14:43 16.06.2020
1251 Clouds 26 1012 61 10000 2.6 0 14:25 16.06.2020
1252 Clouds 26 1012 57 10000 2.1 0 13:55 16.06.2020
1253 Clouds 26 1012 57 10000 1.5 0 13:37 16.06.2020
1254 Clouds 25 1013 64 10000 1.5 0 13:18 16.06.2020
1255 Clouds 24 1013 64 10000 1.5 0 12:41 16.06.2020
1256 Clouds 24 1013 73 10000 1.5 0 12:21 16.06.2020
1257 Clouds 24 1013 73 10000 1.5 0 11:56 16.06.2020
1258 Clouds 24 1013 73 10000 1.5 210 11:37 16.06.2020
1259 Clouds 24 1013 73 10000 1.5 210 11:37 16.06.2020
1260 Clouds 23 1013 73 10000 1.5 210 11:19 16.06.2020
1261 Clouds 22 1013 78 10000 1.5 160 10:43 16.06.2020
1262 Clouds 22 1013 78 10000 1.5 160 10:21 16.06.2020
1263 Clouds 22 1013 78 10000 1 0 09:59 16.06.2020
1264 Clouds 21 1013 83 10000 1 0 09:41 16.06.2020
1265 Clouds 21 1013 83 10000 1 0 09:21 16.06.2020
1266 Clouds 20 1013 88 10000 2.1 20 08:45 16.06.2020
1267 Clouds 20 1013 88 10000 2.1 20 08:26 16.06.2020
1268 Clouds 19 1013 93 8000 1.5 350 07:50 16.06.2020
1269 Clouds 19 1013 93 6000 2.1 360 07:27 16.06.2020
1270 Clouds 19 1013 93 6000 2.1 360 06:54 16.06.2020
1271 Mist 19 1013 100 5000 1.5 290 06:27 16.06.2020
1272 Rain 19 1013 93 7000 1 10 05:39 16.06.2020
1273 Rain 19 1013 88 10000 1.5 120 04:39 16.06.2020
1274 Rain 19 1014 93 1000 3.6 130 02:59 16.06.2020
1275 Clouds 20 1014 82 10000 2.1 100 01:59 16.06.2020
1276 Rain 20 1014 82 10000 2.6 90 01:27 16.06.2020
1277 Rain 21 1014 77 10000 3.1 90 00:43 16.06.2020
1278 Rain 21 1014 77 10000 3.1 90 00:19 16.06.2020
1279 Clouds 22 1013 78 10000 2.1 80 23:42 15.06.2020
1280 Clouds 22 1013 78 10000 2.1 80 23:22 15.06.2020
1281 Clouds 22 1012 83 10000 1.5 360 22:55 15.06.2020
1282 Clouds 22 1012 83 10000 1.5 360 22:37 15.06.2020
1283 Clouds 22 1012 73 10000 2.1 50 22:18 15.06.2020
1284 Clouds 22 1012 73 10000 3.1 10 21:55 15.06.2020
1285 Clouds 22 1012 73 10000 3.1 10 21:36 15.06.2020
1286 Clouds 24 1012 61 10000 1.5 130 21:18 15.06.2020
1287 Clouds 25 1012 61 10000 1.5 130 20:55 15.06.2020
1288 Clouds 25 1012 65 10000 2.1 100 20:37 15.06.2020
1289 Clouds 24 1011 65 10000 3.1 160 20:18 15.06.2020
1290 Clouds 26 1011 61 8000 3.1 130 19:41 15.06.2020
1291 Clouds 26 1011 61 8000 3.1 130 19:22 15.06.2020
1292 Thunderstorm 26 1011 50 10000 4.6 120 19:22 15.06.2020
1293 Thunderstorm 26 1011 50 10000 4.6 120 18:59 15.06.2020
1294 Clouds 26 1011 57 10000 4.6 120 18:41 15.06.2020
1295 Clouds 26 1011 57 10000 4.6 120 18:21 15.06.2020
1296 Clouds 26 1011 57 10000 4.6 120 18:21 15.06.2020
1297 Clouds 27 1011 61 10000 4.1 110 17:58 15.06.2020
1298 Clouds 27 1011 61 10000 4.1 140 17:40 15.06.2020
1299 Clouds 27 1011 61 10000 4.1 130 17:19 15.06.2020
1300 Clouds 27 1011 61 10000 4.1 130 16:56 15.06.2020
1301 Clouds 27 1011 61 10000 3.1 160 16:38 15.06.2020
1302 Clouds 27 1011 61 10000 2.1 160 16:18 15.06.2020
1303 Clouds 26 1012 65 10000 2.6 110 15:41 15.06.2020
1304 Clouds 26 1012 69 10000 2.6 70 15:20 15.06.2020
1305 Clouds 26 1012 65 10000 2.6 110 15:20 15.06.2020
1306 Clouds 26 1012 69 10000 2.6 70 14:57 15.06.2020
1307 Clouds 26 1012 65 10000 2.6 70 14:39 15.06.2020
1308 Clouds 26 1012 65 10000 2.6 70 14:19 15.06.2020
1309 Clouds 25 1012 65 10000 2.6 70 13:56 15.06.2020
1310 Clouds 25 1012 69 10000 2.1 90 13:37 15.06.2020
1311 Clouds 25 1012 69 10000 2.1 90 13:37 15.06.2020
1312 Clouds 26 1015 44 0 1.79 100 13:18 15.06.2020
1313 Clouds 25 1015 46 0 1.79 80 12:41 15.06.2020
1314 Clouds 25 1012 64 10000 1.5 110 12:21 15.06.2020
1315 Clouds 24 1012 73 10000 2.1 100 11:46 15.06.2020
1316 Clouds 23 1012 73 10000 2.1 100 11:26 15.06.2020
1317 Clouds 23 1012 73 10000 1.5 0 10:58 15.06.2020
1318 Clouds 23 1012 78 10000 1.5 90 10:39 15.06.2020
1319 Clouds 22 1012 83 10000 2.1 70 10:20 15.06.2020
1320 Clouds 22 1012 83 10000 2.6 90 09:43 15.06.2020
1321 Clouds 21 1012 88 10000 2.1 100 09:23 15.06.2020
1322 Clouds 21 1012 82 10000 0.5 0 08:46 15.06.2020
1323 Clouds 20 1012 82 10000 0.5 0 08:26 15.06.2020
1324 Clouds 20 1012 88 10000 1 0 07:53 15.06.2020
1325 Clouds 19 1012 93 10000 2.1 50 07:34 15.06.2020
1326 Clouds 18 1011 93 9000 1 0 06:58 15.06.2020
1327 Clear 18 1011 93 6000 2.1 100 06:27 15.06.2020
1328 Clear 18 1011 93 9000 1 170 05:50 15.06.2020
1329 Clear 18 1011 93 10000 1 0 05:28 15.06.2020
1330 Clear 19 1011 88 10000 1 0 04:22 15.06.2020
1331 Clear 19 1011 88 10000 1 0 03:48 15.06.2020
1332 Clear 20 1011 88 10000 1 0 02:56 15.06.2020
1333 Clouds 20 1011 93 10000 1 180 02:24 15.06.2020
1334 Clouds 21 1014 65 0 2.24 228 01:41 15.06.2020
1335 Clear 20 1011 100 9000 0.5 0 01:23 15.06.2020
1336 Clear 21 1011 100 10000 1 0 00:43 15.06.2020
1337 Clear 21 1011 100 10000 1 0 00:23 15.06.2020
1338 Clear 21 1011 94 10000 0.5 0 23:56 14.06.2020
1339 Clouds 22 1010 94 10000 1 0 23:38 14.06.2020
1340 Clouds 22 1010 94 10000 1 0 23:20 14.06.2020
1341 Rain 22 1010 83 10000 2.1 90 22:56 14.06.2020
1342 Rain 23 1010 73 10000 2.6 100 22:37 14.06.2020
1343 Rain 23 1010 73 10000 2.6 100 22:18 14.06.2020
1344 Thunderstorm 24 1010 57 9000 2.6 130 21:55 14.06.2020
1345 Clouds 25 1010 53 10000 1.5 170 21:37 14.06.2020
1346 Clouds 25 1010 53 10000 1.5 170 21:18 14.06.2020
1347 Clouds 26 1010 61 10000 2.1 190 20:55 14.06.2020
1348 Clouds 26 1010 61 10000 2.1 190 20:55 14.06.2020
1349 Clear 26 1009 54 10000 2.1 180 20:36 14.06.2020
1350 Clouds 26 1009 47 10000 1.5 210 20:18 14.06.2020
1351 Clouds 27 1009 47 10000 1.5 210 19:55 14.06.2020
1352 Clouds 27 1009 51 10000 2.1 210 19:36 14.06.2020
1353 Clouds 27 1009 54 10000 1.5 240 19:18 14.06.2020
1354 Clouds 27 1009 54 10000 1.5 240 18:55 14.06.2020
1355 Clouds 27 1009 54 10000 2.1 230 18:36 14.06.2020
1356 Clouds 27 1009 54 10000 2.1 230 18:18 14.06.2020
1357 Clouds 27 1010 57 10000 1 0 17:40 14.06.2020
1358 Clouds 27 1010 57 10000 1 0 17:20 14.06.2020
1359 Clouds 27 1010 57 10000 1 0 17:20 14.06.2020
1360 Clouds 26 1010 61 10000 1.5 0 16:57 14.06.2020
1361 Clouds 26 1010 61 10000 2.6 160 16:38 14.06.2020
1362 Clouds 26 1010 57 10000 1 0 16:19 14.06.2020
1363 Clouds 26 1010 53 0 3.13 270 15:41 14.06.2020
1364 Clouds 25 1010 64 10000 1.5 180 15:20 14.06.2020
1365 -273 0 0 0 0 0 15:00 14.06.2020
1366 Clouds 24 1011 69 10000 2.6 190 14:41 14.06.2020
1367 Clouds 24 1011 69 10000 2.6 190 14:22 14.06.2020
1368 Clouds 24 1011 69 10000 2.1 160 13:58 14.06.2020
1369 Clouds 24 1011 64 10000 1.5 190 13:40 14.06.2020
1370 Clouds 24 1011 64 10000 1.5 190 13:21 14.06.2020
1371 Clouds 24 1011 64 10000 1.5 190 13:21 14.06.2020
1372 Clouds 24 1011 60 10000 1.5 250 12:57 14.06.2020
1373 Clouds 23 1010 69 10000 2.1 0 12:38 14.06.2020
1374 Clouds 23 1010 69 10000 2.1 0 12:20 14.06.2020
1375 Clouds 23 1010 69 10000 2.1 0 12:20 14.06.2020
1376 Clouds 22 1010 73 10000 2.6 220 11:56 14.06.2020
1377 Clouds 22 1010 77 10000 2.1 230 11:38 14.06.2020
1378 Clouds 21 1010 73 10000 2.1 250 11:19 14.06.2020
1379 Clouds 20 1010 77 10000 2.1 220 10:42 14.06.2020
1380 Clouds 20 1010 77 10000 2.1 220 10:20 14.06.2020
1381 Clouds 19 1010 82 10000 2.6 260 09:48 14.06.2020
1382 Clouds 19 1010 82 10000 2.6 260 09:25 14.06.2020
1383 Clouds 18 1010 93 10000 1 0 08:57 14.06.2020
1384 Clouds 18 1010 93 10000 1.5 240 08:39 14.06.2020
1385 Clouds 17 1010 93 10000 3.1 270 08:18 14.06.2020
1386 Rain 17 1010 93 10000 3.1 270 07:48 14.06.2020
1387 Rain 17 1010 93 10000 2.1 270 07:30 14.06.2020
1388 Rain 17 1010 93 5000 2.6 260 06:26 14.06.2020
1389 Mist 17 1010 93 5000 1.5 190 05:40 14.06.2020
1390 Rain 17 1010 93 5000 0.5 0 04:53 14.06.2020
1391 Rain 17 1010 100 5000 1 0 04:28 14.06.2020
1392 Rain 17 1011 93 10000 1 0 02:56 14.06.2020
1393 Rain 17 1013 91 0 1.79 237 02:27 14.06.2020
1394 Clouds 17 1011 93 10000 1 0 01:41 14.06.2020
1395 Clouds 17 1011 93 10000 1.5 270 00:56 14.06.2020
1396 Clouds 17 1011 88 10000 1.5 230 00:37 14.06.2020
1397 Rain 17 1011 88 10000 1 0 00:18 14.06.2020
1398 Clouds 17 1011 93 10000 2.6 200 23:42 13.06.2020
1399 Clouds 17 1011 93 10000 2.6 200 23:23 13.06.2020
1400 Clouds 17 1011 93 10000 1.5 200 22:56 13.06.2020
1401 Rain 18 1011 88 10000 1.5 360 22:36 13.06.2020
1402 Rain 18 1011 88 10000 1.5 360 22:18 13.06.2020
1403 Rain 18 1011 88 10000 2.1 320 21:43 13.06.2020
1404 Rain 18 1011 88 10000 2.1 320 21:24 13.06.2020
1405 Rain 18 1011 82 10000 2.6 320 20:59 13.06.2020
1406 Rain 18 1011 88 7000 3.1 300 20:41 13.06.2020
1407 Thunderstorm 18 1012 88 7000 4.6 260 20:19 13.06.2020
1408 Thunderstorm 18 1011 88 10000 1.5 330 19:42 13.06.2020
1409 Rain 19 1011 88 10000 2.1 250 19:21 13.06.2020
1410 Rain 19 1011 88 10000 2.1 250 18:59 13.06.2020
1411 Rain 20 1010 64 10000 4.1 260 18:40 13.06.2020
1412 Thunderstorm 22 1010 50 10000 2.6 200 18:20 13.06.2020
1413 Thunderstorm 24 1010 50 10000 2.6 200 17:58 13.06.2020
1414 Clouds 25 1010 47 10000 2.6 190 17:40 13.06.2020
1415 Clouds 25 1010 42 10000 1.5 0 17:22 13.06.2020
1416 Clouds 26 1010 42 10000 1.5 0 16:55 13.06.2020
1417 Clouds 26 1010 42 10000 1 0 16:37 13.06.2020
1418 Clouds 26 1010 42 10000 1 0 16:37 13.06.2020
1419 Clouds 27 1010 41 10000 1.5 170 16:18 13.06.2020
1420 Clouds 27 1010 44 10000 2.1 0 15:44 13.06.2020
1421 Clouds 26 1010 44 10000 2.1 0 15:25 13.06.2020
1422 Clouds 26 1011 50 10000 3.1 0 14:45 13.06.2020
1423 Clear 26 1011 50 10000 3.1 0 14:26 13.06.2020
1424 Clear 25 1011 53 10000 3.6 250 13:58 13.06.2020
1425 Clear 25 1011 53 10000 3.1 240 13:40 13.06.2020
1426 Clear 25 1011 53 10000 4.1 240 13:21 13.06.2020
1427 Clear 25 1012 53 10000 4.1 240 12:44 13.06.2020
1428 Clear 24 1012 53 10000 4.1 240 12:26 13.06.2020
1429 Clear 24 1012 50 10000 2.6 300 11:57 13.06.2020
1430 Clear 24 1012 53 10000 3.6 290 11:38 13.06.2020
1431 Clear 24 1012 53 10000 3.6 290 11:19 13.06.2020
1432 Clear 24 1012 53 10000 3.6 290 11:19 13.06.2020
1433 Clear 23 1012 64 10000 1.5 300 10:56 13.06.2020
1434 Clear 23 1012 64 10000 1.5 300 10:37 13.06.2020
1435 Clear 22 1012 68 10000 1.5 240 10:18 13.06.2020
1436 Clear 22 1013 73 10000 1 0 09:42 13.06.2020
1437 Clear 20 1013 77 10000 1.5 230 09:21 13.06.2020
1438 Clear 20 1013 77 10000 1.5 230 08:48 13.06.2020
1439 Clouds 19 1013 82 10000 2.1 250 08:30 13.06.2020
1440 Clouds 18 1013 88 10000 1 180 07:50 13.06.2020
1441 Clouds 17 1013 93 10000 1 220 07:27 13.06.2020
1442 Clouds 17 1012 93 10000 1 0 06:49 13.06.2020
1443 Clouds 17 1012 93 10000 1 0 06:28 13.06.2020
1444 Clouds 17 1012 88 10000 1 130 05:42 13.06.2020
1445 Clouds 17 1012 88 10000 0.5 0 05:23 13.06.2020
1446 Clouds 17 1012 88 10000 0.5 0 03:47 13.06.2020
1447 Clouds 18 1013 82 10000 1 0 02:53 13.06.2020
1448 Clear 18 1013 82 10000 1 0 02:29 13.06.2020
1449 Clear 18 1013 88 10000 0.5 0 01:37 13.06.2020
1450 Clear 19 1013 82 10000 1.5 280 01:18 13.06.2020
1451 Clear 19 1013 77 10000 1 260 00:39 13.06.2020
1452 Clear 20 1013 72 10000 1 0 00:21 13.06.2020
1453 Clouds 20 1013 72 10000 1 0 23:41 12.06.2020
1454 Clouds 20 1013 72 10000 1 0 23:19 12.06.2020
1455 Clouds 20 1012 72 10000 1 0 22:56 12.06.2020
1456 Clouds 21 1012 64 10000 1.5 320 22:38 12.06.2020
1457 Clouds 21 1012 64 10000 1.5 300 22:18 12.06.2020
1458 Clouds 21 1012 56 10000 2.1 300 21:44 12.06.2020
1459 Clouds 22 1012 56 10000 2.1 300 21:24 12.06.2020
1460 Clouds 22 1012 53 10000 1 0 20:57 12.06.2020
1461 Clouds 23 1012 47 10000 1 0 20:38 12.06.2020
1462 Clouds 23 1011 47 10000 1 0 20:20 12.06.2020
1463 Clouds 24 1011 44 10000 1 0 19:44 12.06.2020
1464 Clouds 24 1011 44 10000 1 0 19:22 12.06.2020
1465 Clouds 24 1011 50 10000 1.5 270 18:59 12.06.2020
1466 Clouds 25 1012 47 10000 2.6 270 18:37 12.06.2020
1467 Clouds 25 1012 44 10000 2.1 0 18:18 12.06.2020
1468 Clouds 24 1012 47 10000 1 0 17:44 12.06.2020
1469 Clouds 24 1012 47 10000 1 0 17:26 12.06.2020
1470 Clouds 24 1012 47 10000 1 0 16:47 12.06.2020
1471 Clouds 23 1012 47 10000 1 0 16:24 12.06.2020
1472 Clouds 24 1012 50 10000 1.5 0 15:56 12.06.2020
1473 Clouds 24 1013 44 10000 1.5 0 15:37 12.06.2020
1474 Clouds 24 1013 49 10000 2.1 270 15:18 12.06.2020
1475 Clouds 24 1013 46 10000 2.1 0 14:41 12.06.2020
1476 Clouds 24 1013 49 10000 1.5 0 14:22 12.06.2020
1477 Clouds 24 1013 49 10000 1.5 0 13:56 12.06.2020
1478 Clouds 23 1013 53 10000 2.1 20 13:38 12.06.2020
1479 Clouds 23 1013 53 10000 1.5 20 13:18 12.06.2020
1480 Clouds 22 1013 60 10000 1 0 12:40 12.06.2020
1481 Clouds 22 1013 64 10000 1 0 12:19 12.06.2020
1482 Clouds 21 1013 60 10000 1 0 11:45 12.06.2020
1483 Clouds 21 1013 60 10000 1 0 11:23 12.06.2020
1484 Clouds 21 1013 60 10000 1 0 11:23 12.06.2020
1485 Clouds 20 1013 68 10000 0.5 0 10:57 12.06.2020
1486 Clouds 20 1013 68 10000 0.5 0 10:39 12.06.2020
1487 Clouds 20 1013 68 10000 1 0 10:21 12.06.2020
1488 Clouds 19 1013 68 10000 0.5 0 09:44 12.06.2020
1489 Clouds 19 1013 68 10000 0.5 0 09:20 12.06.2020
1490 Clouds 18 1013 77 10000 2.1 70 08:42 12.06.2020
1491 Clouds 18 1013 77 10000 2.1 70 08:23 12.06.2020
1492 Clouds 17 1012 82 10000 1.5 90 07:43 12.06.2020
1493 Clouds 17 1012 82 10000 1.5 90 07:24 12.06.2020
1494 Clouds 17 1012 88 10000 1.5 120 06:44 12.06.2020
1495 Clouds 16 1012 88 10000 1.5 120 06:23 12.06.2020
1496 Clouds 16 1012 88 10000 2.1 100 05:50 12.06.2020
1497 Clouds 16 1012 93 8000 0.65 192 05:25 12.06.2020
1498 Clear 16 1012 93 10000 1 220 03:56 12.06.2020
1499 Clear 17 1012 88 10000 1.5 80 02:43 12.06.2020
1500 Clouds 17 1012 88 10000 2.1 80 01:47 12.06.2020
1501 Clouds 17 1012 88 10000 2.1 80 01:20 12.06.2020
1502 Clouds 17 1012 82 10000 1.5 100 00:40 12.06.2020
1503 Clouds 18 1012 82 10000 1.5 100 00:21 12.06.2020
1504 Clouds 18 1011 82 10000 1 0 23:57 11.06.2020
1505 Clouds 18 1014 67 0 0.45 65 23:39 11.06.2020
1506 Clouds 18 1011 77 10000 2.1 120 23:20 11.06.2020
1507 Clouds 18 1011 72 10000 2.6 110 22:55 11.06.2020
1508 Clouds 18 1011 72 10000 2.6 110 22:37 11.06.2020
1509 Clouds 18 1011 72 10000 2.6 120 22:19 11.06.2020
1510 Clouds 19 1010 77 10000 1 190 21:43 11.06.2020
1511 Clouds 19 1010 77 10000 1.5 200 21:20 11.06.2020
1512 Clouds 19 1010 77 10000 3.1 190 20:57 11.06.2020
1513 Clouds 19 1010 77 10000 3.1 190 20:39 11.06.2020
1514 Clouds 19 1010 77 10000 3.1 190 20:20 11.06.2020
1515 Clouds 20 1010 60 10000 2.6 80 19:43 11.06.2020
1516 Clouds 21 1010 60 10000 2.6 80 19:22 11.06.2020
1517 Clouds 20 1010 60 10000 2.6 70 18:54 11.06.2020
1518 Clouds 21 1010 60 10000 2.6 90 18:36 11.06.2020
1519 Clouds 21 1010 60 10000 2.6 90 18:18 11.06.2020
1520 Clouds 21 1010 56 10000 1 0 17:55 11.06.2020
1521 Clouds 21 1010 64 10000 2.1 100 17:37 11.06.2020
1522 Clouds 21 1010 64 10000 2.1 100 17:18 11.06.2020
1523 Clouds 21 1009 56 10000 1 0 16:42 11.06.2020
1524 Clouds 21 1009 60 10000 2.6 80 16:23 11.06.2020
1525 Clouds 21 1010 64 10000 3.1 70 15:57 11.06.2020
1526 Clouds 21 1010 64 10000 3.1 70 15:57 11.06.2020
1527 Clouds 20 1010 64 10000 3.1 70 15:38 11.06.2020
1528 Clouds 21 1010 64 10000 2.6 70 15:20 11.06.2020
1529 Clouds 20 1010 68 10000 3.1 90 14:44 11.06.2020
1530 Clouds 19 1010 72 10000 3.1 90 14:21 11.06.2020
1531 Clouds 19 1010 77 10000 3.1 100 13:57 11.06.2020
1532 Clouds 19 1010 77 10000 3.1 100 13:39 11.06.2020
1533 Clouds 18 1010 77 10000 3.1 100 13:20 11.06.2020
1534 Clouds 17 1010 82 10000 3.1 120 12:56 11.06.2020
1535 Clouds 17 1010 82 10000 3.6 80 12:38 11.06.2020
1536 Clouds 17 1010 82 10000 3.6 80 12:19 11.06.2020
1537 Rain 16 1010 93 8000 3.6 90 11:57 11.06.2020
1538 Rain 16 1010 93 8000 3.6 90 11:38 11.06.2020
1539 Rain 16 1010 87 10000 3.1 80 11:19 11.06.2020
1540 Rain 16 1010 87 8000 3.6 90 10:54 11.06.2020
1541 Rain 16 1010 87 8000 3.6 90 10:36 11.06.2020
1542 Rain 16 1010 87 8000 3.1 80 10:18 11.06.2020
1543 Rain 16 1010 87 10000 2.6 60 09:40 11.06.2020
1544 Clouds 15 1010 87 8000 2.1 70 09:22 11.06.2020
1545 Rain 15 1010 87 8000 2.6 80 08:43 11.06.2020
1546 Rain 15 1010 93 7000 2.1 90 08:19 11.06.2020
1547 Rain 15 1010 100 7000 2.1 90 07:42 11.06.2020
1548 Rain 15 1009 93 7000 2.1 80 07:24 11.06.2020
1549 Rain 15 1009 93 7000 2.1 60 06:38 11.06.2020
1550 Rain 15 1009 93 7000 2.1 60 06:20 11.06.2020
1551 Rain 15 1009 93 5000 2.6 120 04:52 11.06.2020
1552 Rain 15 1010 93 9000 1.5 180 03:26 11.06.2020
1553 Rain 15 1010 93 8000 1.5 180 02:49 11.06.2020
1554 Rain 16 1010 93 10000 0.68 150 01:58 11.06.2020
1555 Rain 16 1010 93 10000 0.68 150 01:39 11.06.2020
1556 Rain 16 1010 93 10000 0.5 0 01:19 11.06.2020
1557 Rain 16 1010 93 10000 0.5 0 00:43 11.06.2020
1558 Rain 16 1010 93 10000 0.5 0 00:24 11.06.2020
1559 Rain 16 1010 87 10000 2.1 140 23:43 10.06.2020
1560 Rain 16 1010 82 10000 1.5 170 23:24 10.06.2020
1561 Rain 17 1009 77 10000 2.1 130 22:56 10.06.2020
1562 Rain 17 1009 77 10000 1 0 22:37 10.06.2020
1563 Rain 17 1009 77 10000 1 0 22:18 10.06.2020
1564 Rain 17 1009 77 10000 1 0 22:18 10.06.2020
1565 Clouds 17 1009 72 10000 2.6 120 21:55 10.06.2020
1566 Clouds 18 1009 72 10000 2.6 120 21:37 10.06.2020
1567 Clouds 18 1009 77 10000 1.5 90 21:18 10.06.2020
1568 Clouds 18 1008 68 10000 0.5 0 20:55 10.06.2020
1569 Clouds 18 1008 68 10000 0.5 0 20:37 10.06.2020
1570 Clouds 19 1008 68 10000 0.5 0 20:18 10.06.2020
1571 Clouds 19 1008 72 10000 2.1 160 19:38 10.06.2020
1572 Clouds 19 1008 72 10000 2.1 160 19:18 10.06.2020
1573 Clouds 18 1009 72 10000 2.6 160 18:56 10.06.2020
1574 Clouds 18 1009 77 10000 3.6 170 18:37 10.06.2020
1575 Clouds 18 1009 77 10000 3.6 170 18:19 10.06.2020
1576 Clouds 19 1009 64 10000 2.6 220 17:54 10.06.2020
1577 Clouds 19 1009 64 10000 2.6 220 17:36 10.06.2020
1578 Clouds 19 1009 68 10000 3.1 230 17:18 10.06.2020
1579 Clouds 19 1009 64 10000 2.6 240 16:41 10.06.2020
1580 Clouds 19 1008 60 10000 5.7 330 16:22 10.06.2020
1581 Clouds 19 1009 60 10000 4.6 330 15:59 10.06.2020
1582 Clouds 21 1009 56 10000 5.7 350 15:38 10.06.2020
1583 Clouds 22 1009 56 10000 5.7 350 15:20 10.06.2020
1584 Clouds 23 1008 56 10000 2.6 270 14:41 10.06.2020
1585 Clouds 23 1009 53 10000 2.1 270 14:22 10.06.2020
1586 Clouds 22 1009 64 10000 2.1 220 13:58 10.06.2020
1587 Clouds 22 1009 64 10000 2.1 220 13:39 10.06.2020
1588 Clouds 21 1009 68 10000 2.1 200 13:21 10.06.2020
1589 Clouds 21 1009 72 10000 2.1 200 12:42 10.06.2020
1590 Clouds 21 1009 72 10000 2.1 200 12:20 10.06.2020
1591 Clouds 20 1010 72 10000 1 0 11:56 10.06.2020
1592 Clouds 20 1010 72 10000 1 0 11:56 10.06.2020
1593 Clouds 20 1010 72 10000 1 0 11:38 10.06.2020
1594 Clouds 20 1010 72 10000 1.5 220 11:19 10.06.2020
1595 Clouds 20 1010 77 10000 0.5 0 10:44 10.06.2020
1596 Clouds 19 1010 77 10000 0.5 0 10:25 10.06.2020
1597 Clouds 18 1010 77 10000 2.1 200 09:58 10.06.2020
1598 Clouds 18 1010 77 10000 2.1 200 09:39 10.06.2020
1599 Clouds 18 1010 77 10000 1 0 09:20 10.06.2020
1600 Clouds 17 1010 82 10000 1 0 08:42 10.06.2020
1601 Clouds 17 1009 82 10000 0.5 0 08:23 10.06.2020
1602 Clouds 15 1010 93 10000 0.5 0 07:43 10.06.2020
1603 Clouds 14 1010 93 10000 1 0 07:23 10.06.2020
1604 Clouds 14 1010 93 10000 1.5 260 06:59 10.06.2020
1605 Clouds 14 1010 93 10000 1.5 220 06:38 10.06.2020
1606 Rain 14 1010 93 10000 1.5 220 06:18 10.06.2020
1607 Rain 14 1010 93 10000 1 0 05:49 10.06.2020
1608 Rain 14 1010 93 10000 1.5 210 05:18 10.06.2020
1609 Rain 15 1010 93 10000 1 0 04:29 10.06.2020
1610 Rain 16 1010 82 10000 2.1 250 02:34 10.06.2020
1611 Rain 16 1011 87 10000 2.1 250 01:47 10.06.2020
1612 Rain 16 1010 82 10000 1.5 210 01:21 10.06.2020
1613 Rain 17 1010 87 10000 1 310 00:38 10.06.2020
1614 Rain 17 1010 82 10000 1 0 00:20 10.06.2020
1615 Rain 18 1010 72 10000 1.5 320 23:42 09.06.2020
1616 Clouds 18 1010 72 10000 2.1 300 23:23 09.06.2020
1617 Clouds 18 1010 68 10000 2.1 300 22:57 09.06.2020
1618 Clouds 19 1010 72 10000 2.6 280 22:39 09.06.2020
1619 Clouds 19 1010 72 10000 2.6 280 22:20 09.06.2020
1620 Clouds 19 1010 63 10000 3.1 260 21:57 09.06.2020
1621 Clouds 19 1010 63 10000 3.1 260 21:39 09.06.2020
1622 Clouds 19 1009 60 10000 2.1 250 21:21 09.06.2020
1623 Clouds 20 1009 52 10000 2.1 250 20:57 09.06.2020
1624 Clouds 20 1009 56 10000 2.6 260 20:39 09.06.2020
1625 Clouds 21 1009 56 10000 2.6 260 20:20 09.06.2020
1626 Clouds 21 1009 56 10000 3.1 260 19:58 09.06.2020
1627 Clouds 21 1009 56 10000 3.1 260 19:39 09.06.2020
1628 Rain 21 1012 45 0 3.13 231 19:20 09.06.2020
1629 Clouds 21 1009 56 10000 2.1 260 18:57 09.06.2020
1630 Clouds 22 1009 56 10000 1.5 260 18:39 09.06.2020
1631 Clouds 22 1009 56 10000 1.5 260 18:19 09.06.2020
1632 Clouds 22 1009 60 10000 3.1 260 17:55 09.06.2020
1633 Clouds 22 1009 60 10000 3.1 260 17:36 09.06.2020
1634 Clouds 22 1009 60 10000 3.1 250 17:18 09.06.2020
1635 Clouds 22 1009 60 10000 3.6 210 16:42 09.06.2020
1636 Clouds 22 1009 60 10000 4.1 210 16:23 09.06.2020
1637 Clouds 21 1009 68 10000 2.6 200 15:55 09.06.2020
1638 Rain 21 1009 68 10000 2.6 200 15:37 09.06.2020
1639 Clouds 22 1009 60 10000 1.5 0 15:19 09.06.2020
1640 Clouds 21 1009 64 10000 2.6 200 14:41 09.06.2020
1641 Clouds 21 1009 68 10000 2.1 190 14:21 09.06.2020
1642 Clouds 21 1010 64 10000 1.5 130 13:58 09.06.2020
1643 Clouds 21 1010 60 10000 1.5 0 13:40 09.06.2020
1644 Clouds 21 1010 60 10000 1.5 0 13:21 09.06.2020
1645 Clouds 21 1010 77 10000 1.5 0 12:44 09.06.2020
1646 Clouds 20 1010 72 10000 1.5 0 12:21 09.06.2020
1647 Clouds 20 1010 77 10000 1 0 11:59 09.06.2020
1648 Clouds 20 1010 77 10000 1 0 11:41 09.06.2020
1649 Clouds 19 1010 77 10000 1.5 40 11:20 09.06.2020
1650 Clouds 18 1010 82 10000 1 0 10:58 09.06.2020
1651 Clouds 18 1010 82 10000 1 0 10:40 09.06.2020
1652 Clouds 18 1010 82 10000 1 0 10:22 09.06.2020
1653 Clouds 17 1010 88 10000 2.1 70 09:44 09.06.2020
1654 Clouds 17 1009 88 10000 2.1 60 09:24 09.06.2020
1655 Clouds 17 1009 82 10000 1.5 10 08:56 09.06.2020
1656 Clouds 17 1009 82 10000 1.5 10 08:38 09.06.2020
1657 Clouds 16 1009 93 10000 1.5 350 08:19 09.06.2020
1658 Clouds 15 1009 93 10000 1.5 10 07:38 09.06.2020
1659 Rain 15 1009 100 10000 1 40 07:19 09.06.2020
1660 Rain 15 1009 100 10000 1 20 06:53 09.06.2020
1661 Rain 15 1009 100 10000 1 20 06:53 09.06.2020
1662 Rain 15 1009 93 10000 1 0 06:33 09.06.2020
1663 Rain 15 1008 100 10000 1 100 05:34 09.06.2020
1664 Rain 15 1009 100 10000 2.1 30 03:19 09.06.2020
1665 Rain 15 1009 93 10000 2.1 30 01:42 09.06.2020
1666 Rain 15 1012 87 0 1.79 61 01:19 09.06.2020
1667 Rain 15 1009 93 10000 2.1 40 00:49 09.06.2020
1668 Rain 15 1009 100 10000 2.6 40 00:20 09.06.2020
1669 Rain 15 1009 93 10000 3.1 100 23:58 08.06.2020
1670 Rain 15 1008 93 10000 3.1 70 23:37 08.06.2020
1671 Rain 15 1008 93 10000 3.1 70 23:19 08.06.2020
1672 Thunderstorm 15 1008 93 10000 2.6 100 22:42 08.06.2020
1673 Thunderstorm 14 1008 100 8000 3.1 10 22:22 08.06.2020
1674 Thunderstorm 14 1008 100 6000 2.6 340 21:58 08.06.2020
1675 Thunderstorm 14 1008 100 6000 2.6 340 21:40 08.06.2020
1676 Thunderstorm 15 1008 87 200 8.2 320 21:21 08.06.2020
1677 Thunderstorm 17 1006 88 10000 3.6 350 20:57 08.06.2020
1678 Rain 17 1006 93 8000 1.5 340 20:39 08.06.2020
1679 Rain 19 1006 93 8000 1.5 340 20:20 08.06.2020
1680 Rain 20 1006 88 6000 1 0 19:55 08.06.2020
1681 Rain 20 1006 88 9000 1 0 19:37 08.06.2020
1682 Rain 20 1006 88 9000 1 0 19:18 08.06.2020
1683 Clouds 20 1006 88 10000 2.1 170 18:40 08.06.2020
1684 Rain 21 1006 73 10000 2.1 170 18:18 08.06.2020
1685 Rain 21 1006 73 10000 2.1 170 17:56 08.06.2020
1686 Rain 21 1006 73 10000 2.1 170 17:37 08.06.2020
1687 Rain 22 1006 73 10000 2.1 170 17:19 08.06.2020
1688 Clouds 21 1004 79 0 1.68 148 16:45 08.06.2020
1689 Clouds 22 1006 72 0 1.79 6 16:25 08.06.2020
1690 Clouds 22 1010 53 0 1.79 34 15:57 08.06.2020
1691 Clouds 22 1009 78 0 1.17 124 15:39 08.06.2020
1692 Clouds 21 1007 72 10000 1.5 60 15:19 08.06.2020
1693 Clouds 21 1007 72 10000 1.5 60 14:41 08.06.2020
1694 Clouds 21 1007 72 10000 1.5 60 14:22 08.06.2020
1695 Clouds 20 1008 72 10000 2.1 50 13:44 08.06.2020
1696 Clouds 20 1008 77 10000 2.1 50 13:26 08.06.2020
1697 Rain 19 1008 82 10000 2.6 90 12:58 08.06.2020
1698 Rain 19 1008 82 10000 2.6 90 12:40 08.06.2020
1699 Clouds 19 1008 77 10000 2.1 80 12:19 08.06.2020
1700 Clouds 19 1008 77 10000 2.1 110 11:42 08.06.2020
1701 Clouds 19 1008 77 10000 2.1 90 11:24 08.06.2020
1702 Clouds 18 1008 77 10000 2.1 60 10:59 08.06.2020
1703 Clouds 18 1008 77 10000 2.1 60 10:40 08.06.2020
1704 Clouds 18 1008 82 10000 1.5 70 10:21 08.06.2020
1705 Clouds 17 1008 82 10000 1 0 09:58 08.06.2020
1706 Clouds 17 1008 82 10000 1 0 09:58 08.06.2020
1707 Clouds 17 1008 82 10000 1 0 09:58 08.06.2020
1708 Clouds 17 1008 82 10000 1 0 09:40 08.06.2020
1709 Rain 16 1008 87 10000 1.5 30 09:22 08.06.2020
1710 Rain 16 1008 87 10000 1 0 08:47 08.06.2020
1711 Rain 16 1008 87 10000 1 0 08:47 08.06.2020
1712 Clouds 15 1008 87 10000 2.1 10 08:23 08.06.2020
1713 Clouds 15 1008 87 10000 2.1 30 07:46 08.06.2020
1714 Rain 15 1007 87 10000 1.5 40 07:24 08.06.2020
1715 Rain 15 1007 100 10000 0.5 0 06:51 08.06.2020
1716 Rain 15 1007 93 10000 2.1 30 06:33 08.06.2020
1717 Rain 15 1007 100 10000 1 0 05:52 08.06.2020
1718 Rain 15 1006 93 10000 1.5 20 04:29 08.06.2020
1719 Rain 15 1007 100 10000 1 0 02:32 08.06.2020
1720 Rain 15 1007 100 10000 1.5 30 01:55 08.06.2020
1721 Rain 15 1007 100 10000 1 0 01:30 08.06.2020
1722 Rain 15 1007 93 9000 2.1 90 00:33 08.06.2020
1723 Rain 15 1007 100 10000 2.6 10 23:58 07.06.2020
1724 Rain 15 1007 100 10000 2.6 10 23:36 07.06.2020
1725 Rain 15 1007 93 10000 3.1 20 23:18 07.06.2020
1726 Rain 16 1007 93 7000 2.6 320 22:39 07.06.2020
1727 Rain 16 1007 93 8000 3.6 10 22:19 07.06.2020
1728 Rain 16 1006 88 10000 3.6 30 21:59 07.06.2020
1729 Rain 16 1006 88 10000 3.6 10 21:39 07.06.2020
1730 Rain 16 1006 88 10000 3.6 10 21:20 07.06.2020
1731 Rain 16 1006 88 10000 3.6 10 21:20 07.06.2020
1732 Thunderstorm 16 1006 88 10000 3.6 10 21:20 07.06.2020
1733 Thunderstorm 16 1006 88 10000 3.6 10 21:20 07.06.2020
1734 Rain 17 1006 88 10000 3.1 20 20:56 07.06.2020
1735 Clouds 17 1006 88 10000 3.1 20 20:38 07.06.2020
1736 Clouds 17 1006 88 10000 3.1 20 20:38 07.06.2020
1737 Clouds 17 1005 88 10000 3.6 40 20:18 07.06.2020
1738 Clouds 17 1005 88 7000 4.6 360 19:55 07.06.2020
1739 Rain 17 1005 93 4000 5.1 10 19:37 07.06.2020
1740 Thunderstorm 16 1005 93 4000 5.1 10 19:18 07.06.2020
1741 Rain 17 1005 88 8000 6.7 10 18:42 07.06.2020
1742 Rain 18 1004 82 10000 5.7 350 18:23 07.06.2020
1743 Rain 18 1004 77 10000 4.6 310 18:00 07.06.2020
1744 Rain 18 1004 77 10000 4.6 310 17:40 07.06.2020
1745 Rain 19 1004 64 10000 2.1 120 17:22 07.06.2020
1746 Rain 20 1004 68 10000 3.1 140 16:44 07.06.2020
1747 Rain 20 1004 73 10000 5.1 130 16:22 07.06.2020
1748 Rain 20 1004 68 10000 5.1 120 15:45 07.06.2020
1749 Clouds 20 1005 68 10000 5.1 110 15:24 07.06.2020
1750 Clouds 20 1005 73 10000 5.7 120 14:59 07.06.2020
1751 Rain 20 1005 61 0 2.68 91 14:37 07.06.2020
1752 Clouds 20 1005 73 10000 6.2 130 14:18 07.06.2020
1753 Clouds 20 1005 77 10000 4.1 130 13:45 07.06.2020
1754 Clouds 20 1005 77 10000 4.1 130 13:45 07.06.2020
1755 Rain 19 1005 77 10000 4.1 130 13:45 07.06.2020
1756 Rain 19 1005 82 10000 5.7 120 13:19 07.06.2020
1757 Rain 19 1005 68 0 2.68 105 12:44 07.06.2020
1758 Rain 19 1005 88 8000 3.6 150 12:26 07.06.2020
1759 Rain 19 1005 77 10000 4.6 130 11:56 07.06.2020
1760 Rain 19 1004 88 10000 3.1 90 11:38 07.06.2020
1761 Rain 19 1005 77 10000 4.6 130 11:38 07.06.2020
1762 Rain 19 1004 88 10000 3.1 90 11:20 07.06.2020
1763 Rain 19 1005 82 7000 3.6 110 10:57 07.06.2020
1764 Rain 19 1005 82 7000 3.6 110 10:39 07.06.2020
1765 Rain 18 1005 82 10000 3.1 140 10:19 07.06.2020
1766 Rain 18 1005 77 10000 4.1 110 09:54 07.06.2020
1767 Rain 18 1005 82 10000 4.1 130 09:36 07.06.2020
1768 Clouds 18 1005 82 10000 4.1 130 09:18 07.06.2020
1769 Clouds 18 1005 82 10000 4.6 110 08:41 07.06.2020
1770 Clouds 19 1005 82 10000 4.6 110 08:41 07.06.2020
1771 Rain 18 1007 73 0 4.02 104 08:23 07.06.2020
1772 Rain 18 1008 74 0 2.68 96 07:43 07.06.2020
1773 Clouds 18 1005 82 10000 3.1 110 07:24 07.06.2020
1774 Rain 18 1005 77 10000 3.6 100 06:24 07.06.2020
1775 Clouds 19 1005 82 10000 3.1 70 05:28 07.06.2020
1776 Clouds 19 1006 72 10000 3.1 40 04:19 07.06.2020
1777 Clouds 19 1006 72 10000 1 0 02:26 07.06.2020
1778 Clouds 19 1006 68 10000 1.5 300 01:40 07.06.2020
1779 Clouds 19 1006 68 10000 1.5 300 01:22 07.06.2020
1780 Clouds 20 1006 68 10000 2.1 290 00:40 07.06.2020
1781 Clouds 19 1006 68 10000 2.1 290 00:18 07.06.2020
1782 Clouds 20 1006 68 10000 2.1 290 23:55 06.06.2020
1783 Clouds 20 1006 68 10000 2.1 290 23:36 06.06.2020
1784 Clouds 20 1006 64 10000 2.6 270 23:18 06.06.2020
1785 Clouds 20 1006 64 10000 3.1 270 22:55 06.06.2020
1786 Clouds 20 1006 64 10000 3.1 270 22:36 06.06.2020
1787 Clouds 21 1006 64 10000 3.6 270 22:18 06.06.2020
1788 Clouds 21 1005 60 10000 4.1 270 21:42 06.06.2020
1789 Clouds 22 1005 60 10000 3.1 260 21:20 06.06.2020
1790 Rain 22 1005 51 0 2.68 276 20:41 06.06.2020
1791 Clouds 22 1004 56 10000 2.6 230 20:21 06.06.2020
1792 Clouds 23 1005 53 10000 3.1 230 19:59 06.06.2020
1793 Clouds 23 1005 53 10000 3.1 230 19:41 06.06.2020
1794 Clouds 24 1005 53 10000 1.5 220 19:22 06.06.2020
1795 Clouds 24 1005 57 10000 2.1 220 18:57 06.06.2020
1796 Clouds 25 1005 57 10000 2.1 220 18:39 06.06.2020
1797 Clouds 26 1005 57 10000 2.1 180 18:20 06.06.2020
1798 Clouds 26 1005 53 10000 1.5 190 17:44 06.06.2020
1799 Clouds 26 1005 50 10000 2.6 120 17:21 06.06.2020
1800 Clouds 27 1005 47 10000 2.1 190 16:57 06.06.2020
1801 Clouds 26 1005 47 10000 2.1 190 16:39 06.06.2020
1802 Clouds 27 1006 47 10000 2.1 0 16:20 06.06.2020
1803 Clouds 26 1006 50 10000 2.6 90 15:45 06.06.2020
1804 Clouds 26 1006 50 10000 2.1 150 15:21 06.06.2020
1805 Clouds 26 1006 50 10000 2.1 150 14:59 06.06.2020
1806 Clouds 25 1006 44 10000 2.6 0 14:38 06.06.2020
1807 Clouds 26 1006 53 10000 3.1 180 14:19 06.06.2020
1808 Clouds 26 1006 53 10000 3.1 160 13:48 06.06.2020
1809 Clouds 25 1006 57 10000 2.6 110 13:19 06.06.2020
1810 Clouds 24 1007 57 10000 3.6 100 12:58 06.06.2020
1811 Clouds 24 1006 57 10000 3.6 90 12:39 06.06.2020
1812 Clouds 23 1006 57 10000 3.6 90 12:20 06.06.2020
1813 Clouds 23 1006 64 10000 3.1 70 11:55 06.06.2020
1814 Clouds 23 1006 64 10000 3.1 70 11:36 06.06.2020
1815 Clouds 22 1007 64 10000 3.6 110 11:18 06.06.2020
1816 Clouds 22 1007 68 10000 2.6 70 10:55 06.06.2020
1817 Clouds 22 1007 68 10000 2.6 70 10:36 06.06.2020
1818 Clouds 22 1007 68 10000 2.1 80 10:18 06.06.2020
1819 Clouds 21 1007 68 10000 3.1 90 09:41 06.06.2020
1820 Clouds 20 1006 72 10000 2.6 100 09:23 06.06.2020
1821 Clouds 20 1006 77 10000 3.1 70 08:48 06.06.2020
1822 Clouds 19 1006 77 10000 3.1 70 08:24 06.06.2020
1823 Clouds 19 1006 72 10000 2.6 50 07:56 06.06.2020
1824 Clouds 19 1006 77 10000 2.1 360 07:38 06.06.2020
1825 Clear 18 1006 87 10000 2.1 360 07:19 06.06.2020
1826 Clear 17 1006 87 10000 2.1 360 06:43 06.06.2020
1827 Clear 17 1006 87 10000 2.1 360 06:43 06.06.2020
1828 Clear 17 1005 87 10000 1.5 340 06:25 06.06.2020
1829 Clear 17 1005 82 10000 0.5 0 05:33 06.06.2020
1830 Clear 18 1004 82 10000 1.5 30 04:50 06.06.2020
1831 Clouds 18 1005 87 10000 1.5 330 03:29 06.06.2020
1832 Clear 19 1005 72 10000 1.5 40 02:26 06.06.2020
1833 Clear 19 1004 72 10000 1.5 40 01:23 06.06.2020
1834 Clear 19 1004 72 10000 1 310 00:56 06.06.2020
1835 Clear 20 1003 68 10000 1 0 00:38 06.06.2020
1836 Clear 20 1003 68 10000 1 0 00:20 06.06.2020
1837 Clear 21 1003 68 10000 1.5 270 23:39 05.06.2020
1838 Clear 21 1003 77 10000 1 0 23:19 05.06.2020
1839 Clear 21 1002 72 10000 1 0 22:56 05.06.2020
1840 Clear 22 1002 72 10000 1 0 22:37 05.06.2020
1841 Clear 22 1001 60 10000 1 0 22:19 05.06.2020
1842 Clear 23 1001 53 10000 1.5 220 21:42 05.06.2020
1843 Clear 24 1000 44 10000 2.1 230 21:22 05.06.2020
1844 Clear 24 1000 38 10000 2.1 260 20:58 05.06.2020
1845 Clear 25 1000 38 10000 2.1 260 20:39 05.06.2020
1846 Clear 25 1000 39 10000 2.1 280 20:21 05.06.2020
1847 Clear 26 999 34 10000 3.1 260 19:43 05.06.2020
1848 Clear 26 999 30 10000 3.1 250 19:23 05.06.2020
1849 Clear 26 999 36 10000 3.1 230 18:57 05.06.2020
1850 Clear 26 999 36 10000 3.1 230 18:38 05.06.2020
1851 Clear 27 999 34 10000 3.1 270 18:19 05.06.2020
1852 Clouds 26 999 36 10000 3.1 260 17:57 05.06.2020
1853 Clouds 26 999 36 10000 3.1 260 17:39 05.06.2020
1854 Clouds 27 999 39 10000 3.1 230 17:19 05.06.2020
1855 Clouds 26 998 50 10000 3.6 230 16:39 05.06.2020
1856 Clouds 25 998 50 10000 3.6 230 16:20 05.06.2020
1857 Clouds 25 998 50 10000 3.1 240 15:55 05.06.2020
1858 Clouds 25 998 50 10000 3.1 240 15:55 05.06.2020
1859 Clouds 25 998 50 10000 3.1 240 15:36 05.06.2020
1860 Clouds 25 998 53 10000 3.1 240 15:18 05.06.2020
1861 Clouds 25 998 57 10000 3.1 220 14:40 05.06.2020
1862 Clouds 24 998 60 10000 3.1 260 14:22 05.06.2020
1863 Clouds 24 998 56 10000 3.1 0 13:58 05.06.2020
1864 Clouds 23 998 56 10000 3.1 0 13:39 05.06.2020
1865 Clouds 23 998 64 10000 2.6 220 13:20 05.06.2020
1866 Clouds 22 998 64 10000 3.1 230 12:42 05.06.2020
1867 Clouds 22 998 68 10000 3.6 240 12:20 05.06.2020
1868 Clouds 21 998 68 10000 3.1 250 11:56 05.06.2020
1869 Clouds 21 998 68 10000 3.1 250 11:37 05.06.2020
1870 Clouds 21 998 68 10000 2.6 230 11:19 05.06.2020
1871 Clear 20 997 68 10000 3.1 250 10:42 05.06.2020
1872 Clear 20 997 68 10000 2.6 280 10:21 05.06.2020
1873 Clear 19 997 72 10000 2.1 290 09:58 05.06.2020
1874 Clear 18 997 77 10000 1.5 280 09:40 05.06.2020
1875 Clear 17 997 77 10000 1.5 280 09:21 05.06.2020
1876 Clear 17 997 77 10000 1.5 280 08:59 05.06.2020
1877 Clear 17 997 77 10000 0.5 0 08:58 05.06.2020
1878 Clear 17 997 77 10000 1.5 280 08:58 05.06.2020
1879 Clear 17 997 77 10000 0.5 0 08:40 05.06.2020
1880 Clouds 16 997 88 10000 1 0 08:19 05.06.2020
1881 Clouds 15 997 93 10000 1.5 240 07:53 05.06.2020
1882 Clouds 15 997 93 10000 2.1 290 07:33 05.06.2020
1883 Clouds 14 997 100 10000 1.5 250 06:50 05.06.2020
1884 Clouds 14 996 93 10000 0.5 0 05:23 05.06.2020
1885 Clouds 14 995 93 10000 0.5 0 04:28 05.06.2020
1886 Clouds 14 995 93 10000 2.1 260 03:38 05.06.2020
1887 Rain 15 996 100 10000 1 0 02:30 05.06.2020
1888 Rain 15 996 100 10000 1 0 01:59 05.06.2020
1889 Rain 15 996 100 3700 2.1 320 01:33 05.06.2020
1890 Rain 15 996 100 6000 2.1 10 00:46 05.06.2020
1891 Rain 15 996 100 8000 1.5 40 00:22 05.06.2020
1892 Rain 15 997 93 4900 2.1 80 23:58 04.06.2020
1893 Rain 15 997 93 4900 2.1 80 23:40 04.06.2020
1894 Rain 15 997 93 6000 2.6 70 23:21 04.06.2020
1895 Mist 15 997 93 5000 3.6 90 22:42 04.06.2020
1896 Rain 16 997 100 6000 4.1 110 22:21 04.06.2020
1897 Rain 16 997 100 6000 4.1 100 21:58 04.06.2020
1898 Rain 16 997 100 6000 4.1 100 21:58 04.06.2020
1899 Rain 16 997 93 8000 4.1 90 21:38 04.06.2020
1900 Rain 16 997 93 8000 4.1 90 21:20 04.06.2020
1901 Rain 16 997 100 6000 4.6 90 20:57 04.06.2020
1902 Rain 16 997 100 6000 4.6 90 20:38 04.06.2020
1903 Rain 16 997 100 6000 4.6 90 20:19 04.06.2020
1904 Rain 16 998 100 7000 4.6 90 19:55 04.06.2020
1905 Rain 16 998 93 6000 4.6 110 19:36 04.06.2020
1906 Rain 16 998 93 6000 4.6 110 19:18 04.06.2020
1907 Rain 16 999 93 7000 4.6 90 18:38 04.06.2020
1908 Rain 16 999 93 7000 4.6 90 18:38 04.06.2020
1909 Rain 16 999 93 7000 4.6 90 18:20 04.06.2020
1910 Rain 16 999 93 7000 4.6 90 18:20 04.06.2020
1911 Rain 16 999 88 6000 4.6 100 17:44 04.06.2020
1912 Rain 16 999 93 8000 4.1 110 17:23 04.06.2020
1913 Rain 17 1000 93 10000 3.6 110 16:58 04.06.2020
1914 Rain 17 1000 93 10000 3.6 110 16:40 04.06.2020
1915 Rain 17 1000 88 10000 5.1 110 16:20 04.06.2020
1916 Drizzle 17 1000 88 10000 5.1 120 15:44 04.06.2020
1917 Rain 17 1000 82 10000 6.2 120 15:26 04.06.2020
1918 Clouds 17 1001 88 10000 5.1 110 14:42 04.06.2020
1919 Clouds 16 1001 88 10000 4.6 100 14:23 04.06.2020
1920 Rain 16 1001 88 10000 4.1 100 13:58 04.06.2020
1921 Rain 16 1001 93 10000 4.1 100 13:40 04.06.2020
1922 Rain 16 1001 93 10000 4.1 100 13:20 04.06.2020
1923 Rain 17 1001 93 10000 4.1 90 12:59 04.06.2020
1924 Rain 17 1001 93 10000 4.1 90 12:40 04.06.2020
1925 Rain 17 1001 93 8000 4.1 110 12:22 04.06.2020
1926 Rain 17 1001 93 7000 4.1 90 11:54 04.06.2020
1927 Rain 17 1001 93 7000 4.1 90 11:36 04.06.2020
1928 Rain 17 1001 93 6000 3.6 110 11:18 04.06.2020
1929 Rain 16 1002 93 6000 2.6 110 10:41 04.06.2020
1930 Rain 16 1002 93 6000 2.6 110 10:22 04.06.2020
1931 Rain 16 1002 93 6000 4.1 100 09:57 04.06.2020
1932 Rain 16 1002 93 6000 4.1 100 09:38 04.06.2020
1933 Rain 16 1002 93 6000 3.6 100 09:20 04.06.2020
1934 Rain 16 1002 87 10000 3.1 90 08:42 04.06.2020
1935 Rain 16 1002 87 10000 3.1 90 08:23 04.06.2020
1936 Rain 17 1002 82 10000 2.6 100 07:42 04.06.2020
1937 Rain 17 1002 82 10000 2.6 100 07:21 04.06.2020
1938 Clouds 17 1002 72 10000 3.1 100 06:40 04.06.2020
1939 Clouds 17 1002 72 10000 3.1 100 06:21 04.06.2020
1940 Clouds 18 1002 82 10000 1.5 90 05:33 04.06.2020
1941 Clouds 18 1003 77 10000 2.1 70 03:51 04.06.2020
1942 Clouds 19 1004 77 10000 2.1 40 02:22 04.06.2020
1943 Clouds 19 1004 77 10000 1.5 80 01:39 04.06.2020
1944 Clouds 19 1005 72 10000 3.1 80 01:18 04.06.2020
1945 Clouds 19 1005 72 10000 1.5 40 00:19 04.06.2020
1946 Clouds 19 1005 72 10000 3.1 10 23:38 03.06.2020
1947 Clouds 19 1006 72 10000 3.6 20 23:19 03.06.2020
1948 Clouds 20 1006 72 10000 2.6 360 22:54 03.06.2020
1949 Clouds 20 1006 72 10000 2.6 360 22:36 03.06.2020
1950 Clouds 20 1006 68 10000 4.6 10 22:18 03.06.2020
1951 Clouds 20 1006 60 10000 3.6 280 21:55 03.06.2020
1952 Thunderstorm 21 1006 56 10000 3.1 230 21:36 03.06.2020
1953 Thunderstorm 21 1006 56 10000 3.1 230 21:18 03.06.2020
1954 Thunderstorm 21 1006 56 10000 4.1 230 20:41 03.06.2020
1955 Thunderstorm 22 1005 60 10000 5.1 230 20:21 03.06.2020
1956 Thunderstorm 22 1005 60 10000 6.2 250 19:57 03.06.2020
1957 Thunderstorm 22 1005 60 10000 6.2 250 19:38 03.06.2020
1958 Thunderstorm 22 1005 57 10000 5.1 250 19:20 03.06.2020
1959 Thunderstorm 23 1003 53 10000 4.1 250 18:57 03.06.2020
1960 Thunderstorm 24 1003 53 10000 4.1 250 18:39 03.06.2020
1961 Clouds 25 1004 47 10000 3.1 240 18:19 03.06.2020
1962 Clouds 26 1004 51 10000 3.6 250 17:44 03.06.2020
1963 Clouds 26 1005 51 10000 3.1 210 17:23 03.06.2020
1964 Clouds 27 1005 48 10000 3.1 210 16:58 03.06.2020
1965 Clouds 27 1005 48 10000 3.1 210 16:39 03.06.2020
1966 Clouds 27 1006 47 10000 3.1 190 16:19 03.06.2020
1967 Clouds 27 1006 44 10000 2.1 240 15:54 03.06.2020
1968 Clouds 27 1006 44 10000 2.1 240 15:36 03.06.2020
1969 Clouds 27 1006 47 10000 2.1 210 15:18 03.06.2020
1970 Clouds 26 1007 50 10000 1 0 14:42 03.06.2020
1971 Clouds 26 1007 53 10000 3.6 210 14:22 03.06.2020
1972 Clouds 26 1008 53 10000 2.6 260 13:40 03.06.2020
1973 Clouds 25 1008 53 10000 1.5 0 13:20 03.06.2020
1974 Clouds 25 1008 53 10000 1.5 0 13:20 03.06.2020
1975 Clouds 25 1008 50 10000 2.1 200 12:54 03.06.2020
1976 Clouds 24 1008 47 10000 1.5 0 12:36 03.06.2020
1977 Clouds 24 1008 47 10000 1.5 0 12:36 03.06.2020
1978 Clouds 25 1008 47 10000 1.5 0 12:18 03.06.2020
1979 Clouds 24 1009 60 10000 1.5 100 11:41 03.06.2020
1980 Clouds 23 1009 60 10000 1.5 0 11:23 03.06.2020
1981 Clouds 22 1009 64 10000 0.5 0 10:43 03.06.2020
1982 Clouds 21 1009 64 10000 1 0 10:24 03.06.2020
1983 Clouds 21 1009 68 10000 1.5 100 09:47 03.06.2020
1984 Clouds 20 1009 77 10000 1.5 70 09:23 03.06.2020
1985 Clouds 20 1009 68 10000 0.5 0 08:59 03.06.2020
1986 Clouds 19 1009 68 10000 0.5 0 08:41 03.06.2020
1987 Clear 19 1010 68 10000 0.5 0 08:21 03.06.2020
1988 Clear 18 1010 88 10000 0.5 0 07:44 03.06.2020
1989 Clear 17 1010 93 10000 0.5 0 07:23 03.06.2020
1990 Clear 17 1010 93 10000 0.5 0 06:54 03.06.2020
1991 Rain 17 1010 93 10000 1.5 200 06:33 03.06.2020
1992 Rain 17 1010 93 10000 1.5 200 06:33 03.06.2020
1993 Rain 17 1011 67 0 0.89 32 05:48 03.06.2020
1994 Rain 17 1012 66 0 1.34 314 04:59 03.06.2020
1995 Rain 17 1010 87 10000 0.5 0 03:51 03.06.2020
1996 Rain 17 1011 77 10000 1 0 03:23 03.06.2020
1997 Clouds 18 1011 82 10000 1 0 02:24 03.06.2020
1998 Clouds 18 1012 82 10000 2.1 350 00:49 03.06.2020
1999 Clouds 19 1012 82 10000 1.5 20 00:26 03.06.2020
2000 Clouds 19 1012 77 10000 1.5 20 23:52 02.06.2020
2001 Clouds 19 1011 68 10000 3.1 30 23:28 02.06.2020
2002 Clouds 20 1011 52 10000 3.1 230 22:58 02.06.2020
2003 Clouds 21 1011 52 10000 3.1 230 22:39 02.06.2020
2004 Clouds 21 1011 49 10000 6.7 210 22:39 02.06.2020
2005 Clouds 21 1011 49 10000 6.7 210 22:19 02.06.2020
2006 Thunderstorm 20 1011 63 8000 6.2 180 21:56 02.06.2020
2007 Rain 20 1011 63 8000 6.2 180 21:38 02.06.2020
2008 Thunderstorm 20 1012 64 10000 5.1 160 21:19 02.06.2020
2009 Thunderstorm 20 1013 72 5000 6.7 10 20:58 02.06.2020
2010 Thunderstorm 20 1013 72 5000 6.7 10 20:58 02.06.2020
2011 Thunderstorm 24 1010 44 10000 8.2 60 20:39 02.06.2020
2012 Thunderstorm 24 1010 44 10000 8.2 60 20:20 02.06.2020
2013 Thunderstorm 27 1009 34 10000 6.7 200 19:43 02.06.2020
2014 Thunderstorm 27 1009 36 10000 5.1 220 19:25 02.06.2020
2015 Thunderstorm 27 1009 36 10000 5.1 220 19:25 02.06.2020
2016 Thunderstorm 27 1009 37 10000 4.6 200 18:57 02.06.2020
2017 Thunderstorm 27 1009 37 10000 4.6 200 18:57 02.06.2020
2018 Clear 28 1010 32 0 7.15 248 18:39 02.06.2020
2019 Clouds 29 1009 33 10000 3.1 220 18:20 02.06.2020
2020 Clouds 29 1010 35 10000 3.1 260 17:55 02.06.2020
2021 Clouds 29 1010 35 10000 3.1 260 17:37 02.06.2020
2022 Clear 29 1010 37 10000 3.1 250 17:18 02.06.2020
2023 Clear 29 1010 35 10000 3.1 260 16:41 02.06.2020
2024 Clear 28 1011 37 10000 3.6 250 16:21 02.06.2020
2025 Clear 28 1011 37 10000 3.1 250 15:58 02.06.2020
2026 Clear 28 1011 37 10000 3.1 250 15:38 02.06.2020
2027 Clouds 28 1012 39 10000 3.6 240 15:20 02.06.2020
2028 Clouds 27 1012 42 10000 3.6 250 14:45 02.06.2020
2029 Clouds 27 1012 47 10000 3.1 220 14:27 02.06.2020
2030 Clouds 27 1012 47 10000 3.1 240 13:55 02.06.2020
2031 Clouds 27 1012 47 10000 3.1 240 13:36 02.06.2020
2032 Clear 27 1013 44 10000 3.1 240 13:18 02.06.2020
2033 Clear 26 1013 47 10000 2.1 0 12:40 02.06.2020
2034 Clear 25 1014 50 10000 2.1 250 12:22 02.06.2020
2035 Clear 25 1014 50 10000 1.5 0 11:59 02.06.2020
2036 Clear 25 1014 50 10000 1.5 0 11:40 02.06.2020
2037 Clear 25 1014 53 10000 2.6 190 11:20 02.06.2020
2038 Clear 24 1014 53 10000 2.1 180 10:50 02.06.2020
2039 Clear 24 1015 49 10000 2.1 170 10:29 02.06.2020
2040 Clear 23 1015 46 10000 2.1 200 09:59 02.06.2020
2041 Clear 23 1015 46 10000 2.1 200 09:40 02.06.2020
2042 Clear 22 1015 53 10000 1.5 110 09:20 02.06.2020
2043 Clouds 21 1015 56 10000 1.5 120 08:53 02.06.2020
2044 Clouds 20 1015 60 10000 1 80 08:27 02.06.2020
2045 Clouds 19 1015 72 10000 0.5 0 07:54 02.06.2020
2046 Clouds 19 1015 82 10000 0.5 0 07:30 02.06.2020
2047 Clouds 20 1015 72 10000 0.5 0 06:51 02.06.2020
2048 Clouds 18 1015 82 10000 0.5 0 06:31 02.06.2020
2049 Clouds 19 1016 68 10000 0.5 0 05:27 02.06.2020
2050 Clouds 19 1016 68 10000 1 0 03:29 02.06.2020
2051 Clouds 20 1016 68 10000 1 0 02:30 02.06.2020
2052 Clouds 20 1016 63 10000 1.5 30 01:33 02.06.2020
2053 Clouds 22 1016 52 10000 1.5 170 00:26 02.06.2020
2054 Clouds 22 1016 52 10000 1.5 170 23:58 01.06.2020
2055 Clouds 22 1016 60 10000 1 230 23:37 01.06.2020
2056 Clouds 23 1016 64 10000 1 220 23:18 01.06.2020
2057 Clouds 23 1016 60 10000 1.5 190 22:42 01.06.2020
2058 Clouds 24 1015 49 10000 1 170 22:21 01.06.2020
2059 Clouds 24 1015 49 10000 1 170 21:58 01.06.2020
2060 Clouds 24 1015 44 10000 2.6 140 21:40 01.06.2020
2061 Clouds 24 1015 44 10000 2.6 140 21:40 01.06.2020
2062 Clouds 25 1015 50 10000 0.5 200 21:20 01.06.2020
2063 Clouds 25 1015 41 10000 1 220 20:56 01.06.2020
2064 Clouds 25 1015 41 10000 1 220 20:38 01.06.2020
2065 Clouds 26 1015 39 10000 2.6 170 20:19 01.06.2020
2066 Clouds 26 1015 39 10000 2.6 170 19:43 01.06.2020
2067 Clouds 27 1015 36 10000 2.1 170 19:21 01.06.2020
2068 Clouds 27 1015 34 10000 3.1 150 18:59 01.06.2020
2069 Clouds 27 1015 36 10000 2.6 170 18:39 01.06.2020
2070 Clouds 27 1015 36 10000 2.6 170 18:20 01.06.2020
2071 Clouds 27 1015 34 10000 2.1 130 17:58 01.06.2020
2072 Clouds 28 1015 34 10000 2.1 130 17:40 01.06.2020
2073 Clouds 27 1016 39 10000 2.6 170 17:19 01.06.2020
2074 Clouds 27 1016 36 10000 2.1 140 16:42 01.06.2020
2075 Clouds 27 1016 39 10000 3.1 180 16:22 01.06.2020
2076 Clouds 26 1016 41 10000 1.5 210 15:57 01.06.2020
2077 Clouds 26 1016 41 10000 1.5 210 15:39 01.06.2020
2078 Clouds 26 1016 39 10000 1.5 0 15:19 01.06.2020
2079 Clouds 26 1017 44 10000 2.6 240 14:57 01.06.2020
2080 Clouds 26 1017 44 10000 2.6 240 14:38 01.06.2020
2081 Clouds 26 1017 38 10000 3.1 180 14:20 01.06.2020
2082 Clouds 25 1017 44 10000 2.1 0 13:44 01.06.2020
2083 Clouds 25 1017 44 10000 2.1 0 13:22 01.06.2020
2084 Clouds 24 1018 47 10000 2.1 140 12:59 01.06.2020
2085 Clouds 24 1018 46 10000 1.5 0 12:40 01.06.2020
2086 Clouds 24 1018 46 10000 1.5 0 12:40 01.06.2020
2087 Clouds 24 1018 46 10000 1.5 0 12:40 01.06.2020
2088 Clouds 23 1018 46 10000 1.5 0 12:40 01.06.2020
2089 Clouds 24 1018 46 10000 1.5 0 12:40 01.06.2020
2090 Clouds 23 1018 46 10000 1.5 0 12:22 01.06.2020
2091 Clouds 22 1018 46 10000 2.1 100 11:58 01.06.2020
2092 Clouds 22 1018 49 10000 0.5 0 11:37 01.06.2020
2093 Clouds 23 1018 53 10000 1.5 210 11:19 01.06.2020
2094 Clouds 23 1018 49 10000 0.5 0 11:19 01.06.2020
2095 Clouds 22 1018 53 10000 1.5 210 10:56 01.06.2020
2096 Clouds 21 1018 56 10000 1 0 10:36 01.06.2020
2097 Clouds 21 1018 56 10000 1 0 10:18 01.06.2020
2098 Clouds 19 1018 72 10000 0.5 0 09:44 01.06.2020
2099 Clouds 19 1018 72 10000 0.5 0 09:25 01.06.2020
2100 Clear 18 1018 77 10000 1.5 210 08:57 01.06.2020
2101 Clear 17 1018 82 10000 0.5 0 08:34 01.06.2020
2102 Clouds 17 1018 77 10000 1 40 07:59 01.06.2020
2103 Clouds 16 1018 82 10000 0.5 0 07:40 01.06.2020
2104 Clouds 16 1018 82 10000 0.5 0 07:22 01.06.2020
2105 Clouds 17 1018 77 10000 1.5 60 06:49 01.06.2020
2106 Clouds 16 1017 77 10000 2.6 80 05:57 01.06.2020
2107 Clouds 16 1017 77 10000 2.6 70 04:56 01.06.2020
2108 Clouds 17 1017 72 10000 2.6 80 03:56 01.06.2020
2109 Clouds 17 1017 72 10000 2.6 70 03:37 01.06.2020
2110 Clouds 18 1016 72 10000 3.1 90 02:42 01.06.2020
2111 Clouds 19 1016 72 10000 1.5 80 01:38 01.06.2020
2112 Clouds 17 1016 82 10000 0.5 0 01:18 01.06.2020
2113 Clouds 19 1015 77 10000 1 160 00:40 01.06.2020
2114 Clouds 19 1015 77 10000 1 180 00:21 01.06.2020
2115 Clouds 19 1015 77 10000 1 180 00:21 01.06.2020
2116 Clouds 19 1015 77 10000 1 180 23:59 31.05.2020
2117 Clouds 19 1015 77 10000 1.74 113 23:40 31.05.2020
2118 Clouds 18 1015 77 10000 1.38 151 23:22 31.05.2020
2119 Clouds 19 1015 72 10000 0.5 0 22:58 31.05.2020
2120 Clouds 19 1015 72 10000 0.5 0 22:58 31.05.2020
2121 Clouds 19 1015 72 10000 0.5 0 22:58 31.05.2020
2122 Clouds 20 1014 68 10000 0.5 0 22:40 31.05.2020
2123 Clouds 20 1014 68 10000 0.5 0 22:21 31.05.2020
2124 Clouds 20 1014 60 10000 0.5 0 21:56 31.05.2020
2125 Clouds 22 1014 53 10000 1 200 21:38 31.05.2020
2126 Clouds 22 1014 53 10000 1 200 21:19 31.05.2020
2127 Clouds 22 1014 49 10000 2.6 210 20:42 31.05.2020
2128 Clouds 22 1014 49 10000 2.6 210 20:23 31.05.2020
2129 Clouds 23 1013 46 10000 2.1 200 19:56 31.05.2020
2130 Clouds 23 1013 44 10000 2.1 200 19:37 31.05.2020
2131 Clouds 24 1014 44 10000 1.5 240 19:19 31.05.2020
2132 Clouds 24 1014 41 10000 2.1 0 18:44 31.05.2020
2133 Clouds 24 1014 41 10000 2.1 0 18:25 31.05.2020
2134 Clouds 24 1014 44 10000 2.1 0 17:57 31.05.2020
2135 Clouds 24 1014 41 10000 2.6 220 17:39 31.05.2020
2136 Clouds 24 1014 41 10000 2.6 220 17:19 31.05.2020
2137 Clouds 24 1017 33 0 2.68 166 16:40 31.05.2020
2138 Clouds 24 1015 43 10000 2.6 160 16:21 31.05.2020
2139 Clouds 23 1015 46 10000 2.1 260 15:40 31.05.2020
2140 Clouds 22 1015 46 10000 1.5 0 15:22 31.05.2020
2141 Clouds 22 1015 46 10000 1.5 0 14:56 31.05.2020
2142 Clouds 22 1016 49 10000 1.5 0 14:38 31.05.2020
2143 Clouds 21 1016 49 10000 2.1 200 14:18 31.05.2020
2144 Clouds 22 1016 49 10000 2.1 200 13:54 31.05.2020
2145 Clouds 21 1016 49 10000 2.1 160 13:36 31.05.2020
2146 Clouds 21 1016 49 10000 2.6 0 13:18 31.05.2020
2147 Clouds 21 1017 52 10000 3.1 170 12:41 31.05.2020
2148 Clouds 20 1017 52 10000 3.1 170 12:22 31.05.2020
2149 Clouds 20 1017 56 10000 2.6 140 11:49 31.05.2020
2150 Clouds 19 1017 63 10000 2.6 150 11:24 31.05.2020
2151 Clouds 19 1017 63 10000 2.6 150 11:24 31.05.2020
2152 Clouds 19 1017 68 10000 2.6 140 10:58 31.05.2020
2153 Clouds 19 1017 68 10000 2.6 140 10:58 31.05.2020
2154 Clouds 18 1017 68 10000 2.1 120 10:39 31.05.2020
2155 Clouds 18 1017 68 10000 2.1 120 10:21 31.05.2020
2156 Clouds 17 1017 82 10000 1 0 09:45 31.05.2020
2157 Clouds 17 1017 82 10000 1 0 09:24 31.05.2020
2158 Clouds 17 1017 82 10000 1.5 110 08:59 31.05.2020
2159 Clouds 16 1017 87 10000 1.5 120 08:40 31.05.2020
2160 Clouds 16 1017 87 10000 1.5 120 08:22 31.05.2020
2161 Clouds 16 1017 87 10000 0.5 0 07:46 31.05.2020
2162 Clouds 15 1017 87 10000 0.5 0 07:21 31.05.2020
2163 Clouds 15 1017 82 10000 0.5 0 06:55 31.05.2020
2164 Clouds 15 1017 82 10000 0.5 0 06:34 31.05.2020
2165 Rain 15 1016 82 10000 2.6 60 05:46 31.05.2020
2166 Rain 15 1016 82 10000 2.6 60 05:27 31.05.2020
2167 Rain 15 1017 82 10000 3.6 80 03:56 31.05.2020
2168 Rain 16 1017 82 10000 4.6 90 02:59 31.05.2020
2169 Rain 17 1016 63 10000 4.1 110 01:51 31.05.2020
2170 Rain 18 1016 63 10000 3.1 110 01:30 31.05.2020
2171 Rain 18 1016 59 10000 3.1 40 00:31 31.05.2020
2172 Rain 18 1016 55 10000 3.1 100 23:59 30.05.2020
2173 Clouds 20 1015 52 10000 4.1 130 23:41 30.05.2020
2174 Clouds 20 1015 52 10000 4.1 130 23:22 30.05.2020
2175 Clouds 20 1014 56 10000 3.6 110 22:42 30.05.2020
2176 Clouds 20 1014 56 10000 3.6 110 22:23 30.05.2020
2177 Clouds 21 1014 52 10000 2.6 100 21:56 30.05.2020
2178 Clouds 21 1014 43 10000 2.6 110 21:38 30.05.2020
2179 Clouds 21 1014 43 10000 2.6 130 21:20 30.05.2020
2180 Clouds 22 1014 43 10000 2.6 130 20:57 30.05.2020
2181 Clouds 22 1014 43 10000 2.6 150 20:38 30.05.2020
2182 Clouds 22 1014 43 10000 2.6 150 20:20 30.05.2020
2183 Clouds 23 1013 38 10000 3.1 130 19:43 30.05.2020
2184 Clouds 23 1013 38 10000 3.1 130 19:22 30.05.2020
2185 Clouds 24 1014 38 10000 2.6 130 18:54 30.05.2020
2186 Clouds 24 1014 38 10000 2.6 130 18:36 30.05.2020
2187 Clouds 24 1014 36 10000 2.6 150 18:18 30.05.2020
2188 Clouds 24 1014 40 10000 3.1 150 17:38 30.05.2020
2189 Clouds 24 1014 40 10000 3.1 150 17:19 30.05.2020
2190 Clouds 24 1014 40 10000 2.6 160 16:44 30.05.2020
2191 Clouds 23 1014 40 10000 2.6 160 16:23 30.05.2020
2192 Clouds 24 1015 40 10000 2.6 180 15:56 30.05.2020
2193 Clouds 24 1015 38 10000 2.1 240 15:38 30.05.2020
2194 Clouds 24 1015 38 10000 2.1 240 15:19 30.05.2020
2195 Clouds 23 1016 40 10000 2.1 0 14:42 30.05.2020
2196 Clouds 23 1016 40 10000 2.1 0 14:21 30.05.2020
2197 Clouds 22 1016 43 10000 2.6 170 13:42 30.05.2020
2198 Clouds 22 1016 43 10000 2.6 170 13:20 30.05.2020
2199 Clouds 21 1017 43 10000 2.1 120 12:40 30.05.2020
2200 Clouds 22 1017 43 10000 2.1 120 12:20 30.05.2020
2201 Clouds 21 1017 46 10000 1.5 0 11:56 30.05.2020
2202 Clouds 20 1017 49 10000 1.5 210 11:38 30.05.2020
2203 Clouds 20 1017 49 10000 1.5 210 11:20 30.05.2020
2204 Clouds 20 1018 52 10000 1 0 10:39 30.05.2020
2205 Clouds 20 1018 52 10000 1 0 10:39 30.05.2020
2206 Clouds 20 1018 52 10000 1 0 10:39 30.05.2020
2207 Clouds 20 1018 52 10000 1 0 10:21 30.05.2020
2208 Clouds 19 1018 68 10000 0.5 0 09:47 30.05.2020
2209 Clouds 18 1018 68 10000 0.5 0 09:29 30.05.2020
2210 Clouds 17 1018 72 10000 1 150 08:46 30.05.2020
2211 Clouds 17 1018 72 10000 1 150 08:28 30.05.2020
2212 Clouds 17 1018 82 10000 0.5 0 07:44 30.05.2020
2213 Clouds 16 1018 93 10000 1 0 07:21 30.05.2020
2214 Clouds 16 1018 87 10000 0.5 0 06:33 30.05.2020
2215 Clouds 16 1018 87 10000 1 0 05:58 30.05.2020
2216 Clouds 16 1018 82 10000 1 0 05:34 30.05.2020
2217 Rain 17 1019 87 10000 1 270 03:39 30.05.2020
2218 Rain 18 1019 77 10000 1 0 02:30 30.05.2020
2219 Rain 18 1019 52 10000 1.5 130 01:45 30.05.2020
2220 Clouds 17 1019 59 10000 1.5 190 00:38 30.05.2020
2221 Clouds 17 1019 59 10000 1.5 190 00:18 30.05.2020
2222 Clouds 17 1019 59 10000 2.1 190 23:43 29.05.2020
2223 Clouds 17 1019 59 10000 2.1 190 23:21 29.05.2020
2224 Clouds 17 1019 55 10000 1 190 22:58 29.05.2020
2225 Clouds 17 1019 59 10000 1.5 180 22:40 29.05.2020
2226 Clouds 18 1019 59 10000 1.5 180 22:19 29.05.2020
2227 Clouds 18 1019 52 10000 1.5 180 21:55 29.05.2020
2228 Clear 18 1018 52 10000 2.6 170 21:36 29.05.2020
2229 Clear 19 1018 52 10000 2.6 170 21:18 29.05.2020
2230 Clear 20 1019 40 10000 3.1 160 20:40 29.05.2020
2231 Clear 21 1019 40 10000 3.1 160 20:19 29.05.2020
2232 Clouds 22 1019 37 10000 2.6 190 19:44 29.05.2020
2233 Clouds 22 1019 37 10000 2.6 190 19:26 29.05.2020
2234 Clouds 22 1019 37 10000 2.6 210 18:55 29.05.2020
2235 Clouds 22 1019 37 10000 2.6 210 18:37 29.05.2020
2236 Clouds 22 1019 37 10000 2.6 210 18:18 29.05.2020
2237 Clouds 22 1019 35 10000 3.1 200 17:40 29.05.2020
2238 Clouds 22 1020 37 10000 2.6 180 17:22 29.05.2020
2239 Clouds 22 1020 37 10000 2.6 180 16:58 29.05.2020
2240 Clouds 22 1020 40 10000 2.1 180 16:40 29.05.2020
2241 Clouds 22 1020 40 10000 2.1 180 16:21 29.05.2020
2242 Clouds 22 1021 46 10000 3.6 110 15:42 29.05.2020
2243 Clouds 22 1021 46 10000 3.6 110 15:22 29.05.2020
2244 Clouds 21 1021 52 10000 4.6 150 14:59 29.05.2020
2245 Clouds 21 1021 49 10000 2.6 130 14:39 29.05.2020
2246 Clouds 21 1021 49 10000 2.6 130 14:20 29.05.2020
2247 Clouds 21 1022 49 10000 4.6 150 13:43 29.05.2020
2248 Clouds 21 1022 46 10000 5.7 120 13:23 29.05.2020
2249 Clouds 20 1022 46 10000 5.7 120 12:58 29.05.2020
2250 Clouds 20 1022 56 10000 4.6 110 12:39 29.05.2020
2251 Clouds 20 1022 56 10000 4.6 110 12:39 29.05.2020
2252 Clouds 20 1022 56 10000 4.6 110 12:20 29.05.2020
2253 Clouds 18 1022 52 10000 4.6 140 11:44 29.05.2020
2254 Clouds 18 1022 59 10000 4.1 120 11:25 29.05.2020
2255 Clouds 18 1022 59 10000 4.1 120 10:55 29.05.2020
2256 Clouds 17 1022 67 10000 4.6 90 10:36 29.05.2020
2257 Clouds 17 1022 67 10000 4.6 90 10:18 29.05.2020
2258 Clouds 17 1022 72 10000 4.6 90 09:41 29.05.2020
2259 Clouds 17 1022 72 10000 4.6 90 09:19 29.05.2020
2260 Clouds 16 1022 82 10000 5.1 90 08:48 29.05.2020
2261 Clouds 16 1022 82 10000 5.1 90 08:25 29.05.2020
2262 Clouds 15 1022 82 10000 3.6 80 07:48 29.05.2020
2263 Clouds 15 1022 82 10000 3.6 80 07:30 29.05.2020
2264 Clouds 14 1021 82 10000 4.6 90 06:58 29.05.2020
2265 Clouds 14 1021 82 10000 4.1 90 06:39 29.05.2020
2266 Clouds 14 1021 82 10000 4.1 90 06:21 29.05.2020
2267 Clouds 15 1021 77 10000 6.2 110 05:40 29.05.2020
2268 Clouds 18 1019 48 10000 1.5 30 02:18 29.05.2020
2269 Clouds 19 1019 48 10000 1 0 01:27 29.05.2020
2270 Clouds 19 1019 45 10000 2.1 330 00:53 29.05.2020
2271 Rain 18 1019 48 10000 2.1 290 00:32 29.05.2020
2272 Rain 18 1019 45 10000 0.5 0 23:57 28.05.2020
2273 Rain 19 1019 42 10000 3.1 270 23:38 28.05.2020
2274 Rain 19 1019 42 10000 3.1 270 23:18 28.05.2020
2275 Rain 20 1019 40 10000 3.1 240 22:42 28.05.2020
2276 Rain 21 1019 40 10000 3.1 240 22:23 28.05.2020
2277 Rain 22 1019 46 10000 2.6 210 21:56 28.05.2020
2278 Clouds 22 1019 46 10000 2.6 210 21:37 28.05.2020
2279 Rain 22 1019 46 10000 2.6 210 21:19 28.05.2020
2280 Clouds 23 1019 41 10000 2.1 250 20:56 28.05.2020
2281 Clouds 25 1019 39 10000 2.1 210 20:37 28.05.2020
2282 Clear 25 1019 39 10000 2.1 210 20:18 28.05.2020
2283 Clear 25 1019 39 10000 2.1 210 20:18 28.05.2020
2284 Clear 26 1019 36 10000 1.5 180 19:43 28.05.2020
2285 Clear 26 1019 36 10000 1.5 180 19:20 28.05.2020
2286 Clear 27 1019 34 10000 2.1 220 18:57 28.05.2020
2287 Clear 27 1019 34 10000 2.6 210 18:39 28.05.2020
2288 Clear 27 1019 34 10000 2.6 210 18:21 28.05.2020
2289 Clear 27 1020 36 10000 2.1 0 17:41 28.05.2020
2290 Clear 28 1022 28 0 1.79 206 17:22 28.05.2020
2291 Clear 27 1020 39 10000 2.1 0 16:56 28.05.2020
2292 Clear 26 1021 36 10000 2.6 250 16:36 28.05.2020
2293 Clear 26 1021 36 10000 2.6 250 16:18 28.05.2020
2294 Clear 26 1021 36 10000 1.5 0 15:41 28.05.2020
2295 Clear 26 1021 36 10000 1.5 0 15:23 28.05.2020
2296 Clear 26 1022 36 10000 2.1 240 14:43 28.05.2020
2297 Clouds 25 1022 36 10000 2.1 240 14:25 28.05.2020
2298 Clouds 25 1022 38 10000 2.1 170 13:49 28.05.2020
2299 Clouds 25 1023 41 10000 1.5 0 13:30 28.05.2020
2300 Clouds 24 1023 41 10000 2.1 190 12:59 28.05.2020
2301 Clouds 24 1024 40 10000 1.5 0 12:38 28.05.2020
2302 Clouds 23 1024 43 10000 2.1 190 12:19 28.05.2020
2303 Clouds 22 1024 49 10000 2.1 170 11:42 28.05.2020
2304 Clouds 22 1024 49 10000 2.1 170 11:24 28.05.2020
2305 Clouds 21 1025 46 10000 2.6 160 10:56 28.05.2020
2306 Clouds 21 1025 59 10000 1.5 110 10:38 28.05.2020
2307 Clouds 20 1025 59 10000 1.5 110 10:18 28.05.2020
2308 Clouds 19 1025 59 10000 1.5 120 09:39 28.05.2020
2309 Clouds 19 1025 59 10000 1.5 120 09:19 28.05.2020
2310 Clouds 18 1026 55 10000 0.98 164 08:47 28.05.2020
2311 Clouds 18 1026 55 10000 1.04 166 08:26 28.05.2020
2312 Clouds 17 1026 72 10000 0.5 0 07:45 28.05.2020
2313 Clouds 16 1026 82 10000 0.5 0 07:26 28.05.2020
2314 Clouds 16 1026 82 10000 0.5 0 06:56 28.05.2020
2315 Clouds 16 1026 82 10000 1 20 06:37 28.05.2020
2316 Clear 16 1026 71 10000 1.5 40 05:40 28.05.2020
2317 Clear 17 1026 67 10000 1 0 04:54 28.05.2020
2318 Clear 17 1026 72 10000 1 0 04:27 28.05.2020
2319 Clear 17 1026 67 10000 2.1 50 03:45 28.05.2020
2320 Clear 18 1026 63 10000 2.1 30 02:45 28.05.2020
2321 Clear 18 1027 63 10000 1 350 01:50 28.05.2020
2322 Clear 18 1027 52 10000 0.5 0 00:54 28.05.2020
2323 Clear 19 1027 72 10000 1 210 00:24 28.05.2020
2324 Clear 19 1027 72 10000 1 210 23:57 27.05.2020
2325 Clear 19 1027 67 10000 1 200 23:38 27.05.2020
2326 Clear 19 1027 67 10000 1 200 23:20 27.05.2020
2327 Clear 20 1026 55 10000 0.5 200 22:54 27.05.2020
2328 Clear 21 1026 52 10000 1 190 22:36 27.05.2020
2329 Clear 21 1026 52 10000 1 190 22:18 27.05.2020
2330 Clear 23 1026 40 10000 1.5 170 21:40 27.05.2020
2331 Clear 23 1026 40 10000 1.5 170 21:21 27.05.2020
2332 Clear 23 1026 35 10000 1.5 150 20:58 27.05.2020
2333 Clear 24 1026 33 10000 1.5 200 20:40 27.05.2020
2334 Clear 24 1026 33 10000 1.5 200 20:40 27.05.2020
2335 Clear 24 1026 33 10000 1.5 200 20:20 27.05.2020
2336 Clear 25 1026 33 10000 2.1 200 19:46 27.05.2020
2337 Clear 25 1026 33 10000 2.6 170 19:21 27.05.2020
2338 Clear 25 1026 33 10000 2.6 170 18:58 27.05.2020
2339 Clear 25 1026 31 10000 2.1 150 18:39 27.05.2020
2340 Clear 25 1026 31 10000 2.1 150 18:19 27.05.2020
2341 Clear 24 1027 31 10000 2.1 0 17:43 27.05.2020
2342 Clear 25 1027 31 10000 2.1 0 17:24 27.05.2020
2343 Clear 25 1027 31 10000 1.5 0 16:57 27.05.2020
2344 Clear 25 1027 31 10000 2.1 180 16:38 27.05.2020
2345 Clear 25 1027 31 10000 2.1 180 16:20 27.05.2020
2346 Clear 25 1028 33 10000 1.5 250 15:49 27.05.2020
2347 Clear 24 1028 33 10000 1.5 250 15:23 27.05.2020
2348 Clear 24 1028 36 10000 1 0 14:57 27.05.2020
2349 Clear 24 1029 33 10000 2.6 110 14:39 27.05.2020
2350 Clouds 24 1029 33 10000 2.6 110 14:20 27.05.2020
2351 Clouds 24 1029 38 10000 2.1 0 13:42 27.05.2020
2352 Clouds 23 1029 38 10000 2.1 0 13:23 27.05.2020
2353 Clouds 22 1030 37 10000 3.1 170 12:42 27.05.2020
2354 Clouds 22 1030 37 10000 3.1 170 12:24 27.05.2020
2355 Clouds 22 1030 40 10000 3.1 150 11:59 27.05.2020
2356 Clouds 21 1030 43 10000 4.1 120 11:37 27.05.2020
2357 Clouds 21 1030 43 10000 4.1 120 11:19 27.05.2020
2358 Clouds 21 1030 46 10000 3.6 120 10:44 27.05.2020
2359 Clouds 21 1030 46 10000 3.6 120 10:24 27.05.2020
2360 Clouds 20 1030 45 10000 5.1 110 09:58 27.05.2020
2361 Clouds 19 1030 48 10000 4.6 100 09:39 27.05.2020
2362 Clouds 19 1030 52 10000 3.6 90 09:20 27.05.2020
2363 Clouds 18 1030 59 10000 3.6 80 08:42 27.05.2020
2364 Clouds 18 1030 59 10000 3.6 80 08:24 27.05.2020
2365 Clouds 18 1030 59 10000 2.6 70 07:54 27.05.2020
2366 Clouds 17 1029 63 10000 2.1 60 07:35 27.05.2020
2367 Clouds 17 1029 63 10000 2.1 60 07:35 27.05.2020
2368 Clouds 16 1029 63 10000 2.1 70 06:56 27.05.2020
2369 Clouds 17 1029 63 10000 1.5 80 06:31 27.05.2020
2370 Clouds 17 1029 63 10000 2.6 70 05:50 27.05.2020
2371 Clouds 17 1029 55 10000 3.1 80 05:30 27.05.2020
2372 Clouds 17 1029 59 10000 2.6 50 04:19 27.05.2020
2373 Clouds 18 1029 59 10000 3.6 40 02:30 27.05.2020
2374 Clouds 18 1028 59 10000 2.6 60 01:45 27.05.2020
2375 Clouds 18 1028 52 10000 3.1 70 00:59 27.05.2020
2376 Clouds 18 1028 55 10000 2.6 70 00:41 27.05.2020
2377 Clouds 19 1028 55 10000 2.6 70 00:19 27.05.2020
2378 Clouds 20 1027 49 10000 2.1 100 23:42 26.05.2020
2379 Clouds 19 1027 49 10000 2.1 100 23:24 26.05.2020
2380 Clouds 20 1027 49 10000 2.6 120 22:59 26.05.2020
2381 Clouds 20 1027 49 10000 2.6 120 22:58 26.05.2020
2382 Clear 20 1026 43 10000 3.6 120 22:38 26.05.2020
2383 Clear 20 1026 43 10000 3.6 120 22:20 26.05.2020
2384 Clear 21 1025 46 10000 1.5 80 21:56 26.05.2020
2385 Clear 22 1025 43 10000 2.1 90 21:38 26.05.2020
2386 Clear 22 1025 43 10000 2.1 90 21:19 26.05.2020
2387 Clear 23 1025 40 10000 3.6 120 20:42 26.05.2020
2388 Clouds 23 1024 43 10000 3.1 110 20:21 26.05.2020
2389 Clouds 23 1024 38 10000 3.1 120 19:55 26.05.2020
2390 Clouds 24 1024 38 10000 3.1 120 19:37 26.05.2020
2391 Clouds 24 1024 38 10000 2.1 150 19:18 26.05.2020
2392 Clouds 24 1024 38 10000 3.1 120 18:41 26.05.2020
2393 Clouds 25 1024 38 10000 3.1 120 18:21 26.05.2020
2394 Clouds 25 1025 38 10000 2.1 0 17:43 26.05.2020
2395 Clouds 24 1025 38 10000 2.1 0 17:24 26.05.2020
2396 Clouds 24 1025 38 10000 2.6 0 16:59 26.05.2020
2397 Clouds 25 1025 41 10000 2.1 150 16:41 26.05.2020
2398 Clouds 25 1025 41 10000 2.1 150 16:19 26.05.2020
2399 Clouds 25 1026 38 10000 2.6 120 15:44 26.05.2020
2400 Clouds 24 1026 38 10000 2.6 140 15:21 26.05.2020
2401 Clouds 24 1026 38 10000 2.6 140 14:56 26.05.2020
2402 Clouds 24 1026 38 10000 2.1 0 14:38 26.05.2020
2403 Clouds 24 1026 38 10000 2.1 0 14:20 26.05.2020
2404 Clouds 23 1027 38 10000 3.1 150 13:41 26.05.2020
2405 Clouds 23 1027 38 10000 3.1 150 13:23 26.05.2020
2406 Clouds 23 1027 40 10000 3.1 0 12:57 26.05.2020
2407 Clouds 23 1027 53 10000 3.1 110 12:38 26.05.2020
2408 Clouds 22 1027 53 10000 3.1 110 12:19 26.05.2020
2409 Clouds 22 1027 56 10000 4.1 80 11:41 26.05.2020
2410 Clear 21 1027 56 10000 4.1 80 11:21 26.05.2020
2411 Clear 21 1027 64 10000 4.6 120 10:57 26.05.2020
2412 Clear 20 1027 64 10000 4.6 100 10:37 26.05.2020
2413 Clear 20 1027 68 10000 4.6 90 10:18 26.05.2020
2414 Clear 19 1027 68 10000 5.1 90 09:38 26.05.2020
2415 Clear 19 1027 72 10000 4.6 100 09:19 26.05.2020
2416 Clear 18 1027 72 10000 4.1 90 08:41 26.05.2020
2417 Clear 18 1027 82 10000 3.1 80 08:22 26.05.2020
2418 Clear 18 1027 77 10000 3.1 80 07:43 26.05.2020
2419 Clear 17 1027 77 10000 3.1 80 07:23 26.05.2020
2420 Clear 17 1026 77 10000 4.1 110 06:53 26.05.2020
2421 Clear 17 1026 77 10000 4.1 120 06:31 26.05.2020
2422 Clear 18 1025 59 10000 4.1 140 05:43 26.05.2020
2423 Clear 18 1025 59 10000 4.1 140 05:21 26.05.2020
2424 Clear 19 1025 52 10000 3.1 90 04:48 26.05.2020
2425 Clear 19 1025 52 10000 3.1 90 04:29 26.05.2020
2426 Clear 19 1025 52 10000 3.1 90 04:29 26.05.2020
2427 Clear 19 1024 48 10000 3.6 80 03:46 26.05.2020
2428 Clear 19 1024 55 10000 0.5 0 02:35 26.05.2020
2429 Clear 18 1024 59 10000 1 0 01:47 26.05.2020
2430 Clear 19 1023 77 10000 1 0 00:43 26.05.2020
2431 Clear 20 1023 77 10000 1 0 00:23 26.05.2020
2432 Clear 21 1023 72 10000 1 0 23:59 25.05.2020
2433 Clear 21 1023 68 10000 1 300 23:39 25.05.2020
2434 Clear 21 1023 68 10000 1 300 23:20 25.05.2020
2435 Clear 21 1022 60 10000 1.5 270 22:56 25.05.2020
2436 Clear 22 1022 60 10000 1.5 270 22:37 25.05.2020
2437 Clear 23 1022 49 10000 1.5 200 22:19 25.05.2020
2438 Clear 23 1022 49 10000 1.5 200 21:58 25.05.2020
2439 Clear 23 1022 41 10000 1.5 270 21:38 25.05.2020
2440 Clear 23 1022 41 10000 1.5 270 21:19 25.05.2020
2441 Clear 24 1022 38 10000 2.6 260 20:58 25.05.2020
2442 Clear 25 1022 36 10000 2.1 270 20:40 25.05.2020
2443 Clouds 25 1022 36 10000 2.1 270 20:20 25.05.2020
2444 Clouds 26 1022 34 10000 3.1 260 19:55 25.05.2020
2445 Clouds 26 1022 32 10000 3.6 270 19:37 25.05.2020
2446 Clouds 26 1022 34 10000 3.1 260 19:18 25.05.2020
2447 Clouds 26 1022 34 10000 2.6 230 18:42 25.05.2020
2448 Clouds 27 1022 34 10000 2.6 230 18:21 25.05.2020
2449 Clouds 27 1022 32 10000 3.1 210 17:54 25.05.2020
2450 Clouds 27 1023 32 10000 2.6 260 17:36 25.05.2020
2451 Clouds 27 1023 34 10000 2.6 230 17:18 25.05.2020
2452 Clouds 27 1024 34 10000 2.1 0 16:41 25.05.2020
2453 Clouds 26 1024 36 10000 2.6 210 16:22 25.05.2020
2454 Clouds 26 1024 36 10000 2.6 210 15:58 25.05.2020
2455 Clouds 26 1024 36 10000 2.6 210 15:58 25.05.2020
2456 Clouds 25 1024 36 10000 2.6 0 15:40 25.05.2020
2457 Clouds 25 1025 36 10000 2.6 0 15:18 25.05.2020
2458 Clouds 24 1025 38 10000 2.6 0 14:43 25.05.2020
2459 Clear 25 1025 38 10000 2.6 0 14:24 25.05.2020
2460 Clear 25 1025 38 10000 1 0 13:57 25.05.2020
2461 Clear 25 1026 44 10000 2.1 0 13:37 25.05.2020
2462 Clear 24 1026 44 10000 2.1 0 13:19 25.05.2020
2463 Clear 24 1026 41 10000 2.1 0 12:40 25.05.2020
2464 Clear 23 1026 40 10000 2.6 160 12:21 25.05.2020
2465 Clear 23 1026 40 10000 2.6 160 11:58 25.05.2020
2466 Clear 23 1027 46 10000 2.6 110 11:38 25.05.2020
2467 Clear 23 1027 46 10000 2.6 110 11:18 25.05.2020
2468 Clear 22 1027 52 10000 2.6 80 10:43 25.05.2020
2469 Clear 21 1027 49 10000 3.6 90 10:21 25.05.2020
2470 Clear 21 1027 49 10000 3.6 90 09:57 25.05.2020
2471 Clear 21 1027 49 10000 3.6 90 09:57 25.05.2020
2472 Clouds 20 1027 52 10000 3.1 80 09:38 25.05.2020
2473 Clouds 20 1027 52 10000 3.1 80 09:19 25.05.2020
2474 Clouds 19 1027 59 10000 2.6 50 08:44 25.05.2020
2475 Clouds 19 1027 59 10000 2.6 50 08:25 25.05.2020
2476 Clouds 18 1027 63 10000 2.1 80 07:59 25.05.2020
2477 Clouds 18 1027 63 10000 2.1 80 07:59 25.05.2020
2478 Clouds 17 1027 63 10000 1.5 80 07:41 25.05.2020
2479 Clouds 18 1027 63 10000 1.5 80 07:20 25.05.2020
2480 Clouds 17 1027 67 10000 1 0 06:46 25.05.2020
2481 Clouds 17 1027 67 10000 1 0 06:27 25.05.2020
2482 Clouds 18 1026 59 10000 2.6 80 03:40 25.05.2020
2483 Clouds 18 1026 59 10000 2.6 80 03:22 25.05.2020
2484 Clouds 19 1026 63 10000 3.1 80 02:44 25.05.2020
2485 Clouds 19 1026 63 10000 2.6 60 01:42 25.05.2020
2486 Clouds 20 1026 60 10000 1.5 120 00:58 25.05.2020
2487 Clouds 19 1026 68 10000 1.5 140 00:32 25.05.2020
2488 Clouds 20 1026 56 10000 2.6 140 23:59 24.05.2020
2489 Clouds 19 1025 72 10000 0.5 0 23:39 24.05.2020
2490 Clouds 19 1025 72 10000 0.5 0 23:21 24.05.2020
2491 Clouds 20 1025 72 10000 0.5 0 22:58 24.05.2020
2492 Clouds 21 1025 72 10000 0.5 280 22:39 24.05.2020
2493 Clouds 21 1024 68 10000 0.5 0 22:18 24.05.2020
2494 Clouds 22 1024 68 10000 0.5 0 21:55 24.05.2020
2495 Clouds 23 1024 49 10000 1.5 190 21:36 24.05.2020
2496 Clouds 22 1024 53 10000 1.5 170 21:18 24.05.2020
2497 Clouds 23 1024 38 10000 2.1 110 20:43 24.05.2020
2498 Clouds 24 1024 38 10000 2.1 110 20:21 24.05.2020
2499 Clouds 25 1024 38 10000 1 0 19:56 24.05.2020
2500 Clouds 25 1024 38 10000 1.5 150 19:38 24.05.2020
2501 Clouds 25 1024 38 10000 1.5 150 19:18 24.05.2020
2502 Clouds 26 1024 41 10000 3.1 0 18:42 24.05.2020
2503 Clouds 26 1024 41 10000 3.1 0 18:23 24.05.2020
2504 Clouds 26 1024 34 10000 1 0 17:58 24.05.2020
2505 Clouds 26 1024 47 10000 3.1 130 17:40 24.05.2020
2506 Clouds 26 1024 44 10000 2.1 0 17:21 24.05.2020
2507 Clouds 26 1024 44 10000 2.1 0 16:56 24.05.2020
2508 Clouds 25 1024 47 10000 3.1 80 16:37 24.05.2020
2509 Clouds 24 1025 47 10000 2.1 160 16:19 24.05.2020
2510 Clouds 25 1025 47 10000 2.1 160 15:55 24.05.2020
2511 Clouds 25 1025 41 10000 1.5 0 15:37 24.05.2020
2512 Clouds 24 1025 41 10000 1.5 0 15:18 24.05.2020
2513 Clouds 24 1025 47 10000 3.1 80 14:42 24.05.2020
2514 Clouds 24 1025 47 10000 3.1 80 14:22 24.05.2020
2515 Clouds 24 1025 47 10000 4.1 100 13:56 24.05.2020
2516 Clouds 23 1026 53 10000 4.6 100 13:38 24.05.2020
2517 Clouds 24 1026 53 10000 4.6 100 13:20 24.05.2020
2518 Clouds 23 1026 49 10000 4.1 100 12:57 24.05.2020
2519 Clouds 23 1026 60 10000 4.6 110 12:38 24.05.2020
2520 Clouds 23 1026 60 10000 4.6 110 12:19 24.05.2020
2521 Clouds 22 1026 60 10000 4.6 120 11:55 24.05.2020
2522 Clouds 22 1026 64 10000 5.7 110 11:37 24.05.2020
2523 Clouds 22 1026 64 10000 5.7 110 11:19 24.05.2020
2524 Clouds 22 1026 64 10000 5.7 110 11:19 24.05.2020
2525 Clouds 22 1025 68 10000 4.6 80 10:43 24.05.2020
2526 Clouds 21 1025 68 10000 4.6 80 10:23 24.05.2020
2527 Clouds 21 1025 77 10000 4.6 90 09:58 24.05.2020
2528 Clouds 20 1024 72 10000 4.6 90 09:40 24.05.2020
2529 Clouds 19 1024 77 10000 3.6 80 09:18 24.05.2020
2530 Clouds 18 1023 77 10000 3.6 90 08:43 24.05.2020
2531 Clear 18 1023 77 10000 3.6 90 08:24 24.05.2020
2532 Clear 17 1023 82 10000 1.5 50 07:59 24.05.2020
2533 Clear 17 1023 87 10000 1.5 40 07:40 24.05.2020
2534 Clear 17 1022 87 10000 1.5 340 07:21 24.05.2020
2535 Clear 16 1022 93 10000 0.5 0 06:45 24.05.2020
2536 Clear 16 1021 93 10000 1 290 05:50 24.05.2020
2537 Clear 16 1020 88 10000 2.6 270 03:58 24.05.2020
2538 Clear 17 1020 88 10000 2.1 270 03:39 24.05.2020
2539 Clouds 18 1020 88 10000 3.6 290 02:26 24.05.2020
2540 Clouds 18 1020 88 10000 2.1 290 01:21 24.05.2020
2541 Clouds 19 1020 88 10000 2.1 280 00:38 24.05.2020
2542 Clouds 19 1020 88 10000 2.1 280 00:20 24.05.2020
2543 Clouds 19 1020 93 10000 2.6 250 23:40 23.05.2020
2544 Clouds 19 1020 88 10000 3.1 270 23:20 23.05.2020
2545 Clouds 19 1020 88 10000 3.1 270 22:56 23.05.2020
2546 Clouds 19 1020 82 10000 2.1 240 22:37 23.05.2020
2547 Rain 19 1021 94 10000 3.1 260 22:19 23.05.2020
2548 Rain 19 1021 94 10000 3.1 260 21:56 23.05.2020
2549 Rain 19 1021 94 10000 3.6 290 21:37 23.05.2020
2550 Rain 21 1020 73 6000 4.6 260 21:18 23.05.2020
2551 Clouds 22 1020 69 10000 3.6 240 20:41 23.05.2020
2552 Rain 22 1020 69 10000 3.6 240 20:20 23.05.2020
2553 Clouds 22 1019 64 10000 3.1 240 19:59 23.05.2020
2554 Rain 23 1020 59 0 3.58 285 19:40 23.05.2020
2555 Rain 24 1019 65 10000 2.6 260 19:19 23.05.2020
2556 Clouds 23 1019 61 10000 3.1 220 19:19 23.05.2020
2557 Clouds 24 1020 54 10000 2.6 260 18:42 23.05.2020
2558 Clouds 24 1020 54 10000 2.6 260 18:23 23.05.2020
2559 Clouds 25 1020 54 10000 1.5 260 17:58 23.05.2020
2560 Clouds 26 1019 54 10000 1 0 17:40 23.05.2020
2561 Clouds 26 1019 54 10000 1 0 17:21 23.05.2020
2562 Clouds 26 1020 46 0 3.58 271 16:59 23.05.2020
2563 Clouds 27 1020 51 10000 2.1 260 16:41 23.05.2020
2564 Clouds 27 1020 54 10000 2.6 170 16:21 23.05.2020
2565 Clouds 27 1020 54 10000 2.6 170 15:58 23.05.2020
2566 Clouds 26 1021 50 10000 3.1 0 15:39 23.05.2020
2567 Clouds 27 1021 50 10000 3.1 0 15:21 23.05.2020
2568 Clouds 26 1022 50 10000 2.1 200 14:42 23.05.2020
2569 Clouds 26 1022 50 10000 2.1 200 14:42 23.05.2020
2570 Clouds 26 1022 50 10000 2.1 200 14:24 23.05.2020
2571 Clouds 26 1022 47 10000 1.5 0 13:56 23.05.2020
2572 Clouds 25 1023 47 10000 3.6 260 13:37 23.05.2020
2573 Clouds 26 1023 47 10000 3.6 260 13:18 23.05.2020
2574 Clouds 25 1023 45 0 2.24 141 12:41 23.05.2020
2575 Clouds 24 1023 45 0 0.45 69 12:20 23.05.2020
2576 Clouds 24 1023 50 10000 1 0 11:57 23.05.2020
2577 Clouds 24 1023 50 10000 1 0 11:37 23.05.2020
2578 Clouds 24 1023 50 10000 1 0 11:19 23.05.2020
2579 Clouds 23 1023 53 10000 1 0 10:55 23.05.2020
2580 Clouds 23 1024 49 10000 1.5 270 10:36 23.05.2020
2581 Clouds 22 1023 53 10000 1.5 240 10:18 23.05.2020
2582 Clouds 22 1023 60 10000 0.5 0 09:42 23.05.2020
2583 Clouds 21 1023 60 10000 0.5 0 09:24 23.05.2020
2584 Clouds 21 1023 60 10000 1 0 08:57 23.05.2020
2585 Clouds 20 1023 64 10000 1.5 170 08:37 23.05.2020
2586 Clouds 20 1023 64 10000 1.5 160 08:18 23.05.2020
2587 Clouds 20 1023 64 10000 1.5 160 08:18 23.05.2020
2588 Clouds 20 1023 68 10000 0.5 0 07:43 23.05.2020
2589 Clouds 19 1023 68 10000 0.5 0 07:22 23.05.2020
2590 Clouds 19 1023 63 10000 1 280 06:42 23.05.2020
2591 Clouds 20 1023 60 10000 1.5 270 05:51 23.05.2020
2592 Clouds 20 1023 56 10000 2.1 290 03:52 23.05.2020
2593 Clouds 20 1023 56 10000 2.1 290 03:23 23.05.2020
2594 Clouds 20 1023 60 10000 2.1 270 02:29 23.05.2020
2595 Clouds 20 1023 56 10000 2.6 280 01:28 23.05.2020
2596 Clouds 21 1023 60 10000 2.1 270 00:49 23.05.2020
2597 Clouds 21 1023 60 10000 2.1 270 00:30 23.05.2020
2598 Clouds 21 1023 60 10000 1.5 260 23:59 22.05.2020
2599 Clouds 22 1023 56 10000 2.1 270 23:40 22.05.2020
2600 Clouds 22 1023 56 10000 1.5 240 23:20 22.05.2020
2601 Clouds 23 1023 56 10000 1.5 240 22:56 22.05.2020
2602 Clouds 23 1023 56 10000 2.1 260 22:38 22.05.2020
2603 Clouds 23 1023 56 10000 2.1 260 22:18 22.05.2020
2604 Clouds 24 1022 53 10000 2.1 230 21:44 22.05.2020
2605 Clouds 24 1022 53 10000 3.1 220 21:21 22.05.2020
2606 Clouds 24 1022 53 10000 3.1 220 20:54 22.05.2020
2607 Clouds 25 1022 50 10000 1.5 240 20:36 22.05.2020
2608 Clouds 26 1022 47 10000 2.1 240 20:18 22.05.2020
2609 Clouds 26 1022 47 10000 2.6 250 19:41 22.05.2020
2610 Clouds 26 1022 47 10000 2.6 250 19:41 22.05.2020
2611 Clouds 27 1022 45 10000 2.1 230 19:23 22.05.2020
2612 Clouds 28 1022 45 10000 2.1 230 18:40 22.05.2020
2613 Clouds 28 1022 45 10000 2.1 230 18:21 22.05.2020
2614 Clouds 27 1022 42 10000 1.5 200 17:59 22.05.2020
2615 Clouds 28 1022 45 10000 1.5 210 17:38 22.05.2020
2616 Clouds 28 1022 44 10000 1.5 220 17:18 22.05.2020
2617 Clouds 27 1022 42 10000 2.1 0 16:45 22.05.2020
2618 Clouds 27 1022 42 10000 2.1 0 16:21 22.05.2020
2619 Clouds 27 1023 44 10000 1.5 0 15:59 22.05.2020
2620 Clouds 27 1023 44 10000 1 0 15:41 22.05.2020
2621 Clouds 27 1023 44 10000 1.5 190 15:20 22.05.2020
2622 Clouds 26 1023 47 10000 1 0 14:44 22.05.2020
2623 Clouds 26 1023 47 10000 1 0 14:24 22.05.2020
2624 Clouds 26 1023 44 10000 1 0 13:46 22.05.2020
2625 Clouds 25 1023 47 10000 2.1 190 13:21 22.05.2020
2626 Clouds 25 1024 50 10000 2.1 180 12:55 22.05.2020
2627 Clouds 25 1023 53 10000 2.1 0 12:37 22.05.2020
2628 Clouds 24 1023 53 10000 1.5 150 12:19 22.05.2020
2629 Clouds 24 1023 56 10000 2.1 0 11:44 22.05.2020
2630 Clear 24 1023 56 10000 2.1 0 11:21 22.05.2020
2631 Clear 24 1023 56 10000 2.1 0 11:21 22.05.2020
2632 Clear 23 1023 56 10000 3.1 140 10:55 22.05.2020
2633 Clear 23 1023 56 10000 3.1 130 10:37 22.05.2020
2634 Clear 22 1023 60 10000 3.1 110 10:18 22.05.2020
2635 Clouds 22 1023 64 10000 2.1 100 09:42 22.05.2020
2636 Clear 21 1023 64 10000 2.1 100 09:19 22.05.2020
2637 Clear 20 1023 72 10000 1.5 80 08:45 22.05.2020
2638 Clouds 20 1023 72 10000 1.5 80 08:22 22.05.2020
2639 Clouds 19 1022 72 10000 1.5 110 07:57 22.05.2020
2640 Clear 19 1022 72 10000 1.5 80 07:27 22.05.2020
2641 Clear 19 1022 77 10000 1.5 40 06:59 22.05.2020
2642 Clear 18 1022 77 10000 1.5 130 06:40 22.05.2020
2643 Clear 19 1022 72 10000 2.1 50 05:53 22.05.2020
2644 Clear 19 1021 72 10000 2.6 60 05:32 22.05.2020
2645 Clear 19 1021 77 10000 1 0 04:44 22.05.2020
2646 Clear 19 1021 77 10000 2.1 40 03:49 22.05.2020
2647 Clear 20 1021 77 10000 2.1 40 03:23 22.05.2020
2648 Clear 20 1021 77 10000 1.5 50 01:57 22.05.2020
2649 Clear 21 1020 72 10000 1.5 30 01:29 22.05.2020
2650 Clear 21 1020 77 10000 1 20 00:49 22.05.2020
2651 Clear 21 1020 77 10000 0.5 0 00:28 22.05.2020
2652 Clear 22 1019 60 10000 1 170 23:45 21.05.2020
2653 Clear 22 1019 60 10000 1 170 23:25 21.05.2020
2654 Clear 23 1019 56 10000 1 170 22:59 21.05.2020
2655 -273 0 0 0 0 0 22:59 21.05.2020
2656 Clear 23 1019 60 10000 1.5 160 22:40 21.05.2020
2657 Clear 23 1019 60 10000 1.5 160 22:22 21.05.2020
2658 Clear 23 1018 60 10000 1.5 170 21:59 21.05.2020
2659 Clear 24 1018 53 10000 1.5 190 21:40 21.05.2020
2660 Clear 24 1018 53 10000 1.5 190 21:22 21.05.2020
2661 Clear 25 1017 44 10000 1.5 190 20:45 21.05.2020
2662 Clear 26 1017 44 10000 1.5 190 20:22 21.05.2020
2663 Clear 26 1017 41 10000 1.5 160 19:55 21.05.2020
2664 Clear 26 1017 44 10000 2.1 170 19:36 21.05.2020
2665 Clear 27 1017 44 10000 2.1 170 19:18 21.05.2020
2666 Clear 27 1016 41 10000 2.1 150 18:39 21.05.2020
2667 Clear 27 1016 41 10000 2.1 150 18:19 21.05.2020
2668 Clear 27 1017 39 10000 2.1 0 17:58 21.05.2020
2669 Clear 27 1017 41 10000 2.1 180 17:39 21.05.2020
2670 Clear 27 1017 41 10000 2.1 180 17:21 21.05.2020
2671 Clear 27 1017 41 10000 2.6 150 16:46 21.05.2020
2672 Clear 27 1017 41 10000 2.6 150 16:24 21.05.2020
2673 Clear 26 1018 41 10000 1.5 180 15:47 21.05.2020
2674 Clear 26 1018 41 10000 1.5 180 15:24 21.05.2020
2675 Clear 25 1018 47 10000 2.1 80 14:56 21.05.2020
2676 Clear 25 1018 47 10000 2.6 160 14:37 21.05.2020
2677 Clear 25 1018 44 10000 2.1 140 14:18 21.05.2020
2678 Clear 25 1019 47 10000 1.5 0 13:40 21.05.2020
2679 Clear 25 1019 47 10000 1.5 0 13:22 21.05.2020
2680 Clear 25 1019 47 10000 2.6 0 12:55 21.05.2020
2681 Clear 24 1019 47 10000 3.1 160 12:36 21.05.2020
2682 Clear 24 1019 53 10000 2.1 150 12:18 21.05.2020
2683 Clear 24 1019 53 10000 3.1 150 11:41 21.05.2020
2684 Clear 24 1019 53 10000 3.1 150 11:23 21.05.2020
2685 Clear 23 1019 49 10000 3.1 100 10:55 21.05.2020
2686 Clear 23 1019 53 10000 3.1 120 10:37 21.05.2020
2687 Clear 23 1019 56 10000 2.6 100 10:18 21.05.2020
2688 Clear 22 1019 60 10000 3.1 100 09:43 21.05.2020
2689 Clear 21 1019 60 10000 3.1 100 09:25 21.05.2020
2690 Clear 20 1019 64 10000 2.6 80 08:58 21.05.2020
2691 Clear 20 1018 64 10000 1.5 50 08:40 21.05.2020
2692 Clouds 20 1018 64 10000 1.5 50 08:22 21.05.2020
2693 Clouds 19 1018 72 10000 2.1 50 07:43 21.05.2020
2694 Clouds 18 1018 72 10000 2.1 50 07:24 21.05.2020
2695 Clouds 17 1017 72 10000 2.6 60 06:45 21.05.2020
2696 Clouds 17 1017 72 10000 2.6 60 05:53 21.05.2020
2697 Clouds 17 1017 72 10000 2.6 40 04:53 21.05.2020
2698 Clouds 19 1017 72 10000 2.6 50 03:21 21.05.2020
2699 Clouds 19 1017 72 10000 3.1 80 02:37 21.05.2020
2700 Clouds 19 1017 72 10000 2.6 80 02:18 21.05.2020
2701 Clouds 19 1017 72 10000 2.6 80 01:42 21.05.2020
2702 Clouds 19 1017 72 10000 2.6 80 01:18 21.05.2020
2703 Clouds 20 1016 68 10000 3.6 90 00:44 21.05.2020
2704 Clouds 20 1016 68 10000 3.6 90 00:21 21.05.2020
2705 Clouds 21 1015 64 10000 2.6 80 23:40 20.05.2020
2706 Clouds 21 1015 64 10000 2.6 80 23:19 20.05.2020
2707 Clouds 22 1015 60 10000 3.6 110 22:55 20.05.2020
2708 Clouds 22 1014 60 10000 3.1 110 22:37 20.05.2020
2709 Clouds 22 1013 56 10000 2.6 120 22:19 20.05.2020
2710 Clear 23 1013 56 10000 4.1 140 21:40 20.05.2020
2711 Clear 23 1013 56 10000 4.1 140 21:20 20.05.2020
2712 Clear 24 1012 50 10000 4.1 150 20:44 20.05.2020
2713 Clear 24 1012 50 10000 4.1 150 20:24 20.05.2020
2714 Clear 25 1012 50 10000 4.1 150 19:54 20.05.2020
2715 Clear 25 1012 54 10000 3.1 170 19:36 20.05.2020
2716 Clear 26 1012 54 10000 3.1 170 19:18 20.05.2020
2717 Clear 27 1012 50 10000 3.6 160 18:42 20.05.2020
2718 Clear 26 1012 50 10000 3.6 160 18:22 20.05.2020
2719 Clear 27 1012 50 10000 2.6 180 17:41 20.05.2020
2720 Clear 27 1012 50 10000 2.6 180 17:22 20.05.2020
2721 Clear 27 1012 50 10000 3.6 170 16:56 20.05.2020
2722 Clear 27 1012 50 10000 3.6 200 16:38 20.05.2020
2723 Clear 27 1012 47 10000 2.1 210 16:19 20.05.2020
2724 Clear 26 1012 50 10000 3.1 180 15:43 20.05.2020
2725 Clear 26 1012 50 10000 3.1 180 15:43 20.05.2020
2726 Clear 27 1012 50 10000 3.1 180 15:25 20.05.2020
2727 Clear 27 1013 47 10000 3.1 200 14:44 20.05.2020
2728 Clear 26 1013 47 10000 3.1 200 14:23 20.05.2020
2729 Clear 26 1013 50 10000 1.5 0 13:55 20.05.2020
2730 Clear 25 1013 57 10000 2.1 230 13:37 20.05.2020
2731 Clear 25 1013 60 10000 1.5 0 13:18 20.05.2020
2732 Clear 25 1013 60 10000 2.1 230 12:42 20.05.2020
2733 Clear 24 1013 60 10000 2.1 230 12:20 20.05.2020
2734 Clear 23 1013 68 10000 2.1 250 11:38 20.05.2020
2735 Clear 23 1013 68 10000 2.1 250 11:37 20.05.2020
2736 Clear 23 1013 68 10000 2.1 250 11:19 20.05.2020
2737 Clear 22 1013 64 10000 2.1 240 10:44 20.05.2020
2738 Clear 21 1013 64 10000 2.1 240 10:22 20.05.2020
2739 Clear 20 1013 72 10000 1 0 09:57 20.05.2020
2740 Clear 20 1013 88 10000 1 0 09:38 20.05.2020
2741 Clouds 19 1013 88 10000 1 0 09:19 20.05.2020
2742 Clouds 18 1013 93 8000 1 0 08:41 20.05.2020
2743 Clouds 18 1013 93 8000 0.5 0 08:19 20.05.2020
2744 Clouds 17 1013 93 8000 0.5 0 07:49 20.05.2020
2745 Mist 17 1013 100 5000 0.5 0 07:23 20.05.2020
2746 Mist 16 1012 93 5000 1 0 06:49 20.05.2020
2747 Clouds 16 1013 93 6000 1 170 05:52 20.05.2020
2748 Fog 16 1013 100 3300 0.5 0 04:37 20.05.2020
2749 Fog 17 1013 100 1700 0.5 0 03:55 20.05.2020
2750 Clouds 17 1013 100 7000 0.5 180 03:25 20.05.2020
2751 Clouds 17 1014 93 7000 1 200 01:33 20.05.2020
2752 Clouds 18 1015 93 10000 1.5 210 00:46 20.05.2020
2753 Clouds 18 1015 93 10000 1.5 210 00:25 20.05.2020
2754 Clouds 18 1015 93 10000 1 210 23:47 19.05.2020
2755 Clouds 18 1015 93 10000 0.5 0 23:22 19.05.2020
2756 Clouds 18 1014 93 10000 1.5 190 22:58 19.05.2020
2757 Clouds 18 1014 93 10000 1.5 270 22:39 19.05.2020
2758 Clouds 18 1014 93 10000 1.5 270 22:20 19.05.2020
2759 Clouds 18 1014 93 10000 0.5 0 21:59 19.05.2020
2760 Clouds 19 1014 88 10000 1 0 21:39 19.05.2020
2761 Clouds 18 1014 88 10000 1 0 21:21 19.05.2020
2762 Clouds 18 1014 88 10000 1.5 170 20:58 19.05.2020
2763 Rain 19 1014 88 10000 1.5 360 20:40 19.05.2020
2764 Rain 19 1014 88 10000 1.5 360 20:22 19.05.2020
2765 Rain 19 1014 88 10000 1 0 19:56 19.05.2020
2766 Rain 19 1014 82 10000 1 0 19:37 19.05.2020
2767 Rain 20 1014 77 10000 2.1 160 19:19 19.05.2020
2768 Rain 20 1014 73 7000 2.6 140 18:42 19.05.2020
2769 Thunderstorm 22 1014 73 7000 2.6 140 18:20 19.05.2020
2770 Clouds 23 1013 64 10000 3.6 130 17:44 19.05.2020
2771 Clouds 23 1013 64 10000 3.6 130 17:22 19.05.2020
2772 Clouds 23 1013 64 10000 2.1 180 16:59 19.05.2020
2773 Clouds 23 1013 60 10000 2.1 190 16:39 19.05.2020
2774 Clouds 23 1013 60 10000 2.1 190 16:20 19.05.2020
2775 Clouds 23 1014 69 10000 1.5 170 15:47 19.05.2020
2776 Clouds 23 1014 69 10000 2.6 210 15:23 19.05.2020
2777 Clouds 22 1014 83 10000 3.6 200 14:58 19.05.2020
2778 Clouds 22 1014 83 10000 3.6 200 14:40 19.05.2020
2779 Clouds 22 1014 83 10000 3.6 200 14:21 19.05.2020
2780 Rain 22 1014 88 10000 2.6 180 13:58 19.05.2020
2781 Rain 22 1014 83 10000 2.6 190 13:39 19.05.2020
2782 Rain 22 1014 83 10000 2.6 190 13:20 19.05.2020
2783 Rain 22 1014 68 10000 1 0 12:57 19.05.2020
2784 Rain 23 1014 60 10000 1 0 12:38 19.05.2020
2785 Clouds 23 1014 60 10000 1 0 12:20 19.05.2020
2786 Clouds 23 1014 60 10000 1 0 11:54 19.05.2020
2787 Clouds 22 1014 64 10000 2.6 340 11:36 19.05.2020
2788 Clouds 22 1014 64 10000 2.6 340 11:36 19.05.2020
2789 Clouds 22 1014 60 10000 3.1 320 11:18 19.05.2020
2790 Clouds 21 1014 73 10000 2.6 290 10:42 19.05.2020
2791 Clouds 21 1014 73 10000 2.6 290 10:23 19.05.2020
2792 Clouds 20 1015 82 10000 1.5 300 09:47 19.05.2020
2793 Clouds 19 1015 82 10000 1.5 300 09:25 19.05.2020
2794 Clouds 19 1015 82 10000 1.5 320 08:59 19.05.2020
2795 Clouds 18 1015 88 10000 1.5 0 08:41 19.05.2020
2796 Clouds 18 1015 88 10000 1.5 0 08:23 19.05.2020
2797 Rain 18 1015 88 10000 1.5 330 07:42 19.05.2020
2798 Rain 18 1015 88 10000 1.5 330 07:42 19.05.2020
2799 Rain 18 1015 88 10000 1.5 330 07:24 19.05.2020
2800 Rain 18 1015 88 10000 1.5 360 06:41 19.05.2020
2801 Rain 18 1015 88 10000 1.5 360 06:22 19.05.2020
2802 Rain 19 1015 82 10000 1 0 05:39 19.05.2020
2803 Clouds 19 1016 82 10000 2.6 190 04:54 19.05.2020
2804 Clouds 19 1016 77 10000 2.6 360 02:59 19.05.2020
2805 Clouds 20 1017 72 10000 4.1 350 01:21 19.05.2020
2806 Clouds 20 1017 77 10000 2.6 360 00:41 19.05.2020
2807 Rain 20 1017 82 10000 3.1 360 00:19 19.05.2020
2808 Clouds 21 1017 73 10000 3.6 360 23:40 18.05.2020
2809 Clouds 22 1017 73 10000 3.6 360 23:20 18.05.2020
2810 Clouds 22 1017 68 10000 2.6 30 22:59 18.05.2020
2811 Clouds 22 1017 68 10000 2.6 30 22:59 18.05.2020
2812 Clouds 22 1017 64 10000 2.6 130 22:39 18.05.2020
2813 Clouds 23 1017 64 10000 2.6 130 22:20 18.05.2020
2814 Clouds 23 1016 60 10000 2.6 130 21:43 18.05.2020
2815 Clouds 23 1016 60 10000 2.6 130 21:22 18.05.2020
2816 Clouds 24 1016 57 10000 3.1 130 20:58 18.05.2020
2817 Clouds 24 1016 53 10000 3.6 140 20:39 18.05.2020
2818 Clouds 25 1016 57 10000 3.1 170 20:20 18.05.2020
2819 Clouds 25 1016 57 10000 3.1 170 19:56 18.05.2020
2820 Clouds 25 1016 53 10000 3.6 140 19:38 18.05.2020
2821 Clouds 26 1016 54 10000 2.6 180 19:18 18.05.2020
2822 Clouds 26 1017 57 10000 2.6 180 18:44 18.05.2020
2823 Clouds 26 1017 57 10000 2.6 180 18:22 18.05.2020
2824 Clouds 26 1017 50 10000 2.6 160 17:39 18.05.2020
2825 Clouds 27 1017 54 10000 2.1 180 17:18 18.05.2020
2826 Clouds 27 1017 54 10000 2.1 180 16:56 18.05.2020
2827 Clouds 26 1018 54 10000 3.1 170 16:37 18.05.2020
2828 Clouds 26 1018 54 10000 3.1 170 16:18 18.05.2020
2829 Clouds 26 1018 50 10000 2.1 170 15:54 18.05.2020
2830 Clouds 26 1019 53 10000 1.5 0 15:36 18.05.2020
2831 Clouds 26 1019 53 10000 2.6 180 15:18 18.05.2020
2832 Clouds 25 1019 53 10000 1.5 220 14:42 18.05.2020
2833 Clouds 26 1019 53 10000 1.5 220 14:23 18.05.2020
2834 Clouds 25 1020 57 10000 1 0 13:57 18.05.2020
2835 Clouds 25 1020 57 10000 1.5 210 13:38 18.05.2020
2836 Clouds 25 1020 57 10000 1.5 210 13:19 18.05.2020
2837 Clouds 24 1020 57 10000 2.1 0 12:55 18.05.2020
2838 Clouds 24 1021 60 10000 1.5 200 12:37 18.05.2020
2839 Clouds 24 1021 64 10000 1.5 0 12:18 18.05.2020
2840 Clear 24 1021 60 10000 1 0 11:46 18.05.2020
2841 Clear 23 1021 60 10000 1 0 11:26 18.05.2020
2842 Clouds 22 1021 64 10000 1.5 230 10:47 18.05.2020
2843 Clouds 22 1021 64 10000 1.5 230 10:28 18.05.2020
2844 Clear 21 1021 64 10000 1 0 09:57 18.05.2020
2845 Clear 21 1021 68 10000 1.5 50 09:39 18.05.2020
2846 Clear 21 1021 68 10000 1.5 50 09:20 18.05.2020
2847 Clear 20 1021 77 10000 1.5 40 08:42 18.05.2020
2848 Clouds 20 1021 77 10000 1.5 40 08:23 18.05.2020
2849 Clouds 19 1021 88 10000 2.1 30 07:50 18.05.2020
2850 Clouds 18 1021 88 10000 2.1 360 07:26 18.05.2020
2851 Clouds 17 1020 93 10000 1.5 160 06:48 18.05.2020
2852 Clouds 18 1020 88 10000 1 180 06:25 18.05.2020
2853 Clouds 18 1020 82 10000 2.1 100 05:46 18.05.2020
2854 Rain 18 1020 88 10000 1 0 04:26 18.05.2020
2855 Rain 18 1020 93 10000 0.5 0 03:30 18.05.2020
2856 Rain 19 1019 93 10000 0.5 330 01:57 18.05.2020
2857 Rain 20 1019 88 10000 1.35 69 00:50 18.05.2020
2858 Rain 20 1019 82 10000 0.5 330 00:19 18.05.2020
2859 Rain 20 1019 82 10000 0.5 330 23:56 17.05.2020
2860 Clouds 20 1019 88 10000 0.5 0 23:38 17.05.2020
2861 Clouds 21 1019 77 10000 1 180 23:19 17.05.2020
2862 Clouds 21 1019 77 10000 1 180 22:55 17.05.2020
2863 Clouds 21 1018 77 10000 0.5 0 22:36 17.05.2020
2864 Clouds 21 1018 73 10000 1.5 200 22:18 17.05.2020
2865 Clouds 22 1017 60 10000 1.5 190 21:41 17.05.2020
2866 Clouds 22 1017 60 10000 1.5 190 21:20 17.05.2020
2867 Clouds 22 1017 60 10000 1.5 190 20:57 17.05.2020
2868 Clouds 23 1017 60 10000 2.1 190 20:39 17.05.2020
2869 Rain 23 1017 57 10000 2.1 190 20:19 17.05.2020
2870 Rain 23 1016 50 10000 2.6 160 19:47 17.05.2020
2871 Rain 24 1016 50 10000 2.6 160 19:28 17.05.2020
2872 Clouds 24 1016 53 10000 2.1 70 18:58 17.05.2020
2873 Clouds 24 1016 53 10000 2.6 80 18:38 17.05.2020
2874 Clouds 25 1016 53 10000 2.6 80 18:20 17.05.2020
2875 Clouds 25 1017 53 10000 1.5 20 17:41 17.05.2020
2876 Clouds 24 1017 53 10000 1.5 20 17:23 17.05.2020
2877 Clouds 24 1017 53 10000 2.1 50 16:57 17.05.2020
2878 Clouds 23 1017 53 10000 2.1 0 16:39 17.05.2020
2879 Clouds 23 1017 60 10000 2.1 140 16:20 17.05.2020
2880 Clouds 24 1017 60 10000 1 0 15:46 17.05.2020
2881 Clouds 24 1017 60 10000 1 0 15:25 17.05.2020
2882 Clouds 23 1018 60 10000 1.5 210 14:58 17.05.2020
2883 Clouds 23 1018 64 10000 0.5 0 14:40 17.05.2020
2884 Clouds 23 1018 64 10000 2.1 260 14:21 17.05.2020
2885 Clouds 22 1018 64 10000 1.5 60 13:43 17.05.2020
2886 Clouds 22 1018 64 10000 1.5 60 13:21 17.05.2020
2887 Clouds 18 1017 82 10000 1.5 330 10:35 17.05.2020
2888 Rain 15 1017 93 5000 2.1 80 03:55 17.05.2020
2889 Rain 15 1018 100 3300 3.1 80 02:28 17.05.2020
2890 Rain 15 1018 100 3400 3.1 100 01:55 17.05.2020
2891 Rain 16 1018 87 6000 4.1 110 00:56 17.05.2020
2892 Rain 16 1018 87 10000 4.1 100 00:36 17.05.2020
2893 Rain 16 1019 82 0 2.68 81 23:57 16.05.2020
2894 Rain 16 1018 82 10000 4.6 120 23:39 16.05.2020
2895 Clouds 16 1019 74 0 3.13 98 23:19 16.05.2020
2896 Clouds 17 1020 68 0 4.92 102 22:55 16.05.2020
2897 Clouds 17 1018 77 10000 5.1 120 22:36 16.05.2020
2898 Clouds 17 1017 72 10000 5.1 110 22:18 16.05.2020
2899 Clouds 18 1018 72 10000 4.1 100 21:42 16.05.2020
2900 Clouds 18 1018 72 10000 4.1 100 21:23 16.05.2020
2901 Rain 18 1018 72 0 6.26 80 20:57 16.05.2020
2902 Rain 18 1018 73 0 4.47 88 20:38 16.05.2020
2903 Clouds 18 1017 72 10000 4.1 120 20:20 16.05.2020
2904 Clouds 19 1017 72 0 2.24 83 19:43 16.05.2020
2905 Clouds 19 1017 68 10000 4.6 130 19:23 16.05.2020
2906 Clouds 19 1017 68 10000 4.6 110 18:59 16.05.2020
2907 Clouds 19 1017 68 10000 4.6 110 18:59 16.05.2020
2908 Clouds 20 1017 68 10000 5.7 140 18:41 16.05.2020
2909 Clouds 20 1017 68 10000 5.7 140 18:22 16.05.2020
2910 Clouds 21 1017 68 10000 5.1 130 17:42 16.05.2020
2911 Clouds 21 1017 68 10000 5.1 130 17:21 16.05.2020
2912 Clouds 21 1018 68 10000 6.2 130 16:57 16.05.2020
2913 Clouds 21 1018 64 10000 6.2 140 16:38 16.05.2020
2914 Clouds 21 1018 60 10000 4.6 140 16:18 16.05.2020
2915 Clouds 22 1018 56 10000 4.6 150 15:42 16.05.2020
2916 Clouds 22 1018 56 10000 4.1 130 15:21 16.05.2020
2917 Clouds 22 1018 56 10000 4.1 130 14:59 16.05.2020
2918 Clouds 22 1018 60 10000 3.6 100 14:40 16.05.2020
2919 Clouds 22 1019 60 10000 4.1 120 14:20 16.05.2020
2920 Clouds 22 1019 68 10000 4.6 120 13:43 16.05.2020
2921 Clouds 21 1019 68 10000 4.6 120 13:24 16.05.2020
2922 Clouds 21 1019 68 10000 4.6 120 12:59 16.05.2020
2923 Clouds 21 1019 68 10000 5.1 140 12:40 16.05.2020
2924 Clouds 20 1019 68 10000 4.6 110 12:19 16.05.2020
2925 Clouds 20 1019 64 10000 4.1 70 11:42 16.05.2020
2926 Clouds 20 1019 64 10000 4.1 70 11:23 16.05.2020
2927 Clouds 20 1019 68 10000 3.6 90 10:58 16.05.2020
2928 Clouds 20 1019 64 10000 2.6 80 10:39 16.05.2020
2929 Clouds 20 1019 64 10000 2.6 80 10:21 16.05.2020
2930 Clouds 19 1019 68 10000 1.5 100 09:47 16.05.2020
2931 Clouds 19 1019 68 10000 1.5 100 09:28 16.05.2020
2932 Clouds 18 1018 72 10000 1.5 100 08:56 16.05.2020
2933 Clouds 18 1018 77 10000 0.5 0 08:36 16.05.2020
2934 Clouds 17 1018 87 10000 0.5 180 08:18 16.05.2020
2935 Clouds 17 1018 87 10000 0.5 180 08:18 16.05.2020
2936 Clouds 16 1018 87 10000 0.5 0 07:42 16.05.2020
2937 Clouds 16 1018 87 10000 0.5 0 07:21 16.05.2020
2938 Clouds 16 1017 93 10000 0.5 0 06:47 16.05.2020
2939 Clouds 16 1017 93 10000 0.5 0 06:20 16.05.2020
2940 Clouds 16 1017 82 10000 0.5 0 05:42 16.05.2020
2941 Clouds 16 1017 82 10000 0.5 0 05:22 16.05.2020
2942 Clouds 17 1016 77 10000 1.5 290 03:28 16.05.2020
2943 Clouds 17 1016 72 10000 2.6 0 02:45 16.05.2020
2944 Clouds 17 1016 72 10000 2.6 0 02:19 16.05.2020
2945 Clouds 17 1016 72 10000 1.5 290 01:40 16.05.2020
2946 Clouds 17 1016 72 10000 1.5 310 00:57 16.05.2020
2947 Clouds 17 1015 77 10000 2.6 270 00:39 16.05.2020
2948 Clouds 17 1015 77 10000 2.6 270 00:19 16.05.2020
2949 Clouds 17 1015 72 10000 3.1 270 23:39 15.05.2020
2950 Clouds 17 1015 72 10000 3.1 270 23:19 15.05.2020
2951 Clouds 18 1014 68 10000 1.5 250 22:42 15.05.2020
2952 Clouds 18 1014 68 10000 1.5 0 22:20 15.05.2020
2953 Clouds 18 1014 68 10000 1.5 0 21:57 15.05.2020
2954 Clouds 19 1013 68 10000 1.5 230 21:39 15.05.2020
2955 Clouds 19 1013 68 10000 1.5 230 21:20 15.05.2020
2956 Clouds 19 1013 68 10000 1.5 240 20:55 15.05.2020
2957 Clouds 20 1013 64 10000 2.6 230 20:37 15.05.2020
2958 Clouds 20 1013 64 10000 2.6 230 20:18 15.05.2020
2959 Clouds 20 1012 64 10000 2.6 230 19:43 15.05.2020
2960 Clouds 21 1012 64 10000 2.6 230 19:23 15.05.2020
2961 Clouds 21 1012 64 10000 2.6 230 18:54 15.05.2020
2962 Clouds 21 1012 64 10000 2.6 230 18:54 15.05.2020
2963 Clouds 21 1012 64 10000 2.6 230 18:36 15.05.2020
2964 Clouds 21 1012 60 10000 2.6 240 18:18 15.05.2020
2965 Clouds 21 1012 64 10000 2.6 230 18:18 15.05.2020
2966 Clouds 21 1012 64 10000 2.6 250 17:37 15.05.2020
2967 Clouds 21 1012 64 10000 2.6 250 17:19 15.05.2020
2968 Clouds 22 1011 56 10000 2.6 270 16:56 15.05.2020
2969 Clouds 21 1011 60 10000 2.6 240 16:37 15.05.2020
2970 Clouds 21 1011 60 10000 2.6 240 16:18 15.05.2020
2971 Clouds 21 1011 64 10000 2.6 240 15:41 15.05.2020
2972 Clouds 21 1011 64 10000 2.6 240 15:41 15.05.2020
2973 Clouds 21 1011 64 10000 2.6 240 15:20 15.05.2020
2974 Clouds 20 1011 68 10000 2.1 280 14:57 15.05.2020
2975 Clouds 19 1011 72 10000 1.5 270 14:39 15.05.2020
2976 Clouds 19 1011 72 10000 1.5 270 14:21 15.05.2020
2977 Clouds 18 1010 72 10000 2.6 310 13:42 15.05.2020
2978 Clouds 18 1010 72 10000 4.1 280 13:22 15.05.2020
2979 Clouds 17 1010 72 10000 4.1 280 12:56 15.05.2020
2980 Clouds 17 1010 77 10000 3.1 270 12:37 15.05.2020
2981 Clouds 17 1009 82 10000 4.1 270 12:18 15.05.2020
2982 Clouds 17 1009 82 10000 4.1 270 12:18 15.05.2020
2983 Clouds 17 1009 82 10000 4.1 270 11:56 15.05.2020
2984 Clouds 17 1009 82 10000 3.6 250 11:37 15.05.2020
2985 Clouds 16 1008 88 10000 2.6 220 11:18 15.05.2020
2986 Clouds 16 1008 88 10000 2.6 220 10:54 15.05.2020
2987 Clouds 16 1008 87 10000 3.1 230 10:36 15.05.2020
2988 Clouds 15 1007 93 10000 2.1 220 10:18 15.05.2020
2989 Clouds 15 1007 93 10000 2.1 240 09:39 15.05.2020
2990 Clouds 15 1006 93 10000 1.5 210 09:19 15.05.2020
2991 Clouds 15 1006 93 10000 1.5 210 08:58 15.05.2020
2992 Clouds 14 1006 93 10000 2.1 160 08:37 15.05.2020
2993 Clouds 15 1006 93 10000 2.1 160 08:18 15.05.2020
2994 Rain 15 1005 87 10000 1.5 0 07:44 15.05.2020
2995 Rain 15 1005 87 10000 1.5 0 07:24 15.05.2020
2996 Rain 14 1005 87 10000 1.5 0 06:52 15.05.2020
2997 Rain 14 1004 93 10000 3.1 0 05:49 15.05.2020
2998 Rain 14 1005 93 10000 2.6 10 04:28 15.05.2020
2999 Rain 15 1005 93 10000 3.1 330 03:47 15.05.2020
3000 Rain 17 1004 93 10000 2.6 0 02:30 15.05.2020
3001 Rain 16 1005 88 10000 5.1 110 01:21 15.05.2020
3002 Rain 16 1005 100 5000 6.2 110 00:50 15.05.2020
3003 Rain 17 1005 100 5000 6.2 110 00:30 15.05.2020
3004 Rain 17 1005 100 5000 6.7 150 23:44 14.05.2020
3005 Rain 17 1005 100 5000 6.7 150 23:22 14.05.2020
3006 Rain 18 1004 77 10000 2.1 70 22:59 14.05.2020
3007 Rain 19 1008 50 0 3.58 139 22:40 14.05.2020
3008 Thunderstorm 21 1004 68 10000 5.1 100 22:19 14.05.2020
3009 Clouds 21 1005 60 10000 2.1 40 21:56 14.05.2020
3010 Clouds 22 1005 60 10000 1.5 40 21:38 14.05.2020
3011 Clouds 22 1006 53 10000 2.1 110 21:19 14.05.2020
3012 Clouds 22 1006 53 10000 2.6 130 20:43 14.05.2020
3013 Clouds 22 1006 53 10000 2.6 130 20:21 14.05.2020
3014 Clouds 23 1005 53 10000 4.1 130 19:59 14.05.2020
3015 Rain 23 1008 24 0 1.79 124 19:40 14.05.2020
3016 Clouds 23 1005 53 10000 2.6 120 19:20 14.05.2020
3017 Rain 24 1006 53 10000 3.1 130 18:58 14.05.2020
3018 Rain 24 1006 50 10000 3.6 120 18:38 14.05.2020
3019 Rain 24 1006 50 10000 3.6 120 18:20 14.05.2020
3020 Clouds 24 1006 53 10000 3.1 160 17:58 14.05.2020
3021 Clouds 24 1006 53 10000 2.6 150 17:37 14.05.2020
3022 Clouds 24 1006 53 10000 3.1 120 17:19 14.05.2020
3023 Clouds 24 1006 53 10000 3.1 120 16:57 14.05.2020
3024 Clouds 24 1006 57 10000 2.6 110 16:38 14.05.2020
3025 Clouds 24 1007 56 10000 2.1 60 16:18 14.05.2020
3026 Clouds 24 1007 56 10000 2.1 60 15:55 14.05.2020
3027 Clouds 24 1007 60 10000 1.5 0 15:36 14.05.2020
3028 Clouds 23 1007 60 10000 1.5 0 15:36 14.05.2020
3029 Clouds 23 1007 56 10000 1.5 0 15:18 14.05.2020
3030 Clouds 23 1007 60 10000 1.5 0 14:40 14.05.2020
3031 Clouds 23 1007 60 10000 1.5 0 14:20 14.05.2020
3032 Clouds 22 1008 68 10000 1.5 0 13:57 14.05.2020
3033 Clouds 22 1008 68 10000 1 0 13:38 14.05.2020
3034 Clouds 21 1008 68 10000 1 0 13:20 14.05.2020
3035 Clouds 21 1008 68 10000 1 0 12:58 14.05.2020
3036 Clouds 21 1008 68 10000 1 0 12:38 14.05.2020
3037 Clouds 21 1008 68 10000 1 0 12:38 14.05.2020
3038 Clouds 19 1008 77 8000 1 0 12:19 14.05.2020
3039 Clouds 19 1008 77 8000 1 0 11:57 14.05.2020
3040 Clouds 18 1009 77 8000 1.5 240 11:38 14.05.2020
3041 Clouds 18 1009 77 8000 1.5 240 11:38 14.05.2020
3042 Clouds 19 1009 77 8000 1 0 11:19 14.05.2020
3043 Clouds 18 1008 77 7000 1 0 10:45 14.05.2020
3044 Clouds 18 1008 77 7000 1 0 10:26 14.05.2020
3045 Clouds 17 1009 82 7000 1.5 230 09:56 14.05.2020
3046 Clouds 17 1009 88 7000 1.5 220 09:38 14.05.2020
3047 Clouds 17 1009 88 7000 0.5 0 09:19 14.05.2020
3048 Clouds 16 1009 93 10000 2.1 180 08:40 14.05.2020
3049 Clouds 16 1009 93 10000 1 0 08:19 14.05.2020
3050 Clouds 15 1008 100 8000 1 310 07:45 14.05.2020
3051 Rain 15 1008 100 8000 1 310 07:22 14.05.2020
3052 Rain 15 1009 100 8000 1 0 06:53 14.05.2020
3053 Rain 15 1009 100 8000 1 0 06:53 14.05.2020
3054 Mist 15 1008 100 5000 0.5 0 06:27 14.05.2020
3055 Rain 14 1009 100 8000 1 0 05:43 14.05.2020
3056 Rain 14 1009 100 8000 1 0 05:22 14.05.2020
3057 Rain 15 1009 100 10000 1 0 03:52 14.05.2020
3058 Rain 15 1009 100 10000 1 190 03:21 14.05.2020
3059 Rain 15 1009 93 10000 0.5 0 02:39 14.05.2020
3060 Rain 15 1009 93 10000 1 0 01:53 14.05.2020
3061 Rain 15 1009 93 10000 0.5 0 00:58 14.05.2020
3062 Rain 15 1009 93 10000 0.5 0 00:29 14.05.2020
3063 Rain 15 1009 87 10000 1.5 300 23:55 13.05.2020
3064 Rain 15 1008 87 10000 1.5 330 23:37 13.05.2020
3065 Rain 15 1008 87 10000 1.5 330 23:18 13.05.2020
3066 Clouds 15 1008 87 10000 1.5 30 22:41 13.05.2020
3067 Clouds 15 1008 87 10000 1.5 30 22:22 13.05.2020
3068 Clouds 15 1008 87 10000 2.6 40 21:59 13.05.2020
3069 Clouds 15 1008 87 10000 2.6 10 21:39 13.05.2020
3070 Clouds 16 1008 87 10000 2.6 10 21:19 13.05.2020
3071 Rain 15 1008 87 8000 2.6 10 20:55 13.05.2020
3072 Rain 15 1008 87 8000 3.1 360 20:37 13.05.2020
3073 Rain 15 1008 87 8000 3.1 360 20:37 13.05.2020
3074 Clouds 15 1008 87 10000 2.6 350 20:19 13.05.2020
3075 Clouds 15 1008 87 10000 3.1 30 19:41 13.05.2020
3076 Clouds 15 1008 87 10000 3.1 30 19:23 13.05.2020
3077 Clouds 15 1009 87 10000 2.6 20 18:44 13.05.2020
3078 Rain 15 1009 87 10000 2.6 20 18:22 13.05.2020
3079 Rain 15 1009 82 8000 2.1 60 17:58 13.05.2020
3080 Rain 15 1009 87 10000 3.1 20 17:38 13.05.2020
3081 Clouds 15 1010 82 10000 2.6 30 17:18 13.05.2020
3082 Clouds 15 1010 87 10000 2.6 40 16:41 13.05.2020
3083 Clouds 15 1010 87 10000 2.6 40 16:19 13.05.2020
3084 Clouds 15 1011 87 8000 2.1 30 15:55 13.05.2020
3085 Clouds 15 1011 87 10000 2.1 90 15:36 13.05.2020
3086 Clouds 15 1011 87 10000 3.6 90 15:18 13.05.2020
3087 Clouds 15 1011 87 10000 3.1 100 14:42 13.05.2020
3088 Clouds 15 1011 87 10000 3.1 100 14:24 13.05.2020
3089 Clouds 15 1011 87 10000 3.6 110 13:59 13.05.2020
3090 Clouds 15 1011 87 10000 3.6 90 13:41 13.05.2020
3091 Clouds 15 1011 87 10000 3.6 90 13:21 13.05.2020
3092 Clouds 15 1013 87 8000 1.5 140 12:58 13.05.2020
3093 Drizzle 14 1012 87 8000 2.6 60 12:39 13.05.2020
3094 Rain 14 1012 87 8000 3.1 90 12:20 13.05.2020
3095 Rain 14 1012 87 8000 3.1 90 11:56 13.05.2020
3096 Rain 14 1012 87 8000 3.1 90 11:56 13.05.2020
3097 Rain 13 1011 93 8000 5.1 90 11:37 13.05.2020
3098 Rain 13 1013 87 10000 4.1 150 11:19 13.05.2020
3099 Clouds 14 1013 87 10000 4.1 150 10:56 13.05.2020
3100 Rain 13 1014 87 10000 3.6 150 10:38 13.05.2020
3101 Clouds 14 1013 87 10000 2.1 110 10:19 13.05.2020
3102 Rain 14 1013 82 10000 3.1 120 09:43 13.05.2020
3103 Rain 14 1013 87 10000 3.1 130 09:23 13.05.2020
3104 Clouds 14 1013 87 10000 3.1 130 08:57 13.05.2020
3105 Clouds 14 1013 82 10000 3.6 130 08:37 13.05.2020
3106 Clouds 14 1013 87 10000 3.6 110 08:18 13.05.2020
3107 Clouds 14 1013 82 10000 3.6 100 07:43 13.05.2020
3108 Clouds 14 1013 82 10000 3.6 100 07:25 13.05.2020
3109 Clouds 14 1013 82 10000 2.6 90 06:47 13.05.2020
3110 Clouds 14 1013 82 10000 2.6 90 06:27 13.05.2020
3111 Clouds 14 1013 82 10000 3.1 100 04:50 13.05.2020
3112 Clouds 14 1013 82 10000 3.6 90 03:27 13.05.2020
3113 Clouds 14 1014 82 10000 4.1 130 02:32 13.05.2020
3114 Clouds 15 1013 77 10000 5.1 110 01:36 13.05.2020
3115 Clouds 17 1012 77 10000 3.1 70 00:47 13.05.2020
3116 Clouds 17 1012 72 10000 1.5 330 00:20 13.05.2020
3117 Clouds 17 1011 72 10000 2.1 280 23:40 12.05.2020
3118 Clouds 17 1011 72 10000 2.1 280 23:40 12.05.2020
3119 Clouds 17 1011 72 10000 2.1 280 23:40 12.05.2020
3120 Clouds 17 1011 72 10000 2.1 280 23:21 12.05.2020
3121 Clouds 17 1011 72 10000 2.1 270 22:58 12.05.2020
3122 Clouds 17 1011 72 10000 2.6 270 22:39 12.05.2020
3123 Clouds 18 1010 72 10000 2.1 270 22:20 12.05.2020
3124 Clouds 18 1010 72 10000 2.1 270 21:55 12.05.2020
3125 Clouds 18 1010 68 10000 3.1 270 21:37 12.05.2020
3126 Clouds 18 1010 77 10000 1 290 21:18 12.05.2020
3127 Clouds 19 1010 77 10000 1 290 20:56 12.05.2020
3128 Clouds 19 1010 77 10000 1 0 20:38 12.05.2020
3129 Clouds 19 1010 77 10000 1 0 20:38 12.05.2020
3130 Clouds 19 1010 77 10000 1 0 20:20 12.05.2020
3131 Clouds 20 1009 68 10000 0.5 0 19:56 12.05.2020
3132 Clouds 20 1009 72 10000 1.5 150 19:37 12.05.2020
3133 Rain 19 1010 82 10000 2.1 230 19:18 12.05.2020
3134 Drizzle 20 1009 72 10000 3.6 200 18:42 12.05.2020
3135 Drizzle 21 1009 72 10000 3.6 200 18:23 12.05.2020
3136 Clouds 22 1009 64 10000 3.1 170 17:57 12.05.2020
3137 Clouds 22 1009 60 10000 2.1 150 17:38 12.05.2020
3138 Clouds 23 1009 56 10000 1 0 17:20 12.05.2020
3139 Clouds 22 1009 56 10000 1.5 240 16:42 12.05.2020
3140 Clouds 23 1009 60 10000 2.1 0 16:22 12.05.2020
3141 Clouds 23 1009 60 10000 2.1 0 15:56 12.05.2020
3142 Clouds 22 1009 56 10000 1.5 230 15:37 12.05.2020
3143 Clouds 23 1009 56 10000 2.6 190 15:18 12.05.2020
3144 Clouds 22 1009 56 10000 2.6 190 14:55 12.05.2020
3145 Clouds 23 1009 56 10000 1.5 0 14:36 12.05.2020
3146 Clouds 22 1009 56 10000 1.5 0 14:18 12.05.2020
3147 Clouds 22 1009 56 10000 1.5 0 13:55 12.05.2020
3148 Clouds 21 1009 64 10000 2.1 0 13:37 12.05.2020
3149 Clouds 21 1009 64 10000 2.1 210 13:18 12.05.2020
3150 Clouds 21 1009 64 10000 2.1 210 12:56 12.05.2020
3151 Clouds 20 1009 68 10000 2.1 220 12:37 12.05.2020
3152 Clouds 20 1009 72 10000 2.1 0 12:19 12.05.2020
3153 Clouds 20 1009 72 10000 2.1 0 11:56 12.05.2020
3154 Clouds 19 1009 72 10000 2.6 230 11:37 12.05.2020
3155 Clouds 19 1009 72 10000 2.6 230 11:19 12.05.2020
3156 Clouds 19 1008 72 10000 2.6 210 10:55 12.05.2020
3157 Clouds 18 1008 82 10000 2.1 260 10:36 12.05.2020
3158 Clouds 17 1008 82 10000 2.1 260 10:18 12.05.2020
3159 Clouds 17 1008 82 10000 2.1 260 10:18 12.05.2020
3160 Clouds 17 1008 82 10000 2.6 210 09:55 12.05.2020
3161 Clouds 17 1007 82 10000 1 0 09:36 12.05.2020
3162 Clouds 16 1007 82 10000 1 0 09:18 12.05.2020
3163 Clouds 15 1007 87 10000 1.5 270 08:39 12.05.2020
3164 Rain 15 1007 87 10000 1.5 270 08:19 12.05.2020
3165 Mist 14 1006 93 5000 0.5 0 07:44 12.05.2020
3166 Mist 14 1006 93 5000 0.5 0 07:25 12.05.2020
3167 Clouds 14 1006 100 6000 0.5 0 06:50 12.05.2020
3168 Mist 14 1005 100 4600 0.5 0 06:29 12.05.2020
3169 Clouds 14 1005 100 6000 0.5 0 05:59 12.05.2020
3170 Clouds 14 1005 100 6000 1 0 05:41 12.05.2020
3171 Clouds 14 1005 93 6000 1 190 03:43 12.05.2020
3172 Clouds 14 1005 93 10000 0.5 60 02:53 12.05.2020
3173 Clouds 14 1005 93 10000 0.5 60 02:25 12.05.2020
3174 Clouds 14 1005 93 10000 1 0 01:27 12.05.2020
3175 Clouds 14 1005 93 10000 1.5 120 00:37 12.05.2020
3176 Clouds 14 1005 100 10000 1.5 120 00:18 12.05.2020
3177 Clouds 14 1004 100 10000 0.5 0 23:42 11.05.2020
3178 Rain 14 1004 100 10000 0.5 0 23:21 11.05.2020
3179 Rain 14 1004 100 10000 1.5 40 22:59 11.05.2020
3180 Rain 14 1004 100 10000 1.5 40 22:59 11.05.2020
3181 Rain 14 1004 100 10000 2.1 30 22:41 11.05.2020
3182 Rain 14 1004 100 10000 2.1 30 22:20 11.05.2020
3183 Rain 14 1004 100 10000 2.6 30 21:59 11.05.2020
3184 Rain 14 1003 100 5000 2.1 40 21:40 11.05.2020
3185 Rain 14 1003 93 5000 2.6 0 21:19 11.05.2020
3186 Rain 14 1003 93 5000 2.6 0 20:59 11.05.2020
3187 Rain 14 1003 93 5000 3.6 50 20:40 11.05.2020
3188 Rain 15 1003 93 5000 2.1 110 20:21 11.05.2020
3189 Rain 15 1003 93 5000 2.1 110 19:56 11.05.2020
3190 Rain 15 1003 100 5000 2.1 130 19:38 11.05.2020
3191 Rain 15 1003 100 5000 2.1 130 19:20 11.05.2020
3192 Rain 15 1003 93 7000 4.1 90 18:56 11.05.2020
3193 Rain 15 1003 93 10000 3.1 90 18:37 11.05.2020
3194 Rain 16 1003 87 10000 4.1 100 18:18 11.05.2020
3195 Rain 16 1003 87 10000 4.1 100 17:55 11.05.2020
3196 Clouds 16 1003 93 10000 1.5 70 17:36 11.05.2020
3197 Clouds 16 1003 93 10000 1.5 70 17:36 11.05.2020
3198 Clouds 16 1003 93 10000 1.5 70 17:36 11.05.2020
3199 Clouds 16 1003 93 10000 1.5 70 17:18 11.05.2020
3200 Rain 16 1003 93 8000 4.1 110 16:42 11.05.2020
3201 Rain 16 1003 93 8000 4.1 110 16:22 11.05.2020
3202 Rain 16 1003 93 5000 4.1 60 15:58 11.05.2020
3203 Rain 16 1003 93 10000 4.1 40 15:39 11.05.2020
3204 Rain 15 1003 93 6000 4.6 50 15:19 11.05.2020
3205 Rain 15 1003 93 6000 4.6 50 14:55 11.05.2020
3206 Rain 15 1003 93 8000 4.6 60 14:37 11.05.2020
3207 Rain 15 1003 93 8000 4.6 60 14:18 11.05.2020
3208 Rain 15 1004 93 3500 2.6 50 13:41 11.05.2020
3209 Rain 15 1004 93 3500 2.6 50 13:19 11.05.2020
3210 Rain 15 1004 87 10000 3.1 80 12:58 11.05.2020
3211 Rain 15 1004 87 8000 3.6 100 12:40 11.05.2020
3212 Rain 16 1004 87 8000 3.6 100 12:21 11.05.2020
3213 Rain 16 1004 87 7000 3.1 90 11:56 11.05.2020
3214 Rain 16 1004 82 10000 4.6 100 11:38 11.05.2020
3215 Rain 16 1007 73 0 2.24 91 11:19 11.05.2020
3216 Clouds 17 1004 77 10000 6.2 120 10:55 11.05.2020
3217 Clouds 17 1004 82 10000 5.7 100 10:37 11.05.2020
3218 Rain 17 1004 82 10000 5.7 120 10:18 11.05.2020
3219 Rain 17 1004 82 10000 5.7 120 09:54 11.05.2020
3220 Rain 16 1004 87 7000 5.1 120 09:36 11.05.2020
3221 Rain 15 1004 87 7000 5.1 120 09:18 11.05.2020
3222 Rain 15 1004 87 4000 4.6 120 08:39 11.05.2020
3223 Rain 14 1004 93 6000 4.1 110 08:19 11.05.2020
3224 Rain 15 1004 93 6000 4.1 110 07:50 11.05.2020
3225 Rain 15 1004 93 10000 3.6 130 07:32 11.05.2020
3226 Rain 15 1004 93 10000 5.7 110 06:54 11.05.2020
3227 Rain 15 1004 93 9000 6.2 100 06:26 11.05.2020
3228 Rain 15 1005 93 9000 6.2 100 05:30 11.05.2020
3229 Rain 15 1005 93 10000 5.7 110 04:44 11.05.2020
3230 Rain 15 1006 87 10000 5.7 110 03:46 11.05.2020
3231 Rain 16 1007 93 5000 3.1 160 02:35 11.05.2020
3232 Rain 17 1006 88 10000 1 0 01:46 11.05.2020
3233 Clouds 17 1008 88 10000 1.5 320 00:54 11.05.2020
3234 Rain 17 1008 88 10000 1.5 320 00:24 11.05.2020
3235 Rain 17 1008 82 10000 2.6 250 23:45 10.05.2020
3236 Rain 18 1008 82 10000 2.6 250 23:26 10.05.2020
3237 Rain 18 1008 77 10000 2.1 280 22:58 10.05.2020
3238 Rain 18 1008 72 10000 2.1 300 22:40 10.05.2020
3239 Rain 18 1008 72 10000 2.1 300 22:22 10.05.2020
3240 Rain 19 1008 64 10000 3.1 220 21:44 10.05.2020
3241 Rain 19 1008 64 10000 3.1 220 21:20 10.05.2020
3242 Drizzle 20 1008 53 10000 2.1 210 20:56 10.05.2020
3243 Rain 20 1008 43 10000 2.1 170 20:38 10.05.2020
3244 Clouds 22 1008 43 10000 2.1 170 20:20 10.05.2020
3245 Clouds 23 1008 36 10000 2.6 150 19:42 10.05.2020
3246 Clouds 23 1008 36 10000 2.6 150 19:24 10.05.2020
3247 Clouds 23 1008 36 0 0.89 221 18:57 10.05.2020
3248 Clouds 24 1008 41 10000 1.5 100 18:38 10.05.2020
3249 Clouds 24 1008 41 10000 1.5 100 18:19 10.05.2020
3250 Clouds 24 1008 36 0 2.47 146 17:59 10.05.2020
3251 Clouds 24 1009 38 10000 2.1 110 17:40 10.05.2020
3252 Clouds 24 1009 38 10000 2.1 110 17:22 10.05.2020
3253 Clouds 25 1009 38 10000 1 0 16:58 10.05.2020
3254 Clouds 25 1009 41 10000 2.1 320 16:40 10.05.2020
3255 Clouds 24 1009 41 10000 2.1 320 16:19 10.05.2020
3256 Clouds 25 1010 41 10000 1.5 0 15:55 10.05.2020
3257 Clouds 24 1010 44 10000 2.1 310 15:36 10.05.2020
3258 Clouds 24 1010 41 10000 1 0 15:18 10.05.2020
3259 Clouds 23 1011 44 10000 1.5 180 14:38 10.05.2020
3260 Clouds 24 1011 44 10000 1.5 180 14:38 10.05.2020
3261 Clouds 24 1011 44 10000 1.5 180 14:20 10.05.2020
3262 Clouds 23 1011 44 10000 1.5 180 14:20 10.05.2020
3263 Clouds 24 1011 44 10000 1 0 13:59 10.05.2020
3264 Clouds 24 1011 49 10000 1.5 40 13:39 10.05.2020
3265 Clouds 23 1012 53 10000 1 0 13:20 10.05.2020
3266 Clouds 23 1012 53 10000 1 0 12:58 10.05.2020
3267 Clouds 23 1012 56 10000 2.1 0 12:40 10.05.2020
3268 Clouds 21 1012 60 10000 1.5 0 12:21 10.05.2020
3269 Clouds 21 1012 60 10000 1.5 0 11:57 10.05.2020
3270 Clouds 21 1012 60 10000 1 0 11:39 10.05.2020
3271 Clouds 21 1012 60 10000 1 0 11:20 10.05.2020
3272 Clouds 20 1013 68 10000 1 0 10:47 10.05.2020
3273 Clouds 20 1013 68 10000 1 0 10:29 10.05.2020
3274 Clouds 19 1013 72 10000 2.1 250 09:58 10.05.2020
3275 Clouds 18 1012 77 10000 2.1 250 09:40 10.05.2020
3276 Clouds 18 1012 77 10000 2.1 250 09:20 10.05.2020
3277 Clouds 17 1012 82 10000 2.1 250 08:50 10.05.2020
3278 Clouds 17 1011 77 10000 1.5 250 08:24 10.05.2020
3279 Clouds 17 1011 77 10000 1.5 210 07:45 10.05.2020
3280 Rain 16 1011 77 10000 1.5 210 07:21 10.05.2020
3281 Rain 16 1011 77 10000 0.5 0 06:57 10.05.2020
3282 Rain 16 1011 77 10000 0.5 0 06:32 10.05.2020
3283 Rain 16 1011 72 10000 2.1 280 05:51 10.05.2020
3284 Rain 16 1012 68 10000 2.6 260 04:54 10.05.2020
3285 Rain 17 1012 68 10000 2.1 200 04:34 10.05.2020
3286 Rain 17 1012 63 10000 1 0 03:54 10.05.2020
3287 Rain 17 1012 63 10000 1.5 310 03:36 10.05.2020
3288 Rain 18 1012 55 10000 2.1 320 02:41 10.05.2020
3289 Clouds 19 1013 45 10000 2.6 310 02:19 10.05.2020
3290 Clouds 19 1013 45 10000 2.1 290 01:41 10.05.2020
3291 Clouds 19 1013 43 10000 2.1 320 01:19 10.05.2020
3292 Clouds 19 1013 43 10000 2.1 320 00:54 10.05.2020
3293 Clouds 19 1013 40 10000 2.6 260 00:24 10.05.2020
3294 Clouds 19 1013 40 10000 2.6 260 23:58 09.05.2020
3295 Clouds 20 1013 43 10000 3.1 270 23:39 09.05.2020
3296 Clouds 20 1013 43 10000 3.1 270 23:20 09.05.2020
3297 Clouds 21 1013 43 10000 2.6 250 22:42 09.05.2020
3298 Clouds 21 1013 43 10000 2.6 250 22:23 09.05.2020
3299 Clouds 21 1012 40 10000 3.1 280 21:58 09.05.2020
3300 Clouds 21 1012 38 10000 3.1 260 21:40 09.05.2020
3301 Clouds 21 1012 34 0 2.24 256 21:21 09.05.2020
3302 Clouds 22 1012 35 10000 2.6 260 20:58 09.05.2020
3303 Clouds 22 1012 30 0 5.36 267 20:38 09.05.2020
3304 Clouds 23 1012 33 10000 3.6 220 20:20 09.05.2020
3305 Clouds 24 1012 33 10000 3.6 220 19:56 09.05.2020
3306 Clouds 24 1012 31 0 6.71 260 19:37 09.05.2020
3307 Clouds 25 1012 32 10000 3.1 220 19:18 09.05.2020
3308 Clouds 26 1012 27 10000 2.6 220 18:43 09.05.2020
3309 Clouds 26 1012 27 10000 2.6 220 18:23 09.05.2020
3310 Clouds 26 1012 28 10000 1 0 17:45 09.05.2020
3311 Clouds 27 1012 28 10000 1 0 17:23 09.05.2020
3312 Clouds 27 1013 27 10000 1.5 0 16:56 09.05.2020
3313 Clouds 27 1013 26 10000 2.1 240 16:38 09.05.2020
3314 Clouds 27 1013 26 10000 2.1 240 16:18 09.05.2020
3315 Clouds 26 1014 27 10000 2.1 0 15:42 09.05.2020
3316 Clear 26 1014 27 10000 2.1 0 15:22 09.05.2020
3317 Clear 26 1014 27 10000 2.1 0 15:22 09.05.2020
3318 Clear 26 1014 29 10000 2.1 0 14:56 09.05.2020
3319 Clear 25 1015 29 10000 2.1 0 14:37 09.05.2020
3320 Clouds 26 1015 31 10000 2.6 250 14:18 09.05.2020
3321 Clouds 25 1015 31 10000 3.1 0 13:43 09.05.2020
3322 Clear 24 1016 33 10000 2.6 240 13:22 09.05.2020
3323 Clear 24 1016 33 10000 2.6 240 12:59 09.05.2020
3324 Clear 23 1016 33 10000 3.1 0 12:39 09.05.2020
3325 Clouds 23 1016 33 10000 3.1 0 12:21 09.05.2020
3326 Clouds 22 1016 33 10000 2.1 0 11:45 09.05.2020
3327 Clear 22 1016 35 10000 1.5 0 11:20 09.05.2020
3328 Clear 21 1016 35 10000 1.5 0 10:54 09.05.2020
3329 Clear 20 1016 37 10000 2.1 260 10:36 09.05.2020
3330 Clear 20 1016 39 10000 2.6 270 10:18 09.05.2020
3331 Clear 19 1016 39 10000 2.1 250 09:43 09.05.2020
3332 Clear 18 1016 37 10000 1.5 260 09:20 09.05.2020
3333 Clear 19 1016 37 10000 1.5 260 08:54 09.05.2020
3334 Clear 18 1016 48 10000 0.5 0 08:54 09.05.2020
3335 Clear 17 1016 48 10000 0.5 0 08:35 09.05.2020
3336 Clear 16 1016 55 10000 0.5 0 07:56 09.05.2020
3337 Clear 15 1016 58 10000 0.5 0 07:38 09.05.2020
3338 Clear 16 1016 58 10000 0.5 0 07:20 09.05.2020
3339 Clear 15 1016 58 10000 0.5 0 06:27 09.05.2020
3340 Clear 16 1016 50 10000 1 290 05:50 09.05.2020
3341 Clear 16 1016 47 10000 1 0 05:19 09.05.2020
3342 Clear 17 1017 42 10000 1 0 03:39 09.05.2020
3343 Clear 18 1017 36 10000 1.5 330 02:53 09.05.2020
3344 Clouds 18 1017 34 10000 2.1 320 02:29 09.05.2020
3345 Clouds 18 1017 30 10000 3.6 270 01:48 09.05.2020
3346 Clouds 19 1017 30 10000 3.6 260 01:20 09.05.2020
3347 Clouds 19 1017 30 10000 3.6 260 00:42 09.05.2020
3348 Clouds 19 1017 30 10000 3.6 260 00:18 09.05.2020
3349 Clouds 19 1017 32 10000 2.6 280 23:43 08.05.2020
3350 Clouds 20 1017 32 10000 2.6 280 23:24 08.05.2020
3351 Clouds 20 1017 32 10000 2.6 270 22:55 08.05.2020
3352 Clouds 21 1017 33 10000 2.1 260 22:37 08.05.2020
3353 Clear 21 1017 33 10000 2.1 260 22:18 08.05.2020
3354 Clear 22 1017 31 10000 2.1 260 21:54 08.05.2020
3355 Clear 22 1017 27 10000 2.6 230 21:36 08.05.2020
3356 Clouds 23 1017 33 10000 2.1 250 21:18 08.05.2020
3357 Clouds 23 1017 33 10000 1.5 240 20:41 08.05.2020
3358 Clouds 24 1017 33 10000 1.5 240 20:23 08.05.2020
3359 Clouds 25 1016 29 10000 2.6 270 19:56 08.05.2020
3360 Clouds 26 1016 28 10000 1 0 19:38 08.05.2020
3361 Clouds 26 1017 28 10000 1.5 230 19:19 08.05.2020
3362 Clouds 26 1017 28 10000 2.6 240 18:44 08.05.2020
3363 Clouds 26 1017 28 10000 2.6 240 18:44 08.05.2020
3364 Clouds 27 1017 28 10000 2.6 240 18:26 08.05.2020
3365 Clouds 26 1017 26 10000 2.1 0 17:43 08.05.2020
3366 Clouds 27 1017 26 10000 2.1 0 17:20 08.05.2020
3367 Clouds 27 1018 30 10000 3.6 0 16:55 08.05.2020
3368 Clouds 26 1018 34 10000 2.6 170 16:37 08.05.2020
3369 Clouds 26 1018 34 10000 2.6 170 16:18 08.05.2020
3370 Clouds 26 1019 36 10000 1.5 180 15:42 08.05.2020
3371 Clouds 26 1019 36 10000 1.5 180 15:20 08.05.2020
3372 Clouds 26 1019 31 10000 2.1 270 14:56 08.05.2020
3373 Clouds 26 1019 31 10000 2.1 270 14:56 08.05.2020
3374 Clouds 25 1020 33 10000 2.1 190 14:37 08.05.2020
3375 Clouds 25 1020 36 10000 2.1 170 14:18 08.05.2020
3376 Clouds 25 1020 35 10000 2.1 180 13:41 08.05.2020
3377 Clouds 24 1020 38 10000 1 0 13:20 08.05.2020
3378 Clouds 23 1020 38 10000 1 0 12:56 08.05.2020
3379 Clouds 23 1021 40 10000 2.1 120 12:38 08.05.2020
3380 Clouds 22 1021 43 10000 1 0 12:20 08.05.2020
3381 Clouds 22 1021 46 10000 1.5 160 11:44 08.05.2020
3382 Clouds 21 1021 46 10000 1.5 160 11:23 08.05.2020
3383 Clouds 21 1021 49 10000 2.6 150 10:58 08.05.2020
3384 Clouds 21 1021 48 10000 2.6 130 10:40 08.05.2020
3385 Clouds 20 1021 48 10000 2.6 130 10:19 08.05.2020
3386 Clouds 20 1021 48 10000 3.6 140 09:56 08.05.2020
3387 Clouds 19 1021 55 10000 3.1 140 09:37 08.05.2020
3388 Clouds 18 1022 55 10000 2.1 120 09:18 08.05.2020
3389 Clouds 17 1021 63 10000 2.1 120 08:40 08.05.2020
3390 Clouds 17 1021 63 10000 2.1 120 08:21 08.05.2020
3391 Clouds 16 1021 63 10000 1.5 90 07:43 08.05.2020
3392 Clouds 16 1021 63 10000 1.5 90 07:43 08.05.2020
3393 Clouds 16 1021 63 10000 1.5 90 07:23 08.05.2020
3394 Clouds 16 1021 67 10000 1.5 40 06:50 08.05.2020
3395 Clouds 15 1021 71 10000 1.5 50 06:21 08.05.2020
3396 Clouds 15 1021 71 10000 0.5 0 05:36 08.05.2020
3397 Clouds 16 1021 62 10000 1 0 04:21 08.05.2020
3398 Clouds 17 1021 62 10000 1 0 02:32 08.05.2020
3399 Clouds 17 1022 51 10000 1 360 01:44 08.05.2020
3400 Clouds 16 1021 67 10000 1 30 01:21 08.05.2020
3401 Clouds 17 1021 67 10000 0.5 0 00:48 08.05.2020
3402 Clouds 19 1024 15 0 1.34 79 00:28 08.05.2020
3403 Clouds 19 1021 59 10000 0.5 330 23:57 07.05.2020
3404 Clouds 18 1021 55 10000 0.5 0 23:39 07.05.2020
3405 Clouds 18 1021 55 10000 0.5 0 23:39 07.05.2020
3406 Clouds 18 1021 55 10000 0.5 0 23:21 07.05.2020
3407 Clouds 20 1020 52 10000 1 190 22:42 07.05.2020
3408 Clouds 19 1020 52 10000 1 190 22:21 07.05.2020
3409 Clouds 21 1020 42 10000 1 0 21:58 07.05.2020
3410 Clouds 20 1020 37 10000 2.1 130 21:39 07.05.2020
3411 Clouds 22 1019 33 10000 2.6 120 21:20 07.05.2020
3412 Clear 21 1019 33 10000 2.6 120 20:58 07.05.2020
3413 Clear 22 1019 35 10000 1.5 180 20:40 07.05.2020
3414 Clear 23 1019 35 10000 1.5 180 20:20 07.05.2020
3415 Clear 23 1019 35 10000 1.5 180 20:20 07.05.2020
3416 Clear 24 1019 31 10000 2.1 170 19:48 07.05.2020
3417 Clear 24 1019 31 10000 2.1 170 19:23 07.05.2020
3418 Clear 24 1020 33 10000 1.5 190 18:59 07.05.2020
3419 Clear 24 1020 31 10000 2.1 210 18:39 07.05.2020
3420 Clear 24 1020 31 10000 2.1 210 18:20 07.05.2020
3421 Clear 24 1020 31 10000 1.5 0 17:42 07.05.2020
3422 Clear 24 1020 31 10000 1.5 0 17:20 07.05.2020
3423 Clear 24 1021 31 10000 2.6 110 16:43 07.05.2020
3424 Clear 23 1021 33 10000 1 0 16:19 07.05.2020
3425 Clear 23 1021 33 10000 1 0 15:58 07.05.2020
3426 Clear 24 1022 33 10000 1.5 0 15:39 07.05.2020
3427 Clear 23 1022 33 10000 3.1 120 15:19 07.05.2020
3428 Clear 23 1022 33 10000 3.1 120 14:57 07.05.2020
3429 Clouds 23 1022 31 10000 2.6 80 14:39 07.05.2020
3430 Clouds 23 1022 31 10000 2.6 80 14:18 07.05.2020
3431 Clouds 23 1022 35 10000 2.6 160 13:42 07.05.2020
3432 Clouds 22 1022 35 10000 2.6 160 13:22 07.05.2020
3433 Clouds 21 1022 37 10000 2.6 130 12:43 07.05.2020
3434 Clouds 21 1022 37 10000 2.6 130 12:20 07.05.2020
3435 Clouds 21 1022 37 10000 2.6 100 12:20 07.05.2020
3436 Clouds 20 1022 37 10000 3.1 90 11:40 07.05.2020
3437 Clouds 20 1022 37 10000 3.1 90 11:22 07.05.2020
3438 Clouds 19 1022 45 10000 3.1 120 10:58 07.05.2020
3439 Clouds 19 1022 48 10000 3.1 90 10:40 07.05.2020
3440 Clouds 19 1022 48 10000 3.1 90 10:40 07.05.2020
3441 Clouds 19 1022 48 10000 3.1 90 10:20 07.05.2020
3442 Clouds 18 1022 63 10000 3.1 80 09:40 07.05.2020
3443 Clouds 17 1022 63 10000 3.6 100 09:20 07.05.2020
3444 Clouds 17 1022 63 10000 3.6 100 08:54 07.05.2020
3445 Clouds 16 1022 67 10000 2.6 110 08:36 07.05.2020
3446 Clouds 16 1022 67 10000 1 80 08:18 07.05.2020
3447 Clouds 14 1022 76 10000 1 0 07:41 07.05.2020
3448 Clouds 15 1022 76 10000 1 0 07:21 07.05.2020
3449 Clouds 13 1021 81 10000 2.1 40 06:38 07.05.2020
3450 Clouds 13 1021 81 10000 2.1 40 06:19 07.05.2020
3451 Clouds 14 1021 72 10000 1.5 80 04:41 07.05.2020
3452 Clouds 15 1021 72 10000 1.5 50 03:47 07.05.2020
3453 Clouds 15 1020 72 10000 1.5 50 03:20 07.05.2020
3454 Clear 16 1020 76 10000 1.5 30 02:36 07.05.2020
3455 Clear 16 1020 67 10000 1.5 50 01:38 07.05.2020
3456 Clear 16 1020 67 10000 1.5 50 01:38 07.05.2020
3457 Clear 16 1020 67 10000 1.5 50 01:20 07.05.2020
3458 Clear 16 1019 63 10000 2.1 100 00:43 07.05.2020
3459 Clear 17 1019 63 10000 2.1 100 00:23 07.05.2020
3460 Clear 17 1018 63 10000 2.6 100 23:45 06.05.2020
3461 Clear 17 1018 63 10000 2.6 100 23:23 06.05.2020
3462 Clear 18 1018 63 10000 2.6 110 22:56 06.05.2020
3463 Clear 18 1018 63 10000 3.1 120 22:38 06.05.2020
3464 Clear 18 1018 63 10000 3.1 120 22:38 06.05.2020
3465 Clear 18 1017 59 10000 3.1 110 22:19 06.05.2020
3466 Clear 18 1017 59 10000 3.1 110 21:55 06.05.2020
3467 Clear 18 1017 59 10000 5.1 110 21:37 06.05.2020
3468 Clear 19 1017 59 10000 5.1 110 21:18 06.05.2020
3469 Clear 19 1019 31 0 4.02 100 20:42 06.05.2020
3470 Clouds 20 1016 52 10000 6.2 120 20:22 06.05.2020
3471 Clouds 21 1015 52 10000 5.1 100 19:57 06.05.2020
3472 Clouds 21 1015 49 10000 6.2 110 19:38 06.05.2020
3473 Clouds 21 1015 49 10000 6.2 110 19:19 06.05.2020
3474 Clouds 22 1015 49 10000 5.1 110 18:58 06.05.2020
3475 Clouds 22 1014 49 10000 5.7 90 18:38 06.05.2020
3476 Clouds 22 1014 49 10000 6.2 110 18:20 06.05.2020
3477 Clouds 21 1014 49 10000 6.2 110 17:55 06.05.2020
3478 Clouds 22 1014 49 10000 6.2 100 17:37 06.05.2020
3479 Clouds 22 1014 49 10000 6.2 100 17:37 06.05.2020
3480 Clouds 22 1014 49 10000 6.2 100 17:37 06.05.2020
3481 Clouds 22 1014 49 10000 6.7 110 17:18 06.05.2020
3482 Clouds 22 1014 49 10000 6.7 110 16:58 06.05.2020
3483 Clouds 22 1014 53 10000 6.2 100 16:40 06.05.2020
3484 Clouds 22 1014 49 10000 6.2 120 16:20 06.05.2020
3485 Clouds 23 1014 46 10000 4.6 100 15:48 06.05.2020
3486 Clouds 22 1014 46 10000 4.6 100 15:23 06.05.2020
3487 Clouds 22 1015 53 10000 4.6 130 14:59 06.05.2020
3488 Clouds 21 1015 56 10000 5.1 120 14:39 06.05.2020
3489 Clouds 22 1015 56 10000 5.1 120 14:19 06.05.2020
3490 Clouds 21 1015 56 10000 5.7 130 14:19 06.05.2020
3491 Clouds 21 1015 56 10000 5.7 130 13:58 06.05.2020
3492 -273 0 0 0 0 0 13:39 06.05.2020
3493 Clouds 21 1015 56 10000 5.1 110 13:19 06.05.2020
3494 Clouds 20 1014 68 10000 4.1 90 12:43 06.05.2020
3495 Clouds 20 1014 68 10000 4.1 90 12:25 06.05.2020
3496 Clouds 19 1014 72 10000 4.1 130 11:42 06.05.2020
3497 Clouds 19 1014 72 10000 4.1 130 11:23 06.05.2020
3498 Clouds 19 1014 68 10000 3.1 150 10:58 06.05.2020
3499 Clouds 19 1014 68 10000 1.5 180 10:39 06.05.2020
3500 Clouds 18 1014 68 10000 1.5 180 10:20 06.05.2020
3501 Clouds 18 1014 77 10000 2.1 160 09:59 06.05.2020
3502 Clouds 18 1014 77 10000 2.1 160 09:59 06.05.2020
3503 Clouds 17 1014 82 10000 2.1 170 09:38 06.05.2020
3504 Clouds 17 1014 82 10000 2.1 170 09:20 06.05.2020
3505 Clouds 16 1013 87 10000 1.5 170 08:43 06.05.2020
3506 Clouds 15 1013 93 10000 2.1 160 08:20 06.05.2020
3507 Clouds 15 1013 93 10000 2.1 160 07:56 06.05.2020
3508 Clouds 15 1013 100 10000 1.5 170 07:38 06.05.2020
3509 Clouds 14 1013 100 10000 1.5 170 07:18 06.05.2020
3510 Clouds 14 1012 93 10000 1.5 190 06:46 06.05.2020
3511 Clouds 14 1012 87 10000 0.5 0 06:20 06.05.2020
3512 Clouds 15 1012 87 10000 0.5 0 05:39 06.05.2020
3513 Clear 15 1012 82 10000 1.5 260 04:52 06.05.2020
3514 Clear 15 1012 82 10000 2.1 270 03:52 06.05.2020
3515 Clear 15 1012 82 10000 2.1 270 03:26 06.05.2020
3516 Clear 16 1013 77 10000 2.1 280 02:51 06.05.2020
3517 Clouds 16 1013 77 10000 3.1 270 02:22 06.05.2020
3518 Clouds 16 1013 77 10000 2.6 270 01:42 06.05.2020
3519 Clouds 16 1013 77 10000 2.6 270 01:20 06.05.2020
3520 Clouds 16 1013 72 10000 2.6 290 00:44 06.05.2020
3521 Clouds 16 1013 72 10000 2.6 290 00:19 06.05.2020
3522 Clouds 17 1012 72 10000 3.1 270 23:41 05.05.2020
3523 Clouds 17 1012 72 10000 2.6 260 23:19 05.05.2020
3524 Clouds 18 1012 72 10000 2.6 260 22:54 05.05.2020
3525 Clouds 18 1012 68 10000 2.6 250 22:36 05.05.2020
3526 Clouds 18 1012 68 10000 2.6 240 22:18 05.05.2020
3527 Clouds 19 1012 64 10000 2.6 240 21:41 05.05.2020
3528 Clouds 19 1014 40 0 3.58 229 21:21 05.05.2020
3529 Clouds 19 1014 37 0 3.58 222 20:59 05.05.2020
3530 Clouds 20 1014 36 0 2.68 222 20:39 05.05.2020
3531 Clouds 21 1015 33 0 3.58 214 20:19 05.05.2020
3532 Clouds 21 1011 53 10000 3.1 240 19:58 05.05.2020
3533 Clouds 22 1011 47 10000 3.6 240 19:37 05.05.2020
3534 Clouds 23 1011 49 10000 3.1 220 19:19 05.05.2020
3535 Clouds 23 1011 49 10000 3.1 220 18:55 05.05.2020
3536 Clouds 24 1012 47 10000 3.1 250 18:37 05.05.2020
3537 Clouds 24 1012 47 10000 3.1 250 18:37 05.05.2020
3538 Clouds 24 1012 47 10000 3.1 250 18:19 05.05.2020
3539 Clouds 24 1012 44 10000 3.1 250 17:43 05.05.2020
3540 Clouds 24 1012 47 10000 4.1 250 17:25 05.05.2020
3541 Clouds 24 1012 47 10000 4.1 250 16:58 05.05.2020
3542 Clouds 23 1012 49 10000 3.6 230 16:37 05.05.2020
3543 Clouds 23 1012 53 10000 3.1 220 16:18 05.05.2020
3544 Clouds 23 1012 53 10000 3.1 220 15:55 05.05.2020
3545 Clouds 23 1012 49 10000 3.1 290 15:37 05.05.2020
3546 Clouds 23 1012 49 10000 3.1 290 15:37 05.05.2020
3547 Clouds 23 1013 49 10000 2.6 280 15:19 05.05.2020
3548 Clouds 22 1013 49 10000 2.1 310 14:42 05.05.2020
3549 Clouds 22 1013 49 10000 2.1 310 14:42 05.05.2020
3550 Clouds 22 1013 49 10000 2.1 310 14:24 05.05.2020
3551 Clouds 21 1013 49 10000 3.1 0 13:58 05.05.2020
3552 Clouds 21 1014 52 10000 3.1 280 13:40 05.05.2020
3553 Clouds 21 1014 56 10000 2.6 240 13:21 05.05.2020
3554 Clouds 20 1014 56 10000 2.6 240 12:59 05.05.2020
3555 Clouds 20 1014 52 10000 3.1 240 12:39 05.05.2020
3556 Clouds 20 1014 52 10000 3.1 240 12:20 05.05.2020
3557 Clouds 20 1014 59 10000 2.6 250 11:57 05.05.2020
3558 Clouds 19 1014 63 10000 2.6 230 11:36 05.05.2020
3559 Clouds 19 1014 63 10000 2.6 230 11:36 05.05.2020
3560 Clouds 19 1014 63 10000 2.6 230 11:18 05.05.2020
3561 Clouds 18 1014 59 10000 3.1 220 10:39 05.05.2020
3562 Clouds 18 1014 59 10000 3.1 220 10:19 05.05.2020
3563 Clouds 17 1014 59 10000 2.1 210 09:58 05.05.2020
3564 Clouds 17 1015 59 10000 1 0 09:40 05.05.2020
3565 Clouds 17 1015 59 10000 1 0 09:22 05.05.2020
3566 Clouds 15 1014 63 10000 0.5 0 08:41 05.05.2020
3567 Clouds 15 1014 63 10000 0.5 0 08:20 05.05.2020
3568 Clouds 15 1015 76 10000 0.5 0 07:57 05.05.2020
3569 Clouds 15 1014 71 10000 0.5 0 07:38 05.05.2020
3570 Clouds 15 1014 76 10000 1 360 07:18 05.05.2020
3571 Clouds 15 1014 76 10000 0.5 0 06:45 05.05.2020
3572 Clouds 15 1014 67 10000 0.5 0 06:21 05.05.2020
3573 Clouds 15 1014 62 10000 0.5 0 05:36 05.05.2020
3574 Clear 16 1015 48 10000 1.5 310 03:35 05.05.2020
3575 Clear 17 1016 39 10000 2.6 270 01:42 05.05.2020
3576 Clear 18 1016 37 10000 2.6 260 00:52 05.05.2020
3577 Clear 18 1016 37 10000 2.6 260 00:21 05.05.2020
3578 Clear 19 1015 52 10000 1 0 23:43 04.05.2020
3579 Clear 20 1015 52 10000 1 0 23:21 04.05.2020
3580 Clear 20 1015 63 10000 1 300 22:56 04.05.2020
3581 Clear 19 1015 55 10000 0.5 0 22:38 04.05.2020
3582 Clear 20 1015 55 10000 0.5 0 22:19 04.05.2020
3583 Clear 21 1015 52 10000 1 210 21:53 04.05.2020
3584 Clear 21 1015 43 10000 0.5 0 21:53 04.05.2020
3585 Clear 21 1015 52 10000 1 210 21:53 04.05.2020
3586 Clear 21 1015 43 10000 0.5 0 21:53 04.05.2020
3587 Clear 21 1015 43 10000 0.5 0 21:53 04.05.2020
3588 Clear 22 1015 43 10000 0.5 0 21:30 04.05.2020
3589 Clear 22 1015 43 10000 0.5 0 21:30 04.05.2020
3590 Clear 21 1015 43 10000 0.5 0 21:30 04.05.2020
3591 Clear 22 1015 43 10000 0.5 0 21:30 04.05.2020
3592 Clear 22 1015 36 10000 1.5 240 20:44 04.05.2020
3593 Clear 22 1015 36 10000 1.5 240 20:23 04.05.2020
3594 Clear 23 1015 38 10000 1.5 210 19:59 04.05.2020
3595 Clear 23 1015 33 10000 2.1 240 19:40 04.05.2020
3596 Clear 24 1015 33 10000 2.1 240 19:20 04.05.2020
3597 Clear 24 1015 31 10000 2.1 0 18:55 04.05.2020
3598 Clear 24 1015 33 10000 2.1 170 18:37 04.05.2020
3599 Clear 23 1015 33 10000 2.1 170 18:18 04.05.2020
3600 Clear 24 1016 33 10000 1 0 17:55 04.05.2020
3601 Clear 24 1016 33 10000 1 0 17:55 04.05.2020
3602 Clear 24 1016 31 10000 2.6 0 17:36 04.05.2020
3603 Clear 24 1017 31 10000 2.1 0 17:18 04.05.2020
3604 Clear 24 1017 29 10000 1 0 16:42 04.05.2020
3605 Clear 24 1017 29 10000 1 0 16:21 04.05.2020
3606 Clear 23 1017 31 10000 2.6 0 15:46 04.05.2020
3607 Clear 23 1018 33 10000 1.5 0 15:25 04.05.2020
3608 Clear 23 1018 33 10000 1.5 0 14:56 04.05.2020
3609 Clear 23 1018 33 10000 1.5 140 14:38 04.05.2020
3610 Clear 23 1018 33 10000 1.5 140 14:38 04.05.2020
3611 Clear 22 1018 33 10000 1.5 140 14:38 04.05.2020
3612 Clear 23 1018 33 10000 1.5 140 14:38 04.05.2020
3613 Clear 22 1018 33 10000 1.5 140 14:38 04.05.2020
3614 Clouds 22 1019 32 10000 1.5 0 13:42 04.05.2020
3615 Clouds 21 1019 37 10000 2.6 120 12:45 04.05.2020
3616 Clouds 21 1019 37 10000 2.6 120 12:45 04.05.2020
3617 Clouds 20 1020 34 10000 2.6 0 12:00 04.05.2020
3618 Clouds 19 1020 34 10000 2.6 0 12:00 04.05.2020
3619 Clouds 20 1020 34 10000 2.6 0 12:00 04.05.2020
3620 Clouds 20 1020 34 10000 2.6 0 12:00 04.05.2020
3621 Clouds 17 1019 39 10000 3.6 100 09:32 04.05.2020
3622 Clouds 16 1019 51 10000 2.1 90 08:34 04.05.2020
3623 Clouds 16 1019 51 10000 2.1 90 08:34 04.05.2020
3624 Clouds 16 1019 51 10000 2.1 90 08:34 04.05.2020
3625 Clouds 16 1019 51 10000 2.1 90 08:34 04.05.2020
3626 Clouds 16 1019 51 10000 2.1 90 08:34 04.05.2020
3627 Clouds 15 1019 54 10000 2.1 60 07:43 04.05.2020
3628 Clouds 14 1018 50 10000 2.1 60 06:37 04.05.2020
3629 Clouds 14 1018 50 10000 2.1 60 06:37 04.05.2020
3630 Clouds 14 1018 50 10000 2.1 60 06:37 04.05.2020
3631 Clouds 14 1018 50 10000 2.1 60 06:37 04.05.2020
3632 Clouds 15 1018 47 10000 3.1 60 04:55 04.05.2020
3633 Clear 15 1018 47 10000 3.6 70 03:18 04.05.2020
3634 Clear 15 1018 47 10000 3.6 70 03:18 04.05.2020
3635 Clear 16 1017 48 10000 3.6 70 02:30 04.05.2020
3636 Clear 17 1017 48 10000 3.6 110 00:36 04.05.2020
3637 Clear 18 1016 48 10000 3.1 120 23:45 03.05.2020
3638 Clear 18 1016 48 10000 3.1 120 23:24 03.05.2020
3639 Clear 18 1016 48 10000 3.1 130 22:56 03.05.2020
3640 Clear 19 1016 45 10000 3.6 130 22:38 03.05.2020
3641 Clear 19 1015 42 10000 3.6 110 22:18 03.05.2020
3642 Clear 20 1014 40 10000 3.1 110 21:41 03.05.2020
3643 Clear 21 1014 35 10000 3.6 120 21:20 03.05.2020
3644 Clear 21 1014 35 10000 4.1 120 20:47 03.05.2020
3645 Clear 22 1014 35 10000 4.1 120 20:23 03.05.2020
3646 Clear 22 1014 35 10000 4.6 120 19:55 03.05.2020
3647 Clear 22 1014 35 10000 4.6 120 19:55 03.05.2020
3648 Clear 22 1014 35 10000 4.6 120 19:55 03.05.2020
3649 Clear 23 1014 35 10000 4.1 120 19:36 03.05.2020
3650 Clear 22 1014 35 10000 4.1 120 19:36 03.05.2020
3651 Clear 23 1014 35 10000 4.1 120 19:18 03.05.2020
3652 Clear 23 1014 29 10000 3.6 100 18:39 03.05.2020
3653 Clear 23 1014 29 10000 3.6 100 18:38 03.05.2020
3654 Clear 23 1014 33 10000 3.1 150 18:19 03.05.2020
3655 Clouds 23 1014 35 10000 3.6 150 17:42 03.05.2020
3656 Clouds 23 1014 35 10000 3.6 150 17:42 03.05.2020
3657 Clouds 23 1014 35 10000 3.6 150 17:22 03.05.2020
3658 Clouds 23 1014 36 10000 3.6 140 17:22 03.05.2020
3659 Clouds 23 1014 36 10000 3.6 140 17:22 03.05.2020
3660 Clouds 23 1014 36 10000 3.6 140 16:54 03.05.2020
3661 Clear 23 1014 38 10000 3.1 130 16:36 03.05.2020
3662 Clear 23 1014 38 10000 3.1 130 16:18 03.05.2020
3663 Clear 23 1014 38 10000 3.1 130 15:55 03.05.2020
3664 Clear 23 1014 38 10000 3.1 150 15:36 03.05.2020
3665 Clear 23 1014 38 10000 3.1 150 15:36 03.05.2020
3666 Clear 23 1014 38 10000 3.1 150 15:36 03.05.2020
3667 Clear 23 1014 40 10000 4.6 150 15:18 03.05.2020
3668 Clear 23 1014 35 10000 3.1 100 14:41 03.05.2020
3669 Clear 22 1014 35 10000 3.1 100 14:22 03.05.2020
3670 Clear 22 1014 43 10000 3.6 100 13:56 03.05.2020
3671 Clear 22 1014 40 10000 4.1 100 13:32 03.05.2020
3672 Clear 22 1014 40 10000 4.1 100 13:29 03.05.2020
3673 Clear 22 1014 40 10000 4.1 100 13:29 03.05.2020
3674 Clear 22 1014 40 10000 4.1 100 13:29 03.05.2020
3675 Clear 21 1014 49 10000 4.1 130 12:45 03.05.2020
3676 Clear 21 1014 52 10000 5.1 130 12:19 03.05.2020
3677 Clear 20 1014 52 10000 4.6 130 11:56 03.05.2020
3678 Clear 20 1014 60 10000 4.6 120 11:37 03.05.2020
3679 Clear 19 1014 60 10000 4.6 120 11:19 03.05.2020
3680 Clear 19 1014 60 10000 4.6 120 11:19 03.05.2020
3681 Clear 19 1013 68 10000 4.6 110 10:47 03.05.2020
3682 Clear 19 1013 63 10000 5.7 100 10:47 03.05.2020
3683 Clear 19 1013 63 10000 5.7 100 10:47 03.05.2020
3684 Clear 19 1013 68 10000 4.6 110 10:47 03.05.2020
3685 Clear 18 1013 68 10000 4.6 90 09:58 03.05.2020
3686 Clouds 18 1012 68 10000 3.6 100 09:37 03.05.2020
3687 Clouds 18 1012 68 10000 3.6 100 09:37 03.05.2020
3688 Clear 17 1012 72 10000 4.1 80 08:56 03.05.2020
3689 Clouds 16 1012 77 10000 2.6 90 08:26 03.05.2020
3690 Clouds 16 1010 77 10000 2.6 80 07:40 03.05.2020
3691 Clouds 15 1009 62 10000 1.5 50 06:21 03.05.2020
3692 Clouds 15 1010 54 10000 2.1 20 05:47 03.05.2020
3693 Clouds 16 1009 45 10000 2.6 50 04:56 03.05.2020
3694 Clouds 17 1009 42 10000 2.6 300 04:27 03.05.2020
3695 Clouds 18 1008 37 10000 3.1 310 02:59 03.05.2020
3696 Clouds 17 1008 37 10000 3.1 310 02:24 03.05.2020
3697 Clouds 18 1008 37 10000 2.1 330 01:45 03.05.2020
3698 Clouds 18 1008 37 10000 2.1 330 01:27 03.05.2020
3699 Clouds 18 1008 37 10000 2.1 330 01:27 03.05.2020
3700 Clouds 19 1008 32 10000 3.1 330 00:55 03.05.2020
3701 Clouds 19 1007 32 10000 3.1 310 00:37 03.05.2020
3702 Clouds 19 1007 32 10000 3.1 310 00:37 03.05.2020
3703 Clouds 19 1007 32 10000 4.1 340 00:18 03.05.2020
3704 Clouds 19 1007 32 10000 3.6 340 23:43 02.05.2020
3705 Clouds 20 1007 32 10000 3.6 340 23:24 02.05.2020
3706 Clouds 20 1007 30 10000 4.6 340 22:43 02.05.2020
3707 Clouds 20 1009 12 0 4.02 351 22:24 02.05.2020
3708 Clouds 21 1007 30 10000 4.6 340 22:24 02.05.2020
3709 Clouds 21 1007 33 10000 2.6 340 21:56 02.05.2020
3710 Clouds 21 1007 33 0 3.58 326 21:38 02.05.2020
3711 Clouds 22 1006 36 10000 2.1 320 21:19 02.05.2020
3712 Clouds 22 1006 36 10000 2.1 320 20:57 02.05.2020
3713 Clouds 23 1006 33 10000 2.6 300 20:37 02.05.2020
3714 Clouds 23 1006 29 10000 3.1 280 20:19 02.05.2020
3715 Clouds 23 1006 30 0 0.45 324 19:56 02.05.2020
3716 Clouds 23 1006 29 0 1.34 306 19:38 02.05.2020
3717 Clouds 24 1006 26 10000 3.1 260 19:18 02.05.2020
3718 Clouds 25 1006 26 10000 3.6 250 18:41 02.05.2020
3719 Clouds 25 1006 26 10000 3.6 250 18:22 02.05.2020
3720 Clouds 25 1006 26 10000 3.6 240 17:58 02.05.2020
3721 Clouds 25 1006 24 10000 3.6 260 17:39 02.05.2020
3722 Clouds 25 1006 25 10000 3.6 230 17:20 02.05.2020
3723 Clouds 25 1006 25 10000 3.6 230 16:58 02.05.2020
3724 Clouds 25 1007 27 10000 3.6 240 16:39 02.05.2020
3725 Clouds 24 1007 27 10000 3.6 240 16:21 02.05.2020
3726 Clouds 24 1007 29 10000 3.6 240 15:42 02.05.2020
3727 Clouds 24 1007 29 10000 4.1 250 15:20 02.05.2020
3728 Clouds 24 1007 29 10000 4.1 250 14:46 02.05.2020
3729 Clouds 24 1008 31 10000 4.1 250 14:28 02.05.2020
3730 Clouds 23 1008 40 10000 3.6 230 13:59 02.05.2020
3731 Clouds 23 1008 46 10000 3.6 250 13:40 02.05.2020
3732 Clouds 22 1008 49 10000 4.6 260 13:21 02.05.2020
3733 Clouds 22 1008 49 10000 3.6 250 12:43 02.05.2020
3734 Clouds 21 1008 49 10000 3.6 250 12:25 02.05.2020
3735 Clouds 20 1008 52 10000 3.6 240 11:59 02.05.2020
3736 Clouds 21 1008 59 10000 3.1 250 11:40 02.05.2020
3737 Clouds 20 1008 59 10000 3.1 250 11:22 02.05.2020
3738 Clouds 19 1008 55 10000 2.6 240 10:57 02.05.2020
3739 Clouds 18 1008 59 10000 2.6 280 10:38 02.05.2020
3740 Clear 18 1008 59 10000 2.6 280 10:20 02.05.2020
3741 Clear 18 1008 67 10000 2.6 260 10:20 02.05.2020
3742 Clear 17 1008 67 10000 2.6 260 09:55 02.05.2020
3743 Clouds 16 1007 67 10000 2.6 270 09:36 02.05.2020
3744 Clear 16 1007 67 10000 2.6 270 09:18 02.05.2020
3745 Clear 14 1007 72 10000 1 0 08:45 02.05.2020
3746 Clouds 14 1007 72 10000 1 0 08:25 02.05.2020
3747 Clouds 12 1006 87 10000 2.1 250 07:47 02.05.2020
3748 Clouds 12 1006 87 10000 2.1 250 07:28 02.05.2020
3749 Clouds 11 1006 93 10000 2.1 260 06:50 02.05.2020
3750 Clouds 12 1006 100 10000 1.5 270 05:29 02.05.2020
3751 Mist 12 1006 93 5000 1 0 04:47 02.05.2020
3752 Mist 12 1006 93 5000 1 0 04:23 02.05.2020
3753 Clouds 13 1006 100 10000 1.5 300 02:44 02.05.2020
3754 Mist 13 1006 100 1200 0.5 0 02:22 02.05.2020
3755 Fog 14 1006 100 1500 0.5 0 01:33 02.05.2020
3756 Mist 14 1006 93 5000 0.5 0 00:46 02.05.2020
3757 Clouds 15 1006 93 7000 2.82 268 00:25 02.05.2020
3758 Clouds 15 1007 93 10000 0.5 0 23:57 01.05.2020
3759 Clouds 15 1007 93 10000 1 270 23:38 01.05.2020
3760 Clouds 15 1007 93 10000 1 250 23:19 01.05.2020
3761 Clouds 16 1007 93 10000 1 250 22:54 01.05.2020
3762 Clouds 16 1006 87 10000 0.5 0 22:36 01.05.2020
3763 Clouds 16 1006 87 10000 1.5 280 22:18 01.05.2020
3764 Rain 16 1006 82 10000 0.5 0 21:41 01.05.2020
3765 Rain 17 1006 82 10000 0.5 0 21:21 01.05.2020
3766 Rain 17 1006 82 10000 1 0 20:58 01.05.2020
3767 Rain 17 1006 77 10000 1 0 20:40 01.05.2020
3768 Rain 17 1006 68 10000 1 90 20:20 01.05.2020
3769 Rain 17 1006 68 10000 1 90 19:59 01.05.2020
3770 Rain 18 1006 59 10000 1.5 70 19:41 01.05.2020
3771 Rain 18 1006 59 10000 1.5 70 19:21 01.05.2020
3772 Rain 18 1006 59 10000 1.5 70 19:21 01.05.2020
3773 Clouds 18 1006 63 10000 1.5 70 18:56 01.05.2020
3774 Clouds 19 1006 59 10000 0.5 0 18:38 01.05.2020
3775 Clouds 19 1006 59 10000 0.5 0 18:19 01.05.2020
3776 Clouds 19 1006 63 10000 2.1 90 17:41 01.05.2020
3777 Clouds 19 1006 63 10000 2.1 90 17:22 01.05.2020
3778 Clouds 19 1006 59 10000 1 0 16:57 01.05.2020
3779 Clouds 19 1006 59 10000 1 0 16:57 01.05.2020
3780 Clouds 19 1006 59 10000 2.1 280 16:39 01.05.2020
3781 Clouds 19 1007 59 10000 1 0 16:20 01.05.2020
3782 Clouds 19 1007 59 10000 1 0 15:57 01.05.2020
3783 Clouds 19 1007 59 10000 1 0 15:57 01.05.2020
3784 Clouds 19 1007 63 10000 1.5 190 15:39 01.05.2020
3785 Clouds 19 1007 63 10000 1.5 190 15:19 01.05.2020
3786 Clouds 19 1007 63 10000 2.1 0 14:44 01.05.2020
3787 Clouds 19 1007 63 10000 2.1 0 14:24 01.05.2020
3788 Clouds 18 1007 68 10000 2.1 270 13:56 01.05.2020
3789 Clouds 18 1007 68 10000 2.6 210 13:38 01.05.2020
3790 Clouds 18 1008 72 10000 1.5 230 13:19 01.05.2020
3791 Clouds 18 1008 72 10000 1.5 230 12:54 01.05.2020
3792 Clouds 18 1008 72 10000 1.5 210 12:36 01.05.2020
3793 Clouds 18 1008 72 10000 1.5 210 12:18 01.05.2020
3794 Clouds 17 1008 77 10000 2.1 160 11:41 01.05.2020
3795 Clouds 17 1008 77 10000 1.5 100 11:21 01.05.2020
3796 Clouds 17 1008 77 10000 1.5 100 11:21 01.05.2020
3797 Clouds 16 1008 77 10000 1.5 100 10:56 01.05.2020
3798 Clouds 16 1008 77 10000 1.5 100 10:37 01.05.2020
3799 Clouds 16 1008 82 10000 1.5 100 10:19 01.05.2020
3800 Clouds 15 1008 87 10000 2.1 90 09:42 01.05.2020
3801 Clouds 14 1007 82 10000 2.6 80 09:19 01.05.2020
3802 Clouds 14 1008 82 10000 2.1 50 08:47 01.05.2020
3803 Clouds 13 1008 82 10000 2.1 50 08:28 01.05.2020
3804 Clouds 13 1007 82 10000 2.6 90 07:59 01.05.2020
3805 Clouds 13 1007 82 10000 2.1 100 07:39 01.05.2020
3806 Clouds 13 1007 82 10000 1.5 60 07:20 01.05.2020
3807 Clouds 13 1007 82 10000 2.1 80 06:27 01.05.2020
3808 Clouds 13 1007 87 10000 1.5 70 05:21 01.05.2020
3809 Clouds 14 1007 87 10000 1.5 150 03:45 01.05.2020
3810 Clouds 14 1007 82 10000 1 100 02:53 01.05.2020
3811 Clouds 14 1007 87 10000 1.5 80 02:35 01.05.2020
3812 Clouds 14 1007 87 10000 1.5 0 01:53 01.05.2020
3813 Rain 14 1007 87 10000 1.5 0 01:27 01.05.2020
3814 Rain 14 1007 87 10000 1.5 40 00:40 01.05.2020
3815 Rain 14 1007 87 10000 1.5 40 00:21 01.05.2020
3816 Clouds 14 1007 87 10000 2.1 50 23:57 30.04.2020
3817 Clouds 14 1007 87 10000 2.1 50 23:39 30.04.2020
3818 Clouds 15 1007 87 10000 2.1 50 23:20 30.04.2020
3819 Clouds 15 1007 87 10000 2.1 50 23:20 30.04.2020
3820 Clouds 15 1007 82 10000 2.1 50 22:56 30.04.2020
3821 Clouds 15 1007 82 10000 2.1 50 22:56 30.04.2020
3822 Rain 15 1007 87 10000 2.6 10 22:37 30.04.2020
3823 Rain 15 1007 87 10000 2.6 10 22:18 30.04.2020
3824 Rain 15 1006 87 10000 3.6 360 21:41 30.04.2020
3825 Clouds 16 1006 87 10000 3.6 360 21:22 30.04.2020
3826 Clouds 16 1006 68 10000 4.6 230 20:58 30.04.2020
3827 Rain 16 1006 68 10000 4.1 210 20:39 30.04.2020
3828 Clouds 17 1006 68 10000 4.1 210 20:18 30.04.2020
3829 Clouds 17 1006 68 10000 4.1 210 20:18 30.04.2020
3830 Clouds 17 1006 88 10000 2.6 40 19:46 30.04.2020
3831 Clouds 17 1006 88 10000 2.6 40 19:26 30.04.2020
3832 Clouds 17 1006 88 10000 2.6 40 19:26 30.04.2020
3833 Clouds 17 1006 88 10000 2.6 10 18:57 30.04.2020
3834 Clouds 17 1007 82 10000 1.5 330 18:39 30.04.2020
3835 Clouds 17 1007 82 10000 1.5 330 18:21 30.04.2020
3836 Clouds 17 1007 82 10000 1.5 300 17:57 30.04.2020
3837 Rain 17 1007 88 9000 1 0 17:39 30.04.2020
3838 Rain 17 1007 88 9000 1 0 17:39 30.04.2020
3839 Rain 16 1007 88 9000 1 0 17:20 30.04.2020
3840 Rain 16 1007 87 9000 2.1 280 16:56 30.04.2020
3841 Rain 17 1007 63 10000 2.1 230 16:38 30.04.2020
3842 Rain 18 1008 56 10000 3.1 150 16:18 30.04.2020
3843 Clouds 18 1008 49 10000 1 0 15:44 30.04.2020
3844 Clouds 20 1008 49 10000 1 0 15:23 30.04.2020
3845 Clouds 20 1009 49 10000 2.1 160 14:43 30.04.2020
3846 Clouds 20 1009 49 10000 2.1 160 14:22 30.04.2020
3847 Clouds 20 1009 52 10000 2.1 50 14:00 30.04.2020
3848 Clouds 20 1010 52 10000 3.1 70 13:41 30.04.2020
3849 Clouds 20 1010 52 10000 3.1 70 13:23 30.04.2020
3850 Clouds 20 1010 59 10000 1.5 0 12:59 30.04.2020
3851 Clouds 19 1010 63 10000 2.1 100 12:41 30.04.2020
3852 Clouds 19 1011 59 10000 1.5 0 12:19 30.04.2020
3853 Clouds 18 1011 63 10000 3.1 160 11:39 30.04.2020
3854 Clouds 18 1011 63 10000 3.1 120 11:19 30.04.2020
3855 Clouds 18 1011 63 10000 3.1 120 10:59 30.04.2020
3856 Clouds 17 1010 67 10000 4.1 110 10:39 30.04.2020
3857 Clouds 17 1010 67 10000 4.1 110 10:21 30.04.2020
3858 Clouds 17 1010 72 10000 4.1 100 09:56 30.04.2020
3859 Clouds 16 1010 67 10000 3.6 70 09:37 30.04.2020
3860 Clouds 16 1010 67 10000 3.6 70 09:18 30.04.2020
3861 Clouds 15 1010 76 10000 2.6 80 08:44 30.04.2020
3862 Clouds 15 1010 76 10000 2.6 80 08:24 30.04.2020
3863 Clouds 14 1010 82 10000 2.1 90 07:44 30.04.2020
3864 Clouds 14 1010 82 10000 2.1 90 07:44 30.04.2020
3865 Clouds 14 1010 82 10000 2.1 90 07:25 30.04.2020
3866 Clouds 14 1010 82 10000 1.5 70 06:52 30.04.2020
3867 Clouds 13 1010 87 10000 2.6 50 06:18 30.04.2020
3868 Clouds 13 1010 82 10000 2.1 70 05:44 30.04.2020
3869 Clouds 14 1010 87 10000 0.5 0 04:36 30.04.2020
3870 Clouds 14 1010 87 10000 1 180 03:57 30.04.2020
3871 Clouds 15 1009 76 10000 0.5 0 02:46 30.04.2020
3872 Clouds 15 1009 76 10000 0.5 0 02:24 30.04.2020
3873 Clouds 15 1009 72 10000 1 0 01:36 30.04.2020
3874 Clouds 16 1009 67 10000 1 0 00:42 30.04.2020
3875 Clouds 16 1009 67 10000 1 0 00:19 30.04.2020
3876 Clouds 16 1009 67 10000 1 0 23:57 29.04.2020
3877 Clear 16 1009 59 10000 2.6 260 23:37 29.04.2020
3878 Clouds 17 1009 59 10000 2.6 260 23:37 29.04.2020
3879 Clear 17 1009 59 10000 2.6 260 23:18 29.04.2020
3880 Clear 16 1008 72 10000 1 0 22:40 29.04.2020
3881 Clear 17 1008 72 10000 1 0 22:21 29.04.2020
3882 Clear 17 1008 72 10000 1 0 22:21 29.04.2020
3883 Clear 17 1007 77 10000 2.1 50 21:57 29.04.2020
3884 Clear 17 1007 68 10000 2.6 60 21:37 29.04.2020
3885 Clouds 20 1006 52 10000 1 0 21:18 29.04.2020
3886 Clouds 20 1006 52 10000 1 0 20:55 29.04.2020
3887 Clouds 21 1006 35 10000 1.5 250 20:36 29.04.2020
3888 Clouds 22 1006 35 10000 2.1 250 20:18 29.04.2020
3889 Clouds 22 1006 35 10000 3.1 260 19:42 29.04.2020
3890 Clear 23 1006 38 10000 3.1 220 19:20 29.04.2020
3891 Clear 23 1006 38 10000 3.6 250 18:43 29.04.2020
3892 Clear 23 1006 38 10000 3.6 250 18:25 29.04.2020
3893 Clear 23 1005 40 10000 2.1 240 17:58 29.04.2020
3894 Clear 23 1005 40 10000 3.1 220 17:40 29.04.2020
3895 Clear 23 1005 40 10000 3.1 220 17:21 29.04.2020
3896 Clear 22 1006 46 10000 3.6 250 16:39 29.04.2020
3897 Clear 22 1006 46 10000 4.1 0 16:19 29.04.2020
3898 Clear 22 1006 46 10000 4.1 0 15:57 29.04.2020
3899 Clear 22 1006 52 10000 4.6 270 15:39 29.04.2020
3900 Clear 22 1006 52 10000 4.6 270 15:21 29.04.2020
3901 Clouds 21 1007 56 10000 3.6 250 14:57 29.04.2020
3902 Clouds 21 1007 56 10000 3.6 250 14:38 29.04.2020
3903 Clouds 21 1007 56 10000 3.6 250 14:20 29.04.2020
3904 Clouds 20 1007 59 10000 4.6 270 13:42 29.04.2020
3905 Clouds 20 1007 68 10000 3.6 250 13:20 29.04.2020
3906 Clouds 20 1007 68 10000 3.6 250 13:20 29.04.2020
3907 Clouds 20 1007 68 10000 3.6 250 12:59 29.04.2020
3908 Clouds 19 1007 68 10000 3.6 0 12:40 29.04.2020
3909 Clouds 19 1007 68 10000 3.6 0 12:19 29.04.2020
3910 Clouds 18 1007 72 10000 2.1 240 11:40 29.04.2020
3911 Clouds 18 1007 72 10000 2.1 240 11:22 29.04.2020
3912 Clouds 17 1007 67 10000 2.1 250 10:59 29.04.2020
3913 Clouds 16 1007 77 10000 2.6 260 10:37 29.04.2020
3914 Clouds 16 1007 77 10000 2.6 260 10:37 29.04.2020
3915 Rain 16 1007 87 10000 2.1 300 10:19 29.04.2020
3916 Rain 15 1008 82 10000 3.1 300 09:42 29.04.2020
3917 Rain 14 1008 82 10000 3.1 300 09:24 29.04.2020
3918 Rain 14 1007 82 10000 3.1 310 08:57 29.04.2020
3919 Clouds 14 1007 87 8000 2.6 260 08:39 29.04.2020
3920 Clouds 13 1007 100 8000 1 0 08:20 29.04.2020
3921 Rain 14 1007 93 10000 1 0 07:42 29.04.2020
3922 Rain 13 1007 93 10000 1 0 07:23 29.04.2020
3923 Rain 14 1006 93 10000 1 0 06:50 29.04.2020
3924 Rain 14 1006 93 10000 0.5 200 06:30 29.04.2020
3925 Rain 13 1007 93 10000 0.5 0 05:21 29.04.2020
3926 Drizzle 13 1007 100 5000 1 0 04:39 29.04.2020
3927 Drizzle 13 1007 100 5000 1 0 04:18 29.04.2020
3928 Rain 13 1008 93 6000 2.1 30 02:40 29.04.2020
3929 Rain 14 1008 93 2900 3.1 40 01:44 29.04.2020
3930 Rain 14 1008 87 10000 1.5 70 01:22 29.04.2020
3931 Rain 14 1008 93 6000 1.5 10 00:41 29.04.2020
3932 Rain 14 1008 87 10000 1 0 00:19 29.04.2020
3933 Rain 15 1008 87 10000 0.5 0 23:49 28.04.2020
3934 Rain 14 1008 87 10000 0.5 0 23:24 28.04.2020
3935 Rain 15 1008 87 10000 1 0 22:55 28.04.2020
3936 Rain 15 1008 87 10000 1 50 22:37 28.04.2020
3937 Rain 15 1008 87 10000 1.5 70 22:18 28.04.2020
3938 Rain 15 1008 87 10000 1.5 70 21:54 28.04.2020
3939 Rain 15 1008 87 10000 1.5 70 21:54 28.04.2020
3940 Rain 15 1008 82 10000 3.6 90 21:36 28.04.2020
3941 Clouds 15 1008 82 10000 3.6 90 21:18 28.04.2020
3942 Clouds 16 1008 77 10000 2.1 10 20:40 28.04.2020
3943 Clouds 16 1008 77 10000 2.1 10 20:21 28.04.2020
3944 Rain 16 1008 77 10000 2.1 360 19:59 28.04.2020
3945 Clouds 16 1008 72 10000 2.1 350 19:41 28.04.2020
3946 Clouds 16 1010 54 0 2.68 300 19:22 28.04.2020
3947 Clouds 17 1008 72 10000 1 0 18:58 28.04.2020
3948 Clouds 17 1008 72 10000 2.6 350 18:38 28.04.2020
3949 Clouds 17 1008 72 10000 2.6 350 18:38 28.04.2020
3950 Clouds 17 1008 68 10000 1 0 18:19 28.04.2020
3951 Clouds 17 1008 68 10000 1 0 18:19 28.04.2020
3952 Clouds 17 1010 49 0 2.24 7 17:38 28.04.2020
3953 Rain 17 1008 72 10000 2.1 260 17:20 28.04.2020
3954 Rain 17 1008 72 10000 2.1 260 16:59 28.04.2020
3955 Rain 17 1008 67 10000 2.1 290 16:40 28.04.2020
3956 Rain 17 1008 67 10000 2.1 290 16:22 28.04.2020
3957 Clouds 16 1009 63 10000 3.6 200 15:56 28.04.2020
3958 Clouds 17 1009 63 10000 7.2 200 15:38 28.04.2020
3959 Clouds 16 1009 63 10000 7.2 200 15:20 28.04.2020
3960 Clouds 17 1009 52 10000 6.2 140 14:56 28.04.2020
3961 Clouds 17 1009 56 10000 6.7 130 14:38 28.04.2020
3962 Clouds 17 1009 56 10000 6.7 130 14:19 28.04.2020
3963 Clouds 18 1009 56 10000 4.6 120 13:56 28.04.2020
3964 Clouds 18 1010 55 10000 4.1 110 13:37 28.04.2020
3965 Clouds 19 1010 52 10000 4.1 130 13:19 28.04.2020
3966 Clouds 19 1010 55 10000 3.6 130 12:43 28.04.2020
3967 Clouds 19 1010 55 10000 3.6 130 12:43 28.04.2020
3968 Clouds 19 1010 55 10000 3.6 130 12:23 28.04.2020
3969 Clouds 19 1010 52 10000 3.1 110 11:43 28.04.2020
3970 Clouds 19 1010 52 10000 3.1 110 11:23 28.04.2020
3971 Clouds 18 1010 59 10000 2.6 90 10:58 28.04.2020
3972 Clouds 18 1010 63 10000 2.6 80 10:38 28.04.2020
3973 Clouds 18 1010 63 10000 2.6 80 10:38 28.04.2020
3974 Clouds 18 1010 63 10000 2.6 80 10:18 28.04.2020
3975 Clouds 17 1010 67 10000 1.5 70 09:44 28.04.2020
3976 Clouds 17 1010 67 10000 1.5 70 09:25 28.04.2020
3977 Clouds 17 1010 67 10000 2.1 90 08:57 28.04.2020
3978 Clouds 17 1010 72 10000 2.1 100 08:38 28.04.2020
3979 Clouds 16 1010 72 10000 2.1 100 08:20 28.04.2020
3980 Clouds 16 1010 67 10000 1.5 90 07:42 28.04.2020
3981 Clouds 15 1010 72 10000 1.5 80 07:18 28.04.2020
3982 Clouds 15 1010 77 10000 1 80 06:41 28.04.2020
3983 Clouds 16 1010 67 10000 0.5 0 05:52 28.04.2020
3984 Clouds 15 1010 67 10000 0.5 0 05:34 28.04.2020
3985 Clouds 16 1011 63 10000 1 0 04:33 28.04.2020
3986 Clouds 16 1011 59 10000 1.5 290 02:39 28.04.2020
3987 Clouds 16 1011 63 10000 2.6 290 01:51 28.04.2020
3988 Clouds 16 1011 63 10000 2.6 290 01:22 28.04.2020
3989 Clouds 16 1011 63 10000 2.1 300 00:32 28.04.2020
3990 Clouds 16 1012 63 10000 2.6 280 23:56 27.04.2020
3991 Clouds 16 1012 63 10000 3.6 270 23:38 27.04.2020
3992 Clouds 16 1012 63 10000 3.6 270 23:20 27.04.2020
3993 Clouds 17 1011 63 10000 2.6 260 22:43 27.04.2020
3994 Clouds 17 1014 38 0 2.68 246 22:23 27.04.2020
3995 Clouds 17 1014 37 0 4.02 242 21:57 27.04.2020
3996 Clouds 17 1011 59 10000 2.6 260 21:39 27.04.2020
3997 Clear 17 1014 37 0 3.13 233 21:19 27.04.2020
3998 Clouds 18 1011 59 10000 2.1 240 20:56 27.04.2020
3999 Clear 18 1013 36 0 2.24 208 20:38 27.04.2020
4000 Clouds 19 1013 34 0 3.58 221 20:19 27.04.2020
4001 Clouds 20 1010 52 10000 1.5 250 19:40 27.04.2020
4002 Clouds 20 1010 52 10000 1.5 250 19:22 27.04.2020
4003 Clouds 21 1010 52 10000 2.1 240 18:59 27.04.2020
4004 Clouds 21 1010 56 10000 2.1 210 18:40 27.04.2020
4005 Clouds 21 1011 52 10000 3.1 270 18:19 27.04.2020
4006 Clouds 21 1011 52 10000 3.1 270 17:58 27.04.2020
4007 Clouds 21 1011 52 10000 2.1 280 17:39 27.04.2020
4008 Clouds 21 1011 56 10000 1.5 190 17:19 27.04.2020
4009 Clouds 21 1011 52 10000 1 0 16:40 27.04.2020
4010 Clouds 20 1012 52 10000 1.5 250 16:22 27.04.2020
4011 Clouds 20 1012 52 10000 1.5 250 15:57 27.04.2020
4012 Clouds 20 1012 52 10000 1 0 15:38 27.04.2020
4013 Clouds 20 1012 52 10000 2.6 290 15:19 27.04.2020
4014 Clouds 20 1012 52 10000 2.6 290 14:56 27.04.2020
4015 Clouds 19 1012 52 10000 2.1 0 14:38 27.04.2020
4016 Clouds 19 1012 55 10000 2.1 0 14:18 27.04.2020
4017 Clouds 19 1013 52 10000 1.5 0 13:42 27.04.2020
4018 Clouds 18 1013 52 10000 1.5 0 13:21 27.04.2020
4019 Clouds 18 1013 55 10000 1 0 12:57 27.04.2020
4020 Clouds 17 1013 55 10000 0.5 0 12:39 27.04.2020
4021 Clouds 17 1013 59 10000 0.5 0 12:20 27.04.2020
4022 Clouds 17 1013 59 10000 0.5 0 11:41 27.04.2020
4023 Clouds 17 1012 59 10000 1 0 11:21 27.04.2020
4024 Clouds 17 1012 59 10000 1 0 10:57 27.04.2020
4025 Clouds 16 1012 59 10000 1 0 10:39 27.04.2020
4026 Clouds 16 1012 59 10000 1 0 10:20 27.04.2020
4027 Clouds 16 1012 59 10000 1.5 210 09:44 27.04.2020
4028 Clouds 16 1012 59 10000 1.5 210 09:19 27.04.2020
4029 Clouds 16 1012 59 10000 1.5 260 08:59 27.04.2020
4030 Clouds 15 1012 59 10000 2.1 260 08:40 27.04.2020
4031 Clouds 14 1014 39 0 2.24 224 08:22 27.04.2020
4032 Clouds 14 1014 39 0 2.24 224 07:44 27.04.2020
4033 Clouds 14 1011 67 10000 0.5 0 07:20 27.04.2020
4034 Clouds 15 1011 67 10000 0.5 0 06:56 27.04.2020
4035 Clouds 14 1014 40 0 2.24 271 06:27 27.04.2020
4036 Clouds 14 1014 40 0 2.24 271 06:27 27.04.2020
4037 Clouds 15 1011 67 10000 1 0 05:50 27.04.2020
4038 Clouds 15 1011 63 10000 0.5 0 04:49 27.04.2020
4039 Clouds 15 1011 63 10000 2.1 270 03:49 27.04.2020
4040 Clouds 15 1011 63 10000 2.6 270 02:58 27.04.2020
4041 Rain 16 1011 59 10000 2.6 270 01:35 27.04.2020
4042 Rain 16 1014 39 0 3.13 237 00:57 27.04.2020
4043 Clouds 16 1011 63 10000 2.1 260 00:20 27.04.2020
4044 Clouds 17 1011 67 10000 2.6 260 23:56 26.04.2020
4045 Clouds 17 1013 39 0 3.13 230 23:37 26.04.2020
4046 Clouds 17 1013 40 0 3.13 232 23:19 26.04.2020
4047 Clouds 17 1010 63 10000 2.1 250 22:58 26.04.2020
4048 Clouds 17 1010 59 10000 2.6 260 22:39 26.04.2020
4049 Clouds 17 1010 59 10000 2.6 260 22:39 26.04.2020
4050 Clouds 18 1009 52 10000 2.6 230 22:19 26.04.2020
4051 Clouds 18 1009 52 10000 2.6 230 21:57 26.04.2020
4052 Clouds 18 1009 49 10000 2.1 270 21:37 26.04.2020
4053 Clouds 19 1009 49 10000 2.1 270 21:18 26.04.2020
4054 Clouds 19 1009 44 0 1.34 257 20:40 26.04.2020
4055 Clouds 20 1009 43 0 1.79 245 20:21 26.04.2020
4056 Clouds 20 1008 43 10000 2.1 250 19:59 26.04.2020
4057 Clouds 21 1008 43 10000 3.1 250 19:38 26.04.2020
4058 Clouds 21 1008 33 10000 1.5 230 19:20 26.04.2020
4059 Clouds 22 1008 33 10000 1.5 230 18:54 26.04.2020
4060 Clouds 22 1008 31 10000 1.5 0 18:36 26.04.2020
4061 Clouds 22 1008 31 10000 1.5 0 18:36 26.04.2020
4062 Clouds 22 1008 35 10000 1.5 0 18:18 26.04.2020
4063 Clouds 22 1008 35 10000 2.6 180 17:40 26.04.2020
4064 Clouds 22 1008 33 10000 2.6 130 17:22 26.04.2020
4065 Clouds 23 1009 33 10000 3.1 150 16:43 26.04.2020
4066 Clouds 23 1009 33 10000 3.1 150 16:24 26.04.2020
4067 Clouds 22 1009 33 10000 3.6 130 15:59 26.04.2020
4068 Clouds 22 1009 33 10000 3.6 130 15:59 26.04.2020
4069 Clouds 22 1009 37 10000 2.6 0 15:41 26.04.2020
4070 Clouds 22 1009 37 10000 2.6 0 15:41 26.04.2020
4071 Clouds 22 1009 37 10000 2.6 0 15:22 26.04.2020
4072 Clouds 22 1009 40 10000 1.5 0 14:58 26.04.2020
4073 Clouds 21 1009 40 10000 2.1 230 14:39 26.04.2020
4074 Clouds 21 1009 40 10000 2.1 230 14:18 26.04.2020
4075 Clouds 20 1009 40 10000 2.1 140 13:56 26.04.2020
4076 Clouds 20 1010 43 10000 1.5 0 13:38 26.04.2020
4077 Clouds 20 1010 42 10000 2.1 0 13:19 26.04.2020
4078 Clouds 19 1010 42 10000 2.1 190 12:41 26.04.2020
4079 Clouds 19 1010 42 10000 2.1 190 12:41 26.04.2020
4080 Clouds 19 1010 42 10000 2.1 190 12:41 26.04.2020
4081 Clouds 19 1010 42 10000 2.1 190 12:22 26.04.2020
4082 Clouds 19 1010 45 10000 1.5 230 11:59 26.04.2020
4083 Clear 18 1010 45 10000 2.6 220 11:40 26.04.2020
4084 Clear 18 1009 52 10000 2.6 250 11:22 26.04.2020
4085 Clear 17 1009 52 10000 2.6 250 10:57 26.04.2020
4086 Clear 17 1009 51 10000 2.1 250 10:39 26.04.2020
4087 Clear 16 1009 55 10000 2.6 280 10:21 26.04.2020
4088 Clear 16 1009 51 10000 2.1 250 09:41 26.04.2020
4089 Clouds 15 1009 51 10000 2.1 250 09:22 26.04.2020
4090 Clouds 15 1009 55 10000 1.5 260 08:58 26.04.2020
4091 Clouds 15 1009 58 10000 2.1 270 08:40 26.04.2020
4092 Clouds 14 1008 62 10000 2.6 270 08:20 26.04.2020
4093 Clouds 14 1008 62 10000 2.1 290 07:46 26.04.2020
4094 Clouds 13 1008 62 10000 2.6 290 07:21 26.04.2020
4095 Clouds 13 1008 62 10000 3.6 280 06:44 26.04.2020
4096 Clouds 14 1008 62 10000 3.6 290 05:58 26.04.2020
4097 Clouds 14 1008 62 10000 3.1 300 05:39 26.04.2020
4098 Clouds 14 1008 67 10000 3.1 290 04:58 26.04.2020
4099 Clouds 14 1008 62 10000 3.1 290 04:22 26.04.2020
4100 Clouds 14 1011 41 0 3.13 262 02:51 26.04.2020
4101 Clouds 15 1008 59 10000 4.1 270 02:31 26.04.2020
4102 Clouds 15 1008 55 10000 5.1 270 01:46 26.04.2020
4103 Clouds 15 1008 55 10000 5.1 270 01:26 26.04.2020
4104 Clouds 15 1010 34 0 4.02 244 00:39 26.04.2020
4105 Clouds 16 1007 48 10000 5.1 280 00:19 26.04.2020
4106 Clouds 16 1010 28 0 4.92 223 23:39 25.04.2020
4107 Clouds 16 1010 26 0 3.13 244 23:20 25.04.2020
4108 Clouds 17 1007 42 10000 4.1 270 22:58 25.04.2020
4109 Clouds 17 1010 24 0 4.02 237 22:39 25.04.2020
4110 Clouds 17 1009 21 0 6.26 231 22:19 25.04.2020
4111 Clouds 17 1010 21 0 5.36 232 21:40 25.04.2020
4112 Clear 18 1007 42 10000 4.1 260 21:21 25.04.2020
4113 Clear 19 1006 45 10000 2.6 230 20:58 25.04.2020
4114 Clear 18 1009 23 0 4.92 221 20:40 25.04.2020
4115 Clear 19 1006 43 10000 3.1 240 20:22 25.04.2020
4116 Clear 20 1006 43 0 5.81 245 19:55 25.04.2020
4117 Clear 20 1006 43 0 5.81 245 19:55 25.04.2020
4118 Clear 21 1006 43 0 5.81 245 19:37 25.04.2020
4119 Clear 21 1006 43 0 5.36 247 19:18 25.04.2020
4120 Clear 22 1006 46 10000 4.6 230 18:39 25.04.2020
4121 Clear 22 1006 46 10000 4.6 230 18:21 25.04.2020
4122 Clear 23 1006 44 10000 4.1 240 17:58 25.04.2020
4123 Clear 23 1007 42 0 3.58 253 17:38 25.04.2020
4124 Clear 23 1006 41 10000 4.6 260 17:19 25.04.2020
4125 Clear 23 1007 41 10000 5.1 270 16:56 25.04.2020
4126 Clear 23 1007 41 10000 4.6 270 16:38 25.04.2020
4127 Clear 23 1007 41 10000 4.6 240 16:19 25.04.2020
4128 Clear 23 1007 44 10000 4.6 250 15:41 25.04.2020
4129 Clouds 23 1007 44 10000 4.6 250 15:21 25.04.2020
4130 Clouds 23 1008 47 10000 4.1 230 14:58 25.04.2020
4131 Clouds 23 1008 49 10000 4.1 250 14:39 25.04.2020
4132 Clouds 22 1008 49 10000 3.6 240 14:20 25.04.2020
4133 Clouds 22 1009 49 10000 4.6 250 13:44 25.04.2020
4134 Clouds 21 1009 52 10000 4.6 250 13:22 25.04.2020
4135 -273 0 0 0 0 0 12:59 25.04.2020
4136 Clouds 21 1009 52 10000 4.1 260 12:41 25.04.2020
4137 Clouds 20 1009 56 10000 5.1 270 12:21 25.04.2020
4138 Clouds 20 1009 56 10000 5.1 270 11:59 25.04.2020
4139 Clouds 20 1010 56 10000 5.1 270 11:40 25.04.2020
4140 Clouds 19 1010 59 10000 4.6 250 11:22 25.04.2020
4141 Clouds 19 1010 59 10000 4.6 250 11:22 25.04.2020
4142 Clouds 19 1010 59 10000 5.1 270 10:45 25.04.2020
4143 Clouds 18 1010 59 10000 5.1 270 10:25 25.04.2020
4144 Clouds 17 1009 59 10000 4.6 260 09:55 25.04.2020
4145 Clouds 17 1009 63 10000 3.6 280 09:36 25.04.2020
4146 Clouds 16 1009 63 10000 3.6 280 09:18 25.04.2020
4147 Clouds 15 1009 67 10000 3.1 290 08:40 25.04.2020
4148 Clouds 15 1009 67 10000 3.1 290 08:21 25.04.2020
4149 Clouds 14 1009 67 10000 2.1 290 07:58 25.04.2020
4150 Clouds 13 1009 67 10000 2.1 290 07:40 25.04.2020
4151 Clouds 14 1009 72 10000 2.1 290 06:55 25.04.2020
4152 Clouds 13 1009 67 10000 2.6 300 06:36 25.04.2020
4153 Clouds 13 1010 63 10000 2.6 300 05:40 25.04.2020
4154 Clouds 14 1010 63 10000 2.6 300 05:20 25.04.2020
4155 Clouds 14 1010 51 10000 2.6 300 02:59 25.04.2020
4156 Clouds 14 1010 51 10000 2.1 310 02:25 25.04.2020
4157 Clouds 15 1010 48 10000 2.6 300 01:54 25.04.2020
4158 Clouds 15 1010 48 10000 2.1 310 01:34 25.04.2020
4159 Clouds 15 1010 48 10000 2.1 280 00:58 25.04.2020
4160 Clouds 16 1010 48 10000 2.6 270 00:34 25.04.2020
4161 Clouds 16 1010 45 10000 2.6 250 23:45 24.04.2020
4162 Clouds 16 1010 45 10000 2.6 250 23:27 24.04.2020
4163 Clouds 17 1010 42 10000 2.6 260 23:00 24.04.2020
4164 Clouds 17 1009 45 0 2.73 251 22:39 24.04.2020
4165 Clouds 17 1009 45 0 2.73 251 22:19 24.04.2020
4166 Clouds 17 1009 44 0 2.73 251 21:56 24.04.2020
4167 Clouds 19 1010 37 10000 2.6 240 21:37 24.04.2020
4168 Clouds 18 1010 37 10000 2.6 240 21:37 24.04.2020
4169 Clouds 18 1010 37 10000 2.6 240 21:37 24.04.2020
4170 Clouds 18 1008 41 0 3.02 216 21:19 24.04.2020
4171 Clouds 19 1008 40 0 3.02 216 20:56 24.04.2020
4172 Clouds 19 1008 40 0 3.02 216 20:56 24.04.2020
4173 Clouds 20 1008 42 0 3.02 216 20:37 24.04.2020
4174 Clouds 21 1008 44 0 3.02 216 20:18 24.04.2020
4175 Clouds 22 1008 43 0 3.02 216 19:40 24.04.2020
4176 Clouds 23 1010 31 10000 2.6 260 19:21 24.04.2020
4177 Clouds 23 1010 31 10000 3.6 270 18:45 24.04.2020
4178 Clear 23 1010 31 10000 3.6 270 18:27 24.04.2020
4179 Clear 23 1010 31 10000 3.1 260 17:58 24.04.2020
4180 Clear 23 1010 31 10000 3.1 260 17:58 24.04.2020
4181 Clear 24 1011 31 10000 3.1 290 17:38 24.04.2020
4182 Clear 23 1011 31 10000 3.1 290 17:19 24.04.2020
4183 Clear 24 1011 31 10000 2.6 240 16:58 24.04.2020
4184 Clear 23 1011 35 10000 3.6 240 16:40 24.04.2020
4185 Clear 23 1012 31 10000 3.1 250 16:21 24.04.2020
4186 Clear 23 1013 28 10000 3.1 240 15:42 24.04.2020
4187 Clear 23 1013 38 10000 2.6 230 15:21 24.04.2020
4188 Clear 22 1013 38 10000 2.6 230 14:56 24.04.2020
4189 Clear 22 1013 37 10000 3.1 230 14:37 24.04.2020
4190 Clear 22 1014 40 10000 3.1 240 14:18 24.04.2020
4191 Clear 22 1014 43 10000 3.1 250 13:41 24.04.2020
4192 Clear 21 1015 45 10000 3.1 240 13:21 24.04.2020
4193 Clear 21 1015 45 10000 3.1 240 12:58 24.04.2020
4194 Clear 20 1015 42 10000 2.6 240 12:40 24.04.2020
4195 Clear 20 1015 42 10000 2.6 240 12:19 24.04.2020
4196 Clear 19 1016 52 10000 2.1 250 11:43 24.04.2020
4197 Clear 19 1016 52 10000 2.1 250 11:23 24.04.2020
4198 Clear 18 1016 55 10000 2.1 220 10:59 24.04.2020
4199 Clear 18 1016 63 10000 1 0 10:38 24.04.2020
4200 Clear 17 1016 67 10000 2.1 250 10:20 24.04.2020
4201 Clear 16 1016 67 10000 2.1 250 09:55 24.04.2020
4202 Clear 16 1016 67 10000 2.1 250 09:36 24.04.2020
4203 Clear 15 1016 71 10000 1.5 250 09:18 24.04.2020
4204 Clear 13 1016 76 10000 0.5 0 08:42 24.04.2020
4205 Clear 12 1016 87 10000 1 0 08:20 24.04.2020
4206 Clear 11 1016 87 10000 1 0 07:56 24.04.2020
4207 Clear 11 1016 87 10000 1 0 07:56 24.04.2020
4208 Clear 11 1016 87 10000 1 190 07:38 24.04.2020
4209 Clear 11 1016 87 10000 1.54 230 07:19 24.04.2020
4210 Clear 11 1016 93 10000 0.5 0 06:42 24.04.2020
4211 Clear 11 1017 87 10000 1 360 05:51 24.04.2020
4212 Clear 11 1017 81 10000 0.5 40 05:18 24.04.2020
4213 Clear 13 1018 81 10000 0.5 0 03:28 24.04.2020
4214 Clear 13 1018 76 10000 1 340 02:49 24.04.2020
4215 Clear 14 1018 76 10000 0.5 0 02:24 24.04.2020
4216 Clear 14 1018 66 10000 1 10 01:37 24.04.2020
4217 Clear 14 1018 66 10000 1 20 00:46 24.04.2020
4218 Clear 15 1018 66 10000 1 20 00:18 24.04.2020
4219 Clear 15 1018 67 10000 0.5 0 23:45 23.04.2020
4220 Clear 15 1018 67 10000 0.5 0 23:27 23.04.2020
4221 Clear 15 1018 58 10000 0.31 142 22:57 23.04.2020
4222 Clear 16 1018 45 10000 1.5 130 22:38 23.04.2020
4223 Clear 16 1017 48 10000 1 170 22:19 23.04.2020
4224 Clear 17 1017 48 10000 1 170 21:57 23.04.2020
4225 Clear 17 1017 45 10000 2.1 150 21:38 23.04.2020
4226 Clear 18 1017 42 10000 2.6 140 21:20 23.04.2020
4227 Clear 18 1017 42 10000 2.6 140 20:54 23.04.2020
4228 Clear 18 1016 40 10000 2.6 150 20:36 23.04.2020
4229 Clear 19 1016 40 10000 2.6 150 20:18 23.04.2020
4230 Clear 20 1016 35 10000 2.6 150 19:42 23.04.2020
4231 Clear 20 1016 35 10000 2.6 150 19:42 23.04.2020
4232 Clear 21 1016 35 10000 2.6 150 19:22 23.04.2020
4233 Clear 21 1017 37 10000 3.1 140 18:58 23.04.2020
4234 Clear 21 1017 37 10000 2.6 140 18:39 23.04.2020
4235 Clear 21 1017 37 10000 2.6 140 18:39 23.04.2020
4236 Clear 21 1017 37 10000 2.6 140 18:21 23.04.2020
4237 Clear 21 1017 35 10000 2.6 90 17:56 23.04.2020
4238 Clear 21 1017 37 10000 2.1 110 17:38 23.04.2020
4239 Clear 22 1017 37 10000 2.1 110 17:20 23.04.2020
4240 Clear 21 1017 37 10000 2.6 90 16:44 23.04.2020
4241 Clear 21 1017 37 10000 2.6 90 16:44 23.04.2020
4242 Clear 21 1017 37 10000 2.6 90 16:21 23.04.2020
4243 Clear 21 1018 37 10000 2.1 0 15:43 23.04.2020
4244 Clear 21 1018 37 10000 2.1 0 15:25 23.04.2020
4245 Clear 21 1018 37 10000 2.1 190 14:59 23.04.2020
4246 Clear 21 1018 37 10000 2.1 190 14:59 23.04.2020
4247 Clear 21 1019 40 10000 2.6 110 14:41 23.04.2020
4248 Clear 20 1019 37 10000 2.6 200 14:22 23.04.2020
4249 Clear 20 1019 37 10000 2.6 200 13:58 23.04.2020
4250 Clear 20 1019 39 10000 2.6 130 13:39 23.04.2020
4251 Clear 19 1019 39 10000 2.1 0 13:20 23.04.2020
4252 Clear 19 1019 39 10000 2.1 0 12:56 23.04.2020
4253 Clear 19 1019 42 10000 3.1 160 12:38 23.04.2020
4254 Clear 18 1020 42 10000 3.1 130 12:19 23.04.2020
4255 Clear 18 1020 45 10000 3.6 130 11:46 23.04.2020
4256 Clear 18 1020 45 10000 3.6 130 11:27 23.04.2020
4257 Clear 17 1020 45 10000 2.6 130 10:56 23.04.2020
4258 Clear 17 1020 51 10000 1.5 0 10:38 23.04.2020
4259 Clear 16 1020 51 10000 1.5 0 10:19 23.04.2020
4260 Clear 15 1019 62 10000 1.5 50 09:38 23.04.2020
4261 Clear 15 1019 62 10000 1.5 50 09:18 23.04.2020
4262 Clear 13 1018 66 0 1.14 96 08:47 23.04.2020
4263 Clear 12 1018 67 0 1.14 96 08:29 23.04.2020
4264 Clear 10 1019 87 10000 1 0 07:45 23.04.2020
4265 Clear 10 1019 87 10000 1 0 07:24 23.04.2020
4266 Clear 10 1019 87 10000 0.5 0 06:57 23.04.2020
4267 Clear 9 1019 81 10000 1 0 06:39 23.04.2020
4268 Clear 10 1018 93 10000 0.5 0 05:32 23.04.2020
4269 Clear 11 1018 81 10000 0.5 0 04:54 23.04.2020
4270 Clear 13 1019 66 10000 1.5 360 02:25 23.04.2020
4271 Clear 13 1019 66 10000 1.5 350 01:55 23.04.2020
4272 Clear 13 1019 66 10000 1.5 350 01:33 23.04.2020
4273 Clear 13 1018 62 10000 1 10 00:47 23.04.2020
4274 Clear 14 1018 62 10000 1 10 00:24 23.04.2020
4275 Clear 14 1018 66 10000 1 350 23:50 22.04.2020
4276 Clear 15 1018 62 10000 0.5 350 23:25 22.04.2020
4277 Clear 15 1018 54 10000 0.5 330 22:58 22.04.2020
4278 Clear 15 1017 51 10000 1.5 180 22:38 22.04.2020
4279 Clear 16 1017 51 10000 1.5 190 22:19 22.04.2020
4280 Clear 15 1017 51 10000 1.5 190 21:56 22.04.2020
4281 Clear 16 1017 48 10000 2.6 190 21:38 22.04.2020
4282 Clear 17 1016 45 10000 2.6 190 21:19 22.04.2020
4283 Clear 17 1016 42 10000 2.1 180 20:43 22.04.2020
4284 Clear 18 1016 42 10000 2.1 180 20:20 22.04.2020
4285 Clear 19 1016 30 10000 3.1 140 19:58 22.04.2020
4286 Clear 20 1016 30 10000 2.1 60 19:39 22.04.2020
4287 Clear 21 1016 30 10000 1 0 19:19 22.04.2020
4288 Clear 20 1016 30 10000 1 0 18:59 22.04.2020
4289 Clear 20 1016 28 10000 2.6 80 18:41 22.04.2020
4290 Clear 21 1016 28 10000 2.6 80 18:22 22.04.2020
4291 Clear 21 1016 30 10000 3.1 50 17:57 22.04.2020
4292 Clear 21 1016 30 10000 3.1 50 17:39 22.04.2020
4293 Clear 21 1016 30 10000 3.1 50 17:20 22.04.2020
4294 Clear 21 1016 28 10000 2.6 0 16:43 22.04.2020
4295 Clear 21 1016 28 10000 2.6 0 16:25 22.04.2020
4296 Clear 20 1017 34 10000 1.5 0 15:43 22.04.2020
4297 Clear 20 1017 34 10000 1.5 0 15:25 22.04.2020
4298 Clear 20 1017 30 10000 1.5 0 14:59 22.04.2020
4299 Clear 20 1017 30 10000 4.1 120 14:41 22.04.2020
4300 Clear 20 1017 32 10000 3.6 100 14:20 22.04.2020
4301 Clear 20 1017 32 10000 3.6 100 13:56 22.04.2020
4302 Clear 19 1018 37 10000 3.6 90 13:38 22.04.2020
4303 Clear 19 1018 34 10000 3.1 130 13:19 22.04.2020
4304 Clear 18 1018 31 10000 4.6 100 12:41 22.04.2020
4305 Clear 18 1018 34 10000 3.6 90 12:22 22.04.2020
4306 Clear 18 1018 36 10000 4.1 90 11:41 22.04.2020
4307 Clear 17 1018 36 10000 4.1 90 11:22 22.04.2020
4308 Clear 17 1018 42 10000 3.1 30 10:59 22.04.2020
4309 Clear 17 1018 48 10000 3.1 30 10:40 22.04.2020
4310 Clear 16 1018 48 10000 3.1 30 10:20 22.04.2020
4311 Clear 15 1018 58 10000 3.6 20 09:41 22.04.2020
4312 Clouds 15 1018 58 10000 3.6 20 09:22 22.04.2020
4313 Clouds 13 1018 58 10000 2.6 50 08:58 22.04.2020
4314 Clouds 13 1018 71 10000 3.1 360 08:40 22.04.2020
4315 Clouds 12 1018 71 10000 3.1 360 08:22 22.04.2020
4316 Clouds 11 1018 76 10000 2.6 360 07:53 22.04.2020
4317 Clouds 10 1018 70 10000 2.1 360 07:29 22.04.2020
4318 Clouds 10 1018 81 10000 2.1 350 06:53 22.04.2020
4319 Clouds 10 1020 41 0 1.34 9 06:21 22.04.2020
4320 Clouds 10 1016 73 0 0.27 46 05:37 22.04.2020
4321 Clouds 10 1018 93 10000 1.5 350 04:30 22.04.2020
4322 Clouds 11 1017 93 10000 1.5 350 02:51 22.04.2020
4323 Clouds 11 1017 87 10000 1.5 20 01:53 22.04.2020
4324 Clouds 11 1017 87 10000 2.6 360 01:27 22.04.2020
4325 Clouds 11 1017 81 10000 1.5 360 00:57 22.04.2020
4326 Clouds 11 1017 81 10000 2.1 360 00:37 22.04.2020
4327 Clouds 11 1016 81 10000 2.1 360 00:19 22.04.2020
4328 Clouds 11 1016 87 10000 1.5 340 23:41 21.04.2020
4329 Clouds 12 1016 87 10000 1.5 340 23:19 21.04.2020
4330 Clouds 11 1016 87 10000 0.5 0 23:19 21.04.2020
4331 Clouds 12 1016 81 10000 1 290 22:40 21.04.2020
4332 Clouds 12 1016 81 10000 1 290 22:22 21.04.2020
4333 Clouds 12 1016 81 10000 1 250 21:59 21.04.2020
4334 Clouds 12 1015 76 10000 1 260 21:41 21.04.2020
4335 Clouds 12 1015 76 10000 1 260 21:22 21.04.2020
4336 Clouds 12 1015 71 10000 1.5 300 20:55 21.04.2020
4337 Clouds 13 1015 71 10000 1.5 310 20:37 21.04.2020
4338 Clouds 13 1015 71 10000 1.5 310 20:19 21.04.2020
4339 Clouds 13 1017 49 0 1.79 310 19:40 21.04.2020
4340 Clouds 13 1017 50 0 2.24 317 19:19 21.04.2020
4341 Clouds 13 1017 51 0 1.79 302 18:57 21.04.2020
4342 Clouds 13 1017 50 0 2.68 309 18:38 21.04.2020
4343 Clouds 14 1014 48 10000 1.5 200 18:19 21.04.2020
4344 Clouds 13 1016 47 0 3.13 309 17:55 21.04.2020
4345 Clouds 14 1014 54 10000 2.1 170 17:37 21.04.2020
4346 Clouds 14 1016 47 0 3.13 301 17:18 21.04.2020
4347 Clouds 14 1014 63 10000 2.1 140 16:39 21.04.2020
4348 Clouds 14 1016 49 0 4.92 320 16:19 21.04.2020
4349 Clouds 14 1016 50 0 2.68 319 15:57 21.04.2020
4350 Clouds 14 1014 62 10000 2.1 340 15:38 21.04.2020
4351 Clouds 14 1014 62 10000 2.1 340 15:20 21.04.2020
4352 Clouds 13 1014 67 10000 2.6 20 14:54 21.04.2020
4353 Clouds 13 1014 71 10000 3.6 350 14:36 21.04.2020
4354 Clouds 13 1014 71 10000 3.6 350 14:18 21.04.2020
4355 Clouds 13 1014 71 10000 4.1 360 13:40 21.04.2020
4356 Clouds 13 1014 71 10000 4.1 360 13:40 21.04.2020
4357 Clouds 13 1014 71 10000 4.1 360 13:22 21.04.2020
4358 Clouds 12 1014 82 7000 3.6 340 12:54 21.04.2020
4359 Clouds 12 1014 82 7000 4.1 350 12:36 21.04.2020
4360 Drizzle 11 1014 87 7000 4.1 340 12:18 21.04.2020
4361 Drizzle 12 1014 87 7000 4.1 340 12:18 21.04.2020
4362 Drizzle 11 1014 87 7000 4.1 340 11:54 21.04.2020
4363 Drizzle 11 1014 87 6000 3.6 350 11:36 21.04.2020
4364 Drizzle 11 1014 87 6000 3.6 350 11:18 21.04.2020
4365 Rain 11 1014 87 6000 3.6 350 10:54 21.04.2020
4366 Rain 11 1013 93 6000 3.1 340 10:36 21.04.2020
4367 Drizzle 11 1013 93 6000 3.6 350 10:18 21.04.2020
4368 Rain 10 1013 93 6000 3.6 340 09:37 21.04.2020
4369 Rain 10 1013 93 6000 3.6 350 09:18 21.04.2020
4370 Rain 10 1013 93 3500 3.1 350 08:46 21.04.2020
4371 Rain 10 1013 93 3500 3.1 350 08:27 21.04.2020
4372 Rain 10 1013 93 3500 3.1 350 07:56 21.04.2020
4373 Rain 10 1013 93 7000 3.1 360 07:36 21.04.2020
4374 Rain 10 1013 93 7000 2.6 360 07:18 21.04.2020
4375 Rain 10 1013 93 5000 2.6 10 06:42 21.04.2020
4376 Rain 10 1013 93 6000 2.1 40 05:51 21.04.2020
4377 Rain 10 1013 93 7000 2.1 30 05:32 21.04.2020
4378 Rain 11 1013 93 9000 1.5 40 03:48 21.04.2020
4379 Rain 11 1014 93 10000 2.6 50 02:47 21.04.2020
4380 Rain 11 1014 87 9000 2.1 60 01:33 21.04.2020
4381 Rain 11 1014 87 10000 3.1 90 00:47 21.04.2020
4382 Rain 11 1014 87 10000 3.1 90 00:23 21.04.2020
4383 Rain 12 1014 93 8000 2.6 90 23:44 20.04.2020
4384 Rain 12 1014 93 8000 3.1 90 23:21 20.04.2020
4385 Rain 12 1014 93 8000 3.1 90 22:56 20.04.2020
4386 Rain 12 1014 87 8000 3.1 110 22:36 20.04.2020
4387 Rain 12 1014 87 8000 2.6 110 22:18 20.04.2020
4388 Rain 12 1014 87 8000 2.6 110 21:54 20.04.2020
4389 Rain 12 1013 87 8000 3.6 110 21:36 20.04.2020
4390 Rain 12 1013 93 8000 2.6 130 21:18 20.04.2020
4391 Rain 13 1013 93 8000 3.6 80 20:42 20.04.2020
4392 Rain 13 1013 93 8000 3.6 80 20:20 20.04.2020
4393 Rain 13 1013 87 8000 2.1 70 19:59 20.04.2020
4394 Rain 13 1013 87 8000 2.1 70 19:59 20.04.2020
4395 Rain 13 1012 87 8000 2.6 70 19:41 20.04.2020
4396 Rain 13 1012 87 8000 2.6 70 19:22 20.04.2020
4397 Rain 13 1012 87 8000 2.6 80 18:56 20.04.2020
4398 Drizzle 13 1012 82 10000 3.6 90 18:38 20.04.2020
4399 Drizzle 13 1012 82 10000 3.6 90 18:38 20.04.2020
4400 Drizzle 13 1012 82 10000 3.6 90 18:19 20.04.2020
4401 Rain 14 1014 71 0 3.58 91 17:44 20.04.2020
4402 Drizzle 14 1012 82 10000 4.1 110 17:23 20.04.2020
4403 Drizzle 14 1012 82 10000 3.6 120 16:59 20.04.2020
4404 Rain 14 1012 87 10000 4.1 110 16:41 20.04.2020
4405 Rain 14 1012 87 10000 4.1 110 16:20 20.04.2020
4406 Rain 14 1012 82 10000 4.6 110 15:55 20.04.2020
4407 Rain 14 1013 82 10000 4.6 110 15:37 20.04.2020
4408 Rain 14 1013 87 10000 3.6 110 15:19 20.04.2020
4409 Rain 14 1013 93 8000 4.1 110 14:41 20.04.2020
4410 Rain 14 1013 93 8000 4.1 110 14:19 20.04.2020
4411 Rain 14 1013 87 6000 5.7 110 13:58 20.04.2020
4412 Rain 14 1013 93 5000 5.7 110 13:38 20.04.2020
4413 Drizzle 14 1013 93 5000 5.1 110 13:20 20.04.2020
4414 Rain 14 1013 93 10000 4.1 100 12:44 20.04.2020
4415 Rain 14 1013 93 10000 4.1 100 12:22 20.04.2020
4416 Rain 14 1013 93 10000 4.1 100 11:55 20.04.2020
4417 Rain 14 1013 87 8000 4.1 100 11:36 20.04.2020
4418 Rain 14 1013 82 7000 3.6 90 11:18 20.04.2020
4419 Rain 14 1013 82 7000 3.6 90 10:54 20.04.2020
4420 Clouds 14 1012 76 10000 5.7 120 10:36 20.04.2020
4421 Clouds 14 1012 72 10000 3.1 110 10:18 20.04.2020
4422 Clouds 15 1012 72 10000 3.6 120 09:41 20.04.2020
4423 Clouds 15 1012 72 10000 3.6 120 09:23 20.04.2020
4424 Clouds 15 1012 72 10000 4.1 130 08:56 20.04.2020
4425 Clouds 15 1011 82 10000 4.6 120 08:38 20.04.2020
4426 Clouds 15 1011 82 10000 4.6 120 08:18 20.04.2020
4427 Rain 15 1011 87 10000 4.1 80 07:42 20.04.2020
4428 Rain 15 1011 87 10000 4.1 80 07:20 20.04.2020
4429 Rain 15 1010 93 6000 2.1 80 06:38 20.04.2020
4430 Drizzle 15 1010 93 8000 2.1 110 05:59 20.04.2020
4431 Rain 15 1011 93 10000 1.5 20 04:51 20.04.2020
4432 Rain 15 1014 90 0 1.34 151 02:52 20.04.2020
4433 Rain 15 1014 90 0 1.02 326 02:33 20.04.2020
4434 Rain 15 1012 82 10000 1.5 300 01:30 20.04.2020
4435 Rain 15 1012 87 10000 2.6 300 00:45 20.04.2020
4436 Rain 15 1012 87 10000 2.6 300 00:22 20.04.2020
4437 Rain 15 1014 86 0 1.34 254 23:40 19.04.2020
4438 Rain 16 1014 86 0 2.68 249 23:21 19.04.2020
4439 Rain 16 1012 82 10000 4.1 270 22:57 19.04.2020
4440 Rain 16 1012 82 10000 3.6 260 22:37 19.04.2020
4441 Rain 16 1015 83 0 4.02 246 22:19 19.04.2020
4442 Rain 17 1012 68 10000 3.6 260 21:42 19.04.2020
4443 Clouds 18 1012 68 10000 3.6 260 21:24 19.04.2020
4444 Clouds 19 1012 63 10000 4.1 260 20:58 19.04.2020
4445 Clouds 19 1011 60 10000 4.1 250 20:40 19.04.2020
4446 Clouds 19 1011 60 10000 4.1 250 20:40 19.04.2020
4447 Clouds 19 1011 60 10000 4.1 250 20:20 19.04.2020
4448 Clouds 19 1011 52 10000 3.6 240 19:56 19.04.2020
4449 Clouds 20 1011 52 10000 3.6 240 19:56 19.04.2020
4450 Clouds 20 1011 46 10000 3.1 280 19:38 19.04.2020
4451 Clouds 21 1011 46 10000 3.1 280 19:20 19.04.2020
4452 Clouds 21 1011 46 10000 2.6 260 18:56 19.04.2020
4453 Clouds 21 1011 46 10000 2.6 270 18:38 19.04.2020
4454 Clouds 22 1011 43 10000 2.1 0 18:18 19.04.2020
4455 Clouds 22 1011 43 10000 2.1 0 17:56 19.04.2020
4456 Clouds 22 1011 43 10000 2.1 0 17:56 19.04.2020
4457 Clouds 22 1011 46 10000 0.5 0 17:37 19.04.2020
4458 Clouds 22 1012 46 10000 2.1 190 17:19 19.04.2020
4459 Clouds 22 1012 49 10000 1 0 16:40 19.04.2020
4460 Clouds 22 1012 46 10000 1.5 190 16:21 19.04.2020
4461 Clouds 22 1012 46 10000 1.5 190 15:58 19.04.2020
4462 Clouds 22 1012 46 10000 1.5 190 15:58 19.04.2020
4463 Clouds 22 1012 46 10000 1.5 0 15:39 19.04.2020
4464 Clouds 22 1013 49 10000 2.1 150 15:19 19.04.2020
4465 Clouds 23 1013 49 10000 1.5 0 14:39 19.04.2020
4466 Clouds 22 1013 49 10000 2.1 210 14:21 19.04.2020
4467 Clouds 22 1013 49 10000 1.5 0 14:21 19.04.2020
4468 Clouds 22 1013 49 10000 2.1 210 13:57 19.04.2020
4469 Clouds 22 1013 52 10000 1 0 13:36 19.04.2020
4470 Clouds 22 1013 52 10000 1 0 13:18 19.04.2020
4471 Clouds 21 1014 56 10000 1.5 190 12:44 19.04.2020
4472 Clouds 20 1014 56 10000 1.5 190 12:24 19.04.2020
4473 Clouds 19 1015 59 10000 2.1 240 11:39 19.04.2020
4474 Clouds 19 1015 63 10000 2.1 240 11:20 19.04.2020
4475 Clouds 18 1015 63 10000 2.1 240 10:59 19.04.2020
4476 Clouds 18 1015 67 10000 2.1 250 10:41 19.04.2020
4477 Clouds 17 1015 67 10000 2.1 250 10:21 19.04.2020
4478 Clouds 16 1015 72 10000 1.5 270 09:56 19.04.2020
4479 Clouds 16 1015 72 10000 0.5 0 09:38 19.04.2020
4480 Clouds 15 1015 82 10000 2.1 50 09:18 19.04.2020
4481 Clouds 14 1015 82 10000 1 0 08:40 19.04.2020
4482 Clouds 14 1015 82 10000 1 0 08:21 19.04.2020
4483 Clouds 13 1015 87 10000 1 0 07:48 19.04.2020
4484 Clouds 13 1015 87 10000 1 0 07:25 19.04.2020
4485 Clouds 13 1014 87 10000 1.5 40 06:56 19.04.2020
4486 Clouds 13 1014 87 10000 1 40 06:22 19.04.2020
4487 Clouds 13 1014 81 10000 1.72 232 04:57 19.04.2020
4488 Clouds 14 1015 72 10000 1 300 03:34 19.04.2020
4489 Clouds 14 1015 72 10000 2.1 300 02:22 19.04.2020
4490 Clouds 15 1015 67 10000 2.1 310 01:39 19.04.2020
4491 Clouds 15 1015 67 10000 2.1 310 01:21 19.04.2020
4492 Clouds 15 1015 67 10000 2.1 280 00:40 19.04.2020
4493 Clouds 15 1015 67 10000 2.1 280 00:19 19.04.2020
4494 Clouds 16 1015 67 10000 2.6 270 23:42 18.04.2020
4495 Clouds 16 1015 67 10000 2.6 270 23:19 18.04.2020
4496 Clouds 17 1015 63 10000 2.1 260 22:43 18.04.2020
4497 Clouds 17 1015 63 10000 2.1 260 22:43 18.04.2020
4498 Clouds 17 1015 63 10000 2.1 260 22:24 18.04.2020
4499 Clouds 17 1015 59 10000 2.1 260 21:58 18.04.2020
4500 Clouds 18 1014 56 10000 2.6 230 21:39 18.04.2020
4501 Clouds 19 1014 56 10000 2.6 230 21:21 18.04.2020
4502 Clouds 19 1014 45 10000 1.5 210 20:58 18.04.2020
4503 Clouds 19 1015 50 0 2.68 221 20:40 18.04.2020
4504 Clouds 21 1014 33 10000 2.1 260 20:18 18.04.2020
4505 Clouds 22 1014 29 10000 2.1 260 19:41 18.04.2020
4506 Clouds 23 1014 29 10000 2.6 250 19:22 18.04.2020
4507 Clouds 23 1014 33 10000 2.6 260 18:39 18.04.2020
4508 Clouds 23 1014 33 10000 2.6 0 18:20 18.04.2020
4509 Clouds 23 1014 33 10000 2.6 0 17:58 18.04.2020
4510 Clouds 23 1014 35 10000 1.5 0 17:39 18.04.2020
4511 Clouds 23 1015 38 10000 1 0 17:19 18.04.2020
4512 Clouds 23 1015 38 10000 2.6 250 16:43 18.04.2020
4513 Clouds 23 1015 38 10000 2.6 250 16:22 18.04.2020
4514 Clouds 23 1016 38 10000 2.6 270 15:56 18.04.2020
4515 Clouds 23 1016 43 10000 2.1 290 15:37 18.04.2020
4516 Clouds 22 1016 46 10000 3.1 270 15:19 18.04.2020
4517 Clouds 21 1017 46 10000 2.6 240 14:44 18.04.2020
4518 Clouds 21 1017 49 10000 2.6 250 14:23 18.04.2020
4519 Clouds 21 1017 52 10000 2.6 240 13:44 18.04.2020
4520 Clouds 21 1017 52 10000 2.6 240 13:44 18.04.2020
4521 Clouds 20 1018 52 10000 2.6 230 13:22 18.04.2020
4522 Clouds 19 1018 55 10000 3.6 260 12:55 18.04.2020
4523 Clouds 19 1018 55 10000 3.6 260 12:36 18.04.2020
4524 Clouds 19 1018 55 10000 3.6 260 12:36 18.04.2020
4525 Clouds 18 1018 59 10000 3.1 260 12:18 18.04.2020
4526 Clouds 18 1018 59 10000 2.6 250 11:42 18.04.2020
4527 Clouds 17 1018 59 10000 2.1 230 11:22 18.04.2020
4528 Clouds 17 1018 59 10000 2.1 230 10:57 18.04.2020
4529 Clouds 16 1018 59 10000 1.5 0 10:36 18.04.2020
4530 Clouds 16 1018 62 10000 1 170 10:18 18.04.2020
4531 Clouds 15 1018 67 10000 1 180 09:41 18.04.2020
4532 Clouds 15 1018 54 10000 0.5 0 09:21 18.04.2020
4533 Clouds 14 1018 71 10000 1 0 08:43 18.04.2020
4534 Clouds 12 1017 76 10000 1 0 08:23 18.04.2020
4535 Clouds 12 1017 76 10000 0.5 0 07:49 18.04.2020
4536 Clouds 12 1017 76 10000 0.5 0 07:30 18.04.2020
4537 Clouds 12 1017 71 10000 1 0 06:50 18.04.2020
4538 Clouds 13 1017 76 10000 0.5 0 05:50 18.04.2020
4539 Clouds 13 1017 71 10000 0.5 0 04:57 18.04.2020
4540 Clouds 13 1017 71 10000 0.5 0 04:39 18.04.2020
4541 Clouds 13 1017 71 10000 1 200 04:18 18.04.2020
4542 Clouds 14 1017 58 10000 1 0 02:42 18.04.2020
4543 Clouds 14 1017 58 10000 1 0 02:21 18.04.2020
4544 Clouds 15 1017 54 10000 1 0 02:21 18.04.2020
4545 Clouds 15 1017 54 10000 1 340 01:45 18.04.2020
4546 Clouds 15 1017 54 10000 1 340 01:22 18.04.2020
4547 Clouds 15 1017 47 10000 2.1 280 00:37 18.04.2020
4548 Clouds 16 1017 44 10000 1.5 270 00:18 18.04.2020
4549 Clouds 16 1017 45 10000 2.6 270 23:41 17.04.2020
4550 Clouds 16 1017 45 10000 2.6 270 23:20 17.04.2020
4551 Clouds 16 1017 45 10000 2.1 260 22:59 17.04.2020
4552 Clouds 17 1017 39 10000 2.1 260 22:40 17.04.2020
4553 Clouds 16 1017 39 10000 2.1 260 22:20 17.04.2020
4554 Clouds 17 1017 37 10000 1.5 250 21:58 17.04.2020
4555 Clouds 18 1017 37 10000 2.1 240 21:39 17.04.2020
4556 Clouds 18 1017 37 10000 2.1 240 21:19 17.04.2020
4557 Clouds 18 1016 34 10000 1 0 20:55 17.04.2020
4558 Clouds 19 1016 32 10000 1 0 20:36 17.04.2020
4559 Clouds 20 1016 28 10000 1 0 20:18 17.04.2020
4560 Clouds 20 1016 24 10000 1.5 220 19:44 17.04.2020
4561 Clouds 21 1016 24 10000 1.5 220 19:24 17.04.2020
4562 Clouds 22 1016 24 10000 2.6 210 18:47 17.04.2020
4563 Clouds 22 1016 24 10000 2.6 210 18:47 17.04.2020
4564 Clouds 22 1016 24 10000 2.6 210 18:25 17.04.2020
4565 Clouds 22 1016 24 10000 1.5 0 17:58 17.04.2020
4566 Clouds 22 1016 24 10000 1.5 0 17:37 17.04.2020
4567 Clouds 22 1016 24 10000 1.5 0 17:37 17.04.2020
4568 Clouds 22 1017 24 10000 1.5 0 17:19 17.04.2020
4569 Clouds 22 1017 24 10000 2.1 300 16:44 17.04.2020
4570 Clouds 22 1017 24 10000 2.1 300 16:23 17.04.2020
4571 Clouds 22 1017 24 10000 2.1 300 16:23 17.04.2020
4572 Clouds 22 1017 24 10000 1.5 250 15:55 17.04.2020
4573 Clouds 22 1018 28 10000 2.6 250 15:37 17.04.2020
4574 Clouds 22 1018 28 10000 2.6 250 15:18 17.04.2020
4575 Clouds 21 1018 30 10000 2.1 290 14:40 17.04.2020
4576 Clouds 21 1018 30 10000 2.1 290 14:40 17.04.2020
4577 Clouds 21 1018 30 10000 2.1 290 14:22 17.04.2020
4578 Clouds 21 1018 28 10000 2.6 270 13:56 17.04.2020
4579 Clouds 20 1019 32 10000 1.5 0 13:37 17.04.2020
4580 Clouds 20 1019 32 10000 2.6 230 13:18 17.04.2020
4581 Clouds 20 1019 32 10000 2.6 230 13:18 17.04.2020
4582 Clouds 19 1019 32 10000 2.6 240 12:45 17.04.2020
4583 Clouds 18 1019 32 10000 2.6 240 12:24 17.04.2020
4584 Clouds 18 1020 33 10000 2.6 250 11:42 17.04.2020
4585 Clouds 17 1020 36 10000 1.5 240 11:20 17.04.2020
4586 Clouds 17 1020 36 10000 1.5 240 11:20 17.04.2020
4587 Clouds 16 1020 36 10000 1.5 240 10:56 17.04.2020
4588 Clouds 16 1020 41 10000 2.1 160 10:38 17.04.2020
4589 Clouds 15 1020 47 10000 1.5 160 10:19 17.04.2020
4590 Clouds 14 1020 50 10000 1.5 180 09:41 17.04.2020
4591 Clouds 12 1020 54 10000 0.5 0 09:22 17.04.2020
4592 Clouds 12 1020 54 10000 0.5 0 08:58 17.04.2020
4593 Clouds 11 1020 54 10000 0.5 0 08:39 17.04.2020
4594 Clouds 10 1019 70 10000 0.5 0 08:19 17.04.2020
4595 Clouds 8 1019 75 10000 0.5 0 07:44 17.04.2020
4596 Clouds 8 1019 75 10000 0.5 0 07:23 17.04.2020
4597 Clouds 8 1019 75 10000 0.5 180 06:47 17.04.2020
4598 Clouds 8 1019 75 10000 0.5 0 06:23 17.04.2020
4599 Clouds 9 1019 65 10000 0.5 180 05:26 17.04.2020
4600 Clouds 10 1019 43 10000 1 0 03:19 17.04.2020
4601 Clear 11 1019 35 10000 1.5 310 02:19 17.04.2020
4602 Clear 11 1019 37 10000 2.6 270 01:29 17.04.2020
4603 Clear 12 1019 37 10000 2.6 270 00:51 17.04.2020
4604 Clear 12 1019 52 10000 2.6 260 00:19 17.04.2020
4605 Clear 12 1019 52 10000 2.6 260 23:42 16.04.2020
4606 Clear 12 1019 52 10000 2.6 260 23:42 16.04.2020
4607 Clear 13 1019 41 10000 2.6 270 23:22 16.04.2020
4608 Clear 12 1019 58 10000 1 0 22:56 16.04.2020
4609 Clear 12 1019 58 10000 1 0 22:37 16.04.2020
4610 Clear 13 1019 54 10000 1.23 219 22:19 16.04.2020
4611 Clear 13 1019 54 10000 0.5 0 21:42 16.04.2020
4612 Clouds 15 1018 47 10000 0.5 190 21:20 16.04.2020
4613 Clouds 15 1018 47 10000 0.5 190 21:20 16.04.2020
4614 Clouds 16 1018 36 10000 0.5 240 20:58 16.04.2020
4615 Clouds 16 1018 36 10000 0.5 240 20:39 16.04.2020
4616 Clouds 17 1018 29 10000 1 270 20:19 16.04.2020
4617 Clouds 19 1018 26 10000 1.5 270 19:54 16.04.2020
4618 Clouds 19 1018 26 10000 1.5 270 19:36 16.04.2020
4619 Clouds 19 1018 26 10000 1.5 240 19:18 16.04.2020
4620 Clouds 20 1019 26 10000 1 0 18:41 16.04.2020
4621 Clouds 20 1019 26 10000 1 0 18:41 16.04.2020
4622 Clouds 20 1019 28 10000 1 0 18:21 16.04.2020
4623 Clouds 20 1019 28 10000 1 0 17:56 16.04.2020
4624 Clouds 20 1019 28 10000 1 0 17:38 16.04.2020
4625 Clouds 20 1019 28 10000 2.6 280 17:18 16.04.2020
4626 Clouds 20 1019 32 10000 2.1 0 16:42 16.04.2020
4627 Clouds 20 1020 32 10000 2.6 240 16:20 16.04.2020
4628 Clouds 19 1020 34 10000 2.6 0 15:45 16.04.2020
4629 Clouds 19 1021 34 10000 1.5 280 15:20 16.04.2020
4630 Clouds 19 1021 37 10000 2.6 0 14:58 16.04.2020
4631 Clouds 19 1021 37 10000 2.6 0 14:39 16.04.2020
4632 Clouds 18 1021 36 10000 2.6 0 14:20 16.04.2020
4633 Clouds 18 1022 39 10000 2.6 0 13:57 16.04.2020
4634 Clouds 18 1022 39 10000 2.6 0 13:37 16.04.2020
4635 Clouds 18 1022 39 10000 2.6 240 13:19 16.04.2020
4636 Clouds 17 1022 42 10000 2.1 240 12:56 16.04.2020
4637 Clouds 17 1022 42 10000 2.1 240 12:56 16.04.2020
4638 Clouds 17 1022 42 10000 2.1 240 12:38 16.04.2020
4639 Clouds 16 1023 44 10000 2.1 250 12:19 16.04.2020
4640 Clouds 16 1023 44 10000 2.1 250 12:19 16.04.2020
4641 Clouds 16 1023 41 10000 2.6 270 11:55 16.04.2020
4642 Clouds 15 1023 41 10000 2.6 270 11:36 16.04.2020
4643 Clouds 15 1023 47 10000 2.1 250 11:18 16.04.2020
4644 Clouds 15 1023 47 10000 2.1 250 11:18 16.04.2020
4645 Clouds 14 1023 50 10000 1.5 0 10:40 16.04.2020
4646 Clouds 13 1023 54 10000 1.5 200 10:19 16.04.2020
4647 Clouds 13 1024 58 10000 1 0 09:58 16.04.2020
4648 Clouds 12 1024 58 10000 1 0 09:38 16.04.2020
4649 Clouds 11 1024 66 10000 1 0 09:19 16.04.2020
4650 Clouds 11 1024 66 10000 1 0 09:19 16.04.2020
4651 Clouds 9 1024 71 10000 0.5 170 08:42 16.04.2020
4652 Clouds 9 1024 75 10000 0.5 250 08:23 16.04.2020
4653 Clouds 7 1024 87 10000 0.5 0 07:46 16.04.2020
4654 Clouds 7 1024 93 10000 0.5 0 07:27 16.04.2020
4655 Clouds 6 1024 86 10000 0.5 0 06:46 16.04.2020
4656 Clear 6 1024 87 10000 0.5 0 06:26 16.04.2020
4657 Clear 7 1024 81 10000 1 360 05:49 16.04.2020
4658 Clear 7 1024 81 10000 0.5 0 04:28 16.04.2020
4659 Clear 7 1025 81 10000 0.5 270 03:24 16.04.2020
4660 Clear 8 1025 75 10000 1 20 02:49 16.04.2020
4661 Clear 9 1025 75 10000 1 20 02:31 16.04.2020
4662 Clear 9 1025 70 10000 0.5 20 01:19 16.04.2020
4663 Clear 10 1025 66 10000 1 10 00:34 16.04.2020
4664 Clear 10 1025 66 10000 1 20 23:59 15.04.2020
4665 Clear 10 1025 66 10000 1 20 23:59 15.04.2020
4666 Clear 10 1025 66 10000 1 20 23:41 15.04.2020
4667 Clear 11 1025 66 10000 0.5 0 23:21 15.04.2020
4668 Clear 11 1025 57 10000 1 210 22:41 15.04.2020
4669 Clear 12 1024 50 10000 1 0 22:22 15.04.2020
4670 Clear 12 1024 47 10000 1 0 21:59 15.04.2020
4671 Clear 12 1024 47 10000 1 0 21:41 15.04.2020
4672 Clear 13 1024 44 10000 2.1 130 21:22 15.04.2020
4673 Clear 13 1023 41 10000 2.6 130 20:58 15.04.2020
4674 Clear 13 1023 41 10000 2.6 130 20:58 15.04.2020
4675 Clear 14 1023 41 10000 2.6 130 20:40 15.04.2020
4676 Clear 15 1023 41 10000 3.1 130 20:21 15.04.2020
4677 Clear 14 1023 41 10000 3.1 130 20:21 15.04.2020
4678 Clear 15 1023 38 10000 2.6 150 19:45 15.04.2020
4679 Clear 16 1023 38 10000 3.1 150 19:21 15.04.2020
4680 Clear 16 1023 38 10000 2.6 180 18:56 15.04.2020
4681 Clear 16 1023 38 10000 2.6 180 18:38 15.04.2020
4682 Clear 17 1023 36 10000 2.1 190 18:20 15.04.2020
4683 Clear 17 1023 38 10000 3.1 120 17:40 15.04.2020
4684 Clear 17 1023 38 10000 3.1 120 17:40 15.04.2020
4685 Clear 17 1023 41 10000 2.6 130 17:21 15.04.2020
4686 Clear 17 1024 41 10000 2.6 100 16:58 15.04.2020
4687 Clear 17 1024 41 10000 2.6 100 16:40 15.04.2020
4688 Clear 16 1024 38 10000 2.1 120 16:20 15.04.2020
4689 Clear 16 1024 41 10000 2.1 10 15:59 15.04.2020
4690 Clear 16 1024 41 10000 2.1 10 15:59 15.04.2020
4691 Clear 16 1024 41 10000 2.1 10 15:40 15.04.2020
4692 Clear 16 1025 41 10000 2.6 150 15:20 15.04.2020
4693 -273 0 0 0 0 0 14:59 15.04.2020
4694 Clear 15 1026 44 10000 2.1 0 14:41 15.04.2020
4695 Clear 15 1026 44 10000 2.1 0 14:23 15.04.2020
4696 Clear 15 1026 41 10000 1 0 13:59 15.04.2020
4697 Clear 14 1026 41 10000 2.6 180 13:40 15.04.2020
4698 Clear 14 1026 41 10000 2.6 180 13:21 15.04.2020
4699 Clear 14 1026 41 10000 2.6 130 12:57 15.04.2020
4700 Clear 14 1026 41 10000 2.6 130 12:39 15.04.2020
4701 Clear 13 1027 43 10000 3.1 150 12:21 15.04.2020
4702 Clear 12 1026 43 10000 2.6 150 11:45 15.04.2020
4703 Clear 12 1027 43 10000 3.1 140 11:25 15.04.2020
4704 Clouds 12 1026 43 10000 3.6 130 10:59 15.04.2020
4705 Clouds 12 1026 43 10000 3.6 130 10:37 15.04.2020
4706 Clouds 11 1026 50 10000 3.1 120 10:19 15.04.2020
4707 Clouds 11 1026 53 10000 3.1 110 09:55 15.04.2020
4708 Clouds 10 1026 53 10000 3.1 110 09:37 15.04.2020
4709 Clouds 10 1026 61 10000 3.6 90 09:19 15.04.2020
4710 Clouds 9 1026 61 10000 3.1 80 08:41 15.04.2020
4711 Clouds 9 1026 61 10000 3.1 80 08:41 15.04.2020
4712 Clouds 9 1025 61 10000 1.5 80 08:21 15.04.2020
4713 Clouds 8 1025 65 10000 2.1 60 07:56 15.04.2020
4714 Clouds 8 1025 65 10000 2.1 60 07:36 15.04.2020
4715 Clouds 8 1025 65 10000 2.6 90 06:49 15.04.2020
4716 Clouds 8 1025 65 10000 2.6 80 06:20 15.04.2020
4717 Clouds 8 1025 70 10000 3.1 90 05:22 15.04.2020
4718 Clouds 9 1025 70 10000 3.1 70 04:45 15.04.2020
4719 Clouds 9 1024 66 10000 3.1 70 03:51 15.04.2020
4720 Clouds 9 1024 66 10000 4.1 100 03:20 15.04.2020
4721 Clouds 9 1024 66 10000 5.1 100 02:39 15.04.2020
4722 Clouds 9 1023 71 10000 4.1 90 01:48 15.04.2020
4723 Clouds 10 1023 66 10000 4.1 90 01:22 15.04.2020
4724 Clouds 10 1022 66 10000 5.7 90 00:37 15.04.2020
4725 Clouds 10 1022 66 10000 5.7 90 00:19 15.04.2020
4726 Clouds 10 1021 62 10000 6.2 100 23:55 14.04.2020
4727 Clouds 10 1020 66 10000 6.2 120 23:36 14.04.2020
4728 Clouds 11 1020 66 10000 6.2 120 23:18 14.04.2020
4729 Clouds 11 1020 71 10000 6.7 120 22:55 14.04.2020
4730 Clouds 11 1020 71 10000 6.7 120 22:37 14.04.2020
4731 Clouds 11 1019 62 10000 6.7 110 22:19 14.04.2020
4732 Clouds 11 1018 62 10000 9.3 120 21:55 14.04.2020
4733 Clouds 12 1018 62 10000 9.3 120 21:37 14.04.2020
4734 Rain 12 1017 66 10000 7.7 120 21:18 14.04.2020
4735 Clouds 13 1016 62 10000 8.7 110 20:41 14.04.2020
4736 Rain 13 1015 58 10000 11.8 120 20:22 14.04.2020
4737 Rain 14 1014 58 10000 9.3 110 19:58 14.04.2020
4738 Rain 15 1014 58 10000 9.3 110 19:40 14.04.2020
4739 Clear 17 1013 59 10000 9.8 120 19:21 14.04.2020
4740 Rain 20 1012 52 7000 11.3 110 18:56 14.04.2020
4741 Clear 21 1012 52 7000 11.3 110 18:38 14.04.2020
4742 Clear 23 1010 7 10000 6.2 360 18:19 14.04.2020
4743 Clear 23 1010 8 10000 6.7 360 17:56 14.04.2020
4744 Clear 23 1010 7 10000 7.7 360 17:37 14.04.2020
4745 Clear 23 1010 7 10000 7.7 360 17:19 14.04.2020
4746 Clear 23 1009 6 10000 8.2 350 16:41 14.04.2020
4747 Clear 23 1009 7 10000 7.7 350 16:23 14.04.2020
4748 Clear 23 1009 5 10000 8.7 350 15:58 14.04.2020
4749 Clear 23 1009 5 10000 8.7 350 15:39 14.04.2020
4750 Clear 23 1009 6 10000 9.8 360 15:20 14.04.2020
4751 Clear 23 1009 6 10000 8.2 350 14:57 14.04.2020
4752 Clear 23 1009 6 10000 8.2 350 14:39 14.04.2020
4753 Clear 23 1009 8 10000 9.3 350 14:21 14.04.2020
4754 Clear 22 1010 6 10000 8.2 350 13:55 14.04.2020
4755 Clear 22 1010 16 10000 3.6 330 13:37 14.04.2020
4756 Clear 22 1010 16 10000 3.6 330 13:19 14.04.2020
4757 Clear 22 1010 37 10000 2.6 0 12:40 14.04.2020
4758 Clear 21 1010 40 10000 2.6 260 12:20 14.04.2020
4759 Clear 20 1010 52 10000 2.6 250 11:54 14.04.2020
4760 Clear 19 1010 55 10000 3.1 260 11:36 14.04.2020
4761 Clear 19 1010 55 10000 3.1 260 11:18 14.04.2020
4762 Clear 18 1010 51 10000 4.1 260 10:41 14.04.2020
4763 Clear 17 1010 55 10000 3.1 250 10:23 14.04.2020
4764 Clear 15 1011 58 10000 3.1 250 09:42 14.04.2020
4765 Clear 15 1011 58 10000 3.1 250 09:42 14.04.2020
4766 Clouds 14 1011 67 10000 3.6 260 09:24 14.04.2020
4767 Clouds 12 1012 73 0 2.49 239 08:57 14.04.2020
4768 Clouds 12 1011 62 10000 2.1 270 08:39 14.04.2020
4769 Clouds 12 1012 73 0 2.49 239 08:21 14.04.2020
4770 Clouds 10 1011 71 10000 2.1 270 07:52 14.04.2020
4771 Clouds 10 1010 71 10000 2.1 270 07:28 14.04.2020
4772 Clouds 12 1012 73 0 2.49 239 06:46 14.04.2020
4773 Clouds 11 1011 66 10000 3.1 260 05:54 14.04.2020
4774 Clouds 12 1011 62 10000 3.6 290 03:52 14.04.2020
4775 Clouds 13 1012 58 10000 3.6 290 02:44 14.04.2020
4776 Clouds 14 1012 58 10000 3.6 290 01:38 14.04.2020
4777 Clouds 14 1012 62 10000 3.6 280 01:18 14.04.2020
4778 Clouds 14 1012 51 10000 4.1 270 00:32 14.04.2020
4779 Clouds 15 1012 51 10000 4.1 270 23:59 13.04.2020
4780 Clouds 15 1012 51 10000 4.1 270 23:39 13.04.2020
4781 Clouds 15 1012 48 10000 4.1 270 23:21 13.04.2020
4782 Clouds 15 1012 42 10000 4.1 260 22:55 13.04.2020
4783 Clouds 16 1012 42 10000 4.1 260 22:37 13.04.2020
4784 Clouds 16 1012 36 10000 2.6 260 22:18 13.04.2020
4785 Clouds 16 1012 34 10000 3.1 260 21:42 13.04.2020
4786 Clouds 17 1012 34 10000 3.1 260 21:21 13.04.2020
4787 Clouds 17 1012 29 10000 3.1 260 20:59 13.04.2020
4788 Clouds 17 1012 29 10000 3.1 260 20:40 13.04.2020
4789 Clouds 18 1012 31 10000 5.1 210 20:20 13.04.2020
4790 Clouds 18 1012 28 10000 2.6 240 19:58 13.04.2020
4791 Clouds 19 1012 28 10000 2.6 240 19:37 13.04.2020
4792 Clouds 19 1012 26 10000 2.6 250 19:19 13.04.2020
4793 Clouds 19 1012 26 10000 2.6 250 19:19 13.04.2020
4794 Clouds 20 1012 30 10000 1.5 230 18:57 13.04.2020
4795 Clouds 20 1012 30 10000 1.5 230 18:37 13.04.2020
4796 Clouds 20 1012 24 10000 2.6 260 18:18 13.04.2020
4797 Clouds 21 1013 33 10000 2.6 260 17:56 13.04.2020
4798 Clouds 21 1013 33 10000 2.6 260 17:37 13.04.2020
4799 Clouds 21 1013 33 10000 3.6 260 17:19 13.04.2020
4800 Clouds 21 1013 33 10000 3.6 260 17:19 13.04.2020
4801 Clouds 21 1013 33 10000 2.6 230 16:57 13.04.2020
4802 Clouds 21 1013 33 10000 2.6 230 16:37 13.04.2020
4803 Clouds 21 1013 33 10000 3.1 260 16:19 13.04.2020
4804 Clouds 21 1014 33 10000 3.1 300 15:46 13.04.2020
4805 Clouds 21 1014 31 10000 2.1 220 15:28 13.04.2020
4806 Clouds 21 1014 31 10000 2.1 0 14:59 13.04.2020
4807 Clouds 20 1014 31 10000 2.1 0 14:40 13.04.2020
4808 Clouds 20 1014 31 10000 2.6 290 14:22 13.04.2020
4809 Clouds 20 1015 22 10000 1 0 13:56 13.04.2020
4810 Clouds 20 1015 22 10000 1 0 13:38 13.04.2020
4811 Clouds 20 1015 22 10000 1 0 13:38 13.04.2020
4812 Clouds 20 1015 31 10000 1 0 13:20 13.04.2020
4813 Clouds 20 1015 31 10000 1.5 0 12:58 13.04.2020
4814 Clouds 19 1015 31 10000 1.5 0 12:39 13.04.2020
4815 Clouds 19 1016 39 10000 2.1 290 12:19 13.04.2020
4816 Clouds 19 1016 24 10000 1.5 0 11:57 13.04.2020
4817 Clouds 19 1016 24 10000 1.5 0 11:39 13.04.2020
4818 Clouds 19 1016 25 10000 1 0 11:18 13.04.2020
4819 Clouds 18 1016 25 10000 2.1 0 10:55 13.04.2020
4820 Clouds 17 1016 39 10000 2.1 250 10:36 13.04.2020
4821 Clouds 17 1016 39 10000 2.1 250 10:18 13.04.2020
4822 Clouds 16 1016 34 10000 0.5 0 09:43 13.04.2020
4823 Clouds 15 1016 51 10000 1 170 09:25 13.04.2020
4824 Clouds 13 1016 58 10000 0.5 0 08:45 13.04.2020
4825 Clouds 12 1015 66 10000 0.5 0 08:27 13.04.2020
4826 Clouds 11 1015 61 10000 1 0 07:56 13.04.2020
4827 Clouds 11 1015 61 10000 1 0 07:37 13.04.2020
4828 Clouds 11 1015 57 10000 0.5 0 07:18 13.04.2020
4829 Clouds 11 1015 61 10000 1 190 06:42 13.04.2020
4830 Clouds 11 1015 50 10000 0.5 0 05:51 13.04.2020
4831 Clouds 12 1015 61 10000 1.5 180 05:19 13.04.2020
4832 Clouds 12 1015 61 10000 1.5 180 05:19 13.04.2020
4833 Clouds 12 1015 53 10000 0.5 0 04:31 13.04.2020
4834 Clouds 12 1015 53 10000 0.5 0 04:31 13.04.2020
4835 Clouds 13 1015 36 10000 2.1 350 03:55 13.04.2020
4836 Clouds 13 1015 36 10000 2.1 350 03:34 13.04.2020
4837 Clouds 13 1016 33 10000 2.1 360 02:41 13.04.2020
4838 Clouds 13 1016 37 10000 2.6 350 01:46 13.04.2020
4839 Clouds 13 1016 40 10000 3.1 360 01:28 13.04.2020
4840 Clouds 14 1016 30 10000 3.1 350 00:48 13.04.2020
4841 Clouds 14 1017 33 10000 1.5 340 00:25 13.04.2020
4842 Clouds 15 1017 30 10000 2.6 10 23:56 12.04.2020
4843 Clouds 15 1017 30 10000 2.6 10 23:38 12.04.2020
4844 Clouds 15 1016 23 10000 2.1 260 23:20 12.04.2020
4845 Clouds 15 1016 23 10000 2.1 260 23:20 12.04.2020
4846 Clouds 16 1016 23 10000 3.1 270 22:54 12.04.2020
4847 Clouds 16 1016 23 10000 3.1 270 22:36 12.04.2020
4848 Clouds 16 1016 20 10000 3.1 260 22:18 12.04.2020
4849 Clouds 17 1016 20 10000 3.6 270 21:37 12.04.2020
4850 Clouds 17 1016 20 10000 3.6 270 21:19 12.04.2020
4851 Clouds 18 1016 18 10000 3.6 260 20:43 12.04.2020
4852 Clouds 19 1016 15 10000 2.6 250 20:23 12.04.2020
4853 Clouds 20 1016 21 10000 4.1 200 19:58 12.04.2020
4854 Clouds 21 1016 21 10000 4.1 200 19:40 12.04.2020
4855 Clouds 22 1016 14 10000 2.6 240 19:19 12.04.2020
4856 Clouds 22 1016 16 10000 1.5 0 18:56 12.04.2020
4857 Clouds 23 1016 13 10000 1.5 220 18:37 12.04.2020
4858 Clouds 23 1016 13 10000 1.5 220 18:19 12.04.2020
4859 Clouds 23 1016 15 10000 2.6 250 17:41 12.04.2020
4860 Clouds 23 1017 14 10000 2.6 210 17:23 12.04.2020
4861 Clouds 23 1017 11 10000 3.1 280 16:59 12.04.2020
4862 Clouds 23 1017 11 10000 3.1 280 16:39 12.04.2020
4863 Clouds 23 1018 15 10000 1.5 0 16:20 12.04.2020
4864 Clouds 23 1018 12 10000 2.6 0 15:49 12.04.2020
4865 Clouds 23 1018 12 10000 2.6 0 15:31 12.04.2020
4866 Clear 23 1019 13 10000 1.5 0 14:56 12.04.2020
4867 Clear 23 1019 13 10000 1.5 0 14:37 12.04.2020
4868 Clear 23 1019 16 10000 1.5 0 14:18 12.04.2020
4869 Clear 22 1020 15 10000 1.5 0 13:42 12.04.2020
4870 Clear 22 1020 17 10000 2.1 300 13:24 12.04.2020
4871 Clear 21 1020 17 10000 2.1 270 12:55 12.04.2020
4872 Clear 21 1020 17 10000 2.1 270 12:37 12.04.2020
4873 Clear 20 1021 18 10000 1.5 210 12:18 12.04.2020
4874 Clear 20 1021 20 10000 2.6 270 11:55 12.04.2020
4875 Clear 19 1021 20 10000 2.6 270 11:36 12.04.2020
4876 Clear 19 1021 20 10000 1.5 270 11:18 12.04.2020
4877 Clear 19 1021 32 10000 1 0 10:54 12.04.2020
4878 Clear 18 1021 32 10000 1 0 10:36 12.04.2020
4879 Clear 17 1021 34 10000 1 0 10:18 12.04.2020
4880 Clear 16 1021 38 10000 0.5 0 09:40 12.04.2020
4881 Clear 16 1021 38 10000 0.5 0 09:40 12.04.2020
4882 Clear 15 1021 37 10000 0.5 0 09:21 12.04.2020
4883 Clear 13 1021 50 10000 1 0 08:52 12.04.2020
4884 Clear 12 1021 50 10000 1 0 08:33 12.04.2020
4885 Clear 11 1021 49 10000 0.5 0 07:58 12.04.2020
4886 Clear 11 1021 49 10000 0.5 0 07:40 12.04.2020
4887 Clear 10 1021 37 10000 1 0 07:18 12.04.2020
4888 Clear 11 1021 40 10000 1 350 06:33 12.04.2020
4889 Clear 11 1021 49 10000 1.5 330 05:51 12.04.2020
4890 Clear 11 1021 40 10000 1.5 340 05:29 12.04.2020
4891 Clear 12 1021 37 10000 1.5 290 03:38 12.04.2020
4892 Clear 13 1021 40 10000 1 330 02:57 12.04.2020
4893 Clear 13 1021 40 10000 1 330 02:34 12.04.2020
4894 Clear 14 1021 30 10000 2.1 340 01:47 12.04.2020
4895 Clear 14 1021 28 10000 2.1 340 00:57 12.04.2020
4896 Clear 15 1021 28 10000 2.1 340 00:39 12.04.2020
4897 Clear 15 1021 26 10000 1 0 00:19 12.04.2020
4898 Clear 15 1021 25 10000 2.6 270 23:46 11.04.2020
4899 Clear 16 1021 22 10000 2.6 260 23:24 11.04.2020
4900 Clear 17 1020 20 10000 2.1 260 22:41 11.04.2020
4901 Clear 17 1020 19 10000 2.1 260 22:22 11.04.2020
4902 Clear 18 1020 14 10000 2.1 240 21:57 11.04.2020
4903 Clear 19 1020 14 10000 2.1 240 21:37 11.04.2020
4904 Clear 19 1020 14 10000 2.6 220 21:19 11.04.2020
4905 Clear 20 1020 18 10000 2.1 190 20:57 11.04.2020
4906 Clear 20 1020 18 10000 2.1 190 20:57 11.04.2020
4907 Clear 20 1019 17 10000 2.6 230 20:38 11.04.2020
4908 Clear 21 1019 17 10000 2.6 210 20:20 11.04.2020
4909 Clear 22 1020 18 10000 2.6 190 19:58 11.04.2020
4910 Clear 23 1019 16 10000 1 0 19:38 11.04.2020
4911 Clear 24 1019 14 10000 2.6 210 19:19 11.04.2020
4912 Clear 24 1019 15 10000 2.1 230 18:56 11.04.2020
4913 Clear 25 1019 14 10000 2.6 250 18:37 11.04.2020
4914 Clear 25 1019 14 10000 2.6 250 18:37 11.04.2020
4915 Clear 25 1019 14 10000 2.6 250 18:18 11.04.2020
4916 Clear 25 1019 16 10000 2.6 180 17:58 11.04.2020
4917 Clear 25 1019 16 10000 2.6 180 17:39 11.04.2020
4918 Clear 25 1020 15 10000 1.5 10 17:19 11.04.2020
4919 Clear 25 1020 15 10000 2.1 0 16:43 11.04.2020
4920 Clear 25 1020 16 10000 2.1 0 16:22 11.04.2020
4921 Clear 25 1020 16 10000 2.1 0 16:22 11.04.2020
4922 Clear 25 1020 15 10000 2.6 270 15:54 11.04.2020
4923 Clear 25 1020 15 10000 2.6 270 15:36 11.04.2020
4924 Clear 25 1021 16 10000 2.1 0 15:18 11.04.2020
4925 Clear 24 1021 30 10000 1.5 0 14:41 11.04.2020
4926 Clear 24 1021 30 10000 1.5 0 14:41 11.04.2020
4927 Clear 24 1021 20 10000 2.1 0 14:23 11.04.2020
4928 Clear 24 1022 23 10000 1.5 0 13:55 11.04.2020
4929 Clear 23 1022 25 10000 2.1 0 13:36 11.04.2020
4930 Clear 23 1022 25 10000 2.1 0 13:18 11.04.2020
4931 Clear 22 1022 28 10000 2.1 220 12:39 11.04.2020
4932 Clear 21 1022 30 10000 2.1 0 12:18 11.04.2020
4933 Clear 21 1022 40 10000 2.1 150 11:55 11.04.2020
4934 Clear 21 1022 40 10000 2.1 150 11:37 11.04.2020
4935 Clear 20 1022 37 10000 1.5 0 11:18 11.04.2020
4936 Clear 19 1022 45 10000 1.5 160 10:42 11.04.2020
4937 Clear 18 1022 45 10000 1 0 10:22 11.04.2020
4938 Clear 17 1022 51 10000 1 0 09:57 11.04.2020
4939 Clear 15 1022 51 10000 1 0 09:39 11.04.2020
4940 Clear 14 1022 58 10000 1 0 09:20 11.04.2020
4941 Clear 13 1022 62 10000 1 0 08:45 11.04.2020
4942 Clear 12 1021 70 10000 1 0 08:27 11.04.2020
4943 Clear 11 1021 81 10000 0.5 0 07:49 11.04.2020
4944 Clear 10 1021 81 10000 1 190 07:28 11.04.2020
4945 Clear 10 1021 75 10000 1 0 06:47 11.04.2020
4946 Clear 11 1021 75 10000 1.5 10 06:18 11.04.2020
4947 Clear 12 1021 66 10000 1.5 10 04:35 11.04.2020
4948 Clear 12 1021 66 10000 2.1 180 03:40 11.04.2020
4949 Clear 14 1021 62 10000 1 340 01:53 11.04.2020
4950 Clear 14 1021 62 10000 0.5 0 01:20 11.04.2020
4951 Clear 14 1021 54 10000 0.5 0 00:44 11.04.2020
4952 Clear 14 1021 50 10000 1 360 00:19 11.04.2020
4953 Clear 14 1021 50 10000 0.26 174 23:56 10.04.2020
4954 Clear 15 1021 50 10000 0.26 174 23:56 10.04.2020
4955 Clear 15 1021 50 10000 0.26 174 23:37 10.04.2020
4956 Clear 15 1021 47 10000 1 20 23:18 10.04.2020
4957 Clear 15 1021 47 10000 0.5 50 22:43 10.04.2020
4958 Clear 16 1021 44 10000 0.5 360 22:21 10.04.2020
4959 Clear 17 1021 47 10000 0.5 0 21:58 10.04.2020
4960 Clear 17 1021 47 10000 0.5 0 21:39 10.04.2020
4961 Clear 17 1021 47 10000 0.5 0 21:39 10.04.2020
4962 Clear 18 1020 39 10000 0.5 0 21:18 10.04.2020
4963 Clear 20 1020 36 10000 0.5 190 20:41 10.04.2020
4964 Clear 21 1020 19 10000 1.5 190 20:23 10.04.2020
4965 Clear 22 1020 18 10000 1.5 180 19:57 10.04.2020
4966 Clear 22 1020 18 10000 1.5 180 19:39 10.04.2020
4967 Clear 23 1020 16 10000 1.5 170 19:20 10.04.2020
4968 Clear 23 1020 17 10000 1 0 18:57 10.04.2020
4969 Clear 24 1020 17 10000 1 0 18:38 10.04.2020
4970 Clear 24 1020 17 10000 2.1 130 18:20 10.04.2020
4971 Clear 24 1020 14 10000 1 0 17:58 10.04.2020
4972 Clear 24 1020 14 10000 1 0 17:39 10.04.2020
4973 Clear 24 1020 16 10000 2.1 170 17:19 10.04.2020
4974 Clear 24 1021 17 10000 2.6 200 16:46 10.04.2020
4975 Clear 24 1021 19 10000 1.5 0 16:24 10.04.2020
4976 Clear 24 1021 17 10000 1.5 0 15:59 10.04.2020
4977 Clear 24 1021 17 10000 1.5 0 15:40 10.04.2020
4978 Clear 24 1022 17 10000 1 0 15:22 10.04.2020
4979 Clear 24 1022 19 10000 1.5 0 15:00 10.04.2020
4980 Clear 24 1022 19 10000 1.5 0 14:41 10.04.2020
4981 Clear 23 1022 28 10000 1 0 14:23 10.04.2020
4982 Clear 23 1023 28 10000 1.5 0 13:57 10.04.2020
4983 Clear 23 1023 28 10000 1.5 0 13:39 10.04.2020
4984 Clear 23 1023 26 10000 1.5 0 13:20 10.04.2020
4985 Clear 22 1023 32 10000 1.5 0 12:43 10.04.2020
4986 Clear 20 1023 37 10000 1 0 12:22 10.04.2020
4987 Clear 20 1023 37 10000 1.5 180 11:55 10.04.2020
4988 Clear 20 1023 37 10000 1.5 180 11:36 10.04.2020
4989 Clear 20 1023 37 10000 1.5 180 11:36 10.04.2020
4990 Clear 19 1023 39 10000 1 0 11:18 10.04.2020
4991 Clear 18 1023 42 10000 1.5 160 10:42 10.04.2020
4992 Clear 17 1023 42 10000 1 0 10:22 10.04.2020
4993 Clear 16 1023 44 10000 0.5 0 09:45 10.04.2020
4994 Clear 14 1023 51 10000 0.5 0 09:25 10.04.2020
4995 Clear 13 1023 66 10000 0.5 0 08:56 10.04.2020
4996 Clear 12 1023 66 10000 0.5 0 08:38 10.04.2020
4997 Clear 12 1023 66 10000 0.5 0 08:38 10.04.2020
4998 Clear 11 1023 75 10000 0.5 0 08:20 10.04.2020
4999 Clear 10 1023 70 10000 0.5 0 07:44 10.04.2020
5000 Clear 10 1023 81 10000 0.5 0 07:22 10.04.2020
5001 Clear 10 1022 81 10000 0.5 0 06:45 10.04.2020
5002 Clear 10 1022 75 10000 0.5 0 06:25 10.04.2020
5003 Clear 10 1022 81 10000 1 250 05:38 10.04.2020
5004 Clear 11 1022 70 10000 1 350 04:57 10.04.2020
5005 Clear 11 1022 70 10000 1.5 360 03:37 10.04.2020
5006 Clear 12 1022 66 10000 1 10 02:59 10.04.2020
5007 Clear 12 1022 61 10000 1 10 02:36 10.04.2020
5008 Clear 12 1022 66 10000 1 10 01:59 10.04.2020
5009 Clear 13 1022 62 10000 0.5 20 01:29 10.04.2020
5010 Clear 13 1022 58 10000 1 20 00:49 10.04.2020
5011 Clouds 13 1022 54 10000 1 20 00:22 10.04.2020
5012 Clouds 13 1022 58 10000 0.5 0 23:44 09.04.2020
5013 Clouds 13 1022 62 10000 0.5 360 23:25 09.04.2020
5014 Clouds 14 1021 54 10000 0.5 10 22:59 09.04.2020
5015 Clouds 14 1021 54 10000 0.5 10 22:40 09.04.2020
5016 Clouds 15 1021 47 10000 0.5 0 22:22 09.04.2020
5017 Clear 16 1021 41 10000 0.5 0 21:42 09.04.2020
5018 Clear 17 1021 40 10000 1 170 21:24 09.04.2020
5019 Clear 18 1020 40 10000 1 180 20:55 09.04.2020
5020 Clear 18 1020 40 10000 1 180 20:37 09.04.2020
5021 Clear 20 1020 40 10000 1.5 170 20:18 09.04.2020
5022 Clear 21 1020 40 10000 2.1 170 19:40 09.04.2020
5023 Clear 22 1020 40 10000 2.1 170 19:22 09.04.2020
5024 Clear 22 1020 40 10000 1.5 240 18:42 09.04.2020
5025 Clear 23 1020 19 10000 2.1 260 18:21 09.04.2020
5026 Clear 23 1020 19 10000 1.5 230 17:59 09.04.2020
5027 Clear 23 1020 19 10000 1.5 230 17:59 09.04.2020
5028 Clear 23 1020 19 10000 1.5 230 17:39 09.04.2020
5029 Clear 23 1020 22 10000 2.1 230 17:19 09.04.2020
5030 Clear 23 1021 30 10000 1.5 0 16:40 09.04.2020
5031 Clear 23 1021 20 10000 1.5 0 16:20 09.04.2020
5032 Clear 23 1021 30 10000 2.1 0 15:57 09.04.2020
5033 Clear 22 1021 30 10000 2.1 0 15:38 09.04.2020
5034 Clear 22 1021 30 10000 2.1 0 15:38 09.04.2020
5035 Clear 22 1022 29 10000 1.5 0 15:19 09.04.2020
5036 Clear 22 1022 29 10000 2.1 200 14:56 09.04.2020
5037 Clear 22 1022 29 10000 2.1 200 14:36 09.04.2020
5038 Clear 22 1022 30 10000 2.6 210 14:18 09.04.2020
5039 Clear 21 1022 26 10000 2.6 180 13:42 09.04.2020
5040 Clear 21 1023 26 10000 2.1 0 13:23 09.04.2020
5041 Clear 20 1023 28 10000 1.5 0 12:55 09.04.2020
5042 Clear 20 1023 32 10000 1.5 240 12:36 09.04.2020
5043 Clear 19 1023 32 10000 1.5 240 12:18 09.04.2020
5044 Clear 18 1023 32 10000 1 0 11:43 09.04.2020
5045 Clear 18 1024 34 10000 1 0 11:20 09.04.2020
5046 Clear 17 1024 39 10000 1 0 10:58 09.04.2020
5047 Clear 16 1024 39 10000 1 0 10:40 09.04.2020
5048 Clear 16 1024 41 10000 0.5 0 10:21 09.04.2020
5049 Clear 15 1024 47 10000 1 10 09:56 09.04.2020
5050 Clear 14 1024 47 10000 1 10 09:38 09.04.2020
5051 Clear 13 1024 54 10000 1.5 20 09:20 09.04.2020
5052 Clear 11 1023 66 10000 0.5 330 08:44 09.04.2020
5053 Clear 10 1023 70 10000 0.5 280 08:23 09.04.2020
5054 Clear 9 1023 81 10000 0.5 0 07:56 09.04.2020
5055 Clear 8 1023 75 10000 0.5 0 07:27 09.04.2020
5056 Clear 8 1023 70 10000 0.5 0 06:56 09.04.2020
5057 Clear 9 1023 70 10000 0.5 10 06:25 09.04.2020
5058 Clear 9 1023 70 10000 1 340 05:40 09.04.2020
5059 Clear 10 1023 65 10000 0.5 0 03:55 09.04.2020
5060 Clear 10 1024 43 10000 2.1 10 02:30 09.04.2020
5061 Clear 11 1024 61 10000 0.5 50 01:41 09.04.2020
5062 Clear 11 1024 61 10000 0.5 50 01:41 09.04.2020
5063 Clear 11 1024 53 10000 0.5 0 01:23 09.04.2020
5064 Clear 12 1024 50 10000 1.5 20 00:43 09.04.2020
5065 Clear 12 1024 50 10000 1 20 00:20 09.04.2020
5066 Clear 13 1024 50 10000 0.5 0 23:58 08.04.2020
5067 Clear 13 1024 50 10000 0.5 0 23:40 08.04.2020
5068 Clear 13 1024 50 10000 0.5 0 23:40 08.04.2020
5069 Clear 13 1024 46 10000 1 340 23:21 08.04.2020
5070 Clear 14 1024 42 10000 1.5 150 22:43 08.04.2020
5071 Clear 14 1024 42 10000 1.5 150 22:24 08.04.2020
5072 Clear 14 1024 31 10000 2.1 160 21:56 08.04.2020
5073 Clear 15 1023 31 10000 2.1 160 21:37 08.04.2020
5074 Clear 16 1023 31 10000 2.1 160 21:19 08.04.2020
5075 Clear 16 1023 25 10000 2.6 140 20:57 08.04.2020
5076 Clear 17 1023 20 10000 2.6 140 20:38 08.04.2020
5077 Clear 18 1023 20 10000 2.6 140 20:19 08.04.2020
5078 Clear 20 1023 22 10000 2.1 180 19:42 08.04.2020
5079 Clear 20 1023 22 10000 2.1 180 19:22 08.04.2020
5080 Clear 20 1023 21 10000 2.1 170 18:58 08.04.2020
5081 Clear 21 1024 19 10000 2.6 160 18:40 08.04.2020
5082 Clear 21 1024 21 10000 2.6 190 18:20 08.04.2020
5083 Clear 21 1024 19 10000 2.1 160 17:43 08.04.2020
5084 Clear 21 1024 21 10000 2.6 140 17:22 08.04.2020
5085 Clear 21 1024 21 10000 2.6 140 17:22 08.04.2020
5086 Clear 21 1024 21 10000 2.6 140 16:59 08.04.2020
5087 Clear 22 1025 21 10000 1.5 0 16:40 08.04.2020
5088 Clear 21 1025 22 10000 3.1 150 16:22 08.04.2020
5089 Clear 21 1025 22 10000 1 0 15:39 08.04.2020
5090 Clear 21 1025 22 10000 1 0 15:21 08.04.2020
5091 Clear 21 1026 21 10000 1.5 240 14:59 08.04.2020
5092 Clear 21 1026 21 10000 1.5 240 14:40 08.04.2020
5093 Clear 21 1026 21 10000 2.1 230 14:22 08.04.2020
5094 Clear 20 1027 24 10000 2.1 190 13:44 08.04.2020
5095 Clear 20 1027 25 10000 1.5 170 13:21 08.04.2020
5096 Clear 20 1027 25 10000 2.6 130 12:58 08.04.2020
5097 Clear 20 1027 25 10000 2.6 130 12:58 08.04.2020
5098 Clear 19 1027 25 10000 2.6 130 12:39 08.04.2020
5099 Clear 19 1028 34 10000 2.6 200 12:18 08.04.2020
5100 Clear 18 1028 36 10000 2.1 130 11:42 08.04.2020
5101 Clear 18 1028 42 10000 2.1 160 11:23 08.04.2020
5102 Clear 17 1028 42 10000 2.1 110 10:58 08.04.2020
5103 Clear 16 1028 48 10000 1 0 10:40 08.04.2020
5104 Clear 16 1028 48 10000 1 0 10:21 08.04.2020
5105 Clear 15 1028 54 10000 0.5 0 09:57 08.04.2020
5106 Clear 14 1028 54 10000 0.5 0 09:39 08.04.2020
5107 Clear 13 1028 58 10000 1 10 09:18 08.04.2020
5108 Clear 11 1028 61 10000 1.5 10 08:56 08.04.2020
5109 Clear 10 1028 61 10000 1.5 10 08:38 08.04.2020
5110 Clear 9 1028 61 10000 1 0 08:20 08.04.2020
5111 Clear 9 1028 61 10000 1 360 07:42 08.04.2020
5112 Clear 8 1028 61 10000 2.1 360 07:20 08.04.2020
5113 Clear 9 1028 75 10000 1.5 350 06:23 08.04.2020
5114 Clear 9 1028 65 10000 1.5 350 04:54 08.04.2020
5115 Clear 11 1029 66 10000 1.23 73 02:50 08.04.2020
5116 Clear 11 1029 57 10000 1 360 02:21 08.04.2020
5117 Clear 12 1029 53 10000 1 0 01:56 08.04.2020
5118 Clear 12 1029 43 10000 1.5 30 01:27 08.04.2020
5119 Clear 12 1029 53 10000 1.5 50 00:44 08.04.2020
5120 Clear 13 1029 52 10000 2.6 60 00:23 08.04.2020
5121 Clear 13 1028 52 10000 2.6 90 23:40 07.04.2020
5122 Clear 14 1028 36 10000 2.6 100 23:22 07.04.2020
5123 Clear 14 1028 41 10000 2.1 90 22:58 07.04.2020
5124 Clear 14 1028 41 10000 2.1 90 22:40 07.04.2020
5125 Clear 15 1028 38 10000 1 50 22:20 07.04.2020
5126 Clear 15 1028 38 10000 2.1 140 21:57 07.04.2020
5127 Clear 16 1028 38 10000 2.1 140 21:39 07.04.2020
5128 Clear 17 1027 48 10000 2.1 120 21:20 07.04.2020
5129 Clear 17 1027 29 10000 1.5 110 20:57 07.04.2020
5130 Clear 18 1027 48 10000 2.6 120 20:38 07.04.2020
5131 Clear 19 1027 48 10000 2.6 120 20:20 07.04.2020
5132 Clear 19 1027 48 10000 3.1 120 19:57 07.04.2020
5133 Clear 20 1027 28 10000 3.1 140 19:36 07.04.2020
5134 Clear 21 1027 24 10000 3.1 110 19:18 07.04.2020
5135 Clear 21 1027 24 10000 3.1 110 18:54 07.04.2020
5136 Clear 21 1027 48 10000 4.1 110 18:36 07.04.2020
5137 Clear 22 1027 26 10000 2.6 140 18:18 07.04.2020
5138 Clear 22 1027 26 10000 3.1 90 17:44 07.04.2020
5139 Clear 22 1027 26 10000 3.1 90 17:20 07.04.2020
5140 Clear 22 1027 26 10000 1.5 200 16:46 07.04.2020
5141 Clear 22 1027 26 10000 1.5 200 16:27 07.04.2020
5142 Clear 22 1028 30 10000 1.5 0 15:55 07.04.2020
5143 Clear 22 1028 28 10000 1.5 0 15:36 07.04.2020
5144 Clear 21 1028 32 10000 1.5 0 15:18 07.04.2020
5145 Clear 21 1028 32 10000 1.5 0 14:39 07.04.2020
5146 Clear 20 1029 30 10000 1.5 210 14:21 07.04.2020
5147 Clear 20 1029 32 10000 2.6 170 13:54 07.04.2020
5148 Clear 20 1029 32 10000 2.6 170 13:36 07.04.2020
5149 Clear 20 1029 34 10000 2.6 180 13:18 07.04.2020
5150 Clear 19 1029 32 10000 3.1 160 12:40 07.04.2020
5151 Clear 18 1029 31 10000 2.6 180 12:22 07.04.2020
5152 Clear 18 1030 34 10000 2.6 140 11:59 07.04.2020
5153 Clear 18 1030 34 10000 2.6 140 11:59 07.04.2020
5154 Clear 17 1030 34 10000 2.6 140 11:41 07.04.2020
5155 Clear 17 1029 33 10000 2.1 180 11:21 07.04.2020
5156 Clear 16 1029 41 10000 1.5 0 10:55 07.04.2020
5157 Clear 16 1029 41 10000 1.5 0 10:36 07.04.2020
5158 Clear 15 1029 51 10000 1.5 80 10:18 07.04.2020
5159 Clear 14 1029 62 10000 1.5 50 09:43 07.04.2020
5160 Clear 12 1029 71 10000 2.6 360 09:18 07.04.2020
5161 Clear 11 1029 76 10000 2.1 360 08:41 07.04.2020
5162 Clear 9 1029 81 10000 1 20 08:23 07.04.2020
5163 Clear 9 1028 87 10000 0.5 0 07:57 07.04.2020
5164 Clear 9 1028 87 10000 0.5 0 07:38 07.04.2020
5165 Clear 9 1028 75 10000 1 0 07:20 07.04.2020
5166 Clear 9 1028 81 10000 3.1 150 06:42 07.04.2020
5167 Clear 9 1028 87 10000 0.5 340 06:18 07.04.2020
5168 Clear 9 1028 81 10000 0.5 0 05:29 07.04.2020
5169 Clear 9 1028 75 10000 0.5 0 04:35 07.04.2020
5170 Clear 10 1028 66 10000 0.5 0 03:24 07.04.2020
5171 Clear 10 1028 66 10000 0.5 130 02:47 07.04.2020
5172 Clear 11 1028 66 10000 1 140 01:43 07.04.2020
5173 Clear 11 1028 58 10000 1 0 01:23 07.04.2020
5174 Clear 12 1027 57 10000 2.1 340 00:26 07.04.2020
5175 Clear 13 1027 58 10000 1 350 23:44 06.04.2020
5176 Clear 13 1027 50 10000 1 10 23:23 06.04.2020
5177 Clear 13 1027 58 10000 0.5 0 22:56 06.04.2020
5178 Clear 13 1027 58 10000 0.5 0 22:37 06.04.2020
5179 Clear 14 1027 54 10000 0.92 1 22:19 06.04.2020
5180 Clear 13 1027 47 10000 0.5 260 21:56 06.04.2020
5181 Clear 14 1027 47 10000 0.5 260 21:37 06.04.2020
5182 Clear 15 1026 41 10000 1 0 21:18 06.04.2020
5183 Clear 16 1026 36 10000 1 180 20:42 06.04.2020
5184 Clear 17 1026 32 10000 1 170 20:21 06.04.2020
5185 Clear 18 1025 34 10000 1.5 170 19:58 06.04.2020
5186 Clear 19 1025 34 10000 1.5 170 19:39 06.04.2020
5187 Clear 19 1025 30 10000 3.1 150 19:20 06.04.2020
5188 Clear 20 1025 28 10000 2.6 200 18:45 06.04.2020
5189 Clear 20 1025 30 10000 1.5 180 18:24 06.04.2020
5190 Clear 20 1025 30 10000 1.5 180 18:24 06.04.2020
5191 Clear 20 1025 30 10000 2.1 100 17:59 06.04.2020
5192 Clear 20 1025 30 10000 2.1 100 17:41 06.04.2020
5193 Clear 20 1026 28 10000 2.1 170 17:19 06.04.2020
5194 Clear 20 1026 26 10000 1.5 0 16:49 06.04.2020
5195 Clear 20 1026 30 10000 1.5 0 16:30 06.04.2020
5196 Clear 20 1027 28 10000 2.1 0 14:59 06.04.2020
5197 Clear 20 1027 28 10000 2.1 0 14:59 06.04.2020
5198 Clear 20 1027 28 10000 2.1 0 14:59 06.04.2020
5199 Clear 20 1027 28 10000 2.1 0 14:59 06.04.2020
5200 Clear 20 1027 28 10000 2.1 0 14:59 06.04.2020
5201 Clear 19 1027 29 10000 2.6 210 13:45 06.04.2020
5202 Clear 19 1027 32 10000 2.6 0 13:22 06.04.2020
5203 Clear 18 1027 31 10000 2.6 140 12:46 06.04.2020
5204 Clear 18 1027 34 10000 1.5 0 12:20 06.04.2020
5205 Clear 17 1027 33 10000 1.5 160 11:43 06.04.2020
5206 Clear 17 1027 33 10000 1.5 160 11:25 06.04.2020
5207 Clear 17 1027 33 10000 1.5 160 11:25 06.04.2020
5208 Clear 17 1027 33 10000 1.5 160 11:25 06.04.2020
5209 Clear 17 1028 38 10000 2.1 170 11:25 06.04.2020
5210 Clear 17 1028 38 10000 2.1 170 11:25 06.04.2020
5211 Clear 16 1027 51 10000 2.6 160 10:43 06.04.2020
5212 Clear 16 1027 51 10000 2.6 160 10:43 06.04.2020
5213 Clear 16 1027 51 10000 2.6 160 10:43 06.04.2020
5214 Clear 16 1027 51 10000 2.6 160 10:43 06.04.2020
5215 Clear 16 1027 51 10000 2.6 160 10:43 06.04.2020
5216 Clear 15 1027 47 10000 1 0 10:21 06.04.2020
5217 Clear 15 1027 47 10000 1 0 10:21 06.04.2020
5218 Clear 15 1027 47 10000 1 0 10:21 06.04.2020
5219 Clear 15 1027 47 10000 1 0 10:21 06.04.2020
5220 Clear 15 1027 47 10000 1 0 10:21 06.04.2020
5221 Clear 14 1027 47 10000 1 0 09:41 06.04.2020
5222 Clear 14 1027 47 10000 1 0 09:40 06.04.2020
5223 Clear 12 1027 54 10000 0.5 0 09:20 06.04.2020
5224 Clear 11 1027 66 10000 1 0 08:47 06.04.2020
5225 Clear 10 1027 66 10000 1 0 08:29 06.04.2020
5226 Clear 10 1027 66 10000 1 0 08:29 06.04.2020
5227 Clear 10 1027 66 10000 1 0 08:29 06.04.2020
5228 Clear 10 1027 66 10000 1 0 08:29 06.04.2020
5229 Clear 10 1027 66 10000 1 0 08:29 06.04.2020
5230 Clear 7 1026 75 10000 0.5 0 07:23 06.04.2020
5231 Clear 7 1025 70 10000 0.5 0 06:27 06.04.2020
5232 Clear 8 1025 81 10000 1 0 05:54 06.04.2020
5233 Clear 9 1025 65 10000 1 0 03:57 06.04.2020
5234 Clear 9 1025 75 10000 1.5 60 02:52 06.04.2020
5235 Clear 10 1025 66 10000 1 10 01:56 06.04.2020
5236 Clear 10 1025 66 10000 1 10 01:56 06.04.2020
5237 Clear 10 1025 66 10000 1 10 01:56 06.04.2020
5238 Clear 10 1025 61 10000 1.5 10 00:55 06.04.2020
5239 Clear 10 1025 61 10000 1.5 10 00:28 06.04.2020
5240 Clear 11 1025 66 10000 0.5 20 00:28 06.04.2020
5241 Clear 11 1025 61 10000 0.5 0 23:52 05.04.2020
5242 Clear 11 1025 61 10000 0.5 0 23:33 05.04.2020
5243 Clear 11 1025 61 10000 1 0 22:58 05.04.2020
5244 Clear 11 1025 61 10000 1 0 22:58 05.04.2020
5245 Clear 12 1024 62 10000 0.5 0 22:40 05.04.2020
5246 Clear 12 1024 58 10000 1 20 22:22 05.04.2020
5247 Clear 12 1024 58 10000 1 20 21:59 05.04.2020
5248 Clear 13 1023 50 10000 0.5 0 21:41 05.04.2020
5249 Clear 13 1023 50 10000 0.5 0 21:41 05.04.2020
5250 Clear 14 1023 44 10000 0.5 280 21:23 05.04.2020
5251 Clear 15 1023 41 10000 1.5 180 20:22 05.04.2020
5252 Clear 17 1023 39 10000 2.1 170 19:43 05.04.2020
5253 Clear 17 1022 34 10000 3.1 140 19:22 05.04.2020
5254 Clear 18 1022 31 10000 2.1 130 18:48 05.04.2020
5255 Clear 19 1022 31 10000 2.6 100 18:18 05.04.2020
5256 Clear 19 1023 34 10000 3.1 140 17:43 05.04.2020
5257 Clear 19 1023 34 10000 3.1 140 17:43 05.04.2020
5258 Clear 19 1023 34 10000 3.1 140 17:43 05.04.2020
5259 Clear 19 1023 34 10000 3.1 140 17:43 05.04.2020
5260 Clear 19 1023 34 10000 3.1 140 17:21 05.04.2020
5261 Clear 19 1023 31 10000 2.1 0 17:21 05.04.2020
5262 Clear 19 1023 34 10000 3.1 140 17:21 05.04.2020
5263 Clear 18 1023 31 10000 2.1 0 16:47 05.04.2020
5264 Clear 18 1023 31 10000 2.1 0 16:47 05.04.2020
5265 Clear 18 1023 31 10000 2.1 0 16:47 05.04.2020
5266 Clear 18 1023 34 10000 2.1 0 16:18 05.04.2020
5267 Clear 18 1024 34 10000 2.6 0 15:45 05.04.2020
5268 Clouds 18 1024 34 10000 2.1 0 15:25 05.04.2020
5269 Clouds 17 1025 33 10000 1.5 0 14:48 05.04.2020
5270 Clouds 17 1025 33 10000 1.5 0 14:48 05.04.2020
5271 Clouds 17 1025 33 10000 1.5 0 14:48 05.04.2020
5272 Clouds 17 1025 33 10000 1.5 0 14:48 05.04.2020
5273 Clouds 17 1025 33 10000 1.5 0 14:48 05.04.2020
5274 Clouds 17 1025 37 10000 1.5 0 13:59 05.04.2020
5275 Clouds 17 1025 33 10000 3.1 110 13:40 05.04.2020
5276 Clouds 17 1025 33 10000 3.1 110 13:40 05.04.2020
5277 Clouds 17 1025 33 10000 3.1 110 13:40 05.04.2020
5278 Clouds 17 1025 33 10000 3.1 110 13:40 05.04.2020
5279 Clouds 17 1025 33 10000 3.1 110 13:40 05.04.2020
5280 Clouds 15 1026 43 10000 4.6 130 11:58 05.04.2020
5281 Clouds 15 1026 43 10000 2.6 110 11:39 05.04.2020
5282 Clouds 15 1026 41 10000 2.6 140 11:19 05.04.2020
5283 Clouds 14 1026 41 10000 2.1 140 10:46 05.04.2020
5284 Clouds 14 1026 43 10000 3.1 140 10:22 05.04.2020
5285 Clouds 13 1026 46 10000 2.6 100 09:52 05.04.2020
5286 Clouds 13 1026 46 10000 2.6 100 09:52 05.04.2020
5287 Clear 12 1026 46 10000 2.6 100 09:25 05.04.2020
5288 Clouds 12 1026 54 10000 1.5 120 09:25 05.04.2020
5289 Clouds 12 1026 54 10000 1.5 120 09:25 05.04.2020
5290 Clouds 12 1026 54 10000 1.5 120 09:25 05.04.2020
5291 Clear 12 1026 46 10000 2.6 100 09:25 05.04.2020
5292 Clouds 9 1025 75 10000 0.5 260 07:58 05.04.2020
5293 Clouds 9 1024 57 10000 2.1 80 05:12 05.04.2020
5294 Clouds 9 1024 65 10000 1 60 03:58 05.04.2020
5295 Clear 9 1024 65 10000 1 30 02:56 05.04.2020
5296 Clear 10 1024 57 10000 1.5 60 01:52 05.04.2020
5297 Clear 10 1024 57 10000 1.5 60 01:52 05.04.2020
5298 Clear 10 1024 57 10000 1.5 60 01:33 05.04.2020
5299 Clear 10 1023 57 10000 1 0 00:52 05.04.2020
5300 Clear 11 1023 50 10000 1 40 00:22 05.04.2020
5301 Clear 11 1023 50 10000 1 40 23:58 04.04.2020
5302 Clear 11 1023 50 10000 1 40 23:58 04.04.2020
5303 Clear 11 1023 53 10000 1 20 23:38 04.04.2020
5304 Clear 11 1022 57 10000 0.5 0 23:20 04.04.2020
5305 Clear 11 1022 57 10000 0.5 0 22:56 04.04.2020
5306 Clear 11 1022 53 10000 1 0 22:38 04.04.2020
5307 Clear 12 1022 43 10000 1.5 100 22:19 04.04.2020
5308 Clear 12 1022 43 10000 1.5 100 22:19 04.04.2020
5309 Clear 12 1022 43 10000 1.5 100 21:55 04.04.2020
5310 Clear 13 1021 41 10000 1.5 120 21:36 04.04.2020
5311 Clear 13 1021 50 10000 2.1 120 21:18 04.04.2020
5312 Clear 14 1020 53 10000 2.1 120 20:42 04.04.2020
5313 Clear 15 1020 53 10000 2.6 120 20:23 04.04.2020
5314 Clear 16 1020 53 10000 2.6 120 19:59 04.04.2020
5315 Clear 16 1020 53 10000 2.6 120 19:59 04.04.2020
5316 Clear 16 1020 53 10000 2.6 120 19:38 04.04.2020
5317 Clear 17 1019 31 10000 2.1 140 19:19 04.04.2020
5318 Clear 17 1019 31 10000 2.1 140 18:57 04.04.2020
5319 Clear 18 1019 31 10000 1.5 80 18:38 04.04.2020
5320 Clear 18 1019 38 10000 1.5 0 18:19 04.04.2020
5321 Clear 18 1019 38 10000 1.5 0 18:19 04.04.2020
5322 Clear 18 1019 29 10000 2.1 130 17:56 04.04.2020
5323 Clear 18 1019 29 10000 2.1 130 17:38 04.04.2020
5324 Clear 18 1020 31 10000 2.6 70 17:18 04.04.2020
5325 Clear 18 1020 38 10000 2.1 0 16:42 04.04.2020
5326 Clear 18 1020 38 10000 2.1 0 16:22 04.04.2020
5327 Clear 18 1020 38 10000 1.5 0 15:56 04.04.2020
5328 Clear 18 1020 27 10000 2.6 140 15:38 04.04.2020
5329 Clear 18 1021 36 10000 2.1 190 15:19 04.04.2020
5330 Clear 17 1021 36 10000 2.1 0 14:43 04.04.2020
5331 Clear 17 1021 33 10000 2.1 0 14:23 04.04.2020
5332 Clear 17 1021 33 10000 2.1 0 13:56 04.04.2020
5333 Clear 17 1022 33 10000 2.1 0 13:38 04.04.2020
5334 Clear 16 1022 41 10000 2.6 150 13:19 04.04.2020
5335 Clear 16 1022 41 10000 1.5 0 12:45 04.04.2020
5336 Clear 15 1022 41 10000 1.5 120 12:27 04.04.2020
5337 Clear 15 1022 50 10000 1.5 110 11:59 04.04.2020
5338 Clear 15 1022 50 10000 1.5 110 11:39 04.04.2020
5339 Clear 14 1022 58 10000 2.1 150 11:20 04.04.2020
5340 Clear 14 1022 58 10000 2.1 150 11:20 04.04.2020
5341 Clear 14 1022 58 10000 2.1 150 10:56 04.04.2020
5342 Clear 13 1022 58 10000 2.1 150 10:38 04.04.2020
5343 Clear 12 1021 62 10000 1 0 10:19 04.04.2020
5344 Clear 11 1021 61 10000 1 0 09:54 04.04.2020
5345 Clear 10 1021 61 10000 1 0 09:36 04.04.2020
5346 Clear 9 1021 70 10000 1.5 270 09:18 04.04.2020
5347 Clear 7 1020 81 8000 0.5 200 08:41 04.04.2020
5348 Clear 6 1020 86 7000 0.28 13 08:21 04.04.2020
5349 Clear 6 1019 93 7000 0.28 13 07:44 04.04.2020
5350 Clear 5 1019 86 7000 0.5 30 07:26 04.04.2020
5351 Clear 6 1019 86 8000 0.28 13 06:53 04.04.2020
5352 Clear 6 1019 86 10000 0.5 0 06:20 04.04.2020
5353 Clear 6 1019 86 9000 0.5 20 05:42 04.04.2020
5354 Clear 6 1019 86 9000 0.5 20 05:23 04.04.2020
5355 Clear 6 1018 75 10000 0.5 0 04:30 04.04.2020
5356 Clear 7 1018 80 10000 1 320 03:49 04.04.2020
5357 Clear 7 1018 70 10000 1 0 02:51 04.04.2020
5358 Clear 7 1018 80 10000 0.5 340 02:32 04.04.2020
5359 Clear 7 1018 75 10000 1 350 01:55 04.04.2020
5360 Clear 8 1017 65 10000 1 360 01:25 04.04.2020
5361 Clear 8 1017 70 10000 1.5 360 00:48 04.04.2020
5362 Clear 8 1017 70 10000 1.5 360 00:29 04.04.2020
5363 Clear 10 1017 65 10000 1 20 23:40 03.04.2020
5364 Clear 10 1016 61 10000 1 20 23:21 03.04.2020
5365 Clear 10 1016 61 10000 1 20 22:58 03.04.2020
5366 Clear 10 1016 61 10000 0.5 230 22:39 03.04.2020
5367 Clear 11 1016 57 10000 1 160 22:18 03.04.2020
5368 Clear 11 1015 46 10000 2.1 130 21:44 03.04.2020
5369 Clear 12 1015 41 10000 2.1 130 21:24 03.04.2020
5370 Clear 12 1015 41 10000 2.1 130 20:57 03.04.2020
5371 Clear 13 1014 41 10000 2.6 130 20:37 03.04.2020
5372 Clear 14 1014 38 10000 2.6 130 20:19 03.04.2020
5373 Clear 14 1014 38 10000 2.6 130 19:57 03.04.2020
5374 Clear 15 1014 38 10000 3.1 130 19:38 03.04.2020
5375 Clear 15 1013 36 10000 3.1 140 19:20 03.04.2020
5376 Clear 16 1013 36 10000 3.1 120 18:58 03.04.2020
5377 Clear 16 1013 36 10000 3.1 120 18:40 03.04.2020
5378 Clear 16 1013 36 10000 2.1 0 18:22 03.04.2020
5379 Clear 16 1013 33 10000 2.6 180 17:54 03.04.2020
5380 Clear 16 1013 33 10000 2.6 180 17:36 03.04.2020
5381 Clear 16 1013 38 10000 1 0 17:18 03.04.2020
5382 Clear 16 1013 36 10000 2.6 140 16:42 03.04.2020
5383 Clear 16 1014 38 10000 1.5 0 16:21 03.04.2020
5384 Clear 16 1014 38 10000 1.5 0 15:58 03.04.2020
5385 Clear 16 1014 38 10000 1.5 0 15:39 03.04.2020
5386 Clear 16 1014 36 10000 1.5 0 15:20 03.04.2020
5387 Clear 15 1015 35 10000 1.5 0 14:55 03.04.2020
5388 Clear 15 1015 35 10000 1.5 0 14:55 03.04.2020
5389 Clear 15 1015 35 10000 1.5 0 14:37 03.04.2020
5390 Clear 15 1015 35 10000 1.5 0 14:19 03.04.2020
5391 Clear 14 1015 35 10000 1.5 0 13:42 03.04.2020
5392 Clear 14 1015 38 10000 1.5 0 13:24 03.04.2020
5393 Clear 14 1015 37 10000 1.5 0 12:44 03.04.2020
5394 Clear 13 1015 43 10000 1.5 160 12:20 03.04.2020
5395 Clear 12 1015 43 10000 1.5 160 11:57 03.04.2020
5396 Clear 12 1015 43 10000 1.5 160 11:39 03.04.2020
5397 Clear 11 1015 43 10000 1.5 0 11:20 03.04.2020
5398 Clear 11 1015 43 10000 1.5 0 10:59 03.04.2020
5399 Clear 10 1014 53 10000 2.1 140 10:38 03.04.2020
5400 Clear 10 1014 43 10000 2.1 90 10:20 03.04.2020
5401 Clear 9 1014 43 10000 2.1 90 09:59 03.04.2020
5402 Clear 8 1014 61 10000 1.5 80 09:40 03.04.2020
5403 Clear 8 1014 61 10000 1.5 80 09:40 03.04.2020
5404 Clear 7 1014 61 10000 0.5 0 09:21 03.04.2020
5405 Clear 6 1014 61 10000 0.5 360 08:55 03.04.2020
5406 Clear 5 1014 61 10000 0.5 360 08:37 03.04.2020
5407 Clear 5 1014 61 10000 0.5 360 08:37 03.04.2020
5408 Clear 4 1013 61 10000 0.5 0 08:18 03.04.2020
5409 Clear 3 1013 74 10000 0.5 350 07:46 03.04.2020
5410 Clear 3 1013 80 10000 0.5 10 07:27 03.04.2020
5411 Clear 3 1013 61 10000 0.5 0 06:40 03.04.2020
5412 Clear 3 1012 80 10000 0.5 10 06:21 03.04.2020
5413 Clear 3 1012 80 10000 0.5 340 05:34 03.04.2020
5414 Clear 4 1012 61 10000 0.5 50 03:40 03.04.2020
5415 Clear 4 1012 58 10000 0.5 0 02:55 03.04.2020
5416 Clear 5 1012 57 10000 0.5 10 01:53 03.04.2020
5417 Clear 6 1012 65 10000 1 10 01:18 03.04.2020
5418 Clear 6 1012 57 10000 0.5 10 00:34 03.04.2020
5419 Clear 6 1012 65 10000 0.5 40 23:57 02.04.2020
5420 Clear 6 1012 53 10000 0.77 146 23:39 02.04.2020
5421 Clear 7 1012 53 10000 0.5 0 23:19 02.04.2020
5422 Clear 7 1012 53 10000 0.5 0 23:19 02.04.2020
5423 Clear 7 1012 60 10000 0.5 180 22:43 02.04.2020
5424 Clear 8 1012 60 10000 0.5 180 22:25 02.04.2020
5425 Clear 8 1012 53 10000 0.5 190 21:59 02.04.2020
5426 Clear 8 1012 56 10000 0.5 0 21:38 02.04.2020
5427 Clear 9 1012 45 10000 0.5 0 21:19 02.04.2020
5428 Clear 9 1012 37 10000 1 180 20:55 02.04.2020
5429 Clear 10 1012 37 10000 1 180 20:37 02.04.2020
5430 Clear 10 1012 37 10000 1.5 180 20:18 02.04.2020
5431 Clear 11 1012 34 10000 1.5 170 19:42 02.04.2020
5432 Clear 12 1012 35 10000 1.5 160 19:20 02.04.2020
5433 Clear 12 1012 35 10000 1.5 160 18:56 02.04.2020
5434 Clear 13 1012 32 10000 1 0 18:38 02.04.2020
5435 Clear 13 1012 32 10000 2.1 200 18:19 02.04.2020
5436 Clear 13 1012 35 10000 1.5 0 17:44 02.04.2020
5437 Clear 13 1012 35 10000 1.5 0 17:26 02.04.2020
5438 Clear 13 1013 35 10000 1.5 0 16:59 02.04.2020
5439 Clear 13 1013 32 10000 1.5 0 16:40 02.04.2020
5440 Clear 13 1013 32 10000 1.5 0 16:22 02.04.2020
5441 Clear 13 1013 32 10000 1.5 220 15:57 02.04.2020
5442 Clear 12 1014 37 10000 2.6 210 15:39 02.04.2020
5443 Clear 12 1014 37 10000 1 0 15:19 02.04.2020
5444 Clear 12 1014 37 10000 1 0 14:57 02.04.2020
5445 Clear 12 1014 37 10000 2.1 160 14:38 02.04.2020
5446 Clear 12 1015 40 10000 1.5 80 14:18 02.04.2020
5447 Clear 11 1015 43 10000 1.5 0 13:55 02.04.2020
5448 Clear 11 1015 43 10000 1.5 0 13:37 02.04.2020
5449 Clear 11 1016 40 10000 2.1 280 13:18 02.04.2020
5450 Clear 10 1016 43 10000 2.1 0 12:45 02.04.2020
5451 Clear 10 1016 48 10000 1.5 0 12:19 02.04.2020
5452 Clear 9 1016 49 10000 1 0 11:58 02.04.2020
5453 Clear 9 1016 49 10000 1 0 11:58 02.04.2020
5454 Clear 9 1016 49 10000 1 0 11:39 02.04.2020
5455 Clear 9 1016 49 10000 1 0 11:20 02.04.2020
5456 Clear 9 1016 49 10000 1 0 11:20 02.04.2020
5457 Clear 8 1016 49 10000 1 0 10:56 02.04.2020
5458 Clear 8 1016 48 10000 1.5 140 10:38 02.04.2020
5459 Clear 8 1016 48 10000 1.5 140 10:38 02.04.2020
5460 Clear 7 1016 48 10000 1 0 10:20 02.04.2020
5461 Clear 7 1016 48 10000 1 0 09:58 02.04.2020
5462 Clear 6 1016 48 10000 0.5 0 09:39 02.04.2020
5463 Clear 5 1016 67 10000 0.94 209 09:20 02.04.2020
5464 Clear 4 1016 80 10000 0.5 0 08:47 02.04.2020
5465 Clear 3 1016 80 10000 0.5 0 08:27 02.04.2020
5466 Clear 1 1016 67 10000 0.5 260 07:47 02.04.2020
5467 Clear 1 1015 92 10000 2.1 10 07:22 02.04.2020
5468 Clear 1 1016 92 10000 1.5 20 06:59 02.04.2020
5469 Clear 1 1016 86 10000 2.6 20 06:23 02.04.2020
5470 Clear 2 1016 86 10000 2.6 20 05:45 02.04.2020
5471 Clear 2 1016 86 10000 2.6 20 04:47 02.04.2020
5472 Clear 3 1017 86 10000 2.1 20 02:18 02.04.2020
5473 Clear 3 1018 86 10000 1.5 30 00:54 02.04.2020
5474 Clear 3 1018 63 10000 1.5 10 00:31 02.04.2020
5475 Clear 4 1019 60 10000 0.5 190 23:59 01.04.2020
5476 Clear 4 1019 60 10000 0.5 190 23:37 01.04.2020
5477 Clear 5 1019 60 10000 0.5 190 23:18 01.04.2020
5478 Clear 5 1018 60 10000 0.5 200 22:41 01.04.2020
5479 Clear 5 1018 56 10000 1 210 22:22 01.04.2020
5480 Clear 6 1018 56 10000 1 210 21:58 01.04.2020
5481 Clear 6 1018 56 10000 1 210 21:58 01.04.2020
5482 Clear 6 1018 56 10000 2.1 160 21:39 01.04.2020
5483 Clear 6 1018 48 10000 2.6 150 21:19 01.04.2020
5484 Clear 6 1018 48 10000 2.6 150 21:19 01.04.2020
5485 Clear 7 1018 48 10000 2.6 150 20:55 01.04.2020
5486 Clear 7 1018 48 10000 2.1 160 20:37 01.04.2020
5487 Clear 7 1018 45 10000 2.1 130 20:18 01.04.2020
5488 Clear 8 1018 45 10000 2.1 170 19:43 01.04.2020
5489 Clear 9 1018 39 10000 2.1 120 19:22 01.04.2020
5490 Clear 9 1018 39 10000 2.1 120 18:59 01.04.2020
5491 Clear 9 1018 39 10000 2.1 120 18:59 01.04.2020
5492 Clear 9 1018 39 10000 2.1 120 18:59 01.04.2020
5493 Clear 9 1018 39 10000 2.1 120 18:59 01.04.2020
5494 Clear 9 1018 39 10000 2.6 90 18:40 01.04.2020
5495 Clouds 10 1019 37 10000 1.5 80 18:21 01.04.2020
5496 Clouds 10 1019 37 10000 1.5 80 17:56 01.04.2020
5497 Clouds 10 1019 39 10000 2.1 30 17:56 01.04.2020
5498 Clouds 10 1019 39 10000 2.1 30 17:36 01.04.2020
5499 Clouds 10 1019 39 10000 2.1 80 17:18 01.04.2020
5500 Clouds 10 1019 39 10000 1 0 16:43 01.04.2020
5501 Clouds 10 1019 39 10000 1 0 16:43 01.04.2020
5502 Clouds 10 1019 39 10000 1 0 16:25 01.04.2020
5503 Clouds 9 1020 39 10000 3.6 110 15:59 01.04.2020
5504 Clouds 9 1020 42 10000 2.1 100 15:41 01.04.2020
5505 Clouds 9 1021 42 10000 2.1 0 15:22 01.04.2020
5506 Clouds 9 1021 42 10000 3.6 0 14:58 01.04.2020
5507 Clouds 9 1021 42 10000 3.6 0 14:39 01.04.2020
5508 Clouds 9 1021 42 10000 3.1 90 14:20 01.04.2020
5509 Clouds 9 1021 42 10000 3.1 90 13:58 01.04.2020
5510 Clouds 9 1022 39 10000 3.1 100 13:38 01.04.2020
5511 Clouds 8 1022 39 10000 2.1 180 13:19 01.04.2020
5512 Clouds 8 1022 42 10000 3.6 110 12:56 01.04.2020
5513 Clouds 8 1022 42 10000 3.6 110 12:36 01.04.2020
5514 Clouds 8 1023 42 10000 3.6 140 12:18 01.04.2020
5515 Clouds 7 1023 42 10000 3.1 140 11:44 01.04.2020
5516 Clouds 7 1023 45 10000 2.6 130 11:24 01.04.2020
5517 Clouds 6 1023 45 10000 3.1 120 10:59 01.04.2020
5518 Clouds 6 1023 45 10000 3.1 120 10:38 01.04.2020
5519 Clouds 6 1023 52 10000 2.6 120 10:19 01.04.2020
5520 Clouds 6 1023 52 10000 2.6 120 09:57 01.04.2020
5521 Clouds 6 1023 52 10000 2.6 120 09:57 01.04.2020
5522 Clouds 5 1023 60 10000 2.6 140 09:38 01.04.2020
5523 Clouds 5 1023 60 10000 2.6 120 09:18 01.04.2020
5524 Clouds 4 1023 65 10000 2.6 120 08:40 01.04.2020
5525 Clouds 4 1023 66 10000 2.1 110 08:18 01.04.2020
5526 Clouds 4 1023 66 10000 1.5 100 07:43 01.04.2020
5527 Clouds 4 1023 66 10000 2.1 130 07:21 01.04.2020
5528 Clouds 4 1022 66 10000 1 0 06:48 01.04.2020
5529 Clouds 4 1023 65 10000 1.5 10 06:24 01.04.2020
5530 Clouds 4 1023 65 10000 1.5 10 05:56 01.04.2020
5531 Clouds 3 1023 65 10000 1 350 04:32 01.04.2020
5532 Clouds 3 1023 65 10000 0.5 10 03:30 01.04.2020
5533 Clouds 4 1024 74 10000 1.5 360 02:49 01.04.2020
5534 Clouds 4 1024 69 10000 1.5 350 01:57 01.04.2020
5535 Clouds 4 1024 69 10000 2.1 360 01:38 01.04.2020
5536 Clouds 4 1024 80 10000 1.5 350 01:18 01.04.2020
5537 Clouds 4 1024 80 10000 1 340 00:45 01.04.2020
5538 Clouds 4 1024 80 10000 1 340 00:20 01.04.2020
5539 Clouds 4 1024 64 10000 1.5 20 23:42 31.03.2020
5540 Clouds 4 1023 74 10000 0.5 0 23:23 31.03.2020
5541 Clouds 4 1023 74 10000 0.5 0 23:23 31.03.2020
5542 Clouds 5 1023 74 10000 1 10 22:58 31.03.2020
5543 Clouds 5 1023 74 10000 1 10 22:37 31.03.2020
5544 Clouds 5 1023 64 10000 1 20 22:19 31.03.2020
5545 Clouds 5 1023 60 10000 1 40 21:56 31.03.2020
5546 Clouds 5 1023 60 10000 1 40 21:37 31.03.2020
5547 Clouds 6 1022 52 10000 1.5 50 21:19 31.03.2020
5548 Clouds 6 1022 48 10000 2.1 70 20:55 31.03.2020
5549 Clouds 6 1021 48 10000 2.6 60 20:36 31.03.2020
5550 Clouds 6 1021 48 10000 2.6 60 20:18 31.03.2020
5551 Clouds 7 1021 45 10000 2.1 70 19:41 31.03.2020
5552 Clouds 8 1021 45 10000 3.1 60 19:22 31.03.2020
5553 Clouds 8 1021 45 10000 4.1 80 18:56 31.03.2020
5554 Clouds 8 1021 45 10000 4.1 80 18:37 31.03.2020
5555 Clouds 8 1021 45 10000 4.1 90 18:18 31.03.2020
5556 Clouds 8 1021 45 10000 4.1 90 17:54 31.03.2020
5557 Clouds 8 1021 45 10000 4.1 90 17:36 31.03.2020
5558 Clouds 8 1021 45 10000 4.1 90 17:36 31.03.2020
5559 Clouds 8 1021 39 10000 4.1 80 17:18 31.03.2020
5560 Clouds 8 1022 42 10000 3.6 120 16:39 31.03.2020
5561 Clouds 8 1022 42 10000 3.6 100 16:19 31.03.2020
5562 Clouds 8 1022 42 10000 3.6 100 15:57 31.03.2020
5563 Clouds 8 1022 45 10000 3.6 90 15:39 31.03.2020
5564 Clouds 8 1023 45 10000 3.6 90 15:20 31.03.2020
5565 Clouds 8 1023 45 10000 4.6 100 14:57 31.03.2020
5566 Clouds 7 1023 45 10000 4.6 100 14:38 31.03.2020
5567 Clouds 7 1023 49 10000 5.1 130 14:20 31.03.2020
5568 Clouds 7 1023 45 10000 5.7 130 13:42 31.03.2020
5569 Clouds 6 1023 48 10000 5.1 100 13:19 31.03.2020
5570 Clouds 6 1023 48 10000 5.1 100 12:55 31.03.2020
5571 Clouds 6 1023 52 10000 5.7 100 12:37 31.03.2020
5572 Clouds 6 1023 55 10000 4.1 90 12:18 31.03.2020
5573 Clouds 5 1023 55 10000 4.1 100 11:39 31.03.2020
5574 Clouds 5 1023 70 10000 3.6 90 11:20 31.03.2020
5575 Clouds 5 1022 75 10000 3.6 90 10:58 31.03.2020
5576 Clouds 5 1022 75 10000 3.6 90 10:39 31.03.2020
5577 Clouds 5 1022 75 10000 3.6 90 10:21 31.03.2020
5578 Clouds 4 1022 80 10000 3.1 70 09:56 31.03.2020
5579 Clouds 4 1022 80 10000 3.1 70 09:37 31.03.2020
5580 Clouds 4 1022 80 10000 3.1 70 09:37 31.03.2020
5581 Clouds 4 1022 80 10000 3.1 70 09:37 31.03.2020
5582 Clouds 4 1022 80 10000 2.6 70 09:19 31.03.2020
5583 Clouds 4 1021 80 10000 2.6 80 08:55 31.03.2020
5584 Clouds 4 1021 80 10000 2.6 80 08:37 31.03.2020
5585 Clouds 4 1021 86 10000 3.6 70 08:18 31.03.2020
5586 Clouds 4 1021 86 10000 3.6 70 08:18 31.03.2020
5587 Clouds 4 1021 86 10000 3.6 80 07:44 31.03.2020
5588 Clouds 4 1021 86 10000 3.6 80 07:44 31.03.2020
5589 Snow 4 1021 86 10000 4.1 80 07:25 31.03.2020
5590 Snow 4 1020 86 10000 5.1 90 06:59 31.03.2020
5591 Snow 4 1020 86 10000 5.1 90 06:41 31.03.2020
5592 Rain 4 1020 93 10000 5.7 110 05:44 31.03.2020
5593 Rain 4 1020 93 10000 5.7 120 05:24 31.03.2020
5594 Drizzle 5 1020 86 10000 6.2 130 02:56 31.03.2020
5595 Rain 6 1019 87 10000 8.7 130 01:47 31.03.2020
5596 Rain 6 1019 93 10000 7.2 120 01:22 31.03.2020
5597 Rain 6 1018 87 10000 7.7 120 00:43 31.03.2020
5598 Rain 7 1018 81 10000 8.2 120 00:23 31.03.2020
5599 Drizzle 7 1017 75 10000 8.2 120 23:40 30.03.2020
5600 Rain 8 1017 66 10000 6.7 110 23:20 30.03.2020
5601 Rain 8 1017 66 10000 6.7 110 23:20 30.03.2020
5602 Rain 8 1017 66 10000 6.7 110 22:58 30.03.2020
5603 Rain 8 1016 66 10000 6.2 120 22:38 30.03.2020
5604 Rain 9 1016 66 10000 5.1 110 22:19 30.03.2020
5605 Rain 9 1015 66 10000 5.1 100 21:57 30.03.2020
5606 Rain 9 1015 66 10000 5.1 100 21:38 30.03.2020
5607 Rain 9 1015 62 10000 4.6 110 21:20 30.03.2020
5608 Rain 9 1015 62 10000 4.6 110 20:58 30.03.2020
5609 Rain 9 1014 62 10000 5.1 120 20:38 30.03.2020
5610 Rain 9 1014 66 10000 3.1 110 20:19 30.03.2020
5611 Rain 10 1014 66 10000 3.6 120 19:42 30.03.2020
5612 Rain 10 1014 66 10000 3.6 120 19:23 30.03.2020
5613 Rain 10 1014 62 10000 4.6 110 18:59 30.03.2020
5614 Rain 10 1013 62 10000 4.6 130 18:41 30.03.2020
5615 Rain 10 1013 62 10000 3.6 100 18:22 30.03.2020
5616 Rain 10 1013 62 10000 3.6 100 17:57 30.03.2020
5617 Rain 10 1013 62 10000 4.1 110 17:39 30.03.2020
5618 Rain 10 1013 62 10000 4.1 110 17:39 30.03.2020
5619 Clouds 10 1013 54 10000 4.1 110 17:19 30.03.2020
5620 Clouds 10 1013 54 10000 4.1 110 16:57 30.03.2020
5621 Rain 10 1013 54 10000 4.1 90 16:38 30.03.2020
5622 Clouds 10 1013 51 10000 5.7 110 16:20 30.03.2020
5623 Clouds 10 1013 51 10000 6.2 110 15:55 30.03.2020
5624 Clouds 10 1013 51 10000 6.2 110 15:36 30.03.2020
5625 Clouds 11 1013 51 10000 5.7 120 15:18 30.03.2020
5626 Clouds 10 1013 51 10000 5.7 120 14:54 30.03.2020
5627 Clouds 11 1013 54 10000 6.7 110 14:36 30.03.2020
5628 Clouds 11 1013 54 10000 6.2 120 14:18 30.03.2020
5629 Clouds 11 1014 54 10000 6.7 130 13:43 30.03.2020
5630 Clouds 11 1014 58 10000 6.2 110 13:21 30.03.2020
5631 Clouds 12 1014 58 10000 6.2 110 12:57 30.03.2020
5632 Clouds 12 1014 58 10000 6.2 110 12:38 30.03.2020
5633 Clouds 12 1014 58 10000 6.2 110 12:38 30.03.2020
5634 Clouds 12 1014 62 10000 6.7 110 12:19 30.03.2020
5635 Clouds 12 1014 62 10000 5.1 140 11:56 30.03.2020
5636 Clouds 12 1014 62 10000 5.1 140 11:38 30.03.2020
5637 Clouds 12 1014 66 10000 4.6 130 11:20 30.03.2020
5638 Clouds 12 1014 67 10000 2.6 140 10:39 30.03.2020
5639 Clouds 11 1013 76 10000 2.1 90 10:21 30.03.2020
5640 Clouds 11 1013 76 10000 2.1 90 09:55 30.03.2020
5641 Clouds 11 1013 76 10000 2.1 50 09:37 30.03.2020
5642 Rain 11 1013 76 10000 1 0 09:18 30.03.2020
5643 Clouds 10 1012 76 10000 1.5 60 08:40 30.03.2020
5644 Clouds 10 1012 81 10000 2.1 50 08:22 30.03.2020
5645 Clouds 9 1012 87 10000 1.5 50 07:49 30.03.2020
5646 Rain 9 1012 87 10000 1.5 70 07:26 30.03.2020
5647 Rain 9 1011 87 10000 2.1 30 06:54 30.03.2020
5648 Rain 10 1011 87 10000 2.1 30 06:31 30.03.2020
5649 Clouds 10 1011 87 10000 2.6 20 05:52 30.03.2020
5650 Clouds 10 1012 87 10000 2.1 350 05:18 30.03.2020
5651 Clouds 10 1011 87 10000 1.5 330 04:22 30.03.2020
5652 Clouds 10 1011 87 10000 3.1 10 03:34 30.03.2020
5653 Rain 11 1011 81 10000 3.1 360 02:37 30.03.2020
5654 Rain 11 1011 81 10000 2.1 350 01:26 30.03.2020
5655 Rain 12 1011 71 10000 4.6 70 00:33 30.03.2020
5656 Rain 13 1011 58 10000 2.1 300 23:59 29.03.2020
5657 Rain 13 1011 58 10000 2.1 300 23:41 29.03.2020
5658 Clouds 13 1011 54 10000 3.1 70 23:22 29.03.2020
5659 Clouds 13 1011 54 10000 3.1 70 22:56 29.03.2020
5660 Clouds 13 1010 54 10000 2.6 60 22:37 29.03.2020
5661 Clouds 13 1010 54 10000 2.1 50 22:18 29.03.2020
5662 Clouds 14 1010 51 10000 3.6 50 21:40 29.03.2020
5663 Clouds 14 1010 51 10000 3.6 70 21:21 29.03.2020
5664 Clouds 14 1010 51 10000 3.6 70 20:56 29.03.2020
5665 Clouds 14 1010 51 10000 3.6 70 20:38 29.03.2020
5666 Clouds 15 1010 51 10000 3.1 60 20:19 29.03.2020
5667 Clouds 15 1010 51 10000 3.1 60 19:59 29.03.2020
5668 Clouds 15 1010 48 10000 3.6 60 19:41 29.03.2020
5669 Clouds 16 1010 36 10000 2.6 80 19:23 29.03.2020
5670 Clouds 16 1010 39 10000 2.6 90 18:57 29.03.2020
5671 Clouds 17 1010 39 10000 2.6 90 18:38 29.03.2020
5672 Clouds 17 1010 42 10000 2.6 150 18:20 29.03.2020
5673 Clouds 17 1010 37 10000 3.1 120 17:56 29.03.2020
5674 Clouds 17 1010 37 10000 3.1 120 17:38 29.03.2020
5675 Clouds 17 1010 39 10000 2.1 140 17:19 29.03.2020
5676 Clouds 18 1010 39 10000 2.1 140 16:56 29.03.2020
5677 Clouds 18 1010 39 10000 2.6 0 16:38 29.03.2020
5678 Clouds 17 1010 42 10000 2.1 0 16:19 29.03.2020
5679 Clouds 18 1011 45 10000 2.6 190 15:42 29.03.2020
5680 Clouds 18 1011 42 10000 2.1 180 15:24 29.03.2020
5681 Clouds 17 1011 42 10000 2.1 180 14:58 29.03.2020
5682 Clouds 18 1011 48 10000 2.6 190 14:40 29.03.2020
5683 Clouds 17 1012 48 10000 3.1 130 14:20 29.03.2020
5684 Clouds 17 1012 48 10000 2.6 100 13:58 29.03.2020
5685 Clouds 17 1012 48 10000 2.6 100 13:39 29.03.2020
5686 Clouds 16 1012 51 10000 1 0 13:20 29.03.2020
5687 Clouds 16 1012 51 10000 1 0 12:55 29.03.2020
5688 Clouds 16 1013 51 10000 1 0 12:37 29.03.2020
5689 Clouds 16 1013 51 10000 1 0 12:19 29.03.2020
5690 Clouds 15 1013 55 10000 1.5 170 11:55 29.03.2020
5691 Clouds 15 1013 55 10000 1.5 170 11:36 29.03.2020
5692 Clouds 14 1013 54 10000 1 0 11:18 29.03.2020
5693 Clouds 14 1013 58 10000 0.5 0 10:38 29.03.2020
5694 Clouds 13 1013 62 10000 0.5 0 10:18 29.03.2020
5695 Clouds 13 1013 62 10000 0.5 0 10:18 29.03.2020
5696 Clouds 11 1013 66 10000 0.5 0 09:41 29.03.2020
5697 Clouds 11 1013 66 10000 0.5 0 09:41 29.03.2020
5698 Clouds 11 1013 71 10000 0.5 0 09:20 29.03.2020
5699 Clouds 10 1013 71 10000 0.5 0 08:54 29.03.2020
5700 Clouds 10 1013 71 10000 0.5 0 08:54 29.03.2020
5701 Clouds 10 1013 81 10000 1 0 08:30 29.03.2020
5702 Clouds 9 1013 81 10000 1 0 07:59 29.03.2020
5703 Clouds 9 1013 87 10000 1 260 07:41 29.03.2020
5704 Clouds 9 1012 81 10000 2.1 150 07:20 29.03.2020
5705 Clouds 9 1013 81 10000 1 360 05:41 29.03.2020
5706 Clouds 9 1013 81 10000 0.5 350 03:58 29.03.2020
5707 Clouds 9 1013 81 10000 0.5 0 03:28 29.03.2020
5708 Clouds 9 1014 76 10000 1 350 01:51 29.03.2020
5709 Clouds 10 1014 81 10000 1.5 10 01:23 29.03.2020
5710 Clouds 10 1013 75 10000 1.5 360 00:55 29.03.2020
5711 Clouds 10 1013 75 10000 1.5 360 00:31 29.03.2020
5712 Clouds 11 1013 75 10000 2.1 20 23:43 28.03.2020
5713 Clouds 11 1013 75 10000 2.1 20 23:43 28.03.2020
5714 Clouds 11 1013 76 10000 0.5 0 23:24 28.03.2020
5715 Clouds 11 1013 71 10000 0.5 0 22:58 28.03.2020
5716 Clouds 11 1013 71 10000 0.5 0 22:38 28.03.2020
5717 Clouds 11 1013 71 10000 0.5 0 22:20 28.03.2020
5718 Clouds 12 1013 66 10000 1 20 21:43 28.03.2020
5719 Clouds 12 1013 66 10000 0.5 0 21:24 28.03.2020
5720 Clouds 13 1013 62 10000 0.5 0 20:59 28.03.2020
5721 Clear 13 1013 62 10000 0.5 0 20:41 28.03.2020
5722 Clouds 13 1013 58 10000 0.5 190 20:23 28.03.2020
5723 Clouds 14 1013 47 10000 1.5 180 19:57 28.03.2020
5724 Clouds 14 1013 47 10000 1.5 180 19:38 28.03.2020
5725 Clouds 15 1012 44 10000 1.5 180 19:20 28.03.2020
5726 Clouds 16 1012 48 10000 1.5 180 18:56 28.03.2020
5727 Clouds 16 1012 48 10000 1.5 180 18:38 28.03.2020
5728 Clouds 16 1012 48 10000 1.5 180 18:38 28.03.2020
5729 Clouds 17 1012 45 10000 1.5 0 18:19 28.03.2020
5730 Clouds 18 1012 39 10000 2.1 200 17:38 28.03.2020
5731 Clouds 18 1012 37 10000 1.5 0 17:20 28.03.2020
5732 Clouds 18 1012 37 10000 1.5 270 16:42 28.03.2020
5733 Clouds 18 1013 39 10000 1.5 160 16:20 28.03.2020
5734 Clouds 18 1013 39 10000 1.5 160 15:57 28.03.2020
5735 Clouds 18 1013 39 10000 2.6 220 15:39 28.03.2020
5736 Clouds 18 1013 39 10000 1.5 0 15:19 28.03.2020
5737 Clouds 18 1014 36 10000 2.1 0 14:43 28.03.2020
5738 Clouds 18 1014 42 10000 2.1 0 14:23 28.03.2020
5739 Clouds 18 1014 42 10000 2.1 0 13:57 28.03.2020
5740 Clouds 17 1014 45 10000 2.1 0 13:37 28.03.2020
5741 Clouds 17 1015 42 10000 1.5 0 13:18 28.03.2020
5742 Clouds 17 1015 48 10000 3.1 0 12:38 28.03.2020
5743 Clouds 16 1015 44 10000 2.6 250 12:19 28.03.2020
5744 Clouds 16 1015 44 10000 1.5 240 11:42 28.03.2020
5745 Clouds 16 1015 44 10000 1.5 240 11:42 28.03.2020
5746 Clear 15 1016 51 10000 1.5 0 11:21 28.03.2020
5747 Clear 15 1016 58 10000 1.5 210 10:44 28.03.2020
5748 Clear 14 1016 58 10000 1 0 10:25 28.03.2020
5749 Clear 14 1016 58 10000 1 0 09:59 28.03.2020
5750 Clear 13 1016 66 10000 1.5 250 09:40 28.03.2020
5751 Clear 12 1016 71 10000 1 0 09:21 28.03.2020
5752 Clear 11 1016 71 10000 1 0 08:43 28.03.2020
5753 Clouds 10 1016 81 10000 1 0 08:24 28.03.2020
5754 Clouds 9 1016 81 10000 1 0 07:53 28.03.2020
5755 Clouds 8 1016 81 10000 1.5 250 07:35 28.03.2020
5756 Clouds 7 1016 81 10000 2.1 260 06:52 28.03.2020
5757 Clouds 8 1016 76 10000 1.5 240 06:23 28.03.2020
5758 Clouds 8 1016 76 10000 1 0 05:30 28.03.2020
5759 Clouds 8 1016 81 10000 1 210 04:53 28.03.2020
5760 Clouds 8 1016 81 10000 1 210 04:35 28.03.2020
5761 Clouds 9 1017 71 10000 2.1 350 02:51 28.03.2020
5762 Clouds 9 1018 71 10000 2.1 360 01:47 28.03.2020
5763 Clouds 9 1018 71 10000 1.5 350 01:23 28.03.2020
5764 Clouds 9 1018 66 10000 2.6 340 00:49 28.03.2020
5765 Clouds 9 1018 71 10000 2.1 340 00:24 28.03.2020
5766 Clouds 9 1018 81 10000 0.5 0 23:44 27.03.2020
5767 Clouds 9 1018 81 10000 0.5 280 23:25 27.03.2020
5768 Clouds 9 1018 81 10000 0.5 280 22:57 27.03.2020
5769 Clouds 9 1018 76 10000 1 200 22:39 27.03.2020
5770 Clouds 10 1018 71 10000 1 170 22:20 27.03.2020
5771 Clouds 10 1018 71 10000 1 170 21:57 27.03.2020
5772 Clouds 10 1018 66 10000 2.1 300 21:38 27.03.2020
5773 Clouds 10 1018 66 10000 1 200 21:20 27.03.2020
5774 Clouds 10 1017 62 10000 1 0 20:55 27.03.2020
5775 Clouds 10 1017 62 10000 1 0 20:55 27.03.2020
5776 Clouds 10 1017 62 10000 1 0 20:37 27.03.2020
5777 Clouds 10 1017 62 10000 1.5 240 20:18 27.03.2020
5778 Clouds 11 1017 62 10000 2.1 210 19:42 27.03.2020
5779 Clouds 11 1016 54 10000 2.1 220 19:23 27.03.2020
5780 Clouds 11 1016 57 10000 2.6 190 18:56 27.03.2020
5781 Clouds 11 1016 57 10000 2.6 190 18:38 27.03.2020
5782 Clouds 11 1016 57 10000 2.6 190 18:38 27.03.2020
5783 Clouds 11 1016 58 10000 2.1 180 18:19 27.03.2020
5784 Clouds 12 1016 54 10000 2.1 180 17:40 27.03.2020
5785 Clouds 12 1016 58 10000 2.1 180 17:20 27.03.2020
5786 Clouds 12 1016 54 10000 2.6 170 16:54 27.03.2020
5787 Clouds 12 1016 54 10000 2.6 170 16:36 27.03.2020
5788 Clouds 12 1016 50 10000 2.1 170 16:18 27.03.2020
5789 Clouds 13 1017 50 10000 2.6 180 15:42 27.03.2020
5790 Clouds 13 1017 47 10000 3.1 120 15:24 27.03.2020
5791 Clouds 13 1017 50 10000 3.1 120 14:46 27.03.2020
5792 Clouds 13 1017 47 10000 2.6 150 14:25 27.03.2020
5793 Clouds 13 1017 47 10000 2.6 150 13:57 27.03.2020
5794 Clouds 13 1017 47 10000 2.6 110 13:37 27.03.2020
5795 Clouds 13 1017 43 10000 1.5 0 13:19 27.03.2020
5796 Clouds 13 1017 41 10000 2.6 0 12:55 27.03.2020
5797 Clouds 13 1017 41 10000 2.6 0 12:37 27.03.2020
5798 Clouds 13 1017 41 10000 2.1 280 12:18 27.03.2020
5799 Clouds 13 1017 41 10000 1 0 11:41 27.03.2020
5800 Clouds 12 1017 46 10000 2.1 30 11:22 27.03.2020
5801 Clouds 12 1017 50 10000 2.1 10 10:54 27.03.2020
5802 Clouds 11 1017 50 10000 2.1 10 10:36 27.03.2020
5803 Clouds 11 1017 53 10000 2.6 360 10:18 27.03.2020
5804 Clouds 10 1017 53 10000 2.6 360 09:56 27.03.2020
5805 Clouds 10 1016 53 10000 3.6 360 09:37 27.03.2020
5806 Clouds 10 1016 57 10000 3.6 350 09:18 27.03.2020
5807 Clouds 9 1016 45 10000 3.6 340 08:54 27.03.2020
5808 Clouds 9 1016 45 10000 3.6 340 08:36 27.03.2020
5809 Clouds 8 1016 59 10000 2.6 330 08:18 27.03.2020
5810 Clouds 8 1016 59 10000 2.6 350 07:43 27.03.2020
5811 Clouds 7 1016 52 10000 3.1 340 07:21 27.03.2020
5812 Clouds 6 1015 56 10000 2.1 350 06:41 27.03.2020
5813 Clouds 6 1017 37 0 1.79 347 06:18 27.03.2020
5814 Clouds 6 1015 56 10000 2.6 330 03:42 27.03.2020
5815 Clouds 6 1016 56 10000 2.1 330 02:25 27.03.2020
5816 Clouds 6 1017 56 10000 2.1 350 01:21 27.03.2020
5817 Clouds 6 1017 52 10000 3.1 350 00:45 27.03.2020
5818 Clouds 6 1017 56 10000 3.1 340 00:20 27.03.2020
5819 Clouds 6 1017 56 10000 2.1 340 23:42 26.03.2020
5820 Clouds 5 1017 56 10000 1.5 340 23:19 26.03.2020
5821 Clouds 5 1017 56 10000 2.1 20 22:57 26.03.2020
5822 Clouds 5 1017 56 10000 2.1 20 22:36 26.03.2020
5823 Clouds 5 1017 61 10000 2.1 360 22:18 26.03.2020
5824 Clouds 6 1017 61 10000 1 0 21:40 26.03.2020
5825 Clouds 6 1017 70 10000 1 280 21:22 26.03.2020
5826 Clouds 6 1017 70 10000 1 280 20:59 26.03.2020
5827 Clouds 5 1017 70 10000 1 0 20:39 26.03.2020
5828 Clouds 5 1017 70 10000 1 0 20:21 26.03.2020
5829 Clouds 5 1016 75 10000 2.1 190 19:58 26.03.2020
5830 Clouds 6 1016 70 10000 3.1 190 19:40 26.03.2020
5831 Clouds 6 1016 59 10000 2.6 210 19:21 26.03.2020
5832 Clouds 6 1016 59 10000 2.6 210 18:58 26.03.2020
5833 Clouds 6 1015 59 10000 2.6 220 18:40 26.03.2020
5834 Clouds 6 1015 59 10000 2.6 220 18:21 26.03.2020
5835 Clouds 6 1015 60 10000 2.6 200 17:44 26.03.2020
5836 Clouds 6 1015 60 10000 2.6 200 17:44 26.03.2020
5837 Clouds 7 1015 56 10000 2.1 200 17:20 26.03.2020
5838 Clouds 7 1015 52 10000 2.1 230 16:57 26.03.2020
5839 Clouds 7 1015 52 10000 2.1 230 16:38 26.03.2020
5840 Clouds 7 1015 52 10000 2.1 230 16:38 26.03.2020
5841 Clouds 7 1015 48 10000 2.1 180 16:19 26.03.2020
5842 Clouds 7 1015 48 10000 2.6 200 15:54 26.03.2020
5843 Clouds 7 1015 48 10000 2.6 200 15:36 26.03.2020
5844 Clouds 7 1015 48 10000 2.6 170 15:18 26.03.2020
5845 Clouds 7 1015 48 10000 2.6 170 14:42 26.03.2020
5846 Clouds 7 1016 45 10000 2.1 170 14:24 26.03.2020
5847 Clouds 7 1016 45 10000 2.1 190 13:54 26.03.2020
5848 Clouds 7 1016 45 10000 2.1 190 13:36 26.03.2020
5849 Clouds 7 1016 42 10000 1 0 13:18 26.03.2020
5850 Clouds 7 1016 42 10000 1 0 12:38 26.03.2020
5851 Clouds 7 1016 42 10000 1 0 12:38 26.03.2020
5852 Clouds 7 1016 45 10000 0.5 0 12:20 26.03.2020
5853 Clouds 6 1016 45 10000 1 0 11:46 26.03.2020
5854 Clouds 6 1016 48 10000 0.5 0 11:22 26.03.2020
5855 Clouds 6 1016 48 10000 1 0 10:57 26.03.2020
5856 Clouds 6 1016 48 10000 1 0 10:38 26.03.2020
5857 Clouds 6 1016 48 10000 0.5 0 10:19 26.03.2020
5858 Clouds 5 1016 48 10000 2.1 300 09:44 26.03.2020
5859 Clouds 5 1016 48 10000 2.6 330 09:21 26.03.2020
5860 Clouds 5 1016 48 10000 2.6 330 08:56 26.03.2020
5861 Clouds 4 1016 55 10000 0.5 0 08:37 26.03.2020
5862 Clouds 3 1016 55 10000 0.5 0 08:19 26.03.2020
5863 Clouds 3 1016 69 10000 1 0 07:44 26.03.2020
5864 Clouds 2 1016 69 10000 1 290 07:22 26.03.2020
5865 Clouds 2 1016 64 10000 1.75 286 06:56 26.03.2020
5866 Clouds 3 1016 59 10000 0.5 0 05:59 26.03.2020
5867 Clouds 3 1017 59 10000 1 0 04:33 26.03.2020
5868 Clouds 2 1017 64 10000 1.5 30 03:44 26.03.2020
5869 Clouds 2 1018 55 10000 2.1 120 02:55 26.03.2020
5870 Clouds 3 1018 51 10000 2.1 120 01:50 26.03.2020
5871 Clouds 3 1019 51 10000 2.1 90 00:53 26.03.2020
5872 Clouds 4 1019 51 10000 3.1 120 00:20 26.03.2020
5873 Clouds 4 1019 48 10000 2.6 120 23:40 25.03.2020
5874 Clouds 4 1020 48 10000 3.1 110 23:20 25.03.2020
5875 Clouds 4 1020 44 10000 4.1 130 22:40 25.03.2020
5876 Clouds 5 1020 41 10000 4.6 120 22:21 25.03.2020
5877 Clouds 5 1020 41 10000 4.6 120 21:56 25.03.2020
5878 Clouds 5 1020 60 10000 1.5 80 21:37 25.03.2020
5879 Clouds 5 1020 65 10000 3.1 50 21:19 25.03.2020
5880 Clouds 5 1020 65 10000 3.1 50 20:55 25.03.2020
5881 Clouds 6 1020 56 10000 3.6 50 20:37 25.03.2020
5882 Clouds 6 1019 45 10000 3.1 80 20:18 25.03.2020
5883 Clouds 6 1019 42 10000 3.1 110 19:42 25.03.2020
5884 Clouds 7 1019 42 10000 3.1 90 19:22 25.03.2020
5885 Clouds 6 1019 42 10000 3.1 90 18:57 25.03.2020
5886 Clouds 6 1019 42 10000 3.6 90 18:38 25.03.2020
5887 Rain 7 1019 42 10000 5.1 100 18:19 25.03.2020
5888 Rain 7 1019 42 10000 5.7 140 17:54 25.03.2020
5889 Rain 7 1019 42 10000 5.7 140 17:36 25.03.2020
5890 Rain 7 1019 39 10000 5.1 110 17:18 25.03.2020
5891 Clouds 8 1018 34 10000 4.6 120 16:41 25.03.2020
5892 Clouds 8 1019 36 10000 3.6 120 16:22 25.03.2020
5893 Clouds 8 1019 36 10000 3.6 120 15:57 25.03.2020
5894 Clouds 8 1019 42 10000 2.1 0 15:37 25.03.2020
5895 Clouds 8 1019 45 10000 2.6 360 15:18 25.03.2020
5896 Clouds 9 1019 45 10000 2.6 360 15:18 25.03.2020
5897 Clouds 7 1020 52 10000 1.5 360 14:41 25.03.2020
5898 Rain 7 1020 56 10000 2.6 350 14:21 25.03.2020
5899 Rain 7 1020 56 10000 2.1 140 13:46 25.03.2020
5900 Rain 7 1020 56 10000 2.1 140 13:26 25.03.2020
5901 Clouds 8 1020 42 10000 2.1 0 12:55 25.03.2020
5902 Clouds 8 1020 45 10000 1 0 12:37 25.03.2020
5903 Clouds 8 1020 45 10000 2.1 0 12:18 25.03.2020
5904 Clouds 8 1021 39 10000 2.1 110 11:41 25.03.2020
5905 Clouds 8 1021 39 10000 1.5 0 11:21 25.03.2020
5906 Clouds 8 1021 39 10000 1.5 0 11:21 25.03.2020
5907 Clouds 8 1021 39 10000 1.5 0 10:59 25.03.2020
5908 Clouds 8 1021 45 10000 2.6 0 10:40 25.03.2020
5909 Clouds 8 1021 49 10000 3.6 350 10:19 25.03.2020
5910 Clouds 8 1021 49 10000 3.6 350 10:19 25.03.2020
5911 Clouds 7 1021 49 10000 3.6 350 09:59 25.03.2020
5912 Clouds 7 1022 52 10000 2.6 360 09:40 25.03.2020
5913 Clouds 6 1022 56 10000 3.1 10 09:21 25.03.2020
5914 Clouds 5 1021 65 10000 2.1 10 08:43 25.03.2020
5915 Clouds 5 1021 65 10000 2.1 10 08:25 25.03.2020
5916 Clouds 5 1021 64 10000 2.6 360 07:58 25.03.2020
5917 Clouds 4 1021 64 10000 2.6 360 07:38 25.03.2020
5918 Clouds 4 1022 64 10000 2.1 360 07:18 25.03.2020
5919 Clouds 4 1022 69 10000 2.6 360 06:43 25.03.2020
5920 Clouds 3 1022 74 10000 2.1 360 06:25 25.03.2020
5921 Clouds 3 1022 74 10000 1 360 05:47 25.03.2020
5922 Clouds 3 1022 69 10000 1.5 30 04:46 25.03.2020
5923 Clouds 4 1023 64 10000 2.6 50 03:58 25.03.2020
5924 Clouds 4 1023 64 10000 2.6 50 03:34 25.03.2020
5925 Clear 4 1024 60 10000 2.1 60 01:41 25.03.2020
5926 Clear 4 1024 60 10000 2.1 60 01:41 25.03.2020
5927 Clear 4 1024 60 10000 2.1 60 01:41 25.03.2020
5928 Clear 5 1024 52 10000 3.6 110 00:51 25.03.2020
5929 Clear 5 1024 52 10000 3.6 110 00:32 25.03.2020
5930 Clear 5 1024 48 10000 4.6 120 23:59 24.03.2020
5931 Clear 6 1024 45 10000 6.2 140 23:40 24.03.2020
5932 Clouds 6 1024 39 10000 4.6 140 23:20 24.03.2020
5933 Clouds 6 1023 39 10000 5.1 140 22:55 24.03.2020
5934 Clouds 6 1023 39 10000 5.1 140 22:36 24.03.2020
5935 Clouds 7 1023 33 10000 5.1 130 22:18 24.03.2020
5936 Clouds 8 1023 33 10000 2.6 130 21:42 24.03.2020
5937 Clear 8 1023 41 10000 1.5 150 21:19 24.03.2020
5938 Clear 8 1023 39 10000 1.5 160 20:59 24.03.2020
5939 Clear 8 1023 39 10000 1.5 160 20:41 24.03.2020
5940 Clear 8 1023 39 10000 2.1 160 20:22 24.03.2020
5941 Clear 9 1022 33 10000 1.5 170 19:48 24.03.2020
5942 Clear 9 1022 33 10000 1.5 170 19:48 24.03.2020
5943 Clear 9 1022 33 10000 2.6 180 19:22 24.03.2020
5944 Clear 9 1022 33 10000 2.6 180 18:59 24.03.2020
5945 Clear 10 1022 31 10000 3.1 190 18:39 24.03.2020
5946 Clear 10 1022 23 10000 2.1 220 18:20 24.03.2020
5947 Clear 11 1022 23 10000 2.1 220 17:58 24.03.2020
5948 Clear 11 1022 25 10000 2.6 220 17:40 24.03.2020
5949 Clear 11 1022 27 10000 2.6 200 17:22 24.03.2020
5950 Clear 11 1023 23 10000 2.6 240 16:56 24.03.2020
5951 Clear 11 1023 23 10000 2.6 240 16:37 24.03.2020
5952 Clear 11 1023 20 10000 1.5 220 16:19 24.03.2020
5953 Clear 11 1023 23 10000 2.1 240 15:42 24.03.2020
5954 Clear 11 1023 23 10000 2.1 240 15:24 24.03.2020
5955 Clear 11 1024 23 10000 1.5 0 14:44 24.03.2020
5956 Clear 11 1024 23 10000 1.5 0 14:44 24.03.2020
5957 Clear 11 1024 23 10000 2.1 270 14:23 24.03.2020
5958 Clear 11 1024 23 10000 2.1 270 13:59 24.03.2020
5959 Clear 11 1025 25 10000 3.1 220 13:40 24.03.2020
5960 Clouds 11 1025 25 10000 2.1 0 13:22 24.03.2020
5961 Clouds 11 1025 31 10000 2.1 230 12:42 24.03.2020
5962 Clouds 10 1025 29 10000 2.6 0 12:24 24.03.2020
5963 Clouds 10 1026 34 10000 1 0 11:42 24.03.2020
5964 Clouds 9 1026 36 10000 1.5 0 11:22 24.03.2020
5965 Clouds 9 1026 36 10000 1.5 0 11:22 24.03.2020
5966 Clouds 8 1026 34 10000 1 0 10:59 24.03.2020
5967 Clouds 8 1026 34 10000 1 0 10:41 24.03.2020
5968 Clouds 7 1026 45 10000 1.5 180 10:18 24.03.2020
5969 Clouds 6 1026 48 10000 0.5 0 09:46 24.03.2020
5970 Clouds 6 1026 48 10000 0.5 0 09:27 24.03.2020
5971 Clouds 5 1026 56 10000 0.5 0 08:57 24.03.2020
5972 Clouds 4 1026 60 10000 0.5 0 08:38 24.03.2020
5973 Clouds 3 1026 69 10000 0.5 0 08:19 24.03.2020
5974 Clouds 2 1026 74 10000 0.5 0 07:44 24.03.2020
5975 Clouds 0 1026 44 10000 1 360 07:22 24.03.2020
5976 Clouds 0 1026 44 10000 1 360 07:22 24.03.2020
5977 Clouds 0 1026 80 10000 1 360 06:42 24.03.2020
5978 Clouds 0 1026 86 10000 1 360 06:21 24.03.2020
5979 Clouds 1 1026 86 10000 1.5 360 04:52 24.03.2020
5980 Clouds 1 1026 38 10000 1.67 127 03:32 24.03.2020
5981 Clouds 2 1027 38 10000 1 10 02:43 24.03.2020
5982 Clouds 3 1027 64 10000 1.5 20 00:57 24.03.2020
5983 Clouds 3 1027 69 10000 1 20 00:28 24.03.2020
5984 Clouds 3 1027 74 10000 1 350 23:58 23.03.2020
5985 Clouds 3 1027 74 10000 0.5 0 23:38 23.03.2020
5986 Clouds 4 1027 59 10000 0.5 0 23:19 23.03.2020
5987 Clouds 4 1027 64 10000 0.5 0 22:44 23.03.2020
5988 Clouds 4 1027 48 10000 1.5 70 22:23 23.03.2020
5989 Clouds 4 1027 48 10000 1.5 70 21:55 23.03.2020
5990 Clouds 4 1026 48 10000 1.5 20 21:37 23.03.2020
5991 Clouds 4 1026 59 10000 2.6 10 21:18 23.03.2020
5992 Clouds 4 1026 59 10000 2.6 10 21:18 23.03.2020
5993 Clouds 4 1026 59 10000 2.1 360 20:44 23.03.2020
5994 Clouds 4 1026 59 10000 2.1 360 20:26 23.03.2020
5995 Clouds 4 1026 55 10000 2.1 40 19:59 23.03.2020
5996 Clouds 5 1026 45 10000 2.1 70 19:41 23.03.2020
5997 Clouds 5 1026 45 10000 2.1 60 19:22 23.03.2020
5998 Clouds 5 1025 45 10000 2.6 90 18:54 23.03.2020
5999 Clouds 5 1025 45 10000 2.6 90 18:36 23.03.2020
6000 Clouds 6 1025 48 10000 2.1 70 18:18 23.03.2020
6001 Clouds 6 1026 48 10000 2.1 50 17:41 23.03.2020
6002 Clouds 6 1026 48 10000 1.5 0 17:20 23.03.2020
6003 Clouds 6 1026 45 10000 2.1 80 16:44 23.03.2020
6004 Clouds 6 1026 45 10000 2.1 80 16:25 23.03.2020
6005 Clouds 6 1026 42 10000 1.5 0 15:59 23.03.2020
6006 Clouds 6 1027 42 10000 1 0 15:39 23.03.2020
6007 Clouds 6 1027 42 10000 1.5 80 15:18 23.03.2020
6008 Clouds 6 1028 45 10000 2.6 80 14:37 23.03.2020
6009 Clouds 6 1028 45 10000 2.6 80 14:37 23.03.2020
6010 Clouds 6 1028 45 10000 2.6 0 14:19 23.03.2020
6011 Clouds 6 1028 45 10000 2.6 110 13:57 23.03.2020
6012 Clouds 6 1028 45 10000 2.6 110 13:38 23.03.2020
6013 Clouds 6 1028 45 10000 2.6 110 13:38 23.03.2020
6014 Clouds 5 1029 45 10000 4.6 120 13:20 23.03.2020
6015 Clouds 5 1029 45 10000 5.7 120 12:43 23.03.2020
6016 Clouds 5 1029 41 10000 6.7 110 12:23 23.03.2020
6017 Clouds 5 1029 41 10000 6.7 120 11:56 23.03.2020
6018 Clouds 5 1029 41 10000 6.7 120 11:37 23.03.2020
6019 Clouds 5 1029 45 10000 7.7 120 11:19 23.03.2020
6020 Clouds 5 1029 45 10000 7.2 120 10:42 23.03.2020
6021 Clouds 4 1029 48 10000 8.7 120 10:23 23.03.2020
6022 Clouds 4 1029 48 10000 8.7 120 09:59 23.03.2020
6023 Clouds 4 1029 48 10000 8.2 110 09:41 23.03.2020
6024 Clouds 4 1028 44 10000 8.7 110 09:19 23.03.2020
6025 Clouds 4 1028 44 10000 7.2 110 08:38 23.03.2020
6026 Clouds 4 1028 44 10000 7.7 110 08:20 23.03.2020
6027 Clouds 4 1027 44 10000 6.7 100 07:52 23.03.2020
6028 Clouds 4 1027 44 10000 6.7 100 07:33 23.03.2020
6029 Clouds 5 1027 48 10000 6.7 100 06:56 23.03.2020
6030 Clouds 5 1027 48 10000 6.7 100 06:34 23.03.2020
6031 Clouds 5 1026 45 10000 6.2 100 05:44 23.03.2020
6032 Snow 6 1025 45 10000 7.7 110 03:54 23.03.2020
6033 Snow 7 1025 42 10000 8.2 110 02:45 23.03.2020
6034 Clouds 8 1024 42 10000 8.7 120 01:50 23.03.2020
6035 Clouds 9 1024 43 10000 6.2 110 00:46 23.03.2020
6036 Clouds 9 1023 46 10000 5.1 100 00:26 23.03.2020
6037 Clouds 9 1023 46 10000 5.1 120 23:42 22.03.2020
6038 Clouds 10 1023 40 10000 5.7 120 23:24 22.03.2020
6039 Clouds 10 1022 53 10000 5.7 120 22:41 22.03.2020
6040 Clouds 10 1022 57 10000 3.6 130 22:20 22.03.2020
6041 Clouds 11 1021 57 10000 4.6 130 21:41 22.03.2020
6042 Clouds 11 1021 54 10000 4.1 120 21:23 22.03.2020
6043 Clouds 11 1021 54 10000 4.1 120 20:58 22.03.2020
6044 Clouds 11 1020 58 10000 1.5 100 20:40 22.03.2020
6045 Clear 11 1020 57 10000 1.5 100 20:22 22.03.2020
6046 Clear 11 1020 57 10000 1.5 100 19:56 22.03.2020
6047 Clear 11 1019 54 10000 2.1 100 19:38 22.03.2020
6048 Clear 11 1019 54 10000 2.1 110 19:19 22.03.2020
6049 Clear 11 1019 54 10000 2.1 110 18:57 22.03.2020
6050 Clear 12 1019 54 10000 2.6 100 18:39 22.03.2020
6051 Clear 12 1019 54 10000 3.6 90 18:18 22.03.2020
6052 Clear 13 1018 50 10000 4.1 90 17:56 22.03.2020
6053 Clear 13 1018 50 10000 4.1 90 17:37 22.03.2020
6054 Clear 13 1018 50 10000 4.1 80 17:19 22.03.2020
6055 Clear 13 1019 50 10000 3.1 80 16:55 22.03.2020
6056 Clear 13 1019 50 10000 3.1 80 16:37 22.03.2020
6057 Clear 13 1019 50 10000 4.6 80 16:18 22.03.2020
6058 Clear 13 1019 54 10000 4.1 70 15:39 22.03.2020
6059 Clouds 13 1019 54 10000 4.1 90 14:55 22.03.2020
6060 Clouds 13 1019 54 10000 4.1 80 14:37 22.03.2020
6061 Clouds 12 1019 50 10000 5.1 100 14:18 22.03.2020
6062 Clouds 12 1019 54 10000 5.1 80 13:41 22.03.2020
6063 Clouds 12 1019 58 10000 5.1 90 13:19 22.03.2020
6064 Clouds 12 1019 62 10000 5.7 110 12:47 22.03.2020
6065 Clouds 11 1019 62 10000 6.2 120 12:23 22.03.2020
6066 Clouds 11 1019 66 10000 5.1 110 11:58 22.03.2020
6067 Clouds 11 1019 66 10000 5.1 110 11:39 22.03.2020
6068 Clouds 11 1019 62 10000 4.6 100 11:21 22.03.2020
6069 Clouds 10 1019 71 10000 3.6 100 10:44 22.03.2020
6070 Clouds 10 1019 71 10000 3.6 100 10:24 22.03.2020
6071 Clouds 10 1018 66 10000 4.1 100 10:24 22.03.2020
6072 Clouds 10 1018 66 10000 4.1 100 10:00 22.03.2020
6073 Clouds 10 1018 66 10000 5.1 100 09:40 22.03.2020
6074 Clouds 10 1018 76 10000 4.1 110 09:19 22.03.2020
6075 Clouds 10 1018 71 10000 6.7 110 08:42 22.03.2020
6076 Clouds 10 1017 81 6000 5.1 100 08:24 22.03.2020
6077 Drizzle 10 1017 87 3000 5.1 100 07:50 22.03.2020
6078 Mist 10 1017 87 4000 4.1 80 07:22 22.03.2020
6079 Mist 10 1016 87 4000 5.1 110 05:57 22.03.2020
6080 Mist 10 1016 87 3600 5.1 110 05:21 22.03.2020
6081 Mist 10 1015 93 4800 2.1 80 03:25 22.03.2020
6082 Mist 11 1015 87 5000 2.1 80 01:26 22.03.2020
6083 Mist 11 1015 87 5000 2.1 80 00:41 22.03.2020
6084 Mist 11 1015 87 5000 2.6 70 00:23 22.03.2020
6085 Mist 12 1015 87 5000 2.6 80 23:42 21.03.2020
6086 Clouds 12 1015 81 10000 2.6 80 23:19 21.03.2020
6087 Clouds 12 1014 81 10000 3.1 80 22:39 21.03.2020
6088 Clouds 12 1014 81 10000 3.1 80 22:39 21.03.2020
6089 Clouds 12 1014 71 10000 3.1 110 22:21 21.03.2020
6090 Clouds 13 1014 71 10000 3.1 110 21:59 21.03.2020
6091 Clouds 13 1014 67 10000 3.1 120 21:41 21.03.2020
6092 Clouds 13 1014 62 10000 3.1 120 21:22 21.03.2020
6093 Clouds 13 1014 62 10000 3.1 120 21:22 21.03.2020
6094 Clouds 13 1014 62 10000 3.1 120 20:56 21.03.2020
6095 Clouds 14 1014 58 10000 3.1 120 20:38 21.03.2020
6096 Clear 14 1013 51 10000 2.1 120 20:18 21.03.2020
6097 Clear 14 1013 48 10000 2.1 110 19:43 21.03.2020
6098 Clear 15 1013 48 10000 2.1 100 19:23 21.03.2020
6099 Clear 16 1013 48 10000 2.1 100 18:55 21.03.2020
6100 Clear 16 1012 42 10000 2.6 120 18:37 21.03.2020
6101 Clear 17 1012 48 10000 1 170 18:19 21.03.2020
6102 Clear 18 1012 42 10000 2.1 160 17:43 21.03.2020
6103 Clear 18 1012 42 10000 2.1 160 17:43 21.03.2020
6104 Clear 18 1012 42 10000 2.6 170 17:24 21.03.2020
6105 Clear 18 1012 42 10000 2.6 150 16:57 21.03.2020
6106 Clear 19 1012 42 10000 2.6 150 16:39 21.03.2020
6107 Clear 19 1012 42 10000 2.1 160 16:18 21.03.2020
6108 Clear 19 1013 39 10000 0.5 0 15:43 21.03.2020
6109 Clear 19 1013 34 10000 1.5 0 15:23 21.03.2020
6110 Clear 19 1013 34 10000 1.5 0 14:58 21.03.2020
6111 Clear 19 1013 39 10000 2.6 220 14:40 21.03.2020
6112 Clear 18 1013 39 10000 2.1 270 14:20 21.03.2020
6113 Clear 18 1013 39 10000 2.1 270 13:59 21.03.2020
6114 Clear 18 1014 42 10000 2.1 0 13:40 21.03.2020
6115 Clear 18 1014 45 10000 1.5 250 13:22 21.03.2020
6116 Clear 17 1015 45 10000 1.5 0 12:59 21.03.2020
6117 Clear 17 1015 45 10000 1.5 0 12:38 21.03.2020
6118 Clear 17 1015 48 10000 2.1 180 12:19 21.03.2020
6119 Clear 17 1015 48 10000 2.1 180 12:19 21.03.2020
6120 Clear 17 1015 51 10000 1 0 11:56 21.03.2020
6121 Clear 16 1015 51 10000 1 0 11:38 21.03.2020
6122 Clear 15 1016 51 10000 0.5 0 11:19 21.03.2020
6123 Clear 15 1016 51 10000 0.5 0 11:19 21.03.2020
6124 Clear 15 1016 54 10000 1 0 10:57 21.03.2020
6125 Clear 15 1016 54 10000 1 0 10:38 21.03.2020
6126 Clear 14 1016 58 10000 1 0 10:19 21.03.2020
6127 Clear 13 1016 58 10000 0.5 0 09:55 21.03.2020
6128 Clear 13 1016 58 10000 0.5 0 09:37 21.03.2020
6129 Clear 12 1016 62 10000 0.5 0 09:18 21.03.2020
6130 Clear 11 1016 71 10000 1 150 08:43 21.03.2020
6131 Clear 10 1016 71 10000 1 150 08:24 21.03.2020
6132 Clear 8 1016 75 10000 0.5 160 07:43 21.03.2020
6133 Clear 8 1016 81 10000 1 170 07:23 21.03.2020
6134 Clear 7 1016 75 10000 0.5 0 06:47 21.03.2020
6135 Clear 7 1016 81 10000 1 0 06:27 21.03.2020
6136 Clear 8 1017 81 10000 0.5 0 05:46 21.03.2020
6137 Clear 8 1017 93 10000 0.5 0 04:46 21.03.2020
6138 Clear 9 1018 81 10000 1.5 360 02:48 21.03.2020
6139 Clear 9 1018 81 10000 1.5 360 02:30 21.03.2020
6140 Clear 9 1018 81 10000 1 270 01:32 21.03.2020
6141 Clear 10 1018 81 10000 0.5 0 00:48 21.03.2020
6142 Clear 10 1018 81 10000 0.5 0 00:25 21.03.2020
6143 Clear 11 1019 81 10000 1 320 23:49 20.03.2020
6144 Clear 11 1019 81 10000 1 320 23:26 20.03.2020
6145 Clouds 11 1019 81 10000 0.5 0 22:56 20.03.2020
6146 Clouds 11 1019 81 10000 0.5 0 22:37 20.03.2020
6147 Clouds 11 1019 71 10000 1 0 22:19 20.03.2020
6148 Clouds 12 1019 71 10000 1 0 21:54 20.03.2020
6149 Clouds 12 1019 81 10000 2.1 40 21:36 20.03.2020
6150 Clouds 12 1019 71 10000 1 170 21:18 20.03.2020
6151 Clouds 12 1019 71 10000 1 170 21:18 20.03.2020
6152 Clouds 13 1019 62 10000 1 170 20:42 20.03.2020
6153 Clouds 13 1019 62 10000 1.5 240 20:21 20.03.2020
6154 Clouds 14 1019 62 10000 1.5 260 19:59 20.03.2020
6155 Clouds 14 1019 62 10000 1.5 260 19:40 20.03.2020
6156 Clouds 15 1019 55 10000 1.5 220 19:18 20.03.2020
6157 Clouds 16 1019 55 10000 2.1 270 18:39 20.03.2020
6158 Clouds 16 1019 55 10000 2.1 270 18:39 20.03.2020
6159 Clouds 16 1019 55 10000 2.1 270 18:39 20.03.2020
6160 Clouds 16 1019 55 10000 2.1 240 18:20 20.03.2020
6161 Clouds 17 1019 55 10000 2.1 240 17:57 20.03.2020
6162 Clouds 17 1019 59 10000 2.1 190 17:39 20.03.2020
6163 Clouds 17 1019 63 10000 1.5 210 17:20 20.03.2020
6164 Clouds 17 1020 59 10000 2.1 260 16:43 20.03.2020
6165 Clouds 17 1020 59 10000 2.1 210 16:22 20.03.2020
6166 Clouds 17 1020 59 10000 2.1 210 15:59 20.03.2020
6167 Clouds 17 1020 59 10000 2.6 230 15:41 20.03.2020
6168 Clouds 17 1020 55 10000 3.6 220 15:20 20.03.2020
6169 Clouds 17 1021 48 10000 2.6 230 14:42 20.03.2020
6170 Clouds 17 1021 51 10000 1.5 160 14:21 20.03.2020
6171 Clouds 17 1021 51 10000 1.5 160 13:55 20.03.2020
6172 Clouds 17 1021 51 10000 2.1 160 13:36 20.03.2020
6173 Clouds 18 1022 59 10000 1.5 0 13:18 20.03.2020
6174 Clouds 17 1022 51 10000 2.1 140 12:39 20.03.2020
6175 Clouds 17 1022 55 10000 2.1 190 12:20 20.03.2020
6176 Clouds 17 1022 55 10000 1 0 11:42 20.03.2020
6177 Clouds 16 1023 58 10000 2.1 140 11:22 20.03.2020
6178 Clouds 16 1023 62 10000 2.1 130 10:59 20.03.2020
6179 Clouds 15 1023 62 10000 2.1 130 10:41 20.03.2020
6180 Clouds 15 1023 62 10000 2.1 130 10:20 20.03.2020
6181 Clouds 14 1023 62 10000 0.5 0 09:47 20.03.2020
6182 Clouds 14 1023 62 10000 0.5 0 09:47 20.03.2020
6183 Clouds 13 1023 71 8000 0.5 0 09:21 20.03.2020
6184 Clouds 12 1023 71 8000 0.5 0 08:59 20.03.2020
6185 Clouds 11 1023 81 8000 0.5 0 08:40 20.03.2020
6186 Clouds 10 1022 81 8000 0.5 40 08:19 20.03.2020
6187 Clouds 9 1022 81 8000 0.5 0 07:45 20.03.2020
6188 Clouds 9 1022 81 10000 0.5 0 07:26 20.03.2020
6189 Clouds 8 1022 87 10000 1 350 06:47 20.03.2020
6190 Clouds 8 1022 87 10000 1 350 06:29 20.03.2020
6191 Clear 9 1022 87 10000 1.5 10 04:49 20.03.2020
6192 Clear 9 1022 81 10000 1 10 03:18 20.03.2020
6193 Clear 10 1023 76 10000 1 10 01:51 20.03.2020
6194 Clear 10 1023 76 10000 1 350 00:46 20.03.2020
6195 Clear 11 1023 76 10000 1 350 00:24 20.03.2020
6196 Clear 11 1023 81 10000 1 340 23:42 19.03.2020
6197 Clear 11 1023 71 10000 1.5 20 23:23 19.03.2020
6198 Clear 12 1023 71 10000 1 20 22:55 19.03.2020
6199 Clear 12 1023 71 10000 1 20 22:37 19.03.2020
6200 Clear 13 1023 71 10000 1 10 22:18 19.03.2020
6201 Clear 13 1023 58 10000 1.5 30 21:40 19.03.2020
6202 Clear 13 1023 62 10000 0.5 40 21:20 19.03.2020
6203 Clear 14 1023 58 10000 0.5 0 20:55 19.03.2020
6204 Clear 13 1023 58 10000 0.5 0 20:37 19.03.2020
6205 Clear 15 1023 54 10000 1 180 20:19 19.03.2020
6206 Clear 15 1022 44 10000 1 180 19:54 19.03.2020
6207 Clear 15 1022 44 10000 1 180 19:36 19.03.2020
6208 Clear 16 1022 42 10000 1.5 170 19:18 19.03.2020
6209 Clear 17 1022 37 10000 2.1 160 18:41 19.03.2020
6210 Clear 18 1022 39 10000 2.1 170 18:22 19.03.2020
6211 Clear 19 1022 37 10000 2.6 150 17:56 19.03.2020
6212 Clear 19 1022 37 10000 2.6 150 17:37 19.03.2020
6213 Clear 20 1022 37 10000 2.6 150 17:18 19.03.2020
6214 Clear 20 1023 34 10000 2.1 190 16:43 19.03.2020
6215 Clear 20 1023 37 10000 2.1 160 16:22 19.03.2020
6216 Clear 20 1023 37 10000 1.5 180 15:44 19.03.2020
6217 Clear 20 1023 37 10000 1.5 180 15:25 19.03.2020
6218 Clear 20 1024 40 10000 1 0 14:54 19.03.2020
6219 Clear 20 1024 40 10000 1 0 14:36 19.03.2020
6220 Clear 20 1024 42 10000 1.5 180 14:18 19.03.2020
6221 Clear 20 1025 42 10000 1.5 230 13:38 19.03.2020
6222 Clear 19 1025 42 10000 1.5 0 13:18 19.03.2020
6223 Clear 19 1026 45 10000 1.5 200 12:42 19.03.2020
6224 Clear 18 1026 48 10000 1.5 250 12:24 19.03.2020
6225 Clear 18 1026 48 10000 1 0 11:58 19.03.2020
6226 Clear 18 1026 48 10000 1 0 11:40 19.03.2020
6227 Clear 17 1026 45 10000 0.5 0 11:22 19.03.2020
6228 Clear 16 1027 51 10000 0.5 0 10:43 19.03.2020
6229 Clear 15 1027 51 10000 0.5 0 10:22 19.03.2020
6230 Clear 15 1027 51 10000 0.5 0 09:58 19.03.2020
6231 Clear 14 1026 62 10000 1 0 09:39 19.03.2020
6232 Clear 13 1026 58 10000 3.1 360 09:19 19.03.2020
6233 Clear 11 1026 66 10000 0.5 0 08:46 19.03.2020
6234 Clear 10 1026 81 10000 0.5 0 08:21 19.03.2020
6235 Clear 9 1026 87 10000 0.5 0 07:47 19.03.2020
6236 Clear 8 1026 87 10000 0.5 0 07:28 19.03.2020
6237 Clear 7 1026 93 6000 0.5 0 06:49 19.03.2020
6238 Clear 7 1026 100 7000 0.5 0 05:52 19.03.2020
6239 Clear 8 1026 87 8000 0.5 0 04:59 19.03.2020
6240 Clear 8 1026 87 8000 1 350 04:40 19.03.2020
6241 Clear 9 1026 93 10000 0.5 40 02:50 19.03.2020
6242 Clear 9 1027 81 10000 1.5 360 01:25 19.03.2020
6243 Clear 10 1027 81 10000 1.5 360 00:32 19.03.2020
6244 Clear 10 1027 76 10000 1 10 23:57 18.03.2020
6245 Clear 10 1027 76 10000 1 10 23:30 18.03.2020
6246 Clear 11 1027 81 10000 0.5 0 22:58 18.03.2020
6247 Clear 11 1027 66 10000 1 10 22:39 18.03.2020
6248 Clear 11 1027 76 10000 0.5 0 22:21 18.03.2020
6249 Clear 12 1027 71 10000 1 350 21:42 18.03.2020
6250 Clear 13 1026 66 10000 1 30 21:22 18.03.2020
6251 Clear 13 1026 66 10000 1 30 20:59 18.03.2020
6252 Clear 13 1026 66 10000 1 30 20:59 18.03.2020
6253 Clear 13 1026 71 10000 0.5 0 20:40 18.03.2020
6254 Clear 13 1026 71 10000 0.5 0 20:40 18.03.2020
6255 Clear 14 1026 62 10000 0.5 0 20:20 18.03.2020
6256 Clear 14 1026 62 10000 0.5 0 19:58 18.03.2020
6257 Clear 15 1026 54 10000 0.5 0 19:39 18.03.2020
6258 Clear 15 1026 54 10000 1 160 19:20 18.03.2020
6259 Clear 17 1026 45 10000 1.5 170 18:41 18.03.2020
6260 Clear 17 1026 45 10000 1.5 170 18:21 18.03.2020
6261 Clear 17 1026 45 10000 1.5 170 18:21 18.03.2020
6262 Clear 18 1026 42 10000 2.1 180 17:59 18.03.2020
6263 Clear 18 1026 42 10000 2.1 180 17:40 18.03.2020
6264 Clear 19 1026 39 10000 2.1 160 17:21 18.03.2020
6265 Clear 19 1026 39 10000 2.1 160 16:58 18.03.2020
6266 Clear 19 1026 39 10000 1.5 170 16:39 18.03.2020
6267 Clear 19 1026 37 10000 1.5 0 16:20 18.03.2020
6268 Clear 19 1027 39 10000 2.1 100 15:45 18.03.2020
6269 Clear 19 1027 39 10000 2.1 80 15:20 18.03.2020
6270 Clear 19 1027 36 10000 2.6 60 14:45 18.03.2020
6271 Clear 19 1028 30 10000 2.1 150 14:22 18.03.2020
6272 Clear 19 1028 30 10000 2.1 150 13:59 18.03.2020
6273 Clear 18 1028 42 10000 2.1 90 13:37 18.03.2020
6274 Clear 18 1029 48 10000 1.5 140 13:19 18.03.2020
6275 Clear 17 1029 45 10000 1.5 0 12:41 18.03.2020
6276 Clear 17 1029 51 10000 1 0 12:20 18.03.2020
6277 Clear 16 1030 54 10000 1 0 11:40 18.03.2020
6278 Clear 15 1030 54 10000 0.5 0 11:21 18.03.2020
6279 Clear 15 1030 58 10000 0.5 0 10:58 18.03.2020
6280 Clear 14 1030 58 10000 0.5 0 10:39 18.03.2020
6281 Clear 14 1030 62 10000 1 0 10:20 18.03.2020
6282 Clear 13 1030 62 10000 1 0 09:56 18.03.2020
6283 Clear 12 1030 66 10000 1.5 80 09:38 18.03.2020
6284 Clear 11 1030 71 10000 1 0 09:20 18.03.2020
6285 Clear 10 1030 81 8000 1 40 08:39 18.03.2020
6286 Clear 8 1030 87 8000 1 360 08:21 18.03.2020
6287 Clear 7 1029 93 6000 1.28 96 07:49 18.03.2020
6288 Clear 7 1029 93 6000 1.28 96 07:30 18.03.2020
6289 Clear 6 1029 93 8000 0.5 0 06:50 18.03.2020
6290 Clear 6 1029 100 7000 0.5 330 06:24 18.03.2020
6291 Clear 6 1029 93 7000 0.5 360 05:35 18.03.2020
6292 Clear 6 1029 93 8000 1 350 04:27 18.03.2020
6293 Clear 7 1029 81 10000 1 10 02:49 18.03.2020
6294 Clear 8 1029 87 10000 1 350 01:48 18.03.2020
6295 Clear 8 1030 81 10000 1 10 01:27 18.03.2020
6296 Clear 8 1030 87 10000 1 350 00:26 18.03.2020
6297 Clear 9 1030 81 10000 1 10 23:57 17.03.2020
6298 Clear 9 1030 81 10000 1 10 23:37 17.03.2020
6299 Clear 9 1030 70 10000 1.5 10 23:18 17.03.2020
6300 Clear 10 1030 76 10000 1 30 22:41 17.03.2020
6301 Clear 10 1030 70 10000 1 40 22:22 17.03.2020
6302 Clear 10 1029 76 10000 0.5 30 21:40 17.03.2020
6303 Clear 10 1029 76 10000 0.5 190 21:21 17.03.2020
6304 Clear 11 1029 62 10000 1 150 20:41 17.03.2020
6305 Clear 11 1029 62 10000 1 150 20:22 17.03.2020
6306 Clear 12 1029 62 10000 1 190 19:59 17.03.2020
6307 Clear 13 1029 47 10000 1 180 19:40 17.03.2020
6308 Clear 13 1028 47 10000 1.5 170 19:18 17.03.2020
6309 Clear 14 1028 44 10000 1.5 170 18:56 17.03.2020
6310 Clear 14 1028 44 10000 1.5 170 18:37 17.03.2020
6311 Clear 14 1028 44 10000 1.5 170 18:37 17.03.2020
6312 Clear 15 1028 47 10000 2.1 180 18:19 17.03.2020
6313 Clear 16 1028 41 10000 1.5 170 17:41 17.03.2020
6314 Clear 16 1028 41 10000 1.5 170 17:41 17.03.2020
6315 Clear 16 1028 39 10000 1.5 140 17:22 17.03.2020
6316 Clear 16 1029 42 10000 2.1 160 16:55 17.03.2020
6317 Clear 17 1029 42 10000 2.1 160 16:37 17.03.2020
6318 Clear 17 1029 42 10000 1.5 150 16:18 17.03.2020
6319 Clear 17 1029 44 10000 2.1 150 15:43 17.03.2020
6320 Clear 17 1029 42 10000 1.5 0 15:21 17.03.2020
6321 Clear 16 1030 41 10000 1 0 14:43 17.03.2020
6322 Clear 16 1030 41 10000 1 0 14:43 17.03.2020
6323 Clear 16 1030 41 10000 1 0 14:21 17.03.2020
6324 Clear 16 1030 44 10000 2.1 170 13:45 17.03.2020
6325 Clear 15 1031 47 10000 1.5 180 13:27 17.03.2020
6326 Clear 15 1031 47 10000 1.5 180 12:58 17.03.2020
6327 Clear 15 1031 44 10000 1.5 180 12:40 17.03.2020
6328 Clear 15 1031 50 10000 2.1 150 12:22 17.03.2020
6329 Clear 14 1032 58 10000 2.1 110 11:46 17.03.2020
6330 Clear 14 1032 58 10000 2.1 110 11:46 17.03.2020
6331 Clear 14 1032 58 10000 1.5 0 11:28 17.03.2020
6332 Clear 13 1032 62 10000 1.5 110 10:58 17.03.2020
6333 Clear 12 1032 62 10000 1.5 110 10:38 17.03.2020
6334 Clear 12 1032 66 10000 1 0 10:20 17.03.2020
6335 Clear 11 1032 66 10000 1 0 09:55 17.03.2020
6336 Clear 11 1032 66 10000 1.5 100 09:55 17.03.2020
6337 Clear 11 1032 66 10000 1.5 100 09:36 17.03.2020
6338 Clouds 10 1031 70 10000 2.1 110 09:18 17.03.2020
6339 Clouds 9 1031 70 10000 0.5 0 08:42 17.03.2020
6340 Clouds 7 1031 86 10000 1 200 08:21 17.03.2020
6341 Clouds 5 1031 93 10000 0.5 0 07:50 17.03.2020
6342 Clouds 5 1031 100 10000 1 40 07:25 17.03.2020
6343 Clouds 5 1031 100 10000 1 40 06:56 17.03.2020
6344 Clouds 4 1030 93 8000 0.5 50 06:33 17.03.2020
6345 Clouds 5 1030 100 6000 0.79 172 05:41 17.03.2020
6346 Clear 5 1029 86 10000 0.5 60 03:36 17.03.2020
6347 Clear 6 1029 93 10000 0.5 290 02:45 17.03.2020
6348 Clear 6 1029 93 10000 0.29 225 01:41 17.03.2020
6349 Clouds 6 1030 93 10000 0.5 360 01:19 17.03.2020
6350 Clouds 7 1030 75 10000 1.5 10 00:19 17.03.2020
6351 Clouds 7 1030 75 10000 1 10 23:44 16.03.2020
6352 Clear 8 1030 75 10000 1 350 23:23 16.03.2020
6353 Clear 8 1029 70 10000 1.5 10 22:39 16.03.2020
6354 Clear 8 1029 70 10000 1 20 22:20 16.03.2020
6355 Clear 8 1029 61 10000 0.5 0 21:55 16.03.2020
6356 Clear 9 1029 61 10000 0.5 0 21:36 16.03.2020
6357 Clear 9 1028 61 10000 0.5 0 21:18 16.03.2020
6358 Clear 10 1028 61 10000 1 160 20:42 16.03.2020
6359 Clear 10 1028 61 10000 1 160 20:24 16.03.2020
6360 Clear 11 1027 54 10000 1.5 180 19:47 16.03.2020
6361 Clear 11 1027 54 10000 1.5 180 19:47 16.03.2020
6362 Clear 11 1027 54 10000 1.5 180 19:25 16.03.2020
6363 Clear 12 1027 50 10000 1.5 170 19:00 16.03.2020
6364 Clear 13 1026 50 10000 2.1 160 18:40 16.03.2020
6365 Clear 13 1026 44 10000 1.5 170 18:20 16.03.2020
6366 Clear 14 1026 44 10000 1.5 170 17:46 16.03.2020
6367 Clear 14 1026 41 10000 1 0 17:25 16.03.2020
6368 Clear 15 1026 41 10000 1.5 150 16:58 16.03.2020
6369 Clear 15 1026 41 10000 1.5 150 16:40 16.03.2020
6370 Clear 15 1026 44 10000 1.5 0 16:21 16.03.2020
6371 Clear 15 1026 41 10000 1.5 0 15:43 16.03.2020
6372 Clear 15 1026 38 10000 1 0 15:23 16.03.2020
6373 Clear 15 1026 44 10000 1.5 40 14:47 16.03.2020
6374 Clear 14 1026 44 10000 1.5 40 14:23 16.03.2020
6375 Clear 14 1027 44 10000 1.5 0 13:48 16.03.2020
6376 Clear 14 1027 41 10000 1 0 13:28 16.03.2020
6377 Clear 13 1027 41 10000 1 0 12:57 16.03.2020
6378 Clear 13 1027 43 10000 1.5 0 12:38 16.03.2020
6379 Clear 13 1027 46 10000 2.1 170 12:20 16.03.2020
6380 Clear 12 1027 50 10000 2.6 160 11:43 16.03.2020
6381 Clear 12 1027 50 10000 1.5 170 11:23 16.03.2020
6382 Clear 11 1027 62 10000 2.1 120 10:44 16.03.2020
6383 Clear 11 1027 62 10000 2.1 120 10:24 16.03.2020
6384 Clear 10 1027 66 10000 2.1 110 09:49 16.03.2020
6385 Clear 10 1027 66 10000 2.1 110 09:49 16.03.2020
6386 Clear 10 1027 66 10000 2.1 110 09:30 16.03.2020
6387 Clear 9 1027 75 10000 1.5 150 08:59 16.03.2020
6388 Clear 8 1026 75 10000 1 0 08:39 16.03.2020
6389 Clear 7 1026 86 10000 1 0 08:20 16.03.2020
6390 Clear 5 1026 93 10000 1 360 07:41 16.03.2020
6391 Clear 5 1026 100 10000 0.5 0 07:18 16.03.2020
6392 Clear 5 1025 93 10000 1 10 06:28 16.03.2020
6393 Clear 5 1025 93 10000 0.5 0 05:55 16.03.2020
6394 Clear 6 1025 86 10000 0.5 0 03:54 16.03.2020
6395 Clear 7 1025 93 10000 1 20 01:44 16.03.2020
6396 Clear 7 1025 81 10000 0.5 30 00:44 16.03.2020
6397 Clear 7 1025 87 10000 1.5 360 23:56 15.03.2020
6398 Clear 7 1025 87 10000 1.5 360 23:37 15.03.2020
6399 Clear 8 1024 81 10000 2.1 10 23:18 15.03.2020
6400 Clear 8 1024 75 10000 2.6 360 22:41 15.03.2020
6401 Clear 8 1024 87 10000 1.5 340 22:20 15.03.2020
6402 Clear 8 1024 87 10000 1.5 360 21:39 15.03.2020
6403 Clear 8 1024 87 10000 1.5 360 21:20 15.03.2020
6404 Clear 8 1024 76 10000 1 10 20:44 15.03.2020
6405 Clear 9 1024 76 10000 1.5 40 20:22 15.03.2020
6406 Clear 9 1024 76 10000 1.5 40 19:59 15.03.2020
6407 Clear 9 1024 76 10000 1.5 40 19:59 15.03.2020
6408 Clear 9 1024 70 10000 1.5 40 19:41 15.03.2020
6409 Clear 10 1024 66 10000 1.5 40 19:23 15.03.2020
6410 Clear 10 1024 66 10000 1.5 40 18:58 15.03.2020
6411 Clouds 10 1023 66 10000 3.1 30 18:39 15.03.2020
6412 Clouds 11 1023 62 10000 3.1 40 18:21 15.03.2020
6413 Clouds 11 1023 58 10000 3.1 40 17:54 15.03.2020
6414 Clouds 12 1023 58 10000 3.1 40 17:36 15.03.2020
6415 Clouds 12 1023 54 10000 2.1 80 17:18 15.03.2020
6416 Clouds 12 1024 54 10000 2.6 90 16:42 15.03.2020
6417 Clouds 12 1024 50 10000 2.1 110 16:23 15.03.2020
6418 Clouds 12 1024 50 10000 2.1 110 15:57 15.03.2020
6419 Clouds 12 1024 50 10000 2.1 70 15:38 15.03.2020
6420 Clouds 12 1024 58 10000 2.6 80 15:19 15.03.2020
6421 Clouds 12 1024 54 10000 2.1 80 14:43 15.03.2020
6422 Clouds 12 1024 54 10000 2.1 80 14:24 15.03.2020
6423 Clouds 11 1024 54 10000 2.1 80 13:57 15.03.2020
6424 Clouds 11 1025 54 10000 2.1 150 13:38 15.03.2020
6425 Clouds 11 1025 54 10000 3.6 130 13:19 15.03.2020
6426 Clouds 11 1025 50 10000 4.1 110 12:41 15.03.2020
6427 Clouds 11 1025 62 10000 2.6 100 12:23 15.03.2020
6428 Clouds 11 1026 62 10000 3.6 100 11:45 15.03.2020
6429 Clouds 11 1025 66 10000 3.6 140 11:26 15.03.2020
6430 Clouds 10 1025 66 10000 4.1 140 10:59 15.03.2020
6431 Clouds 10 1025 66 10000 4.1 140 10:41 15.03.2020
6432 Clouds 10 1025 81 10000 2.6 140 10:22 15.03.2020
6433 Clouds 10 1025 66 10000 4.1 140 10:22 15.03.2020
6434 Clouds 10 1025 76 10000 2.1 130 09:59 15.03.2020
6435 Clouds 9 1025 76 10000 2.1 130 09:38 15.03.2020
6436 Clouds 9 1025 81 10000 1 0 09:20 15.03.2020
6437 Clouds 8 1025 87 10000 0.5 0 08:41 15.03.2020
6438 Clouds 7 1025 93 10000 1 120 08:19 15.03.2020
6439 Clouds 7 1024 93 10000 0.5 0 07:49 15.03.2020
6440 Clouds 6 1024 93 10000 1.5 40 07:22 15.03.2020
6441 Clouds 6 1024 100 9000 1 0 06:44 15.03.2020
6442 Clouds 6 1024 93 10000 0.5 0 05:48 15.03.2020
6443 Clouds 6 1023 93 10000 0.5 0 04:57 15.03.2020
6444 Clouds 6 1023 93 10000 0.5 0 04:38 15.03.2020
6445 Clouds 6 1023 93 10000 0.5 10 04:20 15.03.2020
6446 Clouds 6 1023 93 9000 0.5 0 03:19 15.03.2020
6447 Clouds 6 1023 100 10000 0.5 0 02:22 15.03.2020
6448 Clouds 6 1022 93 10000 1 20 00:58 15.03.2020
6449 Clouds 6 1022 93 10000 1 20 00:40 15.03.2020
6450 Clouds 6 1022 86 10000 0.5 0 00:19 15.03.2020
6451 Clouds 7 1022 93 10000 0.5 0 23:39 14.03.2020
6452 Clouds 7 1022 86 10000 1.5 360 23:20 14.03.2020
6453 Clouds 7 1021 93 10000 0.5 300 22:55 14.03.2020
6454 Clouds 7 1021 93 10000 0.5 300 22:37 14.03.2020
6455 Clouds 7 1021 93 10000 0.5 0 22:19 14.03.2020
6456 Clouds 8 1021 93 10000 0.5 0 21:55 14.03.2020
6457 Clouds 8 1021 93 10000 0.5 0 21:55 14.03.2020
6458 Clouds 8 1021 93 10000 1 360 21:36 14.03.2020
6459 Clouds 8 1020 87 10000 1 0 21:18 14.03.2020
6460 Clouds 8 1020 75 10000 1 20 20:55 14.03.2020
6461 Clouds 8 1020 75 10000 1 20 20:37 14.03.2020
6462 Clouds 8 1020 70 10000 1.5 50 20:18 14.03.2020
6463 Clouds 9 1019 71 10000 2.1 40 19:40 14.03.2020
6464 Clouds 9 1019 71 10000 2.1 50 19:20 14.03.2020
6465 Clouds 10 1019 71 10000 2.1 50 18:40 14.03.2020
6466 Clouds 10 1019 71 10000 2.1 50 18:40 14.03.2020
6467 Clouds 10 1018 66 10000 2.1 90 18:20 14.03.2020
6468 Clouds 10 1018 71 10000 2.1 80 17:42 14.03.2020
6469 Clouds 10 1018 71 10000 2.6 80 17:21 14.03.2020
6470 Clouds 10 1018 71 10000 2.6 80 16:58 14.03.2020
6471 Clouds 10 1018 71 10000 3.6 80 16:38 14.03.2020
6472 Clouds 10 1017 71 10000 2.6 90 16:18 14.03.2020
6473 Clouds 10 1018 66 10000 2.6 80 15:28 14.03.2020
6474 Clouds 10 1018 71 10000 3.1 60 14:59 14.03.2020
6475 Clouds 10 1018 71 10000 3.1 60 14:59 14.03.2020
6476 Clouds 10 1018 71 10000 3.6 80 14:39 14.03.2020
6477 Clouds 10 1018 71 10000 4.6 70 14:20 14.03.2020
6478 Clouds 10 1018 87 10000 3.6 60 13:56 14.03.2020
6479 Clouds 10 1018 87 10000 3.6 60 13:38 14.03.2020
6480 Clouds 10 1018 81 10000 2.6 70 13:19 14.03.2020
6481 Clouds 9 1018 76 9000 3.1 90 12:44 14.03.2020
6482 Clouds 9 1018 81 10000 3.6 100 12:25 14.03.2020
6483 Rain 9 1018 81 8000 5.1 100 11:45 14.03.2020
6484 Rain 9 1018 87 6000 4.1 80 11:25 14.03.2020
6485 Rain 9 1017 81 5000 4.1 80 10:54 14.03.2020
6486 Rain 9 1017 81 5000 4.1 80 10:54 14.03.2020
6487 Rain 9 1017 81 5000 4.1 80 10:36 14.03.2020
6488 Rain 9 1017 87 7000 4.1 60 10:18 14.03.2020
6489 Rain 9 1017 81 7000 4.1 70 09:41 14.03.2020
6490 Rain 9 1017 87 5000 3.1 60 09:21 14.03.2020
6491 Rain 9 1017 87 6000 3.6 40 08:47 14.03.2020
6492 Rain 10 1017 81 7000 3.6 90 08:27 14.03.2020
6493 Rain 10 1016 71 8000 4.6 110 07:45 14.03.2020
6494 Rain 10 1016 76 10000 4.1 110 07:22 14.03.2020
6495 Rain 10 1016 81 9000 3.6 130 06:55 14.03.2020
6496 Rain 10 1016 81 9000 3.6 130 06:36 14.03.2020
6497 Mist 11 1015 87 5000 5.1 120 04:56 14.03.2020
6498 Mist 12 1016 82 4700 2.6 130 03:37 14.03.2020
6499 Mist 12 1016 82 4800 2.6 90 02:53 14.03.2020
6500 Mist 12 1016 82 5000 2.1 80 01:47 14.03.2020
6501 Rain 13 1016 76 6000 2.1 110 00:34 14.03.2020
6502 Rain 13 1016 76 0 3.1 130 23:42 13.03.2020
6503 Clouds 13 1016 82 10000 2.6 120 23:23 13.03.2020
6504 Clouds 13 1016 77 10000 2.6 130 22:45 13.03.2020
6505 Clouds 13 1016 72 10000 2.6 130 22:22 13.03.2020
6506 Clouds 13 1015 72 10000 1 0 21:41 13.03.2020
6507 Clouds 14 1015 72 10000 2.1 260 21:19 13.03.2020
6508 Clouds 14 1014 72 10000 2.1 240 20:43 13.03.2020
6509 Clouds 14 1014 67 10000 2.6 210 20:23 13.03.2020
6510 Clouds 14 1014 67 10000 2.6 210 19:58 13.03.2020
6511 Clouds 15 1014 67 10000 1 180 19:39 13.03.2020
6512 Clouds 15 1013 63 10000 1 200 19:19 13.03.2020
6513 Clouds 16 1013 63 10000 1.5 230 18:43 13.03.2020
6514 Clouds 16 1012 59 10000 1.5 230 18:23 13.03.2020
6515 Clouds 18 1012 59 10000 2.1 220 17:43 13.03.2020
6516 Clouds 18 1012 55 10000 3.1 230 17:21 13.03.2020
6517 Clouds 18 1012 55 10000 2.6 240 16:57 13.03.2020
6518 Clouds 18 1012 55 10000 2.6 240 16:38 13.03.2020
6519 Clouds 18 1013 55 10000 2.6 240 16:20 13.03.2020
6520 Clouds 18 1013 55 10000 3.1 240 15:45 13.03.2020
6521 Clouds 18 1013 55 10000 2.6 230 15:22 13.03.2020
6522 Clouds 18 1013 59 10000 3.1 250 14:58 13.03.2020
6523 Clouds 18 1013 59 10000 3.1 250 14:40 13.03.2020
6524 Clouds 18 1013 55 10000 3.1 0 14:21 13.03.2020
6525 Clouds 17 1014 59 10000 4.1 230 13:42 13.03.2020
6526 Clouds 17 1014 63 10000 3.6 250 13:24 13.03.2020
6527 Clouds 17 1014 63 10000 3.6 250 12:59 13.03.2020
6528 Clouds 16 1015 67 10000 3.6 250 12:38 13.03.2020
6529 Clouds 16 1015 67 10000 4.1 230 12:19 13.03.2020
6530 Clouds 16 1015 67 10000 4.6 250 11:55 13.03.2020
6531 Clouds 15 1015 67 10000 4.6 250 11:36 13.03.2020
6532 Clouds 15 1015 67 10000 4.6 250 11:36 13.03.2020
6533 Clouds 14 1015 72 10000 4.1 280 11:18 13.03.2020
6534 Clouds 14 1015 72 10000 4.1 270 10:42 13.03.2020
6535 Clouds 14 1015 72 10000 4.1 270 10:24 13.03.2020
6536 Clouds 13 1015 76 10000 1.5 270 09:46 13.03.2020
6537 Clouds 13 1015 76 10000 1.5 270 09:27 13.03.2020
6538 Clouds 12 1015 76 10000 1.5 260 08:56 13.03.2020
6539 Clouds 12 1015 82 10000 1.5 270 08:37 13.03.2020
6540 Clouds 11 1015 82 10000 1.5 300 08:18 13.03.2020
6541 Clouds 11 1015 82 10000 1.5 290 07:43 13.03.2020
6542 Clouds 11 1015 82 10000 1.5 300 07:22 13.03.2020
6543 Clouds 11 1015 82 10000 2.1 280 06:46 13.03.2020
6544 Clouds 11 1015 82 10000 2.1 290 06:20 13.03.2020
6545 Clouds 11 1015 82 10000 2.1 280 05:43 13.03.2020
6546 Clouds 11 1015 82 10000 2.1 250 04:39 13.03.2020
6547 Clouds 11 1015 82 10000 2.6 280 03:50 13.03.2020
6548 Clouds 12 1016 82 10000 1.5 280 01:49 13.03.2020
6549 Clouds 12 1017 82 10000 1 280 01:19 13.03.2020
6550 Clouds 12 1017 82 10000 1 0 00:56 13.03.2020
6551 Clouds 12 1017 82 10000 1 0 00:38 13.03.2020
6552 Clouds 12 1017 82 10000 2.1 260 00:18 13.03.2020
6553 Clouds 12 1017 82 10000 1.5 270 23:29 12.03.2020
6554 Clouds 12 1017 82 10000 1.5 270 22:59 12.03.2020
6555 Clouds 12 1017 82 10000 1 0 22:41 12.03.2020
6556 Clouds 12 1018 82 10000 1 0 22:23 12.03.2020
6557 Clouds 12 1018 82 10000 1 0 21:54 12.03.2020
6558 Clouds 12 1018 76 10000 1.5 250 21:54 12.03.2020
6559 Clouds 12 1018 76 10000 1.5 250 21:36 12.03.2020
6560 Clouds 12 1018 76 10000 1 0 21:18 12.03.2020
6561 Clouds 12 1018 76 10000 1.5 280 20:41 12.03.2020
6562 Clouds 12 1018 76 10000 1.5 280 20:41 12.03.2020
6563 Clouds 13 1018 76 10000 1 250 20:19 12.03.2020
6564 Clouds 13 1018 82 10000 0.5 0 19:42 12.03.2020
6565 Clouds 13 1018 76 10000 0.5 0 19:21 12.03.2020
6566 Clouds 13 1018 76 10000 0.5 0 19:21 12.03.2020
6567 Clouds 13 1018 76 10000 0.5 0 18:45 12.03.2020
6568 Clouds 13 1017 76 10000 1 20 18:25 12.03.2020
6569 Clouds 13 1017 76 10000 1 350 17:58 12.03.2020
6570 Clouds 13 1017 76 10000 1 350 17:39 12.03.2020
6571 Clouds 14 1018 67 10000 1.5 310 17:21 12.03.2020
6572 Clouds 13 1018 67 10000 1.5 310 17:21 12.03.2020
6573 Clouds 14 1018 67 10000 1.5 310 16:58 12.03.2020
6574 Clouds 14 1018 67 10000 2.1 320 16:38 12.03.2020
6575 Clouds 14 1018 67 10000 1.5 320 16:19 12.03.2020
6576 Clouds 14 1018 72 10000 2.1 290 15:45 12.03.2020
6577 Clouds 14 1018 72 10000 2.1 290 15:27 12.03.2020
6578 Clouds 14 1019 67 10000 2.6 270 14:43 12.03.2020
6579 Clouds 14 1020 72 10000 2.1 260 14:24 12.03.2020
6580 Clouds 14 1020 72 10000 2.1 260 13:57 12.03.2020
6581 Clouds 14 1020 67 10000 2.6 260 13:37 12.03.2020
6582 Clouds 13 1020 72 10000 3.1 250 13:19 12.03.2020
6583 Clouds 13 1021 71 10000 2.1 280 12:41 12.03.2020
6584 Clouds 13 1021 71 7000 1.5 260 12:22 12.03.2020
6585 Clouds 13 1021 76 6000 0.5 0 11:57 12.03.2020
6586 Clouds 12 1021 76 6000 0.5 0 11:39 12.03.2020
6587 Clouds 12 1021 81 6000 0.5 0 11:20 12.03.2020
6588 Mist 12 1021 81 5000 0.5 0 10:59 12.03.2020
6589 Mist 11 1021 81 5000 0.5 0 10:40 12.03.2020
6590 Mist 11 1021 81 5000 0.5 0 10:22 12.03.2020
6591 Mist 11 1021 81 5000 0.5 0 09:46 12.03.2020
6592 Mist 11 1021 81 5000 0.5 0 09:27 12.03.2020
6593 Mist 10 1021 93 5000 0.5 180 08:45 12.03.2020
6594 Clouds 9 1020 87 6000 0.5 0 08:20 12.03.2020
6595 Clouds 9 1020 87 6000 0.5 0 07:59 12.03.2020
6596 Mist 9 1020 87 5000 0.5 0 07:40 12.03.2020
6597 Mist 8 1020 93 5000 1.5 40 07:21 12.03.2020
6598 Mist 8 1020 93 5000 0.5 0 05:51 12.03.2020
6599 Mist 8 1020 100 4400 1.45 277 05:25 12.03.2020
6600 Clear 8 1021 87 10000 2.1 360 02:41 12.03.2020
6601 Clear 9 1021 87 10000 1.5 360 01:32 12.03.2020
6602 Clear 9 1021 87 10000 1 0 00:47 12.03.2020
6603 Clear 9 1021 87 10000 1 0 00:27 12.03.2020
6604 Clear 10 1021 76 10000 2.1 90 23:47 11.03.2020
6605 Clear 10 1021 76 10000 1.5 300 23:25 11.03.2020
6606 Clear 11 1021 76 10000 1.5 320 22:48 11.03.2020
6607 Clear 11 1021 76 10000 1 270 22:30 11.03.2020
6608 Clear 12 1021 76 10000 1 270 21:59 11.03.2020
6609 Clear 12 1020 76 10000 1.5 270 21:41 11.03.2020
6610 Clear 12 1020 67 10000 2.1 260 21:22 11.03.2020
6611 Clear 13 1020 67 10000 2.1 260 20:58 11.03.2020
6612 Clear 13 1020 71 10000 1.5 250 20:39 11.03.2020
6613 Clear 13 1019 71 10000 2.1 210 20:20 11.03.2020
6614 Clear 14 1019 67 10000 2.1 190 19:44 11.03.2020
6615 Clear 15 1018 67 10000 2.6 180 19:26 11.03.2020
6616 Clear 16 1018 67 10000 2.6 180 18:59 11.03.2020
6617 Clear 17 1018 63 10000 2.1 170 18:40 11.03.2020
6618 Clear 17 1018 55 10000 2.6 160 18:22 11.03.2020
6619 Clear 18 1017 55 10000 2.6 180 17:58 11.03.2020
6620 Clear 18 1017 55 10000 2.6 180 17:58 11.03.2020
6621 Clear 18 1017 55 10000 2.6 180 17:39 11.03.2020
6622 Clear 19 1017 45 10000 2.1 220 17:20 11.03.2020
6623 Clear 19 1017 42 10000 2.6 220 16:46 11.03.2020
6624 Clear 19 1017 42 10000 2.6 220 16:23 11.03.2020
6625 Clear 19 1017 42 10000 2.1 180 15:46 11.03.2020
6626 Clear 19 1017 42 10000 2.1 180 15:25 11.03.2020
6627 Clear 19 1017 45 10000 2.1 0 14:59 11.03.2020
6628 Clear 19 1017 45 10000 2.1 0 14:41 11.03.2020
6629 Clear 18 1018 45 10000 3.1 210 14:22 11.03.2020
6630 Clear 18 1018 45 10000 2.6 250 13:45 11.03.2020
6631 Clear 18 1018 45 10000 2.6 250 13:27 11.03.2020
6632 Clear 17 1018 48 10000 2.6 250 12:58 11.03.2020
6633 Clear 17 1018 51 10000 2.6 230 12:40 11.03.2020
6634 Clear 17 1019 54 10000 3.1 250 12:19 11.03.2020
6635 Clear 16 1019 51 10000 2.6 250 11:42 11.03.2020
6636 Clear 16 1019 51 10000 2.6 250 11:42 11.03.2020
6637 Clear 14 1019 47 10000 1.5 240 11:24 11.03.2020
6638 Clear 14 1019 47 10000 1.5 240 10:57 11.03.2020
6639 Clear 14 1019 50 10000 0.5 0 10:39 11.03.2020
6640 Clear 13 1019 54 10000 1 0 10:18 11.03.2020
6641 Clear 12 1019 54 10000 0.5 0 09:42 11.03.2020
6642 Clear 12 1018 57 10000 0.5 0 09:24 11.03.2020
6643 Clear 10 1018 66 10000 1 0 08:45 11.03.2020
6644 Clear 8 1018 81 10000 1 20 08:27 11.03.2020
6645 Clear 7 1018 81 10000 1 20 07:56 11.03.2020
6646 Clear 7 1018 80 10000 1 0 07:37 11.03.2020
6647 Clear 6 1018 86 10000 1 350 07:18 11.03.2020
6648 Clear 6 1017 86 10000 1 0 06:37 11.03.2020
6649 Clear 6 1017 86 10000 0.5 0 05:33 11.03.2020
6650 Clear 7 1017 75 10000 1.5 260 03:39 11.03.2020
6651 Clouds 7 1017 70 10000 0.5 0 01:57 11.03.2020
6652 Clouds 8 1017 65 10000 1 310 01:25 11.03.2020
6653 Clouds 7 1017 61 10000 1 0 00:45 11.03.2020
6654 Clouds 8 1017 61 10000 2.6 290 23:51 10.03.2020
6655 Clouds 8 1017 57 10000 2.1 290 23:29 10.03.2020
6656 Clouds 8 1017 57 10000 2.1 270 22:59 10.03.2020
6657 Clouds 9 1017 57 10000 2.1 270 22:38 10.03.2020
6658 Clouds 9 1017 57 10000 2.1 260 22:19 10.03.2020
6659 Clouds 9 1017 57 10000 2.1 260 21:56 10.03.2020
6660 Clouds 9 1017 53 10000 3.1 250 21:38 10.03.2020
6661 Clouds 9 1016 48 10000 3.1 360 21:19 10.03.2020
6662 Clouds 10 1016 50 10000 2.1 260 20:44 10.03.2020
6663 Clouds 10 1016 50 10000 2.1 260 20:21 10.03.2020
6664 Clouds 11 1016 46 10000 1.5 250 19:59 10.03.2020
6665 Clouds 11 1016 46 10000 1.5 250 19:41 10.03.2020
6666 Clouds 12 1016 43 10000 2.1 260 19:23 10.03.2020
6667 Clouds 12 1016 35 10000 1.5 250 18:58 10.03.2020
6668 Clouds 13 1016 35 10000 1.5 250 18:40 10.03.2020
6669 Clouds 14 1016 33 10000 2.1 260 18:21 10.03.2020
6670 Clouds 14 1016 39 10000 2.6 270 17:55 10.03.2020
6671 Clouds 15 1016 39 10000 2.6 270 17:37 10.03.2020
6672 Clouds 15 1016 29 10000 3.1 260 17:18 10.03.2020
6673 Clouds 16 1016 29 10000 3.1 290 16:37 10.03.2020
6674 Clouds 16 1016 23 10000 3.1 260 16:18 10.03.2020
6675 Clouds 16 1016 23 10000 3.1 260 16:18 10.03.2020
6676 Clouds 16 1016 31 10000 3.1 260 15:42 10.03.2020
6677 Clouds 16 1016 36 10000 3.1 270 15:20 10.03.2020
6678 Clouds 15 1016 23 10000 3.1 260 14:58 10.03.2020
6679 Clouds 15 1016 23 10000 3.1 260 14:40 10.03.2020
6680 Clouds 15 1017 44 10000 2.6 240 14:19 10.03.2020
6681 Clouds 14 1017 47 10000 2.6 240 13:43 10.03.2020
6682 Clouds 14 1017 47 10000 2.6 240 13:25 10.03.2020
6683 Clouds 14 1018 50 10000 2.1 220 12:55 10.03.2020
6684 Clouds 13 1018 50 10000 2.1 220 12:37 10.03.2020
6685 Clouds 13 1019 58 10000 1.5 230 12:18 10.03.2020
6686 Clouds 13 1019 58 10000 1.5 230 12:18 10.03.2020
6687 Clouds 12 1019 61 10000 1.5 240 11:42 10.03.2020
6688 Clouds 11 1019 66 10000 1 0 11:24 10.03.2020
6689 Clouds 10 1019 70 8000 1 0 10:55 10.03.2020
6690 Clouds 10 1019 70 8000 1 0 10:36 10.03.2020
6691 Clouds 9 1019 75 8000 2.1 270 10:18 10.03.2020
6692 Clouds 8 1019 81 8000 2.6 240 09:44 10.03.2020
6693 Clouds 7 1019 86 8000 2.1 240 09:20 10.03.2020
6694 Clouds 6 1018 86 8000 1.5 240 08:54 10.03.2020
6695 Clouds 6 1018 86 8000 1.5 240 08:35 10.03.2020
6696 Clouds 5 1018 86 8000 1.5 230 07:58 10.03.2020
6697 Clouds 5 1018 86 7000 2.1 250 07:40 10.03.2020
6698 Clouds 5 1018 86 9000 2.6 250 07:19 10.03.2020
6699 Clouds 5 1017 86 8000 2.1 260 06:37 10.03.2020
6700 Clouds 5 1017 86 8000 2.1 240 05:42 10.03.2020
6701 Clear 5 1017 86 10000 2.1 250 04:59 10.03.2020
6702 Clear 5 1017 86 10000 2.1 250 04:29 10.03.2020
6703 Clear 5 1017 81 10000 2